<?xml version="1.0" encoding="UTF-8" standalone="no" ?>
<gpx xmlns="http://www.topografix.com/GPX/1/1" xmlns:xsi="http://www.w3.org/2001/XMLSchema-instance" xsi:schemaLocation="http://www.topografix.com/GPX/1/1 http://www.topografix.com/GPX/1/1/gpx.xsd" version="1.1" creator="VisuGPX - https://www.visugpx.com">
  <metadata>
    <name>Ardiège/Balès/Portillon et retour</name>
  </metadata>
  <trk>
    <name><![CDATA[Balès/Portillon et retour-21619682]]></name>
    <trkseg>
      <trkpt lat="43.06707" lon="0.64314">
        <ele>420</ele>
        <time>2025-06-10T10:30:20Z</time>
      </trkpt>
      <trkpt lat="43.06711" lon="0.64302">
        <ele>419</ele>
        <time>2025-06-10T10:30:28Z</time>
      </trkpt>
      <trkpt lat="43.06718" lon="0.64266">
        <ele>419</ele>
        <time>2025-06-10T10:30:50Z</time>
      </trkpt>
      <trkpt lat="43.06717" lon="0.64253">
        <ele>419</ele>
        <time>2025-06-10T10:30:57Z</time>
      </trkpt>
      <trkpt lat="43.06712" lon="0.64228">
        <ele>419</ele>
        <time>2025-06-10T10:31:12Z</time>
      </trkpt>
      <trkpt lat="43.06704" lon="0.64205">
        <ele>419</ele>
        <time>2025-06-10T10:31:27Z</time>
      </trkpt>
      <trkpt lat="43.06682" lon="0.6418">
        <ele>419</ele>
        <time>2025-06-10T10:31:50Z</time>
      </trkpt>
      <trkpt lat="43.06717" lon="0.64121">
        <ele>418</ele>
        <time>2025-06-10T10:32:35Z</time>
      </trkpt>
      <trkpt lat="43.06708" lon="0.64113">
        <ele>418</ele>
        <time>2025-06-10T10:32:43Z</time>
      </trkpt>
      <trkpt lat="43.06641" lon="0.64087">
        <ele>418</ele>
        <time>2025-06-10T10:33:39Z</time>
      </trkpt>
      <trkpt lat="43.06606" lon="0.64069">
        <ele>419</ele>
        <time>2025-06-10T10:34:09Z</time>
      </trkpt>
      <trkpt lat="43.06574" lon="0.64045">
        <ele>421</ele>
        <time>2025-06-10T10:34:38Z</time>
      </trkpt>
      <trkpt lat="43.06539" lon="0.64">
        <ele>423</ele>
        <time>2025-06-10T10:35:17Z</time>
      </trkpt>
      <trkpt lat="43.06505" lon="0.63954">
        <ele>424</ele>
        <time>2025-06-10T10:35:55Z</time>
      </trkpt>
      <trkpt lat="43.06413" lon="0.63844">
        <ele>426</ele>
        <time>2025-06-10T10:37:33Z</time>
      </trkpt>
      <trkpt lat="43.06271" lon="0.63738">
        <ele>429</ele>
        <time>2025-06-10T10:39:42Z</time>
      </trkpt>
      <trkpt lat="43.06219" lon="0.63713">
        <ele>431</ele>
        <time>2025-06-10T10:40:26Z</time>
      </trkpt>
      <trkpt lat="43.06064" lon="0.63637">
        <ele>435</ele>
        <time>2025-06-10T10:42:38Z</time>
      </trkpt>
      <trkpt lat="43.06021" lon="0.63622">
        <ele>436</ele>
        <time>2025-06-10T10:43:14Z</time>
      </trkpt>
      <trkpt lat="43.05984" lon="0.63621">
        <ele>437</ele>
        <time>2025-06-10T10:43:43Z</time>
      </trkpt>
      <trkpt lat="43.05966" lon="0.63627">
        <ele>437</ele>
        <time>2025-06-10T10:43:58Z</time>
      </trkpt>
      <trkpt lat="43.05903" lon="0.63647">
        <ele>439</ele>
        <time>2025-06-10T10:44:50Z</time>
      </trkpt>
      <trkpt lat="43.05872" lon="0.63639">
        <ele>440</ele>
        <time>2025-06-10T10:45:15Z</time>
      </trkpt>
      <trkpt lat="43.05857" lon="0.63631">
        <ele>440</ele>
        <time>2025-06-10T10:45:28Z</time>
      </trkpt>
      <trkpt lat="43.05843" lon="0.63619">
        <ele>439</ele>
        <time>2025-06-10T10:45:41Z</time>
      </trkpt>
      <trkpt lat="43.05809" lon="0.63562">
        <ele>435</ele>
        <time>2025-06-10T10:46:24Z</time>
      </trkpt>
      <trkpt lat="43.05797" lon="0.63546">
        <ele>435</ele>
        <time>2025-06-10T10:46:38Z</time>
      </trkpt>
      <trkpt lat="43.05779" lon="0.63535">
        <ele>436</ele>
        <time>2025-06-10T10:46:53Z</time>
      </trkpt>
      <trkpt lat="43.05728" lon="0.63544">
        <ele>439</ele>
        <time>2025-06-10T10:47:35Z</time>
      </trkpt>
      <trkpt lat="43.05699" lon="0.63539">
        <ele>439</ele>
        <time>2025-06-10T10:47:58Z</time>
      </trkpt>
      <trkpt lat="43.05377" lon="0.63437">
        <ele>445</ele>
        <time>2025-06-10T10:52:23Z</time>
      </trkpt>
      <trkpt lat="43.0535" lon="0.63412">
        <ele>447</ele>
        <time>2025-06-10T10:52:49Z</time>
      </trkpt>
      <trkpt lat="43.05327" lon="0.63366">
        <ele>448</ele>
        <time>2025-06-10T10:53:21Z</time>
      </trkpt>
      <trkpt lat="43.05313" lon="0.63304">
        <ele>450</ele>
        <time>2025-06-10T10:53:59Z</time>
      </trkpt>
      <trkpt lat="43.05291" lon="0.6325">
        <ele>453</ele>
        <time>2025-06-10T10:54:36Z</time>
      </trkpt>
      <trkpt lat="43.05255" lon="0.63205">
        <ele>454</ele>
        <time>2025-06-10T10:55:15Z</time>
      </trkpt>
      <trkpt lat="43.05223" lon="0.63175">
        <ele>453</ele>
        <time>2025-06-10T10:55:46Z</time>
      </trkpt>
      <trkpt lat="43.05165" lon="0.63143">
        <ele>456</ele>
        <time>2025-06-10T10:56:36Z</time>
      </trkpt>
      <trkpt lat="43.05156" lon="0.6314">
        <ele>456</ele>
        <time>2025-06-10T10:56:43Z</time>
      </trkpt>
      <trkpt lat="43.0513" lon="0.63132">
        <ele>456</ele>
        <time>2025-06-10T10:57:04Z</time>
      </trkpt>
      <trkpt lat="43.05081" lon="0.63122">
        <ele>456</ele>
        <time>2025-06-10T10:57:44Z</time>
      </trkpt>
      <trkpt lat="43.0504" lon="0.63098">
        <ele>453</ele>
        <time>2025-06-10T10:58:20Z</time>
      </trkpt>
      <trkpt lat="43.04997" lon="0.63062">
        <ele>453</ele>
        <time>2025-06-10T10:59:00Z</time>
      </trkpt>
      <trkpt lat="43.04893" lon="0.62977">
        <ele>461</ele>
        <time>2025-06-10T11:00:37Z</time>
      </trkpt>
      <trkpt lat="43.04832" lon="0.62924">
        <ele>462</ele>
        <time>2025-06-10T11:01:35Z</time>
      </trkpt>
      <trkpt lat="43.04772" lon="0.6287">
        <ele>474</ele>
        <time>2025-06-10T11:02:33Z</time>
      </trkpt>
      <trkpt lat="43.04673" lon="0.62779">
        <ele>479</ele>
        <time>2025-06-10T11:04:08Z</time>
      </trkpt>
      <trkpt lat="43.04593" lon="0.62705">
        <ele>482</ele>
        <time>2025-06-10T11:05:25Z</time>
      </trkpt>
      <trkpt lat="43.04529" lon="0.62626">
        <ele>490</ele>
        <time>2025-06-10T11:06:34Z</time>
      </trkpt>
      <trkpt lat="43.04436" lon="0.62518">
        <ele>493</ele>
        <time>2025-06-10T11:08:12Z</time>
      </trkpt>
      <trkpt lat="43.0441" lon="0.62499">
        <ele>487</ele>
        <time>2025-06-10T11:08:36Z</time>
      </trkpt>
      <trkpt lat="43.04298" lon="0.62406">
        <ele>488</ele>
        <time>2025-06-10T11:10:21Z</time>
      </trkpt>
      <trkpt lat="43.04273" lon="0.62376">
        <ele>487</ele>
        <time>2025-06-10T11:10:47Z</time>
      </trkpt>
      <trkpt lat="43.04237" lon="0.6233">
        <ele>485</ele>
        <time>2025-06-10T11:11:27Z</time>
      </trkpt>
      <trkpt lat="43.04202" lon="0.62305">
        <ele>484</ele>
        <time>2025-06-10T11:11:58Z</time>
      </trkpt>
      <trkpt lat="43.04165" lon="0.62294">
        <ele>482</ele>
        <time>2025-06-10T11:12:29Z</time>
      </trkpt>
      <trkpt lat="43.04038" lon="0.62263">
        <ele>486</ele>
        <time>2025-06-10T11:14:12Z</time>
      </trkpt>
      <trkpt lat="43.04016" lon="0.62252">
        <ele>486</ele>
        <time>2025-06-10T11:14:31Z</time>
      </trkpt>
      <trkpt lat="43.03995" lon="0.62239">
        <ele>486</ele>
        <time>2025-06-10T11:14:49Z</time>
      </trkpt>
      <trkpt lat="43.03976" lon="0.62231">
        <ele>487</ele>
        <time>2025-06-10T11:15:05Z</time>
      </trkpt>
      <trkpt lat="43.03951" lon="0.62227">
        <ele>488</ele>
        <time>2025-06-10T11:15:25Z</time>
      </trkpt>
      <trkpt lat="43.03937" lon="0.62225">
        <ele>489</ele>
        <time>2025-06-10T11:15:36Z</time>
      </trkpt>
      <trkpt lat="43.03903" lon="0.62219">
        <ele>488</ele>
        <time>2025-06-10T11:16:04Z</time>
      </trkpt>
      <trkpt lat="43.03872" lon="0.6221">
        <ele>485</ele>
        <time>2025-06-10T11:16:29Z</time>
      </trkpt>
      <trkpt lat="43.03849" lon="0.62201">
        <ele>483</ele>
        <time>2025-06-10T11:16:48Z</time>
      </trkpt>
      <trkpt lat="43.03829" lon="0.62199">
        <ele>481</ele>
        <time>2025-06-10T11:17:04Z</time>
      </trkpt>
      <trkpt lat="43.03772" lon="0.62199">
        <ele>477</ele>
        <time>2025-06-10T11:17:50Z</time>
      </trkpt>
      <trkpt lat="43.03739" lon="0.62204">
        <ele>476</ele>
        <time>2025-06-10T11:18:17Z</time>
      </trkpt>
      <trkpt lat="43.03705" lon="0.62216">
        <ele>481</ele>
        <time>2025-06-10T11:18:45Z</time>
      </trkpt>
      <trkpt lat="43.03691" lon="0.62217">
        <ele>483</ele>
        <time>2025-06-10T11:18:56Z</time>
      </trkpt>
      <trkpt lat="43.03678" lon="0.62213">
        <ele>483</ele>
        <time>2025-06-10T11:19:07Z</time>
      </trkpt>
      <trkpt lat="43.03668" lon="0.62206">
        <ele>483</ele>
        <time>2025-06-10T11:19:16Z</time>
      </trkpt>
      <trkpt lat="43.0366" lon="0.62196">
        <ele>481</ele>
        <time>2025-06-10T11:19:24Z</time>
      </trkpt>
      <trkpt lat="43.03636" lon="0.62155">
        <ele>474</ele>
        <time>2025-06-10T11:19:55Z</time>
      </trkpt>
      <trkpt lat="43.03627" lon="0.62146">
        <ele>474</ele>
        <time>2025-06-10T11:20:04Z</time>
      </trkpt>
      <trkpt lat="43.03616" lon="0.62143">
        <ele>474</ele>
        <time>2025-06-10T11:20:13Z</time>
      </trkpt>
      <trkpt lat="43.03606" lon="0.62145">
        <ele>474</ele>
        <time>2025-06-10T11:20:21Z</time>
      </trkpt>
      <trkpt lat="43.03598" lon="0.62153">
        <ele>476</ele>
        <time>2025-06-10T11:20:29Z</time>
      </trkpt>
      <trkpt lat="43.03581" lon="0.62171">
        <ele>479</ele>
        <time>2025-06-10T11:20:46Z</time>
      </trkpt>
      <trkpt lat="43.03566" lon="0.62179">
        <ele>479</ele>
        <time>2025-06-10T11:20:59Z</time>
      </trkpt>
      <trkpt lat="43.03538" lon="0.6218">
        <ele>478</ele>
        <time>2025-06-10T11:21:21Z</time>
      </trkpt>
      <trkpt lat="43.03523" lon="0.62184">
        <ele>477</ele>
        <time>2025-06-10T11:21:34Z</time>
      </trkpt>
      <trkpt lat="43.03497" lon="0.6221">
        <ele>478</ele>
        <time>2025-06-10T11:22:00Z</time>
      </trkpt>
      <trkpt lat="43.03477" lon="0.62215">
        <ele>478</ele>
        <time>2025-06-10T11:22:16Z</time>
      </trkpt>
      <trkpt lat="43.0334" lon="0.62175">
        <ele>476</ele>
        <time>2025-06-10T11:24:08Z</time>
      </trkpt>
      <trkpt lat="43.03306" lon="0.62164">
        <ele>476</ele>
        <time>2025-06-10T11:24:36Z</time>
      </trkpt>
      <trkpt lat="43.03289" lon="0.62153">
        <ele>476</ele>
        <time>2025-06-10T11:24:51Z</time>
      </trkpt>
      <trkpt lat="43.03286" lon="0.62155">
        <ele>476</ele>
        <time>2025-06-10T11:24:54Z</time>
      </trkpt>
      <trkpt lat="43.03272" lon="0.62163">
        <ele>477</ele>
        <time>2025-06-10T11:25:06Z</time>
      </trkpt>
      <trkpt lat="43.03264" lon="0.62177">
        <ele>477</ele>
        <time>2025-06-10T11:25:16Z</time>
      </trkpt>
      <trkpt lat="43.03261" lon="0.62175">
        <ele>477</ele>
        <time>2025-06-10T11:25:19Z</time>
      </trkpt>
      <trkpt lat="43.03259" lon="0.62175">
        <ele>477</ele>
        <time>2025-06-10T11:25:20Z</time>
      </trkpt>
      <trkpt lat="43.03256" lon="0.62177">
        <ele>478</ele>
        <time>2025-06-10T11:25:23Z</time>
      </trkpt>
      <trkpt lat="43.03251" lon="0.62183">
        <ele>478</ele>
        <time>2025-06-10T11:25:28Z</time>
      </trkpt>
      <trkpt lat="43.03246" lon="0.62187">
        <ele>478</ele>
        <time>2025-06-10T11:25:33Z</time>
      </trkpt>
      <trkpt lat="43.03237" lon="0.62186">
        <ele>477</ele>
        <time>2025-06-10T11:25:40Z</time>
      </trkpt>
      <trkpt lat="43.03225" lon="0.6218">
        <ele>475</ele>
        <time>2025-06-10T11:25:51Z</time>
      </trkpt>
      <trkpt lat="43.03215" lon="0.62175">
        <ele>474</ele>
        <time>2025-06-10T11:25:59Z</time>
      </trkpt>
      <trkpt lat="43.03205" lon="0.62173">
        <ele>473</ele>
        <time>2025-06-10T11:26:07Z</time>
      </trkpt>
      <trkpt lat="43.03159" lon="0.62172">
        <ele>468</ele>
        <time>2025-06-10T11:26:44Z</time>
      </trkpt>
      <trkpt lat="43.03124" lon="0.62046">
        <ele>467</ele>
        <time>2025-06-10T11:28:03Z</time>
      </trkpt>
      <trkpt lat="43.03123" lon="0.62041">
        <ele>467</ele>
        <time>2025-06-10T11:28:06Z</time>
      </trkpt>
      <trkpt lat="43.03111" lon="0.61997">
        <ele>467</ele>
        <time>2025-06-10T11:28:33Z</time>
      </trkpt>
      <trkpt lat="43.03075" lon="0.61862">
        <ele>464</ele>
        <time>2025-06-10T11:29:58Z</time>
      </trkpt>
      <trkpt lat="43.03074" lon="0.61849">
        <ele>464</ele>
        <time>2025-06-10T11:30:05Z</time>
      </trkpt>
      <trkpt lat="43.03084" lon="0.61796">
        <ele>461</ele>
        <time>2025-06-10T11:30:37Z</time>
      </trkpt>
      <trkpt lat="43.03083" lon="0.6178">
        <ele>459</ele>
        <time>2025-06-10T11:30:47Z</time>
      </trkpt>
      <trkpt lat="43.03074" lon="0.61772">
        <ele>458</ele>
        <time>2025-06-10T11:30:55Z</time>
      </trkpt>
      <trkpt lat="43.03035" lon="0.61765">
        <ele>454</ele>
        <time>2025-06-10T11:31:27Z</time>
      </trkpt>
      <trkpt lat="43.03021" lon="0.61767">
        <ele>453</ele>
        <time>2025-06-10T11:31:38Z</time>
      </trkpt>
      <trkpt lat="43.03001" lon="0.61783">
        <ele>454</ele>
        <time>2025-06-10T11:31:57Z</time>
      </trkpt>
      <trkpt lat="43.02987" lon="0.61789">
        <ele>453</ele>
        <time>2025-06-10T11:32:08Z</time>
      </trkpt>
      <trkpt lat="43.02953" lon="0.6179">
        <ele>450</ele>
        <time>2025-06-10T11:32:36Z</time>
      </trkpt>
      <trkpt lat="43.02938" lon="0.61783">
        <ele>448</ele>
        <time>2025-06-10T11:32:48Z</time>
      </trkpt>
      <trkpt lat="43.02929" lon="0.61774">
        <ele>447</ele>
        <time>2025-06-10T11:32:57Z</time>
      </trkpt>
      <trkpt lat="43.02902" lon="0.61706">
        <ele>443</ele>
        <time>2025-06-10T11:33:42Z</time>
      </trkpt>
      <trkpt lat="43.02897" lon="0.6169">
        <ele>442</ele>
        <time>2025-06-10T11:33:53Z</time>
      </trkpt>
      <trkpt lat="43.02864" lon="0.61599">
        <ele>443</ele>
        <time>2025-06-10T11:34:52Z</time>
      </trkpt>
      <trkpt lat="43.02825" lon="0.61457">
        <ele>441</ele>
        <time>2025-06-10T11:36:21Z</time>
      </trkpt>
      <trkpt lat="43.02823" lon="0.61442">
        <ele>441</ele>
        <time>2025-06-10T11:36:30Z</time>
      </trkpt>
      <trkpt lat="43.02838" lon="0.61309">
        <ele>441</ele>
        <time>2025-06-10T11:37:49Z</time>
      </trkpt>
      <trkpt lat="43.02843" lon="0.61262">
        <ele>442</ele>
        <time>2025-06-10T11:38:16Z</time>
      </trkpt>
      <trkpt lat="43.02849" lon="0.61212">
        <ele>442</ele>
        <time>2025-06-10T11:38:46Z</time>
      </trkpt>
      <trkpt lat="43.02848" lon="0.61192">
        <ele>442</ele>
        <time>2025-06-10T11:38:58Z</time>
      </trkpt>
      <trkpt lat="43.02845" lon="0.6117">
        <ele>442</ele>
        <time>2025-06-10T11:39:11Z</time>
      </trkpt>
      <trkpt lat="43.02839" lon="0.6115">
        <ele>442</ele>
        <time>2025-06-10T11:39:23Z</time>
      </trkpt>
      <trkpt lat="43.02826" lon="0.6111">
        <ele>443</ele>
        <time>2025-06-10T11:39:49Z</time>
      </trkpt>
      <trkpt lat="43.0283" lon="0.61106">
        <ele>443</ele>
        <time>2025-06-10T11:39:53Z</time>
      </trkpt>
      <trkpt lat="43.02832" lon="0.611">
        <ele>443</ele>
        <time>2025-06-10T11:39:57Z</time>
      </trkpt>
      <trkpt lat="43.02833" lon="0.61092">
        <ele>443</ele>
        <time>2025-06-10T11:40:02Z</time>
      </trkpt>
      <trkpt lat="43.02831" lon="0.61085">
        <ele>443</ele>
        <time>2025-06-10T11:40:06Z</time>
      </trkpt>
      <trkpt lat="43.02827" lon="0.6108">
        <ele>443</ele>
        <time>2025-06-10T11:40:10Z</time>
      </trkpt>
      <trkpt lat="43.02822" lon="0.61077">
        <ele>443</ele>
        <time>2025-06-10T11:40:15Z</time>
      </trkpt>
      <trkpt lat="43.02816" lon="0.61078">
        <ele>443</ele>
        <time>2025-06-10T11:40:20Z</time>
      </trkpt>
      <trkpt lat="43.02812" lon="0.61064">
        <ele>443</ele>
        <time>2025-06-10T11:40:28Z</time>
      </trkpt>
      <trkpt lat="43.02811" lon="0.61062">
        <ele>443</ele>
        <time>2025-06-10T11:40:30Z</time>
      </trkpt>
      <trkpt lat="43.02793" lon="0.61002">
        <ele>442</ele>
        <time>2025-06-10T11:41:08Z</time>
      </trkpt>
      <trkpt lat="43.02783" lon="0.60976">
        <ele>441</ele>
        <time>2025-06-10T11:41:25Z</time>
      </trkpt>
      <trkpt lat="43.02755" lon="0.60934">
        <ele>441</ele>
        <time>2025-06-10T11:41:58Z</time>
      </trkpt>
      <trkpt lat="43.02725" lon="0.60891">
        <ele>441</ele>
        <time>2025-06-10T11:42:33Z</time>
      </trkpt>
      <trkpt lat="43.02716" lon="0.60878">
        <ele>441</ele>
        <time>2025-06-10T11:42:44Z</time>
      </trkpt>
      <trkpt lat="43.0269" lon="0.6084">
        <ele>442</ele>
        <time>2025-06-10T11:43:14Z</time>
      </trkpt>
      <trkpt lat="43.02689" lon="0.60839">
        <ele>442</ele>
        <time>2025-06-10T11:43:15Z</time>
      </trkpt>
      <trkpt lat="43.02647" lon="0.60778">
        <ele>442</ele>
        <time>2025-06-10T11:44:04Z</time>
      </trkpt>
      <trkpt lat="43.02624" lon="0.60743">
        <ele>442</ele>
        <time>2025-06-10T11:44:32Z</time>
      </trkpt>
      <trkpt lat="43.02622" lon="0.60741">
        <ele>442</ele>
        <time>2025-06-10T11:44:34Z</time>
      </trkpt>
      <trkpt lat="43.02601" lon="0.60711">
        <ele>442</ele>
        <time>2025-06-10T11:44:58Z</time>
      </trkpt>
      <trkpt lat="43.0258" lon="0.6068">
        <ele>443</ele>
        <time>2025-06-10T11:45:23Z</time>
      </trkpt>
      <trkpt lat="43.02533" lon="0.60595">
        <ele>445</ele>
        <time>2025-06-10T11:46:25Z</time>
      </trkpt>
      <trkpt lat="43.02529" lon="0.60587">
        <ele>445</ele>
        <time>2025-06-10T11:46:31Z</time>
      </trkpt>
      <trkpt lat="43.02525" lon="0.60579">
        <ele>445</ele>
        <time>2025-06-10T11:46:36Z</time>
      </trkpt>
      <trkpt lat="43.02512" lon="0.6055">
        <ele>445</ele>
        <time>2025-06-10T11:46:56Z</time>
      </trkpt>
      <trkpt lat="43.02503" lon="0.60534">
        <ele>445</ele>
        <time>2025-06-10T11:47:08Z</time>
      </trkpt>
      <trkpt lat="43.02502" lon="0.60531">
        <ele>445</ele>
        <time>2025-06-10T11:47:10Z</time>
      </trkpt>
      <trkpt lat="43.02497" lon="0.60522">
        <ele>445</ele>
        <time>2025-06-10T11:47:17Z</time>
      </trkpt>
      <trkpt lat="43.02491" lon="0.60511">
        <ele>445</ele>
        <time>2025-06-10T11:47:25Z</time>
      </trkpt>
      <trkpt lat="43.02477" lon="0.60493">
        <ele>445</ele>
        <time>2025-06-10T11:47:40Z</time>
      </trkpt>
      <trkpt lat="43.02463" lon="0.60481">
        <ele>446</ele>
        <time>2025-06-10T11:47:53Z</time>
      </trkpt>
      <trkpt lat="43.02453" lon="0.6047">
        <ele>446</ele>
        <time>2025-06-10T11:48:04Z</time>
      </trkpt>
      <trkpt lat="43.02445" lon="0.60462">
        <ele>446</ele>
        <time>2025-06-10T11:48:11Z</time>
      </trkpt>
      <trkpt lat="43.02433" lon="0.60479">
        <ele>447</ele>
        <time>2025-06-10T11:48:25Z</time>
      </trkpt>
      <trkpt lat="43.0243" lon="0.60483">
        <ele>447</ele>
        <time>2025-06-10T11:48:29Z</time>
      </trkpt>
      <trkpt lat="43.02421" lon="0.60496">
        <ele>447</ele>
        <time>2025-06-10T11:48:39Z</time>
      </trkpt>
      <trkpt lat="43.02419" lon="0.605">
        <ele>447</ele>
        <time>2025-06-10T11:48:42Z</time>
      </trkpt>
      <trkpt lat="43.02413" lon="0.60488">
        <ele>447</ele>
        <time>2025-06-10T11:48:50Z</time>
      </trkpt>
      <trkpt lat="43.02389" lon="0.60417">
        <ele>447</ele>
        <time>2025-06-10T11:49:36Z</time>
      </trkpt>
      <trkpt lat="43.02383" lon="0.60342">
        <ele>447</ele>
        <time>2025-06-10T11:50:20Z</time>
      </trkpt>
      <trkpt lat="43.02377" lon="0.60312">
        <ele>446</ele>
        <time>2025-06-10T11:50:39Z</time>
      </trkpt>
      <trkpt lat="43.02362" lon="0.60277">
        <ele>446</ele>
        <time>2025-06-10T11:51:02Z</time>
      </trkpt>
      <trkpt lat="43.02338" lon="0.60233">
        <ele>446</ele>
        <time>2025-06-10T11:51:35Z</time>
      </trkpt>
      <trkpt lat="43.02309" lon="0.60186">
        <ele>445</ele>
        <time>2025-06-10T11:52:11Z</time>
      </trkpt>
      <trkpt lat="43.02275" lon="0.60137">
        <ele>445</ele>
        <time>2025-06-10T11:52:50Z</time>
      </trkpt>
      <trkpt lat="43.0223" lon="0.60096">
        <ele>448</ele>
        <time>2025-06-10T11:53:33Z</time>
      </trkpt>
      <trkpt lat="43.02206" lon="0.60067">
        <ele>451</ele>
        <time>2025-06-10T11:53:59Z</time>
      </trkpt>
      <trkpt lat="43.02195" lon="0.60037">
        <ele>453</ele>
        <time>2025-06-10T11:54:19Z</time>
      </trkpt>
      <trkpt lat="43.02192" lon="0.60024">
        <ele>454</ele>
        <time>2025-06-10T11:54:27Z</time>
      </trkpt>
      <trkpt lat="43.0219" lon="0.59995">
        <ele>455</ele>
        <time>2025-06-10T11:54:44Z</time>
      </trkpt>
      <trkpt lat="43.02188" lon="0.59954">
        <ele>458</ele>
        <time>2025-06-10T11:55:08Z</time>
      </trkpt>
      <trkpt lat="43.02184" lon="0.59935">
        <ele>460</ele>
        <time>2025-06-10T11:55:19Z</time>
      </trkpt>
      <trkpt lat="43.0218" lon="0.59923">
        <ele>461</ele>
        <time>2025-06-10T11:55:27Z</time>
      </trkpt>
      <trkpt lat="43.02173" lon="0.59912">
        <ele>462</ele>
        <time>2025-06-10T11:55:36Z</time>
      </trkpt>
      <trkpt lat="43.02167" lon="0.59907">
        <ele>462</ele>
        <time>2025-06-10T11:55:41Z</time>
      </trkpt>
      <trkpt lat="43.02108" lon="0.59869">
        <ele>462</ele>
        <time>2025-06-10T11:56:33Z</time>
      </trkpt>
      <trkpt lat="43.02081" lon="0.5985">
        <ele>462</ele>
        <time>2025-06-10T11:56:58Z</time>
      </trkpt>
      <trkpt lat="43.02058" lon="0.5983">
        <ele>462</ele>
        <time>2025-06-10T11:57:20Z</time>
      </trkpt>
      <trkpt lat="43.02044" lon="0.59816">
        <ele>461</ele>
        <time>2025-06-10T11:57:33Z</time>
      </trkpt>
      <trkpt lat="43.02042" lon="0.59811">
        <ele>461</ele>
        <time>2025-06-10T11:57:37Z</time>
      </trkpt>
      <trkpt lat="43.02042" lon="0.59805">
        <ele>461</ele>
        <time>2025-06-10T11:57:40Z</time>
      </trkpt>
      <trkpt lat="43.02044" lon="0.59797">
        <ele>461</ele>
        <time>2025-06-10T11:57:45Z</time>
      </trkpt>
      <trkpt lat="43.02094" lon="0.59713">
        <ele>461</ele>
        <time>2025-06-10T11:58:49Z</time>
      </trkpt>
      <trkpt lat="43.02113" lon="0.5968">
        <ele>461</ele>
        <time>2025-06-10T11:59:13Z</time>
      </trkpt>
      <trkpt lat="43.02133" lon="0.59645">
        <ele>461</ele>
        <time>2025-06-10T11:59:39Z</time>
      </trkpt>
      <trkpt lat="43.02139" lon="0.59627">
        <ele>461</ele>
        <time>2025-06-10T11:59:51Z</time>
      </trkpt>
      <trkpt lat="43.02146" lon="0.59606">
        <ele>461</ele>
        <time>2025-06-10T12:00:04Z</time>
      </trkpt>
      <trkpt lat="43.02175" lon="0.59483">
        <ele>462</ele>
        <time>2025-06-10T12:01:20Z</time>
      </trkpt>
      <trkpt lat="43.02184" lon="0.59449">
        <ele>462</ele>
        <time>2025-06-10T12:01:41Z</time>
      </trkpt>
      <trkpt lat="43.0224" lon="0.59177">
        <ele>462</ele>
        <time>2025-06-10T12:04:27Z</time>
      </trkpt>
      <trkpt lat="43.02244" lon="0.59153">
        <ele>462</ele>
        <time>2025-06-10T12:04:41Z</time>
      </trkpt>
      <trkpt lat="43.02209" lon="0.59126">
        <ele>462</ele>
        <time>2025-06-10T12:05:13Z</time>
      </trkpt>
      <trkpt lat="43.02175" lon="0.59105">
        <ele>461</ele>
        <time>2025-06-10T12:05:43Z</time>
      </trkpt>
      <trkpt lat="43.02133" lon="0.59083">
        <ele>462</ele>
        <time>2025-06-10T12:06:19Z</time>
      </trkpt>
      <trkpt lat="43.02016" lon="0.59024">
        <ele>464</ele>
        <time>2025-06-10T12:07:59Z</time>
      </trkpt>
      <trkpt lat="43.01982" lon="0.59002">
        <ele>465</ele>
        <time>2025-06-10T12:08:29Z</time>
      </trkpt>
      <trkpt lat="43.01971" lon="0.58989">
        <ele>465</ele>
        <time>2025-06-10T12:08:41Z</time>
      </trkpt>
      <trkpt lat="43.01957" lon="0.58968">
        <ele>464</ele>
        <time>2025-06-10T12:08:57Z</time>
      </trkpt>
      <trkpt lat="43.01958" lon="0.58963">
        <ele>464</ele>
        <time>2025-06-10T12:09:00Z</time>
      </trkpt>
      <trkpt lat="43.01957" lon="0.58958">
        <ele>464</ele>
        <time>2025-06-10T12:09:03Z</time>
      </trkpt>
      <trkpt lat="43.01955" lon="0.58954">
        <ele>464</ele>
        <time>2025-06-10T12:09:06Z</time>
      </trkpt>
      <trkpt lat="43.01951" lon="0.58951">
        <ele>464</ele>
        <time>2025-06-10T12:09:10Z</time>
      </trkpt>
      <trkpt lat="43.01947" lon="0.5895">
        <ele>464</ele>
        <time>2025-06-10T12:09:13Z</time>
      </trkpt>
      <trkpt lat="43.01943" lon="0.58951">
        <ele>464</ele>
        <time>2025-06-10T12:09:16Z</time>
      </trkpt>
      <trkpt lat="43.01932" lon="0.5895">
        <ele>464</ele>
        <time>2025-06-10T12:09:25Z</time>
      </trkpt>
      <trkpt lat="43.01917" lon="0.58945">
        <ele>464</ele>
        <time>2025-06-10T12:09:38Z</time>
      </trkpt>
      <trkpt lat="43.0189" lon="0.58934">
        <ele>465</ele>
        <time>2025-06-10T12:10:00Z</time>
      </trkpt>
      <trkpt lat="43.018" lon="0.58898">
        <ele>465</ele>
        <time>2025-06-10T12:11:15Z</time>
      </trkpt>
      <trkpt lat="43.01777" lon="0.58895">
        <ele>465</ele>
        <time>2025-06-10T12:11:34Z</time>
      </trkpt>
      <trkpt lat="43.01732" lon="0.589">
        <ele>466</ele>
        <time>2025-06-10T12:12:10Z</time>
      </trkpt>
      <trkpt lat="43.01707" lon="0.58908">
        <ele>467</ele>
        <time>2025-06-10T12:12:30Z</time>
      </trkpt>
      <trkpt lat="43.01629" lon="0.58939">
        <ele>470</ele>
        <time>2025-06-10T12:13:35Z</time>
      </trkpt>
      <trkpt lat="43.01584" lon="0.58946">
        <ele>471</ele>
        <time>2025-06-10T12:14:12Z</time>
      </trkpt>
      <trkpt lat="43.01579" lon="0.58947">
        <ele>471</ele>
        <time>2025-06-10T12:14:16Z</time>
      </trkpt>
      <trkpt lat="43.01567" lon="0.58944">
        <ele>471</ele>
        <time>2025-06-10T12:14:25Z</time>
      </trkpt>
      <trkpt lat="43.0156" lon="0.58942">
        <ele>471</ele>
        <time>2025-06-10T12:14:31Z</time>
      </trkpt>
      <trkpt lat="43.01543" lon="0.5893">
        <ele>471</ele>
        <time>2025-06-10T12:14:47Z</time>
      </trkpt>
      <trkpt lat="43.01534" lon="0.58918">
        <ele>471</ele>
        <time>2025-06-10T12:14:57Z</time>
      </trkpt>
      <trkpt lat="43.01517" lon="0.58888">
        <ele>471</ele>
        <time>2025-06-10T12:15:19Z</time>
      </trkpt>
      <trkpt lat="43.01498" lon="0.58861">
        <ele>473</ele>
        <time>2025-06-10T12:15:41Z</time>
      </trkpt>
      <trkpt lat="43.01475" lon="0.58826">
        <ele>476</ele>
        <time>2025-06-10T12:16:08Z</time>
      </trkpt>
      <trkpt lat="43.01467" lon="0.58819">
        <ele>477</ele>
        <time>2025-06-10T12:16:16Z</time>
      </trkpt>
      <trkpt lat="43.01419" lon="0.58798">
        <ele>480</ele>
        <time>2025-06-10T12:16:56Z</time>
      </trkpt>
      <trkpt lat="43.014" lon="0.58785">
        <ele>480</ele>
        <time>2025-06-10T12:17:13Z</time>
      </trkpt>
      <trkpt lat="43.0136" lon="0.58743">
        <ele>480</ele>
        <time>2025-06-10T12:17:54Z</time>
      </trkpt>
      <trkpt lat="43.01325" lon="0.58705">
        <ele>480</ele>
        <time>2025-06-10T12:18:29Z</time>
      </trkpt>
      <trkpt lat="43.01304" lon="0.58678">
        <ele>481</ele>
        <time>2025-06-10T12:18:52Z</time>
      </trkpt>
      <trkpt lat="43.01295" lon="0.58664">
        <ele>481</ele>
        <time>2025-06-10T12:19:03Z</time>
      </trkpt>
      <trkpt lat="43.01288" lon="0.58645">
        <ele>482</ele>
        <time>2025-06-10T12:19:16Z</time>
      </trkpt>
      <trkpt lat="43.01264" lon="0.58559">
        <ele>483</ele>
        <time>2025-06-10T12:20:10Z</time>
      </trkpt>
      <trkpt lat="43.01263" lon="0.5855">
        <ele>483</ele>
        <time>2025-06-10T12:20:15Z</time>
      </trkpt>
      <trkpt lat="43.01262" lon="0.58541">
        <ele>483</ele>
        <time>2025-06-10T12:20:20Z</time>
      </trkpt>
      <trkpt lat="43.01267" lon="0.58518">
        <ele>486</ele>
        <time>2025-06-10T12:20:34Z</time>
      </trkpt>
      <trkpt lat="43.01282" lon="0.58484">
        <ele>490</ele>
        <time>2025-06-10T12:20:58Z</time>
      </trkpt>
      <trkpt lat="43.01301" lon="0.58452">
        <ele>494</ele>
        <time>2025-06-10T12:21:22Z</time>
      </trkpt>
      <trkpt lat="43.01303" lon="0.58444">
        <ele>494</ele>
        <time>2025-06-10T12:21:27Z</time>
      </trkpt>
      <trkpt lat="43.01305" lon="0.58435">
        <ele>494</ele>
        <time>2025-06-10T12:21:32Z</time>
      </trkpt>
      <trkpt lat="43.01305" lon="0.58427">
        <ele>494</ele>
        <time>2025-06-10T12:21:37Z</time>
      </trkpt>
      <trkpt lat="43.01302" lon="0.58402">
        <ele>493</ele>
        <time>2025-06-10T12:21:52Z</time>
      </trkpt>
      <trkpt lat="43.01294" lon="0.58381">
        <ele>491</ele>
        <time>2025-06-10T12:22:06Z</time>
      </trkpt>
      <trkpt lat="43.01289" lon="0.5837">
        <ele>490</ele>
        <time>2025-06-10T12:22:13Z</time>
      </trkpt>
      <trkpt lat="43.01183" lon="0.5822">
        <ele>483</ele>
        <time>2025-06-10T12:24:15Z</time>
      </trkpt>
      <trkpt lat="43.01173" lon="0.58198">
        <ele>482</ele>
        <time>2025-06-10T12:24:31Z</time>
      </trkpt>
      <trkpt lat="43.01168" lon="0.58172">
        <ele>481</ele>
        <time>2025-06-10T12:24:46Z</time>
      </trkpt>
      <trkpt lat="43.01145" lon="0.57983">
        <ele>494</ele>
        <time>2025-06-10T12:26:38Z</time>
      </trkpt>
      <trkpt lat="43.01145" lon="0.57959">
        <ele>496</ele>
        <time>2025-06-10T12:26:53Z</time>
      </trkpt>
      <trkpt lat="43.01155" lon="0.57907">
        <ele>501</ele>
        <time>2025-06-10T12:27:24Z</time>
      </trkpt>
      <trkpt lat="43.01156" lon="0.57897">
        <ele>502</ele>
        <time>2025-06-10T12:27:30Z</time>
      </trkpt>
      <trkpt lat="43.01156" lon="0.57886">
        <ele>503</ele>
        <time>2025-06-10T12:27:36Z</time>
      </trkpt>
      <trkpt lat="43.01154" lon="0.57878">
        <ele>504</ele>
        <time>2025-06-10T12:27:41Z</time>
      </trkpt>
      <trkpt lat="43.01149" lon="0.57871">
        <ele>503</ele>
        <time>2025-06-10T12:27:47Z</time>
      </trkpt>
      <trkpt lat="43.01141" lon="0.5786">
        <ele>502</ele>
        <time>2025-06-10T12:27:56Z</time>
      </trkpt>
      <trkpt lat="43.01132" lon="0.57852">
        <ele>500</ele>
        <time>2025-06-10T12:28:05Z</time>
      </trkpt>
      <trkpt lat="43.01112" lon="0.5784">
        <ele>494</ele>
        <time>2025-06-10T12:28:22Z</time>
      </trkpt>
      <trkpt lat="43.01096" lon="0.57826">
        <ele>490</ele>
        <time>2025-06-10T12:28:37Z</time>
      </trkpt>
      <trkpt lat="43.00964" lon="0.5773">
        <ele>487</ele>
        <time>2025-06-10T12:30:37Z</time>
      </trkpt>
      <trkpt lat="43.00939" lon="0.57713">
        <ele>487</ele>
        <time>2025-06-10T12:30:59Z</time>
      </trkpt>
      <trkpt lat="43.00909" lon="0.57699">
        <ele>486</ele>
        <time>2025-06-10T12:31:25Z</time>
      </trkpt>
      <trkpt lat="43.00849" lon="0.57687">
        <ele>485</ele>
        <time>2025-06-10T12:32:13Z</time>
      </trkpt>
      <trkpt lat="43.00816" lon="0.57693">
        <ele>484</ele>
        <time>2025-06-10T12:32:40Z</time>
      </trkpt>
      <trkpt lat="43.00793" lon="0.577">
        <ele>484</ele>
        <time>2025-06-10T12:32:59Z</time>
      </trkpt>
      <trkpt lat="43.00761" lon="0.57712">
        <ele>484</ele>
        <time>2025-06-10T12:33:25Z</time>
      </trkpt>
      <trkpt lat="43.00732" lon="0.57726">
        <ele>484</ele>
        <time>2025-06-10T12:33:50Z</time>
      </trkpt>
      <trkpt lat="43.00685" lon="0.57752">
        <ele>484</ele>
        <time>2025-06-10T12:34:31Z</time>
      </trkpt>
      <trkpt lat="43.00645" lon="0.57766">
        <ele>486</ele>
        <time>2025-06-10T12:35:04Z</time>
      </trkpt>
      <trkpt lat="43.00627" lon="0.5777">
        <ele>487</ele>
        <time>2025-06-10T12:35:18Z</time>
      </trkpt>
      <trkpt lat="43.00611" lon="0.57773">
        <ele>488</ele>
        <time>2025-06-10T12:35:31Z</time>
      </trkpt>
      <trkpt lat="43.00585" lon="0.57774">
        <ele>489</ele>
        <time>2025-06-10T12:35:52Z</time>
      </trkpt>
      <trkpt lat="43.00479" lon="0.57761">
        <ele>488</ele>
        <time>2025-06-10T12:37:17Z</time>
      </trkpt>
      <trkpt lat="43.00453" lon="0.57764">
        <ele>490</ele>
        <time>2025-06-10T12:37:38Z</time>
      </trkpt>
      <trkpt lat="43.00412" lon="0.57773">
        <ele>492</ele>
        <time>2025-06-10T12:38:11Z</time>
      </trkpt>
      <trkpt lat="43.00344" lon="0.57795">
        <ele>494</ele>
        <time>2025-06-10T12:39:07Z</time>
      </trkpt>
      <trkpt lat="43.00271" lon="0.57811">
        <ele>494</ele>
        <time>2025-06-10T12:40:07Z</time>
      </trkpt>
      <trkpt lat="43.00208" lon="0.57827">
        <ele>492</ele>
        <time>2025-06-10T12:40:58Z</time>
      </trkpt>
      <trkpt lat="43.0018" lon="0.57841">
        <ele>491</ele>
        <time>2025-06-10T12:41:22Z</time>
      </trkpt>
      <trkpt lat="43.00119" lon="0.5788">
        <ele>492</ele>
        <time>2025-06-10T12:42:16Z</time>
      </trkpt>
      <trkpt lat="43.00107" lon="0.57884">
        <ele>492</ele>
        <time>2025-06-10T12:42:26Z</time>
      </trkpt>
      <trkpt lat="43.00097" lon="0.57886">
        <ele>492</ele>
        <time>2025-06-10T12:42:34Z</time>
      </trkpt>
      <trkpt lat="43.00083" lon="0.57885">
        <ele>492</ele>
        <time>2025-06-10T12:42:45Z</time>
      </trkpt>
      <trkpt lat="43.00009" lon="0.57859">
        <ele>498</ele>
        <time>2025-06-10T12:43:46Z</time>
      </trkpt>
      <trkpt lat="42.99993" lon="0.57854">
        <ele>498</ele>
        <time>2025-06-10T12:43:59Z</time>
      </trkpt>
      <trkpt lat="42.99982" lon="0.57847">
        <ele>498</ele>
        <time>2025-06-10T12:44:09Z</time>
      </trkpt>
      <trkpt lat="42.99964" lon="0.57831">
        <ele>499</ele>
        <time>2025-06-10T12:44:26Z</time>
      </trkpt>
      <trkpt lat="42.9995" lon="0.57813">
        <ele>503</ele>
        <time>2025-06-10T12:44:42Z</time>
      </trkpt>
      <trkpt lat="42.99936" lon="0.57794">
        <ele>505</ele>
        <time>2025-06-10T12:44:57Z</time>
      </trkpt>
      <trkpt lat="42.99919" lon="0.57775">
        <ele>505</ele>
        <time>2025-06-10T12:45:15Z</time>
      </trkpt>
      <trkpt lat="42.99905" lon="0.57767">
        <ele>505</ele>
        <time>2025-06-10T12:45:27Z</time>
      </trkpt>
      <trkpt lat="42.99873" lon="0.57759">
        <ele>502</ele>
        <time>2025-06-10T12:45:53Z</time>
      </trkpt>
      <trkpt lat="42.9984" lon="0.57736">
        <ele>501</ele>
        <time>2025-06-10T12:46:23Z</time>
      </trkpt>
      <trkpt lat="42.99795" lon="0.57714">
        <ele>501</ele>
        <time>2025-06-10T12:47:01Z</time>
      </trkpt>
      <trkpt lat="42.99766" lon="0.57694">
        <ele>501</ele>
        <time>2025-06-10T12:47:27Z</time>
      </trkpt>
      <trkpt lat="42.99739" lon="0.57678">
        <ele>500</ele>
        <time>2025-06-10T12:47:51Z</time>
      </trkpt>
      <trkpt lat="42.99707" lon="0.57658">
        <ele>498</ele>
        <time>2025-06-10T12:48:19Z</time>
      </trkpt>
      <trkpt lat="42.9966" lon="0.57607">
        <ele>495</ele>
        <time>2025-06-10T12:49:07Z</time>
      </trkpt>
      <trkpt lat="42.99538" lon="0.57468">
        <ele>500</ele>
        <time>2025-06-10T12:51:14Z</time>
      </trkpt>
      <trkpt lat="42.99511" lon="0.57438">
        <ele>500</ele>
        <time>2025-06-10T12:51:42Z</time>
      </trkpt>
      <trkpt lat="42.99503" lon="0.57433">
        <ele>499</ele>
        <time>2025-06-10T12:51:49Z</time>
      </trkpt>
      <trkpt lat="42.99341" lon="0.57339">
        <ele>504</ele>
        <time>2025-06-10T12:54:10Z</time>
      </trkpt>
      <trkpt lat="42.99284" lon="0.57339">
        <ele>502</ele>
        <time>2025-06-10T12:54:55Z</time>
      </trkpt>
      <trkpt lat="42.992" lon="0.57345">
        <ele>502</ele>
        <time>2025-06-10T12:56:03Z</time>
      </trkpt>
      <trkpt lat="42.99178" lon="0.57342">
        <ele>503</ele>
        <time>2025-06-10T12:56:20Z</time>
      </trkpt>
      <trkpt lat="42.99151" lon="0.57337">
        <ele>503</ele>
        <time>2025-06-10T12:56:42Z</time>
      </trkpt>
      <trkpt lat="42.99111" lon="0.5732">
        <ele>503</ele>
        <time>2025-06-10T12:57:16Z</time>
      </trkpt>
      <trkpt lat="42.99075" lon="0.57301">
        <ele>504</ele>
        <time>2025-06-10T12:57:47Z</time>
      </trkpt>
      <trkpt lat="42.99071" lon="0.57299">
        <ele>504</ele>
        <time>2025-06-10T12:57:50Z</time>
      </trkpt>
      <trkpt lat="42.99061" lon="0.57293">
        <ele>504</ele>
        <time>2025-06-10T12:57:59Z</time>
      </trkpt>
      <trkpt lat="42.99051" lon="0.57289">
        <ele>504</ele>
        <time>2025-06-10T12:58:07Z</time>
      </trkpt>
      <trkpt lat="42.99037" lon="0.57286">
        <ele>504</ele>
        <time>2025-06-10T12:58:19Z</time>
      </trkpt>
      <trkpt lat="42.98973" lon="0.57279">
        <ele>506</ele>
        <time>2025-06-10T12:59:10Z</time>
      </trkpt>
      <trkpt lat="42.98955" lon="0.57277">
        <ele>506</ele>
        <time>2025-06-10T12:59:24Z</time>
      </trkpt>
      <trkpt lat="42.98946" lon="0.57276">
        <ele>507</ele>
        <time>2025-06-10T12:59:32Z</time>
      </trkpt>
      <trkpt lat="42.98883" lon="0.57273">
        <ele>511</ele>
        <time>2025-06-10T13:00:22Z</time>
      </trkpt>
      <trkpt lat="42.98877" lon="0.57273">
        <ele>512</ele>
        <time>2025-06-10T13:00:27Z</time>
      </trkpt>
      <trkpt lat="42.98855" lon="0.57276">
        <ele>514</ele>
        <time>2025-06-10T13:00:45Z</time>
      </trkpt>
      <trkpt lat="42.9883" lon="0.57283">
        <ele>515</ele>
        <time>2025-06-10T13:01:05Z</time>
      </trkpt>
      <trkpt lat="42.98783" lon="0.57301">
        <ele>514</ele>
        <time>2025-06-10T13:01:44Z</time>
      </trkpt>
      <trkpt lat="42.98771" lon="0.5731">
        <ele>513</ele>
        <time>2025-06-10T13:01:55Z</time>
      </trkpt>
      <trkpt lat="42.98752" lon="0.57332">
        <ele>510</ele>
        <time>2025-06-10T13:02:15Z</time>
      </trkpt>
      <trkpt lat="42.9871" lon="0.57377">
        <ele>511</ele>
        <time>2025-06-10T13:02:58Z</time>
      </trkpt>
      <trkpt lat="42.98698" lon="0.57388">
        <ele>511</ele>
        <time>2025-06-10T13:03:09Z</time>
      </trkpt>
      <trkpt lat="42.98687" lon="0.57395">
        <ele>511</ele>
        <time>2025-06-10T13:03:19Z</time>
      </trkpt>
      <trkpt lat="42.98666" lon="0.57407">
        <ele>511</ele>
        <time>2025-06-10T13:03:37Z</time>
      </trkpt>
      <trkpt lat="42.98626" lon="0.57424">
        <ele>511</ele>
        <time>2025-06-10T13:04:11Z</time>
      </trkpt>
      <trkpt lat="42.98534" lon="0.57468">
        <ele>512</ele>
        <time>2025-06-10T13:05:29Z</time>
      </trkpt>
      <trkpt lat="42.98467" lon="0.57505">
        <ele>512</ele>
        <time>2025-06-10T13:06:27Z</time>
      </trkpt>
      <trkpt lat="42.9842" lon="0.57528">
        <ele>514</ele>
        <time>2025-06-10T13:07:07Z</time>
      </trkpt>
      <trkpt lat="42.98396" lon="0.57537">
        <ele>515</ele>
        <time>2025-06-10T13:07:27Z</time>
      </trkpt>
      <trkpt lat="42.98337" lon="0.57549">
        <ele>517</ele>
        <time>2025-06-10T13:08:14Z</time>
      </trkpt>
      <trkpt lat="42.98299" lon="0.5756">
        <ele>517</ele>
        <time>2025-06-10T13:08:45Z</time>
      </trkpt>
      <trkpt lat="42.98285" lon="0.57565">
        <ele>517</ele>
        <time>2025-06-10T13:08:57Z</time>
      </trkpt>
      <trkpt lat="42.98275" lon="0.57572">
        <ele>517</ele>
        <time>2025-06-10T13:09:06Z</time>
      </trkpt>
      <trkpt lat="42.98253" lon="0.5759">
        <ele>518</ele>
        <time>2025-06-10T13:09:27Z</time>
      </trkpt>
      <trkpt lat="42.98228" lon="0.57616">
        <ele>520</ele>
        <time>2025-06-10T13:09:52Z</time>
      </trkpt>
      <trkpt lat="42.98214" lon="0.57626">
        <ele>520</ele>
        <time>2025-06-10T13:10:04Z</time>
      </trkpt>
      <trkpt lat="42.98203" lon="0.57629">
        <ele>520</ele>
        <time>2025-06-10T13:10:13Z</time>
      </trkpt>
      <trkpt lat="42.98186" lon="0.57629">
        <ele>521</ele>
        <time>2025-06-10T13:10:27Z</time>
      </trkpt>
      <trkpt lat="42.98131" lon="0.57616">
        <ele>526</ele>
        <time>2025-06-10T13:11:12Z</time>
      </trkpt>
      <trkpt lat="42.98114" lon="0.57615">
        <ele>528</ele>
        <time>2025-06-10T13:11:25Z</time>
      </trkpt>
      <trkpt lat="42.98101" lon="0.57618">
        <ele>528</ele>
        <time>2025-06-10T13:11:36Z</time>
      </trkpt>
      <trkpt lat="42.98096" lon="0.57621">
        <ele>528</ele>
        <time>2025-06-10T13:11:40Z</time>
      </trkpt>
      <trkpt lat="42.98036" lon="0.57659">
        <ele>527</ele>
        <time>2025-06-10T13:12:33Z</time>
      </trkpt>
      <trkpt lat="42.98025" lon="0.57661">
        <ele>528</ele>
        <time>2025-06-10T13:12:42Z</time>
      </trkpt>
      <trkpt lat="42.98015" lon="0.57662">
        <ele>529</ele>
        <time>2025-06-10T13:12:50Z</time>
      </trkpt>
      <trkpt lat="42.98004" lon="0.5766">
        <ele>530</ele>
        <time>2025-06-10T13:12:59Z</time>
      </trkpt>
      <trkpt lat="42.97987" lon="0.57654">
        <ele>532</ele>
        <time>2025-06-10T13:13:13Z</time>
      </trkpt>
      <trkpt lat="42.97941" lon="0.57632">
        <ele>537</ele>
        <time>2025-06-10T13:13:52Z</time>
      </trkpt>
      <trkpt lat="42.97906" lon="0.57622">
        <ele>539</ele>
        <time>2025-06-10T13:14:21Z</time>
      </trkpt>
      <trkpt lat="42.97793" lon="0.57606">
        <ele>535</ele>
        <time>2025-06-10T13:15:52Z</time>
      </trkpt>
      <trkpt lat="42.97774" lon="0.576">
        <ele>534</ele>
        <time>2025-06-10T13:16:07Z</time>
      </trkpt>
      <trkpt lat="42.97733" lon="0.57587">
        <ele>532</ele>
        <time>2025-06-10T13:16:41Z</time>
      </trkpt>
      <trkpt lat="42.97722" lon="0.5758">
        <ele>532</ele>
        <time>2025-06-10T13:16:51Z</time>
      </trkpt>
      <trkpt lat="42.97713" lon="0.57576">
        <ele>533</ele>
        <time>2025-06-10T13:16:58Z</time>
      </trkpt>
      <trkpt lat="42.97706" lon="0.57575">
        <ele>533</ele>
        <time>2025-06-10T13:17:04Z</time>
      </trkpt>
      <trkpt lat="42.97682" lon="0.57578">
        <ele>531</ele>
        <time>2025-06-10T13:17:23Z</time>
      </trkpt>
      <trkpt lat="42.9768" lon="0.57578">
        <ele>531</ele>
        <time>2025-06-10T13:17:25Z</time>
      </trkpt>
      <trkpt lat="42.97662" lon="0.57582">
        <ele>529</ele>
        <time>2025-06-10T13:17:39Z</time>
      </trkpt>
      <trkpt lat="42.97651" lon="0.57588">
        <ele>530</ele>
        <time>2025-06-10T13:17:49Z</time>
      </trkpt>
      <trkpt lat="42.97643" lon="0.57594">
        <ele>530</ele>
        <time>2025-06-10T13:17:56Z</time>
      </trkpt>
      <trkpt lat="42.97629" lon="0.57609">
        <ele>531</ele>
        <time>2025-06-10T13:18:10Z</time>
      </trkpt>
      <trkpt lat="42.97616" lon="0.57627">
        <ele>531</ele>
        <time>2025-06-10T13:18:25Z</time>
      </trkpt>
      <trkpt lat="42.97533" lon="0.5774">
        <ele>534</ele>
        <time>2025-06-10T13:19:59Z</time>
      </trkpt>
      <trkpt lat="42.97499" lon="0.57788">
        <ele>532</ele>
        <time>2025-06-10T13:20:38Z</time>
      </trkpt>
      <trkpt lat="42.97444" lon="0.57866">
        <ele>532</ele>
        <time>2025-06-10T13:21:42Z</time>
      </trkpt>
      <trkpt lat="42.9744" lon="0.57868">
        <ele>532</ele>
        <time>2025-06-10T13:21:45Z</time>
      </trkpt>
      <trkpt lat="42.97432" lon="0.5787">
        <ele>531</ele>
        <time>2025-06-10T13:21:52Z</time>
      </trkpt>
      <trkpt lat="42.97422" lon="0.57869">
        <ele>531</ele>
        <time>2025-06-10T13:22:00Z</time>
      </trkpt>
      <trkpt lat="42.97351" lon="0.57856">
        <ele>535</ele>
        <time>2025-06-10T13:22:57Z</time>
      </trkpt>
      <trkpt lat="42.97311" lon="0.57844">
        <ele>539</ele>
        <time>2025-06-10T13:23:30Z</time>
      </trkpt>
      <trkpt lat="42.97271" lon="0.57819">
        <ele>545</ele>
        <time>2025-06-10T13:24:05Z</time>
      </trkpt>
      <trkpt lat="42.97229" lon="0.57784">
        <ele>546</ele>
        <time>2025-06-10T13:24:44Z</time>
      </trkpt>
      <trkpt lat="42.97208" lon="0.57769">
        <ele>545</ele>
        <time>2025-06-10T13:25:03Z</time>
      </trkpt>
      <trkpt lat="42.97176" lon="0.57754">
        <ele>544</ele>
        <time>2025-06-10T13:25:30Z</time>
      </trkpt>
      <trkpt lat="42.9716" lon="0.57745">
        <ele>545</ele>
        <time>2025-06-10T13:25:44Z</time>
      </trkpt>
      <trkpt lat="42.9715" lon="0.57739">
        <ele>546</ele>
        <time>2025-06-10T13:25:53Z</time>
      </trkpt>
      <trkpt lat="42.971" lon="0.57705">
        <ele>550</ele>
        <time>2025-06-10T13:26:38Z</time>
      </trkpt>
      <trkpt lat="42.97059" lon="0.57673">
        <ele>549</ele>
        <time>2025-06-10T13:27:15Z</time>
      </trkpt>
      <trkpt lat="42.9702" lon="0.57646">
        <ele>551</ele>
        <time>2025-06-10T13:27:50Z</time>
      </trkpt>
      <trkpt lat="42.97005" lon="0.57633">
        <ele>550</ele>
        <time>2025-06-10T13:28:05Z</time>
      </trkpt>
      <trkpt lat="42.96941" lon="0.57556">
        <ele>553</ele>
        <time>2025-06-10T13:29:13Z</time>
      </trkpt>
      <trkpt lat="42.96915" lon="0.57533">
        <ele>552</ele>
        <time>2025-06-10T13:29:38Z</time>
      </trkpt>
      <trkpt lat="42.96899" lon="0.5752">
        <ele>554</ele>
        <time>2025-06-10T13:29:53Z</time>
      </trkpt>
      <trkpt lat="42.96876" lon="0.57494">
        <ele>558</ele>
        <time>2025-06-10T13:30:17Z</time>
      </trkpt>
      <trkpt lat="42.96862" lon="0.57475">
        <ele>560</ele>
        <time>2025-06-10T13:30:32Z</time>
      </trkpt>
      <trkpt lat="42.96825" lon="0.57416">
        <ele>560</ele>
        <time>2025-06-10T13:31:18Z</time>
      </trkpt>
      <trkpt lat="42.96799" lon="0.5738">
        <ele>561</ele>
        <time>2025-06-10T13:31:48Z</time>
      </trkpt>
      <trkpt lat="42.96782" lon="0.57361">
        <ele>561</ele>
        <time>2025-06-10T13:32:05Z</time>
      </trkpt>
      <trkpt lat="42.96767" lon="0.57352">
        <ele>561</ele>
        <time>2025-06-10T13:32:18Z</time>
      </trkpt>
      <trkpt lat="42.96669" lon="0.57323">
        <ele>567</ele>
        <time>2025-06-10T13:33:39Z</time>
      </trkpt>
      <trkpt lat="42.96627" lon="0.57306">
        <ele>569</ele>
        <time>2025-06-10T13:34:14Z</time>
      </trkpt>
      <trkpt lat="42.96614" lon="0.57305">
        <ele>571</ele>
        <time>2025-06-10T13:34:24Z</time>
      </trkpt>
      <trkpt lat="42.96597" lon="0.57308">
        <ele>573</ele>
        <time>2025-06-10T13:34:38Z</time>
      </trkpt>
      <trkpt lat="42.96577" lon="0.57314">
        <ele>575</ele>
        <time>2025-06-10T13:34:54Z</time>
      </trkpt>
      <trkpt lat="42.96543" lon="0.57314">
        <ele>575</ele>
        <time>2025-06-10T13:35:21Z</time>
      </trkpt>
      <trkpt lat="42.96523" lon="0.5731">
        <ele>574</ele>
        <time>2025-06-10T13:35:38Z</time>
      </trkpt>
      <trkpt lat="42.96509" lon="0.57304">
        <ele>574</ele>
        <time>2025-06-10T13:35:49Z</time>
      </trkpt>
      <trkpt lat="42.9649" lon="0.57291">
        <ele>575</ele>
        <time>2025-06-10T13:36:06Z</time>
      </trkpt>
      <trkpt lat="42.9648" lon="0.5728">
        <ele>576</ele>
        <time>2025-06-10T13:36:17Z</time>
      </trkpt>
      <trkpt lat="42.96465" lon="0.57264">
        <ele>577</ele>
        <time>2025-06-10T13:36:32Z</time>
      </trkpt>
      <trkpt lat="42.96434" lon="0.57222">
        <ele>578</ele>
        <time>2025-06-10T13:37:07Z</time>
      </trkpt>
      <trkpt lat="42.96392" lon="0.57157">
        <ele>577</ele>
        <time>2025-06-10T13:37:58Z</time>
      </trkpt>
      <trkpt lat="42.96377" lon="0.5712">
        <ele>574</ele>
        <time>2025-06-10T13:38:22Z</time>
      </trkpt>
      <trkpt lat="42.96367" lon="0.57075">
        <ele>570</ele>
        <time>2025-06-10T13:38:50Z</time>
      </trkpt>
      <trkpt lat="42.96361" lon="0.57059">
        <ele>570</ele>
        <time>2025-06-10T13:39:00Z</time>
      </trkpt>
      <trkpt lat="42.96344" lon="0.57034">
        <ele>569</ele>
        <time>2025-06-10T13:39:20Z</time>
      </trkpt>
      <trkpt lat="42.9633" lon="0.57018">
        <ele>568</ele>
        <time>2025-06-10T13:39:35Z</time>
      </trkpt>
      <trkpt lat="42.96316" lon="0.57007">
        <ele>567</ele>
        <time>2025-06-10T13:39:48Z</time>
      </trkpt>
      <trkpt lat="42.96298" lon="0.56991">
        <ele>567</ele>
        <time>2025-06-10T13:40:05Z</time>
      </trkpt>
      <trkpt lat="42.96268" lon="0.56975">
        <ele>566</ele>
        <time>2025-06-10T13:40:31Z</time>
      </trkpt>
      <trkpt lat="42.96256" lon="0.56969">
        <ele>566</ele>
        <time>2025-06-10T13:40:41Z</time>
      </trkpt>
      <trkpt lat="42.96182" lon="0.56933">
        <ele>565</ele>
        <time>2025-06-10T13:41:44Z</time>
      </trkpt>
      <trkpt lat="42.96103" lon="0.56889">
        <ele>571</ele>
        <time>2025-06-10T13:42:52Z</time>
      </trkpt>
      <trkpt lat="42.96086" lon="0.56881">
        <ele>573</ele>
        <time>2025-06-10T13:43:07Z</time>
      </trkpt>
      <trkpt lat="42.96069" lon="0.56872">
        <ele>573</ele>
        <time>2025-06-10T13:43:21Z</time>
      </trkpt>
      <trkpt lat="42.96059" lon="0.56863">
        <ele>573</ele>
        <time>2025-06-10T13:43:31Z</time>
      </trkpt>
      <trkpt lat="42.9605" lon="0.56852">
        <ele>573</ele>
        <time>2025-06-10T13:43:41Z</time>
      </trkpt>
      <trkpt lat="42.96042" lon="0.56843">
        <ele>573</ele>
        <time>2025-06-10T13:43:49Z</time>
      </trkpt>
      <trkpt lat="42.96033" lon="0.56841">
        <ele>573</ele>
        <time>2025-06-10T13:43:56Z</time>
      </trkpt>
      <trkpt lat="42.96027" lon="0.56842">
        <ele>573</ele>
        <time>2025-06-10T13:44:01Z</time>
      </trkpt>
      <trkpt lat="42.96005" lon="0.5685">
        <ele>575</ele>
        <time>2025-06-10T13:44:19Z</time>
      </trkpt>
      <trkpt lat="42.96001" lon="0.5685">
        <ele>575</ele>
        <time>2025-06-10T13:44:23Z</time>
      </trkpt>
      <trkpt lat="42.95994" lon="0.56848">
        <ele>576</ele>
        <time>2025-06-10T13:44:28Z</time>
      </trkpt>
      <trkpt lat="42.95989" lon="0.56845">
        <ele>577</ele>
        <time>2025-06-10T13:44:33Z</time>
      </trkpt>
      <trkpt lat="42.95983" lon="0.56839">
        <ele>578</ele>
        <time>2025-06-10T13:44:39Z</time>
      </trkpt>
      <trkpt lat="42.95974" lon="0.56825">
        <ele>579</ele>
        <time>2025-06-10T13:44:49Z</time>
      </trkpt>
      <trkpt lat="42.95964" lon="0.56809">
        <ele>580</ele>
        <time>2025-06-10T13:45:02Z</time>
      </trkpt>
      <trkpt lat="42.95943" lon="0.56766">
        <ele>579</ele>
        <time>2025-06-10T13:45:32Z</time>
      </trkpt>
      <trkpt lat="42.95937" lon="0.56753">
        <ele>578</ele>
        <time>2025-06-10T13:45:41Z</time>
      </trkpt>
      <trkpt lat="42.95949" lon="0.56739">
        <ele>578</ele>
        <time>2025-06-10T13:45:54Z</time>
      </trkpt>
      <trkpt lat="42.95952" lon="0.56735">
        <ele>578</ele>
        <time>2025-06-10T13:45:57Z</time>
      </trkpt>
      <trkpt lat="42.95955" lon="0.56733">
        <ele>578</ele>
        <time>2025-06-10T13:46:00Z</time>
      </trkpt>
      <trkpt lat="42.95968" lon="0.56719">
        <ele>578</ele>
        <time>2025-06-10T13:46:13Z</time>
      </trkpt>
      <trkpt lat="42.95982" lon="0.56699">
        <ele>579</ele>
        <time>2025-06-10T13:46:29Z</time>
      </trkpt>
      <trkpt lat="42.96001" lon="0.56659">
        <ele>582</ele>
        <time>2025-06-10T13:46:57Z</time>
      </trkpt>
      <trkpt lat="42.96024" lon="0.5662">
        <ele>585</ele>
        <time>2025-06-10T13:47:27Z</time>
      </trkpt>
      <trkpt lat="42.96029" lon="0.56612">
        <ele>586</ele>
        <time>2025-06-10T13:47:33Z</time>
      </trkpt>
      <trkpt lat="42.96035" lon="0.56607">
        <ele>587</ele>
        <time>2025-06-10T13:47:38Z</time>
      </trkpt>
      <trkpt lat="42.96039" lon="0.56605">
        <ele>587</ele>
        <time>2025-06-10T13:47:42Z</time>
      </trkpt>
      <trkpt lat="42.96069" lon="0.56598">
        <ele>589</ele>
        <time>2025-06-10T13:48:06Z</time>
      </trkpt>
      <trkpt lat="42.96073" lon="0.56595">
        <ele>590</ele>
        <time>2025-06-10T13:48:10Z</time>
      </trkpt>
      <trkpt lat="42.96077" lon="0.5659">
        <ele>592</ele>
        <time>2025-06-10T13:48:14Z</time>
      </trkpt>
      <trkpt lat="42.96079" lon="0.56585">
        <ele>593</ele>
        <time>2025-06-10T13:48:17Z</time>
      </trkpt>
      <trkpt lat="42.9608" lon="0.56579">
        <ele>595</ele>
        <time>2025-06-10T13:48:21Z</time>
      </trkpt>
      <trkpt lat="42.96079" lon="0.56571">
        <ele>598</ele>
        <time>2025-06-10T13:48:26Z</time>
      </trkpt>
      <trkpt lat="42.96077" lon="0.56565">
        <ele>600</ele>
        <time>2025-06-10T13:48:30Z</time>
      </trkpt>
      <trkpt lat="42.96074" lon="0.56559">
        <ele>601</ele>
        <time>2025-06-10T13:48:34Z</time>
      </trkpt>
      <trkpt lat="42.96068" lon="0.56555">
        <ele>602</ele>
        <time>2025-06-10T13:48:39Z</time>
      </trkpt>
      <trkpt lat="42.96057" lon="0.56553">
        <ele>601</ele>
        <time>2025-06-10T13:48:48Z</time>
      </trkpt>
      <trkpt lat="42.96044" lon="0.56553">
        <ele>599</ele>
        <time>2025-06-10T13:48:59Z</time>
      </trkpt>
      <trkpt lat="42.96027" lon="0.56549">
        <ele>598</ele>
        <time>2025-06-10T13:49:12Z</time>
      </trkpt>
      <trkpt lat="42.95999" lon="0.56537">
        <ele>596</ele>
        <time>2025-06-10T13:49:36Z</time>
      </trkpt>
      <trkpt lat="42.95988" lon="0.56531">
        <ele>595</ele>
        <time>2025-06-10T13:49:45Z</time>
      </trkpt>
      <trkpt lat="42.95971" lon="0.56519">
        <ele>595</ele>
        <time>2025-06-10T13:50:01Z</time>
      </trkpt>
      <trkpt lat="42.95959" lon="0.56508">
        <ele>594</ele>
        <time>2025-06-10T13:50:12Z</time>
      </trkpt>
      <trkpt lat="42.95948" lon="0.56495">
        <ele>595</ele>
        <time>2025-06-10T13:50:24Z</time>
      </trkpt>
      <trkpt lat="42.95928" lon="0.56462">
        <ele>599</ele>
        <time>2025-06-10T13:50:49Z</time>
      </trkpt>
      <trkpt lat="42.95902" lon="0.56413">
        <ele>603</ele>
        <time>2025-06-10T13:51:24Z</time>
      </trkpt>
      <trkpt lat="42.95868" lon="0.56349">
        <ele>606</ele>
        <time>2025-06-10T13:52:11Z</time>
      </trkpt>
      <trkpt lat="42.95865" lon="0.56335">
        <ele>607</ele>
        <time>2025-06-10T13:52:19Z</time>
      </trkpt>
      <trkpt lat="42.95865" lon="0.56321">
        <ele>609</ele>
        <time>2025-06-10T13:52:28Z</time>
      </trkpt>
      <trkpt lat="42.95867" lon="0.56309">
        <ele>611</ele>
        <time>2025-06-10T13:52:35Z</time>
      </trkpt>
      <trkpt lat="42.95879" lon="0.5626">
        <ele>621</ele>
        <time>2025-06-10T13:53:05Z</time>
      </trkpt>
      <trkpt lat="42.9588" lon="0.56247">
        <ele>623</ele>
        <time>2025-06-10T13:53:13Z</time>
      </trkpt>
      <trkpt lat="42.9588" lon="0.56233">
        <ele>625</ele>
        <time>2025-06-10T13:53:21Z</time>
      </trkpt>
      <trkpt lat="42.95876" lon="0.5622">
        <ele>626</ele>
        <time>2025-06-10T13:53:29Z</time>
      </trkpt>
      <trkpt lat="42.95858" lon="0.56175">
        <ele>625</ele>
        <time>2025-06-10T13:53:59Z</time>
      </trkpt>
      <trkpt lat="42.95855" lon="0.56158">
        <ele>627</ele>
        <time>2025-06-10T13:54:09Z</time>
      </trkpt>
      <trkpt lat="42.95847" lon="0.56101">
        <ele>634</ele>
        <time>2025-06-10T13:54:43Z</time>
      </trkpt>
      <trkpt lat="42.95841" lon="0.56082">
        <ele>635</ele>
        <time>2025-06-10T13:54:56Z</time>
      </trkpt>
      <trkpt lat="42.95833" lon="0.56066">
        <ele>636</ele>
        <time>2025-06-10T13:55:07Z</time>
      </trkpt>
      <trkpt lat="42.95824" lon="0.56051">
        <ele>638</ele>
        <time>2025-06-10T13:55:18Z</time>
      </trkpt>
      <trkpt lat="42.95816" lon="0.56039">
        <ele>639</ele>
        <time>2025-06-10T13:55:28Z</time>
      </trkpt>
      <trkpt lat="42.95783" lon="0.56011">
        <ele>636</ele>
        <time>2025-06-10T13:55:59Z</time>
      </trkpt>
      <trkpt lat="42.95774" lon="0.56002">
        <ele>635</ele>
        <time>2025-06-10T13:56:08Z</time>
      </trkpt>
      <trkpt lat="42.95768" lon="0.55994">
        <ele>635</ele>
        <time>2025-06-10T13:56:15Z</time>
      </trkpt>
      <trkpt lat="42.95759" lon="0.55977">
        <ele>636</ele>
        <time>2025-06-10T13:56:27Z</time>
      </trkpt>
      <trkpt lat="42.95721" lon="0.55868">
        <ele>658</ele>
        <time>2025-06-10T13:57:38Z</time>
      </trkpt>
      <trkpt lat="42.95713" lon="0.55856">
        <ele>660</ele>
        <time>2025-06-10T13:57:47Z</time>
      </trkpt>
      <trkpt lat="42.95698" lon="0.55849">
        <ele>659</ele>
        <time>2025-06-10T13:58:00Z</time>
      </trkpt>
      <trkpt lat="42.95683" lon="0.55847">
        <ele>657</ele>
        <time>2025-06-10T13:58:12Z</time>
      </trkpt>
      <trkpt lat="42.95674" lon="0.55852">
        <ele>655</ele>
        <time>2025-06-10T13:58:20Z</time>
      </trkpt>
      <trkpt lat="42.95661" lon="0.55858">
        <ele>655</ele>
        <time>2025-06-10T13:58:31Z</time>
      </trkpt>
      <trkpt lat="42.95655" lon="0.55858">
        <ele>658</ele>
        <time>2025-06-10T13:58:35Z</time>
      </trkpt>
      <trkpt lat="42.9565" lon="0.55855">
        <ele>661</ele>
        <time>2025-06-10T13:58:40Z</time>
      </trkpt>
      <trkpt lat="42.95646" lon="0.5585">
        <ele>664</ele>
        <time>2025-06-10T13:58:44Z</time>
      </trkpt>
      <trkpt lat="42.95641" lon="0.55837">
        <ele>667</ele>
        <time>2025-06-10T13:58:53Z</time>
      </trkpt>
      <trkpt lat="42.95635" lon="0.5581">
        <ele>669</ele>
        <time>2025-06-10T13:59:09Z</time>
      </trkpt>
      <trkpt lat="42.95632" lon="0.55794">
        <ele>670</ele>
        <time>2025-06-10T13:59:19Z</time>
      </trkpt>
      <trkpt lat="42.95633" lon="0.55784">
        <ele>669</ele>
        <time>2025-06-10T13:59:25Z</time>
      </trkpt>
      <trkpt lat="42.95636" lon="0.55776">
        <ele>669</ele>
        <time>2025-06-10T13:59:30Z</time>
      </trkpt>
      <trkpt lat="42.9565" lon="0.55752">
        <ele>667</ele>
        <time>2025-06-10T13:59:48Z</time>
      </trkpt>
      <trkpt lat="42.95654" lon="0.5574">
        <ele>667</ele>
        <time>2025-06-10T13:59:56Z</time>
      </trkpt>
      <trkpt lat="42.95658" lon="0.55678">
        <ele>670</ele>
        <time>2025-06-10T14:00:32Z</time>
      </trkpt>
      <trkpt lat="42.95658" lon="0.55665">
        <ele>671</ele>
        <time>2025-06-10T14:00:40Z</time>
      </trkpt>
      <trkpt lat="42.95657" lon="0.55653">
        <ele>671</ele>
        <time>2025-06-10T14:00:47Z</time>
      </trkpt>
      <trkpt lat="42.95651" lon="0.55634">
        <ele>671</ele>
        <time>2025-06-10T14:00:59Z</time>
      </trkpt>
      <trkpt lat="42.95624" lon="0.55583">
        <ele>670</ele>
        <time>2025-06-10T14:01:36Z</time>
      </trkpt>
      <trkpt lat="42.95617" lon="0.55564">
        <ele>670</ele>
        <time>2025-06-10T14:01:49Z</time>
      </trkpt>
      <trkpt lat="42.95605" lon="0.55515">
        <ele>670</ele>
        <time>2025-06-10T14:02:19Z</time>
      </trkpt>
      <trkpt lat="42.95601" lon="0.55494">
        <ele>670</ele>
        <time>2025-06-10T14:02:32Z</time>
      </trkpt>
      <trkpt lat="42.956" lon="0.55484">
        <ele>670</ele>
        <time>2025-06-10T14:02:37Z</time>
      </trkpt>
      <trkpt lat="42.95601" lon="0.55474">
        <ele>670</ele>
        <time>2025-06-10T14:02:43Z</time>
      </trkpt>
      <trkpt lat="42.95609" lon="0.5542">
        <ele>673</ele>
        <time>2025-06-10T14:03:16Z</time>
      </trkpt>
      <trkpt lat="42.95607" lon="0.55406">
        <ele>673</ele>
        <time>2025-06-10T14:03:24Z</time>
      </trkpt>
      <trkpt lat="42.95604" lon="0.5539">
        <ele>673</ele>
        <time>2025-06-10T14:03:34Z</time>
      </trkpt>
      <trkpt lat="42.956" lon="0.55375">
        <ele>672</ele>
        <time>2025-06-10T14:03:43Z</time>
      </trkpt>
      <trkpt lat="42.95591" lon="0.55363">
        <ele>670</ele>
        <time>2025-06-10T14:03:53Z</time>
      </trkpt>
      <trkpt lat="42.95552" lon="0.55317">
        <ele>671</ele>
        <time>2025-06-10T14:04:34Z</time>
      </trkpt>
      <trkpt lat="42.95531" lon="0.55291">
        <ele>671</ele>
        <time>2025-06-10T14:04:57Z</time>
      </trkpt>
      <trkpt lat="42.95525" lon="0.55281">
        <ele>671</ele>
        <time>2025-06-10T14:05:05Z</time>
      </trkpt>
      <trkpt lat="42.95508" lon="0.55248">
        <ele>668</ele>
        <time>2025-06-10T14:05:28Z</time>
      </trkpt>
      <trkpt lat="42.95504" lon="0.5524">
        <ele>668</ele>
        <time>2025-06-10T14:05:34Z</time>
      </trkpt>
      <trkpt lat="42.95483" lon="0.55188">
        <ele>670</ele>
        <time>2025-06-10T14:06:09Z</time>
      </trkpt>
      <trkpt lat="42.95476" lon="0.55164">
        <ele>671</ele>
        <time>2025-06-10T14:06:24Z</time>
      </trkpt>
      <trkpt lat="42.95474" lon="0.55143">
        <ele>671</ele>
        <time>2025-06-10T14:06:36Z</time>
      </trkpt>
      <trkpt lat="42.95475" lon="0.55122">
        <ele>671</ele>
        <time>2025-06-10T14:06:49Z</time>
      </trkpt>
      <trkpt lat="42.95479" lon="0.55101">
        <ele>670</ele>
        <time>2025-06-10T14:07:01Z</time>
      </trkpt>
      <trkpt lat="42.95487" lon="0.55078">
        <ele>669</ele>
        <time>2025-06-10T14:07:16Z</time>
      </trkpt>
      <trkpt lat="42.95494" lon="0.55062">
        <ele>669</ele>
        <time>2025-06-10T14:07:27Z</time>
      </trkpt>
      <trkpt lat="42.95506" lon="0.55038">
        <ele>670</ele>
        <time>2025-06-10T14:07:44Z</time>
      </trkpt>
      <trkpt lat="42.95529" lon="0.55006">
        <ele>674</ele>
        <time>2025-06-10T14:08:11Z</time>
      </trkpt>
      <trkpt lat="42.95534" lon="0.54999">
        <ele>675</ele>
        <time>2025-06-10T14:08:16Z</time>
      </trkpt>
      <trkpt lat="42.95542" lon="0.54984">
        <ele>677</ele>
        <time>2025-06-10T14:08:27Z</time>
      </trkpt>
      <trkpt lat="42.95546" lon="0.54969">
        <ele>679</ele>
        <time>2025-06-10T14:08:36Z</time>
      </trkpt>
      <trkpt lat="42.95546" lon="0.54959">
        <ele>679</ele>
        <time>2025-06-10T14:08:42Z</time>
      </trkpt>
      <trkpt lat="42.95544" lon="0.54911">
        <ele>681</ele>
        <time>2025-06-10T14:09:11Z</time>
      </trkpt>
      <trkpt lat="42.95545" lon="0.54887">
        <ele>682</ele>
        <time>2025-06-10T14:09:25Z</time>
      </trkpt>
      <trkpt lat="42.95552" lon="0.54824">
        <ele>685</ele>
        <time>2025-06-10T14:10:02Z</time>
      </trkpt>
      <trkpt lat="42.95563" lon="0.54711">
        <ele>684</ele>
        <time>2025-06-10T14:11:09Z</time>
      </trkpt>
      <trkpt lat="42.9557" lon="0.54665">
        <ele>682</ele>
        <time>2025-06-10T14:11:36Z</time>
      </trkpt>
      <trkpt lat="42.95571" lon="0.54654">
        <ele>681</ele>
        <time>2025-06-10T14:11:43Z</time>
      </trkpt>
      <trkpt lat="42.95566" lon="0.5461">
        <ele>680</ele>
        <time>2025-06-10T14:12:09Z</time>
      </trkpt>
      <trkpt lat="42.95568" lon="0.5457">
        <ele>681</ele>
        <time>2025-06-10T14:12:32Z</time>
      </trkpt>
      <trkpt lat="42.95572" lon="0.54509">
        <ele>688</ele>
        <time>2025-06-10T14:13:08Z</time>
      </trkpt>
      <trkpt lat="42.95574" lon="0.54487">
        <ele>690</ele>
        <time>2025-06-10T14:13:21Z</time>
      </trkpt>
      <trkpt lat="42.95587" lon="0.54428">
        <ele>692</ele>
        <time>2025-06-10T14:13:57Z</time>
      </trkpt>
      <trkpt lat="42.95592" lon="0.54403">
        <ele>693</ele>
        <time>2025-06-10T14:14:13Z</time>
      </trkpt>
      <trkpt lat="42.95593" lon="0.5439">
        <ele>692</ele>
        <time>2025-06-10T14:14:20Z</time>
      </trkpt>
      <trkpt lat="42.95592" lon="0.54373">
        <ele>690</ele>
        <time>2025-06-10T14:14:30Z</time>
      </trkpt>
      <trkpt lat="42.95589" lon="0.54356">
        <ele>688</ele>
        <time>2025-06-10T14:14:40Z</time>
      </trkpt>
      <trkpt lat="42.95582" lon="0.54339">
        <ele>683</ele>
        <time>2025-06-10T14:14:52Z</time>
      </trkpt>
      <trkpt lat="42.95574" lon="0.54324">
        <ele>683</ele>
        <time>2025-06-10T14:15:03Z</time>
      </trkpt>
      <trkpt lat="42.95556" lon="0.543">
        <ele>683</ele>
        <time>2025-06-10T14:15:23Z</time>
      </trkpt>
      <trkpt lat="42.95546" lon="0.54283">
        <ele>683</ele>
        <time>2025-06-10T14:15:36Z</time>
      </trkpt>
      <trkpt lat="42.95534" lon="0.54262">
        <ele>683</ele>
        <time>2025-06-10T14:15:51Z</time>
      </trkpt>
      <trkpt lat="42.95524" lon="0.54237">
        <ele>684</ele>
        <time>2025-06-10T14:16:08Z</time>
      </trkpt>
      <trkpt lat="42.95518" lon="0.54218">
        <ele>684</ele>
        <time>2025-06-10T14:16:20Z</time>
      </trkpt>
      <trkpt lat="42.9551" lon="0.54179">
        <ele>683</ele>
        <time>2025-06-10T14:16:44Z</time>
      </trkpt>
      <trkpt lat="42.95499" lon="0.54139">
        <ele>680</ele>
        <time>2025-06-10T14:17:09Z</time>
      </trkpt>
      <trkpt lat="42.95459" lon="0.53999">
        <ele>688</ele>
        <time>2025-06-10T14:18:37Z</time>
      </trkpt>
      <trkpt lat="42.95443" lon="0.53948">
        <ele>693</ele>
        <time>2025-06-10T14:19:09Z</time>
      </trkpt>
      <trkpt lat="42.9542" lon="0.53893">
        <ele>688</ele>
        <time>2025-06-10T14:19:47Z</time>
      </trkpt>
      <trkpt lat="42.95399" lon="0.53853">
        <ele>691</ele>
        <time>2025-06-10T14:20:15Z</time>
      </trkpt>
      <trkpt lat="42.9539" lon="0.53836">
        <ele>692</ele>
        <time>2025-06-10T14:20:28Z</time>
      </trkpt>
      <trkpt lat="42.9537" lon="0.53788">
        <ele>696</ele>
        <time>2025-06-10T14:21:00Z</time>
      </trkpt>
      <trkpt lat="42.95357" lon="0.53767">
        <ele>695</ele>
        <time>2025-06-10T14:21:16Z</time>
      </trkpt>
      <trkpt lat="42.95347" lon="0.53754">
        <ele>693</ele>
        <time>2025-06-10T14:21:27Z</time>
      </trkpt>
      <trkpt lat="42.95332" lon="0.53738">
        <ele>691</ele>
        <time>2025-06-10T14:21:42Z</time>
      </trkpt>
      <trkpt lat="42.95311" lon="0.53713">
        <ele>691</ele>
        <time>2025-06-10T14:22:05Z</time>
      </trkpt>
      <trkpt lat="42.95304" lon="0.53705">
        <ele>690</ele>
        <time>2025-06-10T14:22:12Z</time>
      </trkpt>
      <trkpt lat="42.95286" lon="0.5369">
        <ele>690</ele>
        <time>2025-06-10T14:22:29Z</time>
      </trkpt>
      <trkpt lat="42.95269" lon="0.53667">
        <ele>689</ele>
        <time>2025-06-10T14:22:48Z</time>
      </trkpt>
      <trkpt lat="42.95266" lon="0.5366">
        <ele>689</ele>
        <time>2025-06-10T14:22:53Z</time>
      </trkpt>
      <trkpt lat="42.95265" lon="0.5365">
        <ele>689</ele>
        <time>2025-06-10T14:22:59Z</time>
      </trkpt>
      <trkpt lat="42.95265" lon="0.53643">
        <ele>690</ele>
        <time>2025-06-10T14:23:03Z</time>
      </trkpt>
      <trkpt lat="42.95272" lon="0.53597">
        <ele>692</ele>
        <time>2025-06-10T14:23:30Z</time>
      </trkpt>
      <trkpt lat="42.95273" lon="0.53579">
        <ele>693</ele>
        <time>2025-06-10T14:23:41Z</time>
      </trkpt>
      <trkpt lat="42.95271" lon="0.53554">
        <ele>695</ele>
        <time>2025-06-10T14:23:56Z</time>
      </trkpt>
      <trkpt lat="42.9527" lon="0.53542">
        <ele>695</ele>
        <time>2025-06-10T14:24:03Z</time>
      </trkpt>
      <trkpt lat="42.95267" lon="0.53528">
        <ele>695</ele>
        <time>2025-06-10T14:24:11Z</time>
      </trkpt>
      <trkpt lat="42.95256" lon="0.53495">
        <ele>696</ele>
        <time>2025-06-10T14:24:33Z</time>
      </trkpt>
      <trkpt lat="42.95251" lon="0.5348">
        <ele>699</ele>
        <time>2025-06-10T14:24:42Z</time>
      </trkpt>
      <trkpt lat="42.95244" lon="0.53469">
        <ele>701</ele>
        <time>2025-06-10T14:24:51Z</time>
      </trkpt>
      <trkpt lat="42.95237" lon="0.53459">
        <ele>703</ele>
        <time>2025-06-10T14:24:59Z</time>
      </trkpt>
      <trkpt lat="42.95228" lon="0.53449">
        <ele>705</ele>
        <time>2025-06-10T14:25:08Z</time>
      </trkpt>
      <trkpt lat="42.95212" lon="0.53434">
        <ele>706</ele>
        <time>2025-06-10T14:25:24Z</time>
      </trkpt>
      <trkpt lat="42.95194" lon="0.53424">
        <ele>705</ele>
        <time>2025-06-10T14:25:39Z</time>
      </trkpt>
      <trkpt lat="42.95163" lon="0.53403">
        <ele>704</ele>
        <time>2025-06-10T14:26:07Z</time>
      </trkpt>
      <trkpt lat="42.95154" lon="0.53393">
        <ele>705</ele>
        <time>2025-06-10T14:26:16Z</time>
      </trkpt>
      <trkpt lat="42.95135" lon="0.53361">
        <ele>708</ele>
        <time>2025-06-10T14:26:40Z</time>
      </trkpt>
      <trkpt lat="42.95127" lon="0.53345">
        <ele>709</ele>
        <time>2025-06-10T14:26:52Z</time>
      </trkpt>
      <trkpt lat="42.95121" lon="0.53329">
        <ele>709</ele>
        <time>2025-06-10T14:27:02Z</time>
      </trkpt>
      <trkpt lat="42.95116" lon="0.5331">
        <ele>710</ele>
        <time>2025-06-10T14:27:14Z</time>
      </trkpt>
      <trkpt lat="42.95107" lon="0.53257">
        <ele>713</ele>
        <time>2025-06-10T14:27:46Z</time>
      </trkpt>
      <trkpt lat="42.95105" lon="0.53229">
        <ele>713</ele>
        <time>2025-06-10T14:28:03Z</time>
      </trkpt>
      <trkpt lat="42.95104" lon="0.53139">
        <ele>711</ele>
        <time>2025-06-10T14:28:55Z</time>
      </trkpt>
      <trkpt lat="42.95103" lon="0.53124">
        <ele>711</ele>
        <time>2025-06-10T14:29:04Z</time>
      </trkpt>
      <trkpt lat="42.95101" lon="0.53116">
        <ele>710</ele>
        <time>2025-06-10T14:29:09Z</time>
      </trkpt>
      <trkpt lat="42.951" lon="0.53112">
        <ele>710</ele>
        <time>2025-06-10T14:29:12Z</time>
      </trkpt>
      <trkpt lat="42.95086" lon="0.53091">
        <ele>708</ele>
        <time>2025-06-10T14:29:28Z</time>
      </trkpt>
      <trkpt lat="42.95083" lon="0.53083">
        <ele>708</ele>
        <time>2025-06-10T14:29:33Z</time>
      </trkpt>
      <trkpt lat="42.9508" lon="0.5307">
        <ele>710</ele>
        <time>2025-06-10T14:29:41Z</time>
      </trkpt>
      <trkpt lat="42.95079" lon="0.53054">
        <ele>710</ele>
        <time>2025-06-10T14:29:51Z</time>
      </trkpt>
      <trkpt lat="42.95078" lon="0.53013">
        <ele>710</ele>
        <time>2025-06-10T14:30:15Z</time>
      </trkpt>
      <trkpt lat="42.95075" lon="0.52975">
        <ele>712</ele>
        <time>2025-06-10T14:30:37Z</time>
      </trkpt>
      <trkpt lat="42.95073" lon="0.52961">
        <ele>714</ele>
        <time>2025-06-10T14:30:46Z</time>
      </trkpt>
      <trkpt lat="42.95069" lon="0.52947">
        <ele>715</ele>
        <time>2025-06-10T14:30:54Z</time>
      </trkpt>
      <trkpt lat="42.95062" lon="0.52934">
        <ele>718</ele>
        <time>2025-06-10T14:31:04Z</time>
      </trkpt>
      <trkpt lat="42.95056" lon="0.52925">
        <ele>719</ele>
        <time>2025-06-10T14:31:11Z</time>
      </trkpt>
      <trkpt lat="42.95048" lon="0.52916">
        <ele>721</ele>
        <time>2025-06-10T14:31:19Z</time>
      </trkpt>
      <trkpt lat="42.95037" lon="0.52906">
        <ele>724</ele>
        <time>2025-06-10T14:31:30Z</time>
      </trkpt>
      <trkpt lat="42.95" lon="0.52877">
        <ele>726</ele>
        <time>2025-06-10T14:32:04Z</time>
      </trkpt>
      <trkpt lat="42.94992" lon="0.52868">
        <ele>728</ele>
        <time>2025-06-10T14:32:12Z</time>
      </trkpt>
      <trkpt lat="42.94988" lon="0.52861">
        <ele>728</ele>
        <time>2025-06-10T14:32:18Z</time>
      </trkpt>
      <trkpt lat="42.94957" lon="0.5279">
        <ele>729</ele>
        <time>2025-06-10T14:33:06Z</time>
      </trkpt>
      <trkpt lat="42.94948" lon="0.52773">
        <ele>728</ele>
        <time>2025-06-10T14:33:18Z</time>
      </trkpt>
      <trkpt lat="42.94942" lon="0.52767">
        <ele>728</ele>
        <time>2025-06-10T14:33:24Z</time>
      </trkpt>
      <trkpt lat="42.94908" lon="0.5274">
        <ele>728</ele>
        <time>2025-06-10T14:33:56Z</time>
      </trkpt>
      <trkpt lat="42.94755" lon="0.52579">
        <ele>738</ele>
        <time>2025-06-10T14:36:30Z</time>
      </trkpt>
      <trkpt lat="42.94737" lon="0.52562">
        <ele>741</ele>
        <time>2025-06-10T14:36:48Z</time>
      </trkpt>
      <trkpt lat="42.9471" lon="0.52544">
        <ele>741</ele>
        <time>2025-06-10T14:37:12Z</time>
      </trkpt>
      <trkpt lat="42.94689" lon="0.52532">
        <ele>739</ele>
        <time>2025-06-10T14:37:30Z</time>
      </trkpt>
      <trkpt lat="42.94674" lon="0.52527">
        <ele>738</ele>
        <time>2025-06-10T14:37:43Z</time>
      </trkpt>
      <trkpt lat="42.94665" lon="0.52526">
        <ele>737</ele>
        <time>2025-06-10T14:37:50Z</time>
      </trkpt>
      <trkpt lat="42.94643" lon="0.52526">
        <ele>739</ele>
        <time>2025-06-10T14:38:07Z</time>
      </trkpt>
      <trkpt lat="42.94632" lon="0.52524">
        <ele>740</ele>
        <time>2025-06-10T14:38:16Z</time>
      </trkpt>
      <trkpt lat="42.94619" lon="0.5252">
        <ele>740</ele>
        <time>2025-06-10T14:38:27Z</time>
      </trkpt>
      <trkpt lat="42.94612" lon="0.52514">
        <ele>739</ele>
        <time>2025-06-10T14:38:34Z</time>
      </trkpt>
      <trkpt lat="42.94605" lon="0.52508">
        <ele>739</ele>
        <time>2025-06-10T14:38:40Z</time>
      </trkpt>
      <trkpt lat="42.94587" lon="0.52479">
        <ele>737</ele>
        <time>2025-06-10T14:39:03Z</time>
      </trkpt>
      <trkpt lat="42.94577" lon="0.52461">
        <ele>740</ele>
        <time>2025-06-10T14:39:16Z</time>
      </trkpt>
      <trkpt lat="42.94569" lon="0.52443">
        <ele>743</ele>
        <time>2025-06-10T14:39:28Z</time>
      </trkpt>
      <trkpt lat="42.94563" lon="0.52425">
        <ele>746</ele>
        <time>2025-06-10T14:39:40Z</time>
      </trkpt>
      <trkpt lat="42.9456" lon="0.52412">
        <ele>747</ele>
        <time>2025-06-10T14:39:48Z</time>
      </trkpt>
      <trkpt lat="42.94557" lon="0.52392">
        <ele>749</ele>
        <time>2025-06-10T14:40:00Z</time>
      </trkpt>
      <trkpt lat="42.94551" lon="0.52331">
        <ele>749</ele>
        <time>2025-06-10T14:40:36Z</time>
      </trkpt>
      <trkpt lat="42.94547" lon="0.52309">
        <ele>751</ele>
        <time>2025-06-10T14:40:49Z</time>
      </trkpt>
      <trkpt lat="42.94543" lon="0.52295">
        <ele>752</ele>
        <time>2025-06-10T14:40:58Z</time>
      </trkpt>
      <trkpt lat="42.94539" lon="0.52284">
        <ele>753</ele>
        <time>2025-06-10T14:41:05Z</time>
      </trkpt>
      <trkpt lat="42.94532" lon="0.52274">
        <ele>754</ele>
        <time>2025-06-10T14:41:13Z</time>
      </trkpt>
      <trkpt lat="42.94519" lon="0.52262">
        <ele>754</ele>
        <time>2025-06-10T14:41:26Z</time>
      </trkpt>
      <trkpt lat="42.9451" lon="0.52251">
        <ele>754</ele>
        <time>2025-06-10T14:41:35Z</time>
      </trkpt>
      <trkpt lat="42.94501" lon="0.52239">
        <ele>753</ele>
        <time>2025-06-10T14:41:45Z</time>
      </trkpt>
      <trkpt lat="42.94492" lon="0.52224">
        <ele>757</ele>
        <time>2025-06-10T14:41:57Z</time>
      </trkpt>
      <trkpt lat="42.94486" lon="0.52204">
        <ele>758</ele>
        <time>2025-06-10T14:42:09Z</time>
      </trkpt>
      <trkpt lat="42.94468" lon="0.52124">
        <ele>758</ele>
        <time>2025-06-10T14:42:59Z</time>
      </trkpt>
      <trkpt lat="42.94464" lon="0.52111">
        <ele>758</ele>
        <time>2025-06-10T14:43:07Z</time>
      </trkpt>
      <trkpt lat="42.94458" lon="0.52101">
        <ele>758</ele>
        <time>2025-06-10T14:43:14Z</time>
      </trkpt>
      <trkpt lat="42.94449" lon="0.5209">
        <ele>757</ele>
        <time>2025-06-10T14:43:24Z</time>
      </trkpt>
      <trkpt lat="42.94433" lon="0.52075">
        <ele>759</ele>
        <time>2025-06-10T14:43:40Z</time>
      </trkpt>
      <trkpt lat="42.9442" lon="0.52064">
        <ele>759</ele>
        <time>2025-06-10T14:43:52Z</time>
      </trkpt>
      <trkpt lat="42.94381" lon="0.52038">
        <ele>765</ele>
        <time>2025-06-10T14:44:27Z</time>
      </trkpt>
      <trkpt lat="42.9437" lon="0.52032">
        <ele>766</ele>
        <time>2025-06-10T14:44:36Z</time>
      </trkpt>
      <trkpt lat="42.9436" lon="0.52027">
        <ele>766</ele>
        <time>2025-06-10T14:44:45Z</time>
      </trkpt>
      <trkpt lat="42.94314" lon="0.52013">
        <ele>768</ele>
        <time>2025-06-10T14:45:22Z</time>
      </trkpt>
      <trkpt lat="42.94256" lon="0.51983">
        <ele>775</ele>
        <time>2025-06-10T14:46:12Z</time>
      </trkpt>
      <trkpt lat="42.94247" lon="0.5198">
        <ele>776</ele>
        <time>2025-06-10T14:46:19Z</time>
      </trkpt>
      <trkpt lat="42.94237" lon="0.51979">
        <ele>779</ele>
        <time>2025-06-10T14:46:27Z</time>
      </trkpt>
      <trkpt lat="42.9422" lon="0.51977">
        <ele>783</ele>
        <time>2025-06-10T14:46:41Z</time>
      </trkpt>
      <trkpt lat="42.94213" lon="0.51973">
        <ele>784</ele>
        <time>2025-06-10T14:46:47Z</time>
      </trkpt>
      <trkpt lat="42.94207" lon="0.51966">
        <ele>785</ele>
        <time>2025-06-10T14:46:53Z</time>
      </trkpt>
      <trkpt lat="42.94199" lon="0.51955">
        <ele>785</ele>
        <time>2025-06-10T14:47:03Z</time>
      </trkpt>
      <trkpt lat="42.94189" lon="0.51938">
        <ele>784</ele>
        <time>2025-06-10T14:47:15Z</time>
      </trkpt>
      <trkpt lat="42.94151" lon="0.51857">
        <ele>776</ele>
        <time>2025-06-10T14:48:12Z</time>
      </trkpt>
      <trkpt lat="42.94142" lon="0.51843">
        <ele>775</ele>
        <time>2025-06-10T14:48:23Z</time>
      </trkpt>
      <trkpt lat="42.94136" lon="0.51836">
        <ele>775</ele>
        <time>2025-06-10T14:48:29Z</time>
      </trkpt>
      <trkpt lat="42.94125" lon="0.51829">
        <ele>777</ele>
        <time>2025-06-10T14:48:39Z</time>
      </trkpt>
      <trkpt lat="42.9408" lon="0.51813">
        <ele>783</ele>
        <time>2025-06-10T14:49:16Z</time>
      </trkpt>
      <trkpt lat="42.9404" lon="0.51801">
        <ele>787</ele>
        <time>2025-06-10T14:49:49Z</time>
      </trkpt>
      <trkpt lat="42.93956" lon="0.51794">
        <ele>790</ele>
        <time>2025-06-10T14:50:56Z</time>
      </trkpt>
      <trkpt lat="42.93906" lon="0.51782">
        <ele>788</ele>
        <time>2025-06-10T14:51:37Z</time>
      </trkpt>
      <trkpt lat="42.93887" lon="0.51776">
        <ele>788</ele>
        <time>2025-06-10T14:51:52Z</time>
      </trkpt>
      <trkpt lat="42.93858" lon="0.51761">
        <ele>785</ele>
        <time>2025-06-10T14:52:17Z</time>
      </trkpt>
      <trkpt lat="42.93848" lon="0.51757">
        <ele>785</ele>
        <time>2025-06-10T14:52:26Z</time>
      </trkpt>
      <trkpt lat="42.9384" lon="0.51755">
        <ele>784</ele>
        <time>2025-06-10T14:52:32Z</time>
      </trkpt>
      <trkpt lat="42.93833" lon="0.51754">
        <ele>784</ele>
        <time>2025-06-10T14:52:38Z</time>
      </trkpt>
      <trkpt lat="42.93815" lon="0.51755">
        <ele>793</ele>
        <time>2025-06-10T14:52:52Z</time>
      </trkpt>
      <trkpt lat="42.93807" lon="0.51754">
        <ele>797</ele>
        <time>2025-06-10T14:52:59Z</time>
      </trkpt>
      <trkpt lat="42.93802" lon="0.51753">
        <ele>799</ele>
        <time>2025-06-10T14:53:03Z</time>
      </trkpt>
      <trkpt lat="42.93799" lon="0.51751">
        <ele>800</ele>
        <time>2025-06-10T14:53:05Z</time>
      </trkpt>
      <trkpt lat="42.9379" lon="0.51741">
        <ele>803</ele>
        <time>2025-06-10T14:53:15Z</time>
      </trkpt>
      <trkpt lat="42.93783" lon="0.51732">
        <ele>805</ele>
        <time>2025-06-10T14:53:22Z</time>
      </trkpt>
      <trkpt lat="42.9377" lon="0.51709">
        <ele>806</ele>
        <time>2025-06-10T14:53:39Z</time>
      </trkpt>
      <trkpt lat="42.93761" lon="0.51689">
        <ele>803</ele>
        <time>2025-06-10T14:53:53Z</time>
      </trkpt>
      <trkpt lat="42.93752" lon="0.51661">
        <ele>798</ele>
        <time>2025-06-10T14:54:11Z</time>
      </trkpt>
      <trkpt lat="42.93743" lon="0.51635">
        <ele>797</ele>
        <time>2025-06-10T14:54:28Z</time>
      </trkpt>
      <trkpt lat="42.93738" lon="0.51627">
        <ele>798</ele>
        <time>2025-06-10T14:54:34Z</time>
      </trkpt>
      <trkpt lat="42.93711" lon="0.5159">
        <ele>800</ele>
        <time>2025-06-10T14:55:05Z</time>
      </trkpt>
      <trkpt lat="42.93696" lon="0.5157">
        <ele>802</ele>
        <time>2025-06-10T14:55:21Z</time>
      </trkpt>
      <trkpt lat="42.93688" lon="0.51561">
        <ele>802</ele>
        <time>2025-06-10T14:55:30Z</time>
      </trkpt>
      <trkpt lat="42.93668" lon="0.51545">
        <ele>801</ele>
        <time>2025-06-10T14:55:48Z</time>
      </trkpt>
      <trkpt lat="42.93661" lon="0.51537">
        <ele>801</ele>
        <time>2025-06-10T14:55:56Z</time>
      </trkpt>
      <trkpt lat="42.93649" lon="0.51519">
        <ele>800</ele>
        <time>2025-06-10T14:56:10Z</time>
      </trkpt>
      <trkpt lat="42.93639" lon="0.515">
        <ele>799</ele>
        <time>2025-06-10T14:56:24Z</time>
      </trkpt>
      <trkpt lat="42.93633" lon="0.51483">
        <ele>800</ele>
        <time>2025-06-10T14:56:35Z</time>
      </trkpt>
      <trkpt lat="42.93629" lon="0.51466">
        <ele>801</ele>
        <time>2025-06-10T14:56:45Z</time>
      </trkpt>
      <trkpt lat="42.93616" lon="0.51403">
        <ele>799</ele>
        <time>2025-06-10T14:57:23Z</time>
      </trkpt>
      <trkpt lat="42.93613" lon="0.51394">
        <ele>800</ele>
        <time>2025-06-10T14:57:29Z</time>
      </trkpt>
      <trkpt lat="42.93608" lon="0.51385">
        <ele>800</ele>
        <time>2025-06-10T14:57:36Z</time>
      </trkpt>
      <trkpt lat="42.93599" lon="0.51374">
        <ele>800</ele>
        <time>2025-06-10T14:57:46Z</time>
      </trkpt>
      <trkpt lat="42.93569" lon="0.51349">
        <ele>803</ele>
        <time>2025-06-10T14:58:14Z</time>
      </trkpt>
      <trkpt lat="42.93561" lon="0.51337">
        <ele>804</ele>
        <time>2025-06-10T14:58:23Z</time>
      </trkpt>
      <trkpt lat="42.9355" lon="0.51311">
        <ele>804</ele>
        <time>2025-06-10T14:58:41Z</time>
      </trkpt>
      <trkpt lat="42.93538" lon="0.51288">
        <ele>803</ele>
        <time>2025-06-10T14:58:57Z</time>
      </trkpt>
      <trkpt lat="42.93528" lon="0.51271">
        <ele>802</ele>
        <time>2025-06-10T14:59:10Z</time>
      </trkpt>
      <trkpt lat="42.93521" lon="0.51264">
        <ele>802</ele>
        <time>2025-06-10T14:59:17Z</time>
      </trkpt>
      <trkpt lat="42.93514" lon="0.51258">
        <ele>801</ele>
        <time>2025-06-10T14:59:24Z</time>
      </trkpt>
      <trkpt lat="42.93485" lon="0.51247">
        <ele>804</ele>
        <time>2025-06-10T14:59:48Z</time>
      </trkpt>
      <trkpt lat="42.93475" lon="0.5124">
        <ele>806</ele>
        <time>2025-06-10T14:59:57Z</time>
      </trkpt>
      <trkpt lat="42.9345" lon="0.51214">
        <ele>807</ele>
        <time>2025-06-10T15:00:22Z</time>
      </trkpt>
      <trkpt lat="42.93442" lon="0.51203">
        <ele>807</ele>
        <time>2025-06-10T15:00:31Z</time>
      </trkpt>
      <trkpt lat="42.93372" lon="0.51117">
        <ele>812</ele>
        <time>2025-06-10T15:01:46Z</time>
      </trkpt>
      <trkpt lat="42.93278" lon="0.50997">
        <ele>809</ele>
        <time>2025-06-10T15:03:29Z</time>
      </trkpt>
      <trkpt lat="42.93267" lon="0.50986">
        <ele>810</ele>
        <time>2025-06-10T15:03:40Z</time>
      </trkpt>
      <trkpt lat="42.93256" lon="0.50979">
        <ele>811</ele>
        <time>2025-06-10T15:03:50Z</time>
      </trkpt>
      <trkpt lat="42.93249" lon="0.50976">
        <ele>811</ele>
        <time>2025-06-10T15:03:56Z</time>
      </trkpt>
      <trkpt lat="42.93234" lon="0.50973">
        <ele>811</ele>
        <time>2025-06-10T15:04:08Z</time>
      </trkpt>
      <trkpt lat="42.93227" lon="0.50974">
        <ele>811</ele>
        <time>2025-06-10T15:04:14Z</time>
      </trkpt>
      <trkpt lat="42.93219" lon="0.50977">
        <ele>811</ele>
        <time>2025-06-10T15:04:20Z</time>
      </trkpt>
      <trkpt lat="42.93211" lon="0.50981">
        <ele>811</ele>
        <time>2025-06-10T15:04:27Z</time>
      </trkpt>
      <trkpt lat="42.93203" lon="0.50986">
        <ele>811</ele>
        <time>2025-06-10T15:04:34Z</time>
      </trkpt>
      <trkpt lat="42.93198" lon="0.50993">
        <ele>810</ele>
        <time>2025-06-10T15:04:40Z</time>
      </trkpt>
      <trkpt lat="42.93175" lon="0.51025">
        <ele>817</ele>
        <time>2025-06-10T15:05:06Z</time>
      </trkpt>
      <trkpt lat="42.93154" lon="0.51047">
        <ele>825</ele>
        <time>2025-06-10T15:05:27Z</time>
      </trkpt>
      <trkpt lat="42.93144" lon="0.51053">
        <ele>828</ele>
        <time>2025-06-10T15:05:36Z</time>
      </trkpt>
      <trkpt lat="42.93133" lon="0.51056">
        <ele>831</ele>
        <time>2025-06-10T15:05:45Z</time>
      </trkpt>
      <trkpt lat="42.93119" lon="0.51056">
        <ele>833</ele>
        <time>2025-06-10T15:05:56Z</time>
      </trkpt>
      <trkpt lat="42.93101" lon="0.51052">
        <ele>834</ele>
        <time>2025-06-10T15:06:11Z</time>
      </trkpt>
      <trkpt lat="42.93078" lon="0.51044">
        <ele>835</ele>
        <time>2025-06-10T15:06:30Z</time>
      </trkpt>
      <trkpt lat="42.93067" lon="0.51039">
        <ele>837</ele>
        <time>2025-06-10T15:06:39Z</time>
      </trkpt>
      <trkpt lat="42.93059" lon="0.51033">
        <ele>838</ele>
        <time>2025-06-10T15:06:47Z</time>
      </trkpt>
      <trkpt lat="42.93053" lon="0.51026">
        <ele>837</ele>
        <time>2025-06-10T15:06:53Z</time>
      </trkpt>
      <trkpt lat="42.93046" lon="0.51013">
        <ele>834</ele>
        <time>2025-06-10T15:07:02Z</time>
      </trkpt>
      <trkpt lat="42.93037" lon="0.5099">
        <ele>830</ele>
        <time>2025-06-10T15:07:18Z</time>
      </trkpt>
      <trkpt lat="42.93032" lon="0.50974">
        <ele>830</ele>
        <time>2025-06-10T15:07:28Z</time>
      </trkpt>
      <trkpt lat="42.93027" lon="0.50964">
        <ele>830</ele>
        <time>2025-06-10T15:07:35Z</time>
      </trkpt>
      <trkpt lat="42.93011" lon="0.50946">
        <ele>830</ele>
        <time>2025-06-10T15:07:52Z</time>
      </trkpt>
      <trkpt lat="42.92992" lon="0.50936">
        <ele>829</ele>
        <time>2025-06-10T15:08:08Z</time>
      </trkpt>
      <trkpt lat="42.92976" lon="0.5093">
        <ele>829</ele>
        <time>2025-06-10T15:08:21Z</time>
      </trkpt>
      <trkpt lat="42.92942" lon="0.50925">
        <ele>830</ele>
        <time>2025-06-10T15:08:48Z</time>
      </trkpt>
      <trkpt lat="42.92904" lon="0.50907">
        <ele>833</ele>
        <time>2025-06-10T15:09:21Z</time>
      </trkpt>
      <trkpt lat="42.92893" lon="0.50905">
        <ele>834</ele>
        <time>2025-06-10T15:09:30Z</time>
      </trkpt>
      <trkpt lat="42.92871" lon="0.50906">
        <ele>836</ele>
        <time>2025-06-10T15:09:47Z</time>
      </trkpt>
      <trkpt lat="42.92862" lon="0.50909">
        <ele>836</ele>
        <time>2025-06-10T15:09:55Z</time>
      </trkpt>
      <trkpt lat="42.92854" lon="0.50913">
        <ele>835</ele>
        <time>2025-06-10T15:10:01Z</time>
      </trkpt>
      <trkpt lat="42.92849" lon="0.50918">
        <ele>834</ele>
        <time>2025-06-10T15:10:06Z</time>
      </trkpt>
      <trkpt lat="42.92844" lon="0.50927">
        <ele>835</ele>
        <time>2025-06-10T15:10:13Z</time>
      </trkpt>
      <trkpt lat="42.92832" lon="0.50952">
        <ele>836</ele>
        <time>2025-06-10T15:10:31Z</time>
      </trkpt>
      <trkpt lat="42.92825" lon="0.50962">
        <ele>838</ele>
        <time>2025-06-10T15:10:39Z</time>
      </trkpt>
      <trkpt lat="42.92797" lon="0.50989">
        <ele>845</ele>
        <time>2025-06-10T15:11:06Z</time>
      </trkpt>
      <trkpt lat="42.9278" lon="0.51004">
        <ele>848</ele>
        <time>2025-06-10T15:11:22Z</time>
      </trkpt>
      <trkpt lat="42.92766" lon="0.51022">
        <ele>850</ele>
        <time>2025-06-10T15:11:38Z</time>
      </trkpt>
      <trkpt lat="42.92757" lon="0.51041">
        <ele>849</ele>
        <time>2025-06-10T15:11:51Z</time>
      </trkpt>
      <trkpt lat="42.92742" lon="0.51066">
        <ele>847</ele>
        <time>2025-06-10T15:12:10Z</time>
      </trkpt>
      <trkpt lat="42.92726" lon="0.51086">
        <ele>847</ele>
        <time>2025-06-10T15:12:27Z</time>
      </trkpt>
      <trkpt lat="42.92662" lon="0.51152">
        <ele>849</ele>
        <time>2025-06-10T15:13:31Z</time>
      </trkpt>
      <trkpt lat="42.92639" lon="0.51168">
        <ele>848</ele>
        <time>2025-06-10T15:13:52Z</time>
      </trkpt>
      <trkpt lat="42.92626" lon="0.51173">
        <ele>849</ele>
        <time>2025-06-10T15:14:03Z</time>
      </trkpt>
      <trkpt lat="42.92614" lon="0.51174">
        <ele>849</ele>
        <time>2025-06-10T15:14:13Z</time>
      </trkpt>
      <trkpt lat="42.92605" lon="0.51173">
        <ele>849</ele>
        <time>2025-06-10T15:14:20Z</time>
      </trkpt>
      <trkpt lat="42.926" lon="0.5117">
        <ele>848</ele>
        <time>2025-06-10T15:14:24Z</time>
      </trkpt>
      <trkpt lat="42.9259" lon="0.51163">
        <ele>847</ele>
        <time>2025-06-10T15:14:33Z</time>
      </trkpt>
      <trkpt lat="42.92542" lon="0.51111">
        <ele>844</ele>
        <time>2025-06-10T15:15:22Z</time>
      </trkpt>
      <trkpt lat="42.92539" lon="0.51104">
        <ele>843</ele>
        <time>2025-06-10T15:15:27Z</time>
      </trkpt>
      <trkpt lat="42.92536" lon="0.51096">
        <ele>843</ele>
        <time>2025-06-10T15:15:32Z</time>
      </trkpt>
      <trkpt lat="42.92537" lon="0.51077">
        <ele>843</ele>
        <time>2025-06-10T15:15:43Z</time>
      </trkpt>
      <trkpt lat="42.92535" lon="0.51071">
        <ele>845</ele>
        <time>2025-06-10T15:15:47Z</time>
      </trkpt>
      <trkpt lat="42.92531" lon="0.51067">
        <ele>846</ele>
        <time>2025-06-10T15:15:51Z</time>
      </trkpt>
      <trkpt lat="42.92527" lon="0.51065">
        <ele>846</ele>
        <time>2025-06-10T15:15:55Z</time>
      </trkpt>
      <trkpt lat="42.92497" lon="0.5106">
        <ele>848</ele>
        <time>2025-06-10T15:16:19Z</time>
      </trkpt>
      <trkpt lat="42.9247" lon="0.51058">
        <ele>854</ele>
        <time>2025-06-10T15:16:41Z</time>
      </trkpt>
      <trkpt lat="42.92454" lon="0.51062">
        <ele>856</ele>
        <time>2025-06-10T15:16:54Z</time>
      </trkpt>
      <trkpt lat="42.92438" lon="0.51068">
        <ele>857</ele>
        <time>2025-06-10T15:17:07Z</time>
      </trkpt>
      <trkpt lat="42.92429" lon="0.51074">
        <ele>856</ele>
        <time>2025-06-10T15:17:15Z</time>
      </trkpt>
      <trkpt lat="42.92418" lon="0.51087">
        <ele>854</ele>
        <time>2025-06-10T15:17:27Z</time>
      </trkpt>
      <trkpt lat="42.924" lon="0.51111">
        <ele>857</ele>
        <time>2025-06-10T15:17:47Z</time>
      </trkpt>
      <trkpt lat="42.92393" lon="0.51117">
        <ele>858</ele>
        <time>2025-06-10T15:17:53Z</time>
      </trkpt>
      <trkpt lat="42.92385" lon="0.51121">
        <ele>860</ele>
        <time>2025-06-10T15:18:00Z</time>
      </trkpt>
      <trkpt lat="42.92364" lon="0.51127">
        <ele>865</ele>
        <time>2025-06-10T15:18:17Z</time>
      </trkpt>
      <trkpt lat="42.92355" lon="0.51128">
        <ele>868</ele>
        <time>2025-06-10T15:18:25Z</time>
      </trkpt>
      <trkpt lat="42.92345" lon="0.51126">
        <ele>871</ele>
        <time>2025-06-10T15:18:33Z</time>
      </trkpt>
      <trkpt lat="42.92286" lon="0.51104">
        <ele>880</ele>
        <time>2025-06-10T15:19:22Z</time>
      </trkpt>
      <trkpt lat="42.92275" lon="0.51097">
        <ele>882</ele>
        <time>2025-06-10T15:19:31Z</time>
      </trkpt>
      <trkpt lat="42.92251" lon="0.51081">
        <ele>888</ele>
        <time>2025-06-10T15:19:53Z</time>
      </trkpt>
      <trkpt lat="42.9224" lon="0.51076">
        <ele>892</ele>
        <time>2025-06-10T15:20:02Z</time>
      </trkpt>
      <trkpt lat="42.92233" lon="0.51075">
        <ele>893</ele>
        <time>2025-06-10T15:20:08Z</time>
      </trkpt>
      <trkpt lat="42.92213" lon="0.51075">
        <ele>895</ele>
        <time>2025-06-10T15:20:24Z</time>
      </trkpt>
      <trkpt lat="42.92196" lon="0.51072">
        <ele>898</ele>
        <time>2025-06-10T15:20:37Z</time>
      </trkpt>
      <trkpt lat="42.92191" lon="0.51073">
        <ele>898</ele>
        <time>2025-06-10T15:20:41Z</time>
      </trkpt>
      <trkpt lat="42.92187" lon="0.51076">
        <ele>897</ele>
        <time>2025-06-10T15:20:45Z</time>
      </trkpt>
      <trkpt lat="42.92183" lon="0.5108">
        <ele>895</ele>
        <time>2025-06-10T15:20:49Z</time>
      </trkpt>
      <trkpt lat="42.92174" lon="0.51095">
        <ele>891</ele>
        <time>2025-06-10T15:21:00Z</time>
      </trkpt>
      <trkpt lat="42.92164" lon="0.51106">
        <ele>890</ele>
        <time>2025-06-10T15:21:11Z</time>
      </trkpt>
      <trkpt lat="42.92149" lon="0.51117">
        <ele>892</ele>
        <time>2025-06-10T15:21:24Z</time>
      </trkpt>
      <trkpt lat="42.92127" lon="0.51135">
        <ele>893</ele>
        <time>2025-06-10T15:21:45Z</time>
      </trkpt>
      <trkpt lat="42.92111" lon="0.51145">
        <ele>893</ele>
        <time>2025-06-10T15:21:59Z</time>
      </trkpt>
      <trkpt lat="42.92096" lon="0.51146">
        <ele>896</ele>
        <time>2025-06-10T15:22:11Z</time>
      </trkpt>
      <trkpt lat="42.92077" lon="0.51151">
        <ele>899</ele>
        <time>2025-06-10T15:22:26Z</time>
      </trkpt>
      <trkpt lat="42.92045" lon="0.51158">
        <ele>906</ele>
        <time>2025-06-10T15:22:52Z</time>
      </trkpt>
      <trkpt lat="42.92038" lon="0.51157">
        <ele>909</ele>
        <time>2025-06-10T15:22:58Z</time>
      </trkpt>
      <trkpt lat="42.9202" lon="0.5115">
        <ele>919</ele>
        <time>2025-06-10T15:23:13Z</time>
      </trkpt>
      <trkpt lat="42.9201" lon="0.51147">
        <ele>924</ele>
        <time>2025-06-10T15:23:21Z</time>
      </trkpt>
      <trkpt lat="42.92005" lon="0.51148">
        <ele>925</ele>
        <time>2025-06-10T15:23:25Z</time>
      </trkpt>
      <trkpt lat="42.92" lon="0.5115">
        <ele>926</ele>
        <time>2025-06-10T15:23:29Z</time>
      </trkpt>
      <trkpt lat="42.91994" lon="0.51154">
        <ele>924</ele>
        <time>2025-06-10T15:23:35Z</time>
      </trkpt>
      <trkpt lat="42.91984" lon="0.51164">
        <ele>921</ele>
        <time>2025-06-10T15:23:45Z</time>
      </trkpt>
      <trkpt lat="42.9197" lon="0.51174">
        <ele>918</ele>
        <time>2025-06-10T15:23:57Z</time>
      </trkpt>
      <trkpt lat="42.91966" lon="0.51179">
        <ele>916</ele>
        <time>2025-06-10T15:24:02Z</time>
      </trkpt>
      <trkpt lat="42.91954" lon="0.51196">
        <ele>911</ele>
        <time>2025-06-10T15:24:16Z</time>
      </trkpt>
      <trkpt lat="42.9195" lon="0.51199">
        <ele>910</ele>
        <time>2025-06-10T15:24:19Z</time>
      </trkpt>
      <trkpt lat="42.91945" lon="0.512">
        <ele>910</ele>
        <time>2025-06-10T15:24:23Z</time>
      </trkpt>
      <trkpt lat="42.91923" lon="0.51192">
        <ele>915</ele>
        <time>2025-06-10T15:24:41Z</time>
      </trkpt>
      <trkpt lat="42.91897" lon="0.51178">
        <ele>927</ele>
        <time>2025-06-10T15:25:04Z</time>
      </trkpt>
      <trkpt lat="42.91893" lon="0.51177">
        <ele>928</ele>
        <time>2025-06-10T15:25:07Z</time>
      </trkpt>
      <trkpt lat="42.91889" lon="0.51178">
        <ele>929</ele>
        <time>2025-06-10T15:25:10Z</time>
      </trkpt>
      <trkpt lat="42.91884" lon="0.51181">
        <ele>929</ele>
        <time>2025-06-10T15:25:15Z</time>
      </trkpt>
      <trkpt lat="42.9188" lon="0.51186">
        <ele>929</ele>
        <time>2025-06-10T15:25:19Z</time>
      </trkpt>
      <trkpt lat="42.9187" lon="0.51202">
        <ele>925</ele>
        <time>2025-06-10T15:25:31Z</time>
      </trkpt>
      <trkpt lat="42.91853" lon="0.51231">
        <ele>919</ele>
        <time>2025-06-10T15:25:53Z</time>
      </trkpt>
      <trkpt lat="42.91845" lon="0.51254">
        <ele>913</ele>
        <time>2025-06-10T15:26:08Z</time>
      </trkpt>
      <trkpt lat="42.91837" lon="0.51285">
        <ele>906</ele>
        <time>2025-06-10T15:26:27Z</time>
      </trkpt>
      <trkpt lat="42.91833" lon="0.51296">
        <ele>903</ele>
        <time>2025-06-10T15:26:35Z</time>
      </trkpt>
      <trkpt lat="42.91829" lon="0.51302">
        <ele>901</ele>
        <time>2025-06-10T15:26:39Z</time>
      </trkpt>
      <trkpt lat="42.91822" lon="0.51305">
        <ele>900</ele>
        <time>2025-06-10T15:26:45Z</time>
      </trkpt>
      <trkpt lat="42.91818" lon="0.51305">
        <ele>900</ele>
        <time>2025-06-10T15:26:48Z</time>
      </trkpt>
      <trkpt lat="42.91812" lon="0.51301">
        <ele>900</ele>
        <time>2025-06-10T15:26:54Z</time>
      </trkpt>
      <trkpt lat="42.91808" lon="0.51294">
        <ele>902</ele>
        <time>2025-06-10T15:26:59Z</time>
      </trkpt>
      <trkpt lat="42.91798" lon="0.51267">
        <ele>907</ele>
        <time>2025-06-10T15:27:17Z</time>
      </trkpt>
      <trkpt lat="42.91793" lon="0.51257">
        <ele>908</ele>
        <time>2025-06-10T15:27:24Z</time>
      </trkpt>
      <trkpt lat="42.91785" lon="0.51247">
        <ele>909</ele>
        <time>2025-06-10T15:27:32Z</time>
      </trkpt>
      <trkpt lat="42.91723" lon="0.51186">
        <ele>932</ele>
        <time>2025-06-10T15:28:34Z</time>
      </trkpt>
      <trkpt lat="42.91709" lon="0.51175">
        <ele>936</ele>
        <time>2025-06-10T15:28:47Z</time>
      </trkpt>
      <trkpt lat="42.91701" lon="0.51171">
        <ele>937</ele>
        <time>2025-06-10T15:28:53Z</time>
      </trkpt>
      <trkpt lat="42.91695" lon="0.51169">
        <ele>937</ele>
        <time>2025-06-10T15:28:58Z</time>
      </trkpt>
      <trkpt lat="42.91689" lon="0.51169">
        <ele>937</ele>
        <time>2025-06-10T15:29:03Z</time>
      </trkpt>
      <trkpt lat="42.91683" lon="0.51172">
        <ele>935</ele>
        <time>2025-06-10T15:29:08Z</time>
      </trkpt>
      <trkpt lat="42.91669" lon="0.51184">
        <ele>928</ele>
        <time>2025-06-10T15:29:22Z</time>
      </trkpt>
      <trkpt lat="42.91662" lon="0.5119">
        <ele>927</ele>
        <time>2025-06-10T15:29:28Z</time>
      </trkpt>
      <trkpt lat="42.91652" lon="0.51193">
        <ele>928</ele>
        <time>2025-06-10T15:29:36Z</time>
      </trkpt>
      <trkpt lat="42.91638" lon="0.51195">
        <ele>931</ele>
        <time>2025-06-10T15:29:48Z</time>
      </trkpt>
      <trkpt lat="42.91629" lon="0.51199">
        <ele>931</ele>
        <time>2025-06-10T15:29:55Z</time>
      </trkpt>
      <trkpt lat="42.91598" lon="0.51215">
        <ele>930</ele>
        <time>2025-06-10T15:30:22Z</time>
      </trkpt>
      <trkpt lat="42.91585" lon="0.51217">
        <ele>931</ele>
        <time>2025-06-10T15:30:32Z</time>
      </trkpt>
      <trkpt lat="42.91578" lon="0.51219">
        <ele>932</ele>
        <time>2025-06-10T15:30:38Z</time>
      </trkpt>
      <trkpt lat="42.91558" lon="0.51229">
        <ele>932</ele>
        <time>2025-06-10T15:30:55Z</time>
      </trkpt>
      <trkpt lat="42.91536" lon="0.51236">
        <ele>934</ele>
        <time>2025-06-10T15:31:13Z</time>
      </trkpt>
      <trkpt lat="42.91519" lon="0.51252">
        <ele>930</ele>
        <time>2025-06-10T15:31:30Z</time>
      </trkpt>
      <trkpt lat="42.91513" lon="0.51256">
        <ele>931</ele>
        <time>2025-06-10T15:31:35Z</time>
      </trkpt>
      <trkpt lat="42.91504" lon="0.51258">
        <ele>932</ele>
        <time>2025-06-10T15:31:42Z</time>
      </trkpt>
      <trkpt lat="42.91494" lon="0.51263">
        <ele>934</ele>
        <time>2025-06-10T15:31:51Z</time>
      </trkpt>
      <trkpt lat="42.9148" lon="0.51274">
        <ele>935</ele>
        <time>2025-06-10T15:32:04Z</time>
      </trkpt>
      <trkpt lat="42.91474" lon="0.51277">
        <ele>936</ele>
        <time>2025-06-10T15:32:09Z</time>
      </trkpt>
      <trkpt lat="42.91451" lon="0.5128">
        <ele>942</ele>
        <time>2025-06-10T15:32:27Z</time>
      </trkpt>
      <trkpt lat="42.91439" lon="0.51283">
        <ele>945</ele>
        <time>2025-06-10T15:32:37Z</time>
      </trkpt>
      <trkpt lat="42.91434" lon="0.51286">
        <ele>946</ele>
        <time>2025-06-10T15:32:41Z</time>
      </trkpt>
      <trkpt lat="42.91431" lon="0.51287">
        <ele>947</ele>
        <time>2025-06-10T15:32:44Z</time>
      </trkpt>
      <trkpt lat="42.91429" lon="0.51291">
        <ele>946</ele>
        <time>2025-06-10T15:32:47Z</time>
      </trkpt>
      <trkpt lat="42.91427" lon="0.51296">
        <ele>945</ele>
        <time>2025-06-10T15:32:50Z</time>
      </trkpt>
      <trkpt lat="42.91427" lon="0.51301">
        <ele>944</ele>
        <time>2025-06-10T15:32:53Z</time>
      </trkpt>
      <trkpt lat="42.91431" lon="0.5132">
        <ele>937</ele>
        <time>2025-06-10T15:33:05Z</time>
      </trkpt>
      <trkpt lat="42.91432" lon="0.51327">
        <ele>935</ele>
        <time>2025-06-10T15:33:09Z</time>
      </trkpt>
      <trkpt lat="42.91431" lon="0.51333">
        <ele>933</ele>
        <time>2025-06-10T15:33:12Z</time>
      </trkpt>
      <trkpt lat="42.91423" lon="0.51354">
        <ele>933</ele>
        <time>2025-06-10T15:33:26Z</time>
      </trkpt>
      <trkpt lat="42.91416" lon="0.51362">
        <ele>934</ele>
        <time>2025-06-10T15:33:34Z</time>
      </trkpt>
      <trkpt lat="42.91413" lon="0.51363">
        <ele>935</ele>
        <time>2025-06-10T15:33:36Z</time>
      </trkpt>
      <trkpt lat="42.91408" lon="0.51364">
        <ele>936</ele>
        <time>2025-06-10T15:33:40Z</time>
      </trkpt>
      <trkpt lat="42.91403" lon="0.51363">
        <ele>938</ele>
        <time>2025-06-10T15:33:44Z</time>
      </trkpt>
      <trkpt lat="42.91386" lon="0.51355">
        <ele>945</ele>
        <time>2025-06-10T15:33:59Z</time>
      </trkpt>
      <trkpt lat="42.91364" lon="0.51346">
        <ele>956</ele>
        <time>2025-06-10T15:34:17Z</time>
      </trkpt>
      <trkpt lat="42.91354" lon="0.51343">
        <ele>961</ele>
        <time>2025-06-10T15:34:25Z</time>
      </trkpt>
      <trkpt lat="42.91345" lon="0.51342">
        <ele>965</ele>
        <time>2025-06-10T15:34:32Z</time>
      </trkpt>
      <trkpt lat="42.91338" lon="0.51343">
        <ele>967</ele>
        <time>2025-06-10T15:34:38Z</time>
      </trkpt>
      <trkpt lat="42.91332" lon="0.51344">
        <ele>969</ele>
        <time>2025-06-10T15:34:43Z</time>
      </trkpt>
      <trkpt lat="42.91328" lon="0.51347">
        <ele>970</ele>
        <time>2025-06-10T15:34:47Z</time>
      </trkpt>
      <trkpt lat="42.91322" lon="0.51351">
        <ele>972</ele>
        <time>2025-06-10T15:34:52Z</time>
      </trkpt>
      <trkpt lat="42.91314" lon="0.51363">
        <ele>972</ele>
        <time>2025-06-10T15:35:01Z</time>
      </trkpt>
      <trkpt lat="42.91295" lon="0.51383">
        <ele>974</ele>
        <time>2025-06-10T15:35:21Z</time>
      </trkpt>
      <trkpt lat="42.91287" lon="0.5139">
        <ele>975</ele>
        <time>2025-06-10T15:35:28Z</time>
      </trkpt>
      <trkpt lat="42.91281" lon="0.51394">
        <ele>977</ele>
        <time>2025-06-10T15:35:34Z</time>
      </trkpt>
      <trkpt lat="42.91271" lon="0.51397">
        <ele>981</ele>
        <time>2025-06-10T15:35:42Z</time>
      </trkpt>
      <trkpt lat="42.91267" lon="0.51401">
        <ele>981</ele>
        <time>2025-06-10T15:35:46Z</time>
      </trkpt>
      <trkpt lat="42.9125" lon="0.51419">
        <ele>982</ele>
        <time>2025-06-10T15:36:03Z</time>
      </trkpt>
      <trkpt lat="42.9124" lon="0.51435">
        <ele>981</ele>
        <time>2025-06-10T15:36:15Z</time>
      </trkpt>
      <trkpt lat="42.91238" lon="0.51448">
        <ele>977</ele>
        <time>2025-06-10T15:36:23Z</time>
      </trkpt>
      <trkpt lat="42.91237" lon="0.51463">
        <ele>972</ele>
        <time>2025-06-10T15:36:32Z</time>
      </trkpt>
      <trkpt lat="42.91234" lon="0.5148">
        <ele>966</ele>
        <time>2025-06-10T15:36:42Z</time>
      </trkpt>
      <trkpt lat="42.91231" lon="0.51486">
        <ele>965</ele>
        <time>2025-06-10T15:36:46Z</time>
      </trkpt>
      <trkpt lat="42.91222" lon="0.51497">
        <ele>963</ele>
        <time>2025-06-10T15:36:56Z</time>
      </trkpt>
      <trkpt lat="42.91218" lon="0.515">
        <ele>963</ele>
        <time>2025-06-10T15:37:00Z</time>
      </trkpt>
      <trkpt lat="42.91212" lon="0.51501">
        <ele>964</ele>
        <time>2025-06-10T15:37:05Z</time>
      </trkpt>
      <trkpt lat="42.91204" lon="0.515">
        <ele>967</ele>
        <time>2025-06-10T15:37:11Z</time>
      </trkpt>
      <trkpt lat="42.9119" lon="0.51495">
        <ele>973</ele>
        <time>2025-06-10T15:37:23Z</time>
      </trkpt>
      <trkpt lat="42.91183" lon="0.51494">
        <ele>976</ele>
        <time>2025-06-10T15:37:28Z</time>
      </trkpt>
      <trkpt lat="42.91166" lon="0.51495">
        <ele>980</ele>
        <time>2025-06-10T15:37:42Z</time>
      </trkpt>
      <trkpt lat="42.91158" lon="0.51494">
        <ele>981</ele>
        <time>2025-06-10T15:37:48Z</time>
      </trkpt>
      <trkpt lat="42.91137" lon="0.51486">
        <ele>988</ele>
        <time>2025-06-10T15:38:06Z</time>
      </trkpt>
      <trkpt lat="42.91105" lon="0.51482">
        <ele>994</ele>
        <time>2025-06-10T15:38:31Z</time>
      </trkpt>
      <trkpt lat="42.91094" lon="0.51479">
        <ele>997</ele>
        <time>2025-06-10T15:38:40Z</time>
      </trkpt>
      <trkpt lat="42.91084" lon="0.51474">
        <ele>1001</ele>
        <time>2025-06-10T15:38:49Z</time>
      </trkpt>
      <trkpt lat="42.91077" lon="0.51473">
        <ele>1003</ele>
        <time>2025-06-10T15:38:55Z</time>
      </trkpt>
      <trkpt lat="42.91072" lon="0.51473">
        <ele>1004</ele>
        <time>2025-06-10T15:38:59Z</time>
      </trkpt>
      <trkpt lat="42.91064" lon="0.51475">
        <ele>1004</ele>
        <time>2025-06-10T15:39:05Z</time>
      </trkpt>
      <trkpt lat="42.9104" lon="0.5149">
        <ele>1002</ele>
        <time>2025-06-10T15:39:26Z</time>
      </trkpt>
      <trkpt lat="42.9103" lon="0.51494">
        <ele>1002</ele>
        <time>2025-06-10T15:39:35Z</time>
      </trkpt>
      <trkpt lat="42.91009" lon="0.51499">
        <ele>1004</ele>
        <time>2025-06-10T15:39:52Z</time>
      </trkpt>
      <trkpt lat="42.90996" lon="0.515">
        <ele>1005</ele>
        <time>2025-06-10T15:40:02Z</time>
      </trkpt>
      <trkpt lat="42.90988" lon="0.51498">
        <ele>1006</ele>
        <time>2025-06-10T15:40:09Z</time>
      </trkpt>
      <trkpt lat="42.9098" lon="0.51496">
        <ele>1007</ele>
        <time>2025-06-10T15:40:15Z</time>
      </trkpt>
      <trkpt lat="42.90968" lon="0.51489">
        <ele>1010</ele>
        <time>2025-06-10T15:40:26Z</time>
      </trkpt>
      <trkpt lat="42.90954" lon="0.51478">
        <ele>1016</ele>
        <time>2025-06-10T15:40:38Z</time>
      </trkpt>
      <trkpt lat="42.90944" lon="0.51471">
        <ele>1019</ele>
        <time>2025-06-10T15:40:47Z</time>
      </trkpt>
      <trkpt lat="42.90935" lon="0.51468">
        <ele>1021</ele>
        <time>2025-06-10T15:40:55Z</time>
      </trkpt>
      <trkpt lat="42.90921" lon="0.51464">
        <ele>1023</ele>
        <time>2025-06-10T15:41:06Z</time>
      </trkpt>
      <trkpt lat="42.909" lon="0.51461">
        <ele>1020</ele>
        <time>2025-06-10T15:41:23Z</time>
      </trkpt>
      <trkpt lat="42.90875" lon="0.5146">
        <ele>1013</ele>
        <time>2025-06-10T15:41:43Z</time>
      </trkpt>
      <trkpt lat="42.90869" lon="0.51459">
        <ele>1012</ele>
        <time>2025-06-10T15:41:48Z</time>
      </trkpt>
      <trkpt lat="42.9086" lon="0.51451">
        <ele>1013</ele>
        <time>2025-06-10T15:41:57Z</time>
      </trkpt>
      <trkpt lat="42.90843" lon="0.51433">
        <ele>1016</ele>
        <time>2025-06-10T15:42:14Z</time>
      </trkpt>
      <trkpt lat="42.90829" lon="0.51417">
        <ele>1017</ele>
        <time>2025-06-10T15:42:29Z</time>
      </trkpt>
      <trkpt lat="42.90823" lon="0.51406">
        <ele>1020</ele>
        <time>2025-06-10T15:42:37Z</time>
      </trkpt>
      <trkpt lat="42.90815" lon="0.51382">
        <ele>1027</ele>
        <time>2025-06-10T15:42:52Z</time>
      </trkpt>
      <trkpt lat="42.90812" lon="0.51365">
        <ele>1032</ele>
        <time>2025-06-10T15:43:02Z</time>
      </trkpt>
      <trkpt lat="42.9081" lon="0.51336">
        <ele>1043</ele>
        <time>2025-06-10T15:43:19Z</time>
      </trkpt>
      <trkpt lat="42.90808" lon="0.51324">
        <ele>1047</ele>
        <time>2025-06-10T15:43:27Z</time>
      </trkpt>
      <trkpt lat="42.90802" lon="0.51314">
        <ele>1049</ele>
        <time>2025-06-10T15:43:34Z</time>
      </trkpt>
      <trkpt lat="42.90791" lon="0.51306">
        <ele>1049</ele>
        <time>2025-06-10T15:43:44Z</time>
      </trkpt>
      <trkpt lat="42.9078" lon="0.513">
        <ele>1048</ele>
        <time>2025-06-10T15:43:54Z</time>
      </trkpt>
      <trkpt lat="42.90753" lon="0.5128">
        <ele>1049</ele>
        <time>2025-06-10T15:44:18Z</time>
      </trkpt>
      <trkpt lat="42.90724" lon="0.5126">
        <ele>1060</ele>
        <time>2025-06-10T15:44:44Z</time>
      </trkpt>
      <trkpt lat="42.90717" lon="0.51258">
        <ele>1062</ele>
        <time>2025-06-10T15:44:50Z</time>
      </trkpt>
      <trkpt lat="42.90711" lon="0.51257">
        <ele>1063</ele>
        <time>2025-06-10T15:44:55Z</time>
      </trkpt>
      <trkpt lat="42.90705" lon="0.51257">
        <ele>1064</ele>
        <time>2025-06-10T15:45:00Z</time>
      </trkpt>
      <trkpt lat="42.907" lon="0.5126">
        <ele>1063</ele>
        <time>2025-06-10T15:45:04Z</time>
      </trkpt>
      <trkpt lat="42.9069" lon="0.51268">
        <ele>1059</ele>
        <time>2025-06-10T15:45:13Z</time>
      </trkpt>
      <trkpt lat="42.90684" lon="0.51271">
        <ele>1058</ele>
        <time>2025-06-10T15:45:18Z</time>
      </trkpt>
      <trkpt lat="42.90672" lon="0.51272">
        <ele>1059</ele>
        <time>2025-06-10T15:45:28Z</time>
      </trkpt>
      <trkpt lat="42.90665" lon="0.5127">
        <ele>1060</ele>
        <time>2025-06-10T15:45:34Z</time>
      </trkpt>
      <trkpt lat="42.9064" lon="0.51258">
        <ele>1068</ele>
        <time>2025-06-10T15:45:55Z</time>
      </trkpt>
      <trkpt lat="42.90631" lon="0.51256">
        <ele>1069</ele>
        <time>2025-06-10T15:46:02Z</time>
      </trkpt>
      <trkpt lat="42.90626" lon="0.51256">
        <ele>1069</ele>
        <time>2025-06-10T15:46:06Z</time>
      </trkpt>
      <trkpt lat="42.90615" lon="0.51258">
        <ele>1069</ele>
        <time>2025-06-10T15:46:15Z</time>
      </trkpt>
      <trkpt lat="42.90607" lon="0.51258">
        <ele>1069</ele>
        <time>2025-06-10T15:46:22Z</time>
      </trkpt>
      <trkpt lat="42.90574" lon="0.51252">
        <ele>1072</ele>
        <time>2025-06-10T15:46:48Z</time>
      </trkpt>
      <trkpt lat="42.90566" lon="0.51251">
        <ele>1070</ele>
        <time>2025-06-10T15:46:55Z</time>
      </trkpt>
      <trkpt lat="42.90548" lon="0.51258">
        <ele>1062</ele>
        <time>2025-06-10T15:47:10Z</time>
      </trkpt>
      <trkpt lat="42.90542" lon="0.51258">
        <ele>1061</ele>
        <time>2025-06-10T15:47:14Z</time>
      </trkpt>
      <trkpt lat="42.90508" lon="0.51255">
        <ele>1055</ele>
        <time>2025-06-10T15:47:42Z</time>
      </trkpt>
      <trkpt lat="42.90501" lon="0.51252">
        <ele>1054</ele>
        <time>2025-06-10T15:47:48Z</time>
      </trkpt>
      <trkpt lat="42.90494" lon="0.51246">
        <ele>1054</ele>
        <time>2025-06-10T15:47:54Z</time>
      </trkpt>
      <trkpt lat="42.90484" lon="0.51236">
        <ele>1054</ele>
        <time>2025-06-10T15:48:04Z</time>
      </trkpt>
      <trkpt lat="42.90477" lon="0.51226">
        <ele>1053</ele>
        <time>2025-06-10T15:48:12Z</time>
      </trkpt>
      <trkpt lat="42.90473" lon="0.51216">
        <ele>1054</ele>
        <time>2025-06-10T15:48:19Z</time>
      </trkpt>
      <trkpt lat="42.90472" lon="0.51209">
        <ele>1055</ele>
        <time>2025-06-10T15:48:23Z</time>
      </trkpt>
      <trkpt lat="42.90473" lon="0.51198">
        <ele>1057</ele>
        <time>2025-06-10T15:48:30Z</time>
      </trkpt>
      <trkpt lat="42.90476" lon="0.51179">
        <ele>1060</ele>
        <time>2025-06-10T15:48:41Z</time>
      </trkpt>
      <trkpt lat="42.90481" lon="0.5116">
        <ele>1064</ele>
        <time>2025-06-10T15:48:53Z</time>
      </trkpt>
      <trkpt lat="42.90487" lon="0.51145">
        <ele>1065</ele>
        <time>2025-06-10T15:49:03Z</time>
      </trkpt>
      <trkpt lat="42.905" lon="0.5112">
        <ele>1067</ele>
        <time>2025-06-10T15:49:21Z</time>
      </trkpt>
      <trkpt lat="42.90521" lon="0.51077">
        <ele>1077</ele>
        <time>2025-06-10T15:49:51Z</time>
      </trkpt>
      <trkpt lat="42.90524" lon="0.51066">
        <ele>1080</ele>
        <time>2025-06-10T15:49:58Z</time>
      </trkpt>
      <trkpt lat="42.90531" lon="0.51033">
        <ele>1087</ele>
        <time>2025-06-10T15:50:18Z</time>
      </trkpt>
      <trkpt lat="42.90532" lon="0.51022">
        <ele>1089</ele>
        <time>2025-06-10T15:50:25Z</time>
      </trkpt>
      <trkpt lat="42.9053" lon="0.51009">
        <ele>1089</ele>
        <time>2025-06-10T15:50:33Z</time>
      </trkpt>
      <trkpt lat="42.90527" lon="0.50994">
        <ele>1088</ele>
        <time>2025-06-10T15:50:42Z</time>
      </trkpt>
      <trkpt lat="42.90512" lon="0.50953">
        <ele>1087</ele>
        <time>2025-06-10T15:51:09Z</time>
      </trkpt>
      <trkpt lat="42.90501" lon="0.50916">
        <ele>1087</ele>
        <time>2025-06-10T15:51:32Z</time>
      </trkpt>
      <trkpt lat="42.90488" lon="0.50879">
        <ele>1093</ele>
        <time>2025-06-10T15:51:56Z</time>
      </trkpt>
      <trkpt lat="42.90484" lon="0.5087">
        <ele>1094</ele>
        <time>2025-06-10T15:52:02Z</time>
      </trkpt>
      <trkpt lat="42.90479" lon="0.50862">
        <ele>1095</ele>
        <time>2025-06-10T15:52:08Z</time>
      </trkpt>
      <trkpt lat="42.90473" lon="0.50856">
        <ele>1095</ele>
        <time>2025-06-10T15:52:14Z</time>
      </trkpt>
      <trkpt lat="42.90411" lon="0.50817">
        <ele>1088</ele>
        <time>2025-06-10T15:53:09Z</time>
      </trkpt>
      <trkpt lat="42.90406" lon="0.50812">
        <ele>1091</ele>
        <time>2025-06-10T15:53:14Z</time>
      </trkpt>
      <trkpt lat="42.90403" lon="0.50805">
        <ele>1094</ele>
        <time>2025-06-10T15:53:19Z</time>
      </trkpt>
      <trkpt lat="42.904" lon="0.50793">
        <ele>1099</ele>
        <time>2025-06-10T15:53:26Z</time>
      </trkpt>
      <trkpt lat="42.90399" lon="0.50778">
        <ele>1105</ele>
        <time>2025-06-10T15:53:35Z</time>
      </trkpt>
      <trkpt lat="42.90397" lon="0.5077">
        <ele>1108</ele>
        <time>2025-06-10T15:53:40Z</time>
      </trkpt>
      <trkpt lat="42.90395" lon="0.50765">
        <ele>1110</ele>
        <time>2025-06-10T15:53:43Z</time>
      </trkpt>
      <trkpt lat="42.90392" lon="0.50762">
        <ele>1112</ele>
        <time>2025-06-10T15:53:46Z</time>
      </trkpt>
      <trkpt lat="42.90388" lon="0.50761">
        <ele>1113</ele>
        <time>2025-06-10T15:53:49Z</time>
      </trkpt>
      <trkpt lat="42.90383" lon="0.50762">
        <ele>1113</ele>
        <time>2025-06-10T15:53:54Z</time>
      </trkpt>
      <trkpt lat="42.90379" lon="0.50765">
        <ele>1113</ele>
        <time>2025-06-10T15:53:57Z</time>
      </trkpt>
      <trkpt lat="42.90372" lon="0.50776">
        <ele>1111</ele>
        <time>2025-06-10T15:54:06Z</time>
      </trkpt>
      <trkpt lat="42.90363" lon="0.50792">
        <ele>1107</ele>
        <time>2025-06-10T15:54:18Z</time>
      </trkpt>
      <trkpt lat="42.90347" lon="0.50835">
        <ele>1096</ele>
        <time>2025-06-10T15:54:46Z</time>
      </trkpt>
      <trkpt lat="42.90339" lon="0.50849">
        <ele>1094</ele>
        <time>2025-06-10T15:54:56Z</time>
      </trkpt>
      <trkpt lat="42.90319" lon="0.5088">
        <ele>1091</ele>
        <time>2025-06-10T15:55:21Z</time>
      </trkpt>
      <trkpt lat="42.90313" lon="0.50886">
        <ele>1090</ele>
        <time>2025-06-10T15:55:26Z</time>
      </trkpt>
      <trkpt lat="42.90307" lon="0.50889">
        <ele>1089</ele>
        <time>2025-06-10T15:55:32Z</time>
      </trkpt>
      <trkpt lat="42.90303" lon="0.50889">
        <ele>1090</ele>
        <time>2025-06-10T15:55:35Z</time>
      </trkpt>
      <trkpt lat="42.90259" lon="0.50882">
        <ele>1096</ele>
        <time>2025-06-10T15:56:10Z</time>
      </trkpt>
      <trkpt lat="42.90249" lon="0.50877">
        <ele>1100</ele>
        <time>2025-06-10T15:56:19Z</time>
      </trkpt>
      <trkpt lat="42.90209" lon="0.50846">
        <ele>1109</ele>
        <time>2025-06-10T15:56:56Z</time>
      </trkpt>
      <trkpt lat="42.90188" lon="0.50825">
        <ele>1114</ele>
        <time>2025-06-10T15:57:16Z</time>
      </trkpt>
      <trkpt lat="42.90179" lon="0.50819">
        <ele>1116</ele>
        <time>2025-06-10T15:57:24Z</time>
      </trkpt>
      <trkpt lat="42.90158" lon="0.50812">
        <ele>1117</ele>
        <time>2025-06-10T15:57:42Z</time>
      </trkpt>
      <trkpt lat="42.90142" lon="0.50809">
        <ele>1118</ele>
        <time>2025-06-10T15:57:55Z</time>
      </trkpt>
      <trkpt lat="42.90129" lon="0.50808">
        <ele>1118</ele>
        <time>2025-06-10T15:58:05Z</time>
      </trkpt>
      <trkpt lat="42.90101" lon="0.5081">
        <ele>1116</ele>
        <time>2025-06-10T15:58:28Z</time>
      </trkpt>
      <trkpt lat="42.90075" lon="0.50809">
        <ele>1116</ele>
        <time>2025-06-10T15:58:48Z</time>
      </trkpt>
      <trkpt lat="42.90067" lon="0.50806">
        <ele>1116</ele>
        <time>2025-06-10T15:58:55Z</time>
      </trkpt>
      <trkpt lat="42.90022" lon="0.50783">
        <ele>1119</ele>
        <time>2025-06-10T15:59:34Z</time>
      </trkpt>
      <trkpt lat="42.89978" lon="0.50764">
        <ele>1118</ele>
        <time>2025-06-10T16:00:10Z</time>
      </trkpt>
      <trkpt lat="42.89948" lon="0.50748">
        <ele>1116</ele>
        <time>2025-06-10T16:00:36Z</time>
      </trkpt>
      <trkpt lat="42.89936" lon="0.50744">
        <ele>1115</ele>
        <time>2025-06-10T16:00:46Z</time>
      </trkpt>
      <trkpt lat="42.8993" lon="0.50739">
        <ele>1116</ele>
        <time>2025-06-10T16:00:52Z</time>
      </trkpt>
      <trkpt lat="42.89925" lon="0.50732">
        <ele>1116</ele>
        <time>2025-06-10T16:00:58Z</time>
      </trkpt>
      <trkpt lat="42.89921" lon="0.50721">
        <ele>1118</ele>
        <time>2025-06-10T16:01:05Z</time>
      </trkpt>
      <trkpt lat="42.89914" lon="0.507">
        <ele>1121</ele>
        <time>2025-06-10T16:01:18Z</time>
      </trkpt>
      <trkpt lat="42.89913" lon="0.50692">
        <ele>1122</ele>
        <time>2025-06-10T16:01:23Z</time>
      </trkpt>
      <trkpt lat="42.89913" lon="0.50685">
        <ele>1123</ele>
        <time>2025-06-10T16:01:27Z</time>
      </trkpt>
      <trkpt lat="42.89914" lon="0.5068">
        <ele>1124</ele>
        <time>2025-06-10T16:01:30Z</time>
      </trkpt>
      <trkpt lat="42.89919" lon="0.50676">
        <ele>1125</ele>
        <time>2025-06-10T16:01:35Z</time>
      </trkpt>
      <trkpt lat="42.89922" lon="0.50676">
        <ele>1126</ele>
        <time>2025-06-10T16:01:37Z</time>
      </trkpt>
      <trkpt lat="42.89927" lon="0.50677">
        <ele>1128</ele>
        <time>2025-06-10T16:01:41Z</time>
      </trkpt>
      <trkpt lat="42.89931" lon="0.50682">
        <ele>1128</ele>
        <time>2025-06-10T16:01:46Z</time>
      </trkpt>
      <trkpt lat="42.89933" lon="0.50689">
        <ele>1127</ele>
        <time>2025-06-10T16:01:50Z</time>
      </trkpt>
      <trkpt lat="42.89935" lon="0.50701">
        <ele>1125</ele>
        <time>2025-06-10T16:01:57Z</time>
      </trkpt>
      <trkpt lat="42.89939" lon="0.50711">
        <ele>1123</ele>
        <time>2025-06-10T16:02:04Z</time>
      </trkpt>
      <trkpt lat="42.89943" lon="0.50718">
        <ele>1123</ele>
        <time>2025-06-10T16:02:09Z</time>
      </trkpt>
      <trkpt lat="42.89947" lon="0.50722">
        <ele>1122</ele>
        <time>2025-06-10T16:02:13Z</time>
      </trkpt>
      <trkpt lat="42.89957" lon="0.50729">
        <ele>1122</ele>
        <time>2025-06-10T16:02:22Z</time>
      </trkpt>
      <trkpt lat="42.89969" lon="0.50733">
        <ele>1123</ele>
        <time>2025-06-10T16:02:32Z</time>
      </trkpt>
      <trkpt lat="42.90008" lon="0.50742">
        <ele>1125</ele>
        <time>2025-06-10T16:03:04Z</time>
      </trkpt>
      <trkpt lat="42.90043" lon="0.50754">
        <ele>1129</ele>
        <time>2025-06-10T16:03:33Z</time>
      </trkpt>
      <trkpt lat="42.9006" lon="0.50756">
        <ele>1132</ele>
        <time>2025-06-10T16:03:46Z</time>
      </trkpt>
      <trkpt lat="42.90069" lon="0.50753">
        <ele>1135</ele>
        <time>2025-06-10T16:03:54Z</time>
      </trkpt>
      <trkpt lat="42.90084" lon="0.50747">
        <ele>1141</ele>
        <time>2025-06-10T16:04:06Z</time>
      </trkpt>
      <trkpt lat="42.90101" lon="0.50733">
        <ele>1150</ele>
        <time>2025-06-10T16:04:22Z</time>
      </trkpt>
      <trkpt lat="42.90109" lon="0.50728">
        <ele>1153</ele>
        <time>2025-06-10T16:04:29Z</time>
      </trkpt>
      <trkpt lat="42.90122" lon="0.50725">
        <ele>1157</ele>
        <time>2025-06-10T16:04:40Z</time>
      </trkpt>
      <trkpt lat="42.90139" lon="0.50724">
        <ele>1159</ele>
        <time>2025-06-10T16:04:53Z</time>
      </trkpt>
      <trkpt lat="42.90152" lon="0.50725">
        <ele>1161</ele>
        <time>2025-06-10T16:05:04Z</time>
      </trkpt>
      <trkpt lat="42.90163" lon="0.50727">
        <ele>1162</ele>
        <time>2025-06-10T16:05:13Z</time>
      </trkpt>
      <trkpt lat="42.90178" lon="0.50732">
        <ele>1161</ele>
        <time>2025-06-10T16:05:25Z</time>
      </trkpt>
      <trkpt lat="42.90214" lon="0.50749">
        <ele>1156</ele>
        <time>2025-06-10T16:05:55Z</time>
      </trkpt>
      <trkpt lat="42.90233" lon="0.50755">
        <ele>1155</ele>
        <time>2025-06-10T16:06:11Z</time>
      </trkpt>
      <trkpt lat="42.90257" lon="0.5076">
        <ele>1152</ele>
        <time>2025-06-10T16:06:30Z</time>
      </trkpt>
      <trkpt lat="42.90261" lon="0.50759">
        <ele>1151</ele>
        <time>2025-06-10T16:06:34Z</time>
      </trkpt>
      <trkpt lat="42.90264" lon="0.50756">
        <ele>1151</ele>
        <time>2025-06-10T16:06:37Z</time>
      </trkpt>
      <trkpt lat="42.90267" lon="0.50751">
        <ele>1152</ele>
        <time>2025-06-10T16:06:40Z</time>
      </trkpt>
      <trkpt lat="42.90267" lon="0.50745">
        <ele>1155</ele>
        <time>2025-06-10T16:06:44Z</time>
      </trkpt>
      <trkpt lat="42.90266" lon="0.50741">
        <ele>1157</ele>
        <time>2025-06-10T16:06:46Z</time>
      </trkpt>
      <trkpt lat="42.90264" lon="0.50737">
        <ele>1160</ele>
        <time>2025-06-10T16:06:49Z</time>
      </trkpt>
      <trkpt lat="42.9026" lon="0.50736">
        <ele>1162</ele>
        <time>2025-06-10T16:06:53Z</time>
      </trkpt>
      <trkpt lat="42.90239" lon="0.50737">
        <ele>1165</ele>
        <time>2025-06-10T16:07:09Z</time>
      </trkpt>
      <trkpt lat="42.90228" lon="0.50736">
        <ele>1164</ele>
        <time>2025-06-10T16:07:18Z</time>
      </trkpt>
      <trkpt lat="42.90211" lon="0.50726">
        <ele>1168</ele>
        <time>2025-06-10T16:07:33Z</time>
      </trkpt>
      <trkpt lat="42.90183" lon="0.50694">
        <ele>1180</ele>
        <time>2025-06-10T16:08:02Z</time>
      </trkpt>
      <trkpt lat="42.90161" lon="0.50678">
        <ele>1185</ele>
        <time>2025-06-10T16:08:22Z</time>
      </trkpt>
      <trkpt lat="42.90119" lon="0.50652">
        <ele>1191</ele>
        <time>2025-06-10T16:08:59Z</time>
      </trkpt>
      <trkpt lat="42.90111" lon="0.50648">
        <ele>1192</ele>
        <time>2025-06-10T16:09:06Z</time>
      </trkpt>
      <trkpt lat="42.90102" lon="0.50649">
        <ele>1191</ele>
        <time>2025-06-10T16:09:13Z</time>
      </trkpt>
      <trkpt lat="42.90091" lon="0.50651">
        <ele>1188</ele>
        <time>2025-06-10T16:09:22Z</time>
      </trkpt>
      <trkpt lat="42.90053" lon="0.50667">
        <ele>1170</ele>
        <time>2025-06-10T16:09:54Z</time>
      </trkpt>
      <trkpt lat="42.90049" lon="0.50667">
        <ele>1169</ele>
        <time>2025-06-10T16:09:57Z</time>
      </trkpt>
      <trkpt lat="42.90045" lon="0.50664">
        <ele>1170</ele>
        <time>2025-06-10T16:10:01Z</time>
      </trkpt>
      <trkpt lat="42.90041" lon="0.50658">
        <ele>1171</ele>
        <time>2025-06-10T16:10:06Z</time>
      </trkpt>
      <trkpt lat="42.90034" lon="0.50641">
        <ele>1176</ele>
        <time>2025-06-10T16:10:17Z</time>
      </trkpt>
      <trkpt lat="42.89999" lon="0.50535">
        <ele>1196</ele>
        <time>2025-06-10T16:11:25Z</time>
      </trkpt>
      <trkpt lat="42.89973" lon="0.50438">
        <ele>1211</ele>
        <time>2025-06-10T16:12:26Z</time>
      </trkpt>
      <trkpt lat="42.89957" lon="0.5039">
        <ele>1217</ele>
        <time>2025-06-10T16:12:57Z</time>
      </trkpt>
      <trkpt lat="42.8992" lon="0.5031">
        <ele>1222</ele>
        <time>2025-06-10T16:13:52Z</time>
      </trkpt>
      <trkpt lat="42.89909" lon="0.50284">
        <ele>1227</ele>
        <time>2025-06-10T16:14:10Z</time>
      </trkpt>
      <trkpt lat="42.89899" lon="0.50249">
        <ele>1237</ele>
        <time>2025-06-10T16:14:32Z</time>
      </trkpt>
      <trkpt lat="42.89894" lon="0.50236">
        <ele>1243</ele>
        <time>2025-06-10T16:14:40Z</time>
      </trkpt>
      <trkpt lat="42.89888" lon="0.50227">
        <ele>1245</ele>
        <time>2025-06-10T16:14:48Z</time>
      </trkpt>
      <trkpt lat="42.89875" lon="0.50212">
        <ele>1247</ele>
        <time>2025-06-10T16:15:01Z</time>
      </trkpt>
      <trkpt lat="42.89858" lon="0.50187">
        <ele>1248</ele>
        <time>2025-06-10T16:15:21Z</time>
      </trkpt>
      <trkpt lat="42.89834" lon="0.50149">
        <ele>1245</ele>
        <time>2025-06-10T16:15:51Z</time>
      </trkpt>
      <trkpt lat="42.8982" lon="0.50123">
        <ele>1249</ele>
        <time>2025-06-10T16:16:10Z</time>
      </trkpt>
      <trkpt lat="42.89808" lon="0.50094">
        <ele>1254</ele>
        <time>2025-06-10T16:16:29Z</time>
      </trkpt>
      <trkpt lat="42.89795" lon="0.50061">
        <ele>1257</ele>
        <time>2025-06-10T16:16:51Z</time>
      </trkpt>
      <trkpt lat="42.89789" lon="0.50041">
        <ele>1259</ele>
        <time>2025-06-10T16:17:04Z</time>
      </trkpt>
      <trkpt lat="42.89784" lon="0.49998">
        <ele>1267</ele>
        <time>2025-06-10T16:17:29Z</time>
      </trkpt>
      <trkpt lat="42.89782" lon="0.49989">
        <ele>1267</ele>
        <time>2025-06-10T16:17:35Z</time>
      </trkpt>
      <trkpt lat="42.89778" lon="0.49983">
        <ele>1266</ele>
        <time>2025-06-10T16:17:40Z</time>
      </trkpt>
      <trkpt lat="42.89771" lon="0.49977">
        <ele>1264</ele>
        <time>2025-06-10T16:17:46Z</time>
      </trkpt>
      <trkpt lat="42.89746" lon="0.49966">
        <ele>1254</ele>
        <time>2025-06-10T16:18:07Z</time>
      </trkpt>
      <trkpt lat="42.8973" lon="0.49953">
        <ele>1254</ele>
        <time>2025-06-10T16:18:22Z</time>
      </trkpt>
      <trkpt lat="42.89708" lon="0.49931">
        <ele>1253</ele>
        <time>2025-06-10T16:18:44Z</time>
      </trkpt>
      <trkpt lat="42.89666" lon="0.49911">
        <ele>1250</ele>
        <time>2025-06-10T16:19:20Z</time>
      </trkpt>
      <trkpt lat="42.89654" lon="0.49903">
        <ele>1253</ele>
        <time>2025-06-10T16:19:30Z</time>
      </trkpt>
      <trkpt lat="42.89644" lon="0.49894">
        <ele>1256</ele>
        <time>2025-06-10T16:19:40Z</time>
      </trkpt>
      <trkpt lat="42.89636" lon="0.49883">
        <ele>1259</ele>
        <time>2025-06-10T16:19:49Z</time>
      </trkpt>
      <trkpt lat="42.89621" lon="0.49856">
        <ele>1265</ele>
        <time>2025-06-10T16:20:09Z</time>
      </trkpt>
      <trkpt lat="42.89611" lon="0.49844">
        <ele>1267</ele>
        <time>2025-06-10T16:20:20Z</time>
      </trkpt>
      <trkpt lat="42.8959" lon="0.49829">
        <ele>1265</ele>
        <time>2025-06-10T16:20:39Z</time>
      </trkpt>
      <trkpt lat="42.8958" lon="0.49819">
        <ele>1267</ele>
        <time>2025-06-10T16:20:48Z</time>
      </trkpt>
      <trkpt lat="42.89567" lon="0.49799">
        <ele>1273</ele>
        <time>2025-06-10T16:21:04Z</time>
      </trkpt>
      <trkpt lat="42.89558" lon="0.49787">
        <ele>1276</ele>
        <time>2025-06-10T16:21:14Z</time>
      </trkpt>
      <trkpt lat="42.89548" lon="0.49779">
        <ele>1276</ele>
        <time>2025-06-10T16:21:23Z</time>
      </trkpt>
      <trkpt lat="42.89535" lon="0.49775">
        <ele>1275</ele>
        <time>2025-06-10T16:21:34Z</time>
      </trkpt>
      <trkpt lat="42.89524" lon="0.49774">
        <ele>1273</ele>
        <time>2025-06-10T16:21:43Z</time>
      </trkpt>
      <trkpt lat="42.89517" lon="0.49775">
        <ele>1271</ele>
        <time>2025-06-10T16:21:49Z</time>
      </trkpt>
      <trkpt lat="42.8951" lon="0.49779">
        <ele>1269</ele>
        <time>2025-06-10T16:21:55Z</time>
      </trkpt>
      <trkpt lat="42.89503" lon="0.49789">
        <ele>1267</ele>
        <time>2025-06-10T16:22:03Z</time>
      </trkpt>
      <trkpt lat="42.89494" lon="0.49809">
        <ele>1267</ele>
        <time>2025-06-10T16:22:17Z</time>
      </trkpt>
      <trkpt lat="42.89493" lon="0.49816">
        <ele>1267</ele>
        <time>2025-06-10T16:22:21Z</time>
      </trkpt>
      <trkpt lat="42.89493" lon="0.49829">
        <ele>1265</ele>
        <time>2025-06-10T16:22:28Z</time>
      </trkpt>
      <trkpt lat="42.89496" lon="0.4984">
        <ele>1265</ele>
        <time>2025-06-10T16:22:35Z</time>
      </trkpt>
      <trkpt lat="42.89502" lon="0.49856">
        <ele>1266</ele>
        <time>2025-06-10T16:22:46Z</time>
      </trkpt>
      <trkpt lat="42.8955" lon="0.49965">
        <ele>1276</ele>
        <time>2025-06-10T16:24:00Z</time>
      </trkpt>
      <trkpt lat="42.89602" lon="0.50068">
        <ele>1279</ele>
        <time>2025-06-10T16:25:14Z</time>
      </trkpt>
      <trkpt lat="42.89609" lon="0.50088">
        <ele>1278</ele>
        <time>2025-06-10T16:25:27Z</time>
      </trkpt>
      <trkpt lat="42.89624" lon="0.50138">
        <ele>1275</ele>
        <time>2025-06-10T16:25:58Z</time>
      </trkpt>
      <trkpt lat="42.89626" lon="0.50151">
        <ele>1276</ele>
        <time>2025-06-10T16:26:06Z</time>
      </trkpt>
      <trkpt lat="42.89626" lon="0.50162">
        <ele>1277</ele>
        <time>2025-06-10T16:26:13Z</time>
      </trkpt>
      <trkpt lat="42.89625" lon="0.50173">
        <ele>1278</ele>
        <time>2025-06-10T16:26:19Z</time>
      </trkpt>
      <trkpt lat="42.89622" lon="0.50184">
        <ele>1279</ele>
        <time>2025-06-10T16:26:26Z</time>
      </trkpt>
      <trkpt lat="42.89618" lon="0.50198">
        <ele>1280</ele>
        <time>2025-06-10T16:26:35Z</time>
      </trkpt>
      <trkpt lat="42.89609" lon="0.50216">
        <ele>1283</ele>
        <time>2025-06-10T16:26:48Z</time>
      </trkpt>
      <trkpt lat="42.89603" lon="0.50226">
        <ele>1285</ele>
        <time>2025-06-10T16:26:55Z</time>
      </trkpt>
      <trkpt lat="42.89598" lon="0.50231">
        <ele>1286</ele>
        <time>2025-06-10T16:27:00Z</time>
      </trkpt>
      <trkpt lat="42.89582" lon="0.50242">
        <ele>1291</ele>
        <time>2025-06-10T16:27:15Z</time>
      </trkpt>
      <trkpt lat="42.89576" lon="0.50248">
        <ele>1292</ele>
        <time>2025-06-10T16:27:21Z</time>
      </trkpt>
      <trkpt lat="42.89571" lon="0.50256">
        <ele>1292</ele>
        <time>2025-06-10T16:27:27Z</time>
      </trkpt>
      <trkpt lat="42.89564" lon="0.50276">
        <ele>1290</ele>
        <time>2025-06-10T16:27:40Z</time>
      </trkpt>
      <trkpt lat="42.89553" lon="0.50326">
        <ele>1285</ele>
        <time>2025-06-10T16:28:10Z</time>
      </trkpt>
      <trkpt lat="42.89552" lon="0.50342">
        <ele>1284</ele>
        <time>2025-06-10T16:28:20Z</time>
      </trkpt>
      <trkpt lat="42.89554" lon="0.50382">
        <ele>1278</ele>
        <time>2025-06-10T16:28:43Z</time>
      </trkpt>
      <trkpt lat="42.89553" lon="0.50392">
        <ele>1278</ele>
        <time>2025-06-10T16:28:49Z</time>
      </trkpt>
      <trkpt lat="42.89546" lon="0.50414">
        <ele>1277</ele>
        <time>2025-06-10T16:29:03Z</time>
      </trkpt>
      <trkpt lat="42.89531" lon="0.50439">
        <ele>1278</ele>
        <time>2025-06-10T16:29:22Z</time>
      </trkpt>
      <trkpt lat="42.89523" lon="0.50448">
        <ele>1278</ele>
        <time>2025-06-10T16:29:31Z</time>
      </trkpt>
      <trkpt lat="42.89511" lon="0.50459">
        <ele>1280</ele>
        <time>2025-06-10T16:29:42Z</time>
      </trkpt>
      <trkpt lat="42.89499" lon="0.50468">
        <ele>1281</ele>
        <time>2025-06-10T16:29:53Z</time>
      </trkpt>
      <trkpt lat="42.89486" lon="0.50473">
        <ele>1281</ele>
        <time>2025-06-10T16:30:04Z</time>
      </trkpt>
      <trkpt lat="42.89476" lon="0.50477">
        <ele>1281</ele>
        <time>2025-06-10T16:30:12Z</time>
      </trkpt>
      <trkpt lat="42.89443" lon="0.50483">
        <ele>1283</ele>
        <time>2025-06-10T16:30:39Z</time>
      </trkpt>
      <trkpt lat="42.89435" lon="0.50485">
        <ele>1283</ele>
        <time>2025-06-10T16:30:45Z</time>
      </trkpt>
      <trkpt lat="42.89421" lon="0.50494">
        <ele>1281</ele>
        <time>2025-06-10T16:30:58Z</time>
      </trkpt>
      <trkpt lat="42.89417" lon="0.50494">
        <ele>1282</ele>
        <time>2025-06-10T16:31:01Z</time>
      </trkpt>
      <trkpt lat="42.89414" lon="0.50492">
        <ele>1283</ele>
        <time>2025-06-10T16:31:04Z</time>
      </trkpt>
      <trkpt lat="42.89412" lon="0.50488">
        <ele>1284</ele>
        <time>2025-06-10T16:31:06Z</time>
      </trkpt>
      <trkpt lat="42.89413" lon="0.50481">
        <ele>1286</ele>
        <time>2025-06-10T16:31:11Z</time>
      </trkpt>
      <trkpt lat="42.89415" lon="0.50477">
        <ele>1287</ele>
        <time>2025-06-10T16:31:13Z</time>
      </trkpt>
      <trkpt lat="42.8942" lon="0.50473">
        <ele>1288</ele>
        <time>2025-06-10T16:31:18Z</time>
      </trkpt>
      <trkpt lat="42.89443" lon="0.5046">
        <ele>1289</ele>
        <time>2025-06-10T16:31:38Z</time>
      </trkpt>
      <trkpt lat="42.89451" lon="0.50455">
        <ele>1289</ele>
        <time>2025-06-10T16:31:45Z</time>
      </trkpt>
      <trkpt lat="42.89462" lon="0.50446">
        <ele>1290</ele>
        <time>2025-06-10T16:31:55Z</time>
      </trkpt>
      <trkpt lat="42.8948" lon="0.50428">
        <ele>1292</ele>
        <time>2025-06-10T16:32:13Z</time>
      </trkpt>
      <trkpt lat="42.89489" lon="0.50417">
        <ele>1294</ele>
        <time>2025-06-10T16:32:23Z</time>
      </trkpt>
      <trkpt lat="42.89502" lon="0.50399">
        <ele>1294</ele>
        <time>2025-06-10T16:32:38Z</time>
      </trkpt>
      <trkpt lat="42.89509" lon="0.50388">
        <ele>1294</ele>
        <time>2025-06-10T16:32:46Z</time>
      </trkpt>
      <trkpt lat="42.89513" lon="0.50379">
        <ele>1294</ele>
        <time>2025-06-10T16:32:52Z</time>
      </trkpt>
      <trkpt lat="42.89518" lon="0.50365">
        <ele>1294</ele>
        <time>2025-06-10T16:33:02Z</time>
      </trkpt>
      <trkpt lat="42.89521" lon="0.50349">
        <ele>1296</ele>
        <time>2025-06-10T16:33:11Z</time>
      </trkpt>
      <trkpt lat="42.89521" lon="0.50331">
        <ele>1298</ele>
        <time>2025-06-10T16:33:22Z</time>
      </trkpt>
      <trkpt lat="42.89519" lon="0.50305">
        <ele>1303</ele>
        <time>2025-06-10T16:33:37Z</time>
      </trkpt>
      <trkpt lat="42.89519" lon="0.50286">
        <ele>1305</ele>
        <time>2025-06-10T16:33:48Z</time>
      </trkpt>
      <trkpt lat="42.89521" lon="0.50268">
        <ele>1307</ele>
        <time>2025-06-10T16:33:59Z</time>
      </trkpt>
      <trkpt lat="42.89537" lon="0.50178">
        <ele>1312</ele>
        <time>2025-06-10T16:34:53Z</time>
      </trkpt>
      <trkpt lat="42.89535" lon="0.50168">
        <ele>1314</ele>
        <time>2025-06-10T16:34:59Z</time>
      </trkpt>
      <trkpt lat="42.8953" lon="0.5016">
        <ele>1316</ele>
        <time>2025-06-10T16:35:06Z</time>
      </trkpt>
      <trkpt lat="42.89523" lon="0.50158">
        <ele>1318</ele>
        <time>2025-06-10T16:35:11Z</time>
      </trkpt>
      <trkpt lat="42.89516" lon="0.50159">
        <ele>1320</ele>
        <time>2025-06-10T16:35:17Z</time>
      </trkpt>
      <trkpt lat="42.8951" lon="0.50162">
        <ele>1321</ele>
        <time>2025-06-10T16:35:22Z</time>
      </trkpt>
      <trkpt lat="42.89507" lon="0.50169">
        <ele>1322</ele>
        <time>2025-06-10T16:35:27Z</time>
      </trkpt>
      <trkpt lat="42.89505" lon="0.50183">
        <ele>1321</ele>
        <time>2025-06-10T16:35:35Z</time>
      </trkpt>
      <trkpt lat="42.89504" lon="0.50203">
        <ele>1319</ele>
        <time>2025-06-10T16:35:47Z</time>
      </trkpt>
      <trkpt lat="42.89501" lon="0.50216">
        <ele>1319</ele>
        <time>2025-06-10T16:35:55Z</time>
      </trkpt>
      <trkpt lat="42.89495" lon="0.50229">
        <ele>1319</ele>
        <time>2025-06-10T16:36:04Z</time>
      </trkpt>
      <trkpt lat="42.89488" lon="0.50245">
        <ele>1319</ele>
        <time>2025-06-10T16:36:15Z</time>
      </trkpt>
      <trkpt lat="42.89473" lon="0.50271">
        <ele>1319</ele>
        <time>2025-06-10T16:36:34Z</time>
      </trkpt>
      <trkpt lat="42.89464" lon="0.50282">
        <ele>1319</ele>
        <time>2025-06-10T16:36:44Z</time>
      </trkpt>
      <trkpt lat="42.89458" lon="0.50288">
        <ele>1320</ele>
        <time>2025-06-10T16:36:50Z</time>
      </trkpt>
      <trkpt lat="42.89453" lon="0.5029">
        <ele>1320</ele>
        <time>2025-06-10T16:36:54Z</time>
      </trkpt>
      <trkpt lat="42.89449" lon="0.5029">
        <ele>1321</ele>
        <time>2025-06-10T16:36:57Z</time>
      </trkpt>
      <trkpt lat="42.89445" lon="0.5029">
        <ele>1322</ele>
        <time>2025-06-10T16:37:01Z</time>
      </trkpt>
      <trkpt lat="42.89441" lon="0.50287">
        <ele>1323</ele>
        <time>2025-06-10T16:37:04Z</time>
      </trkpt>
      <trkpt lat="42.89438" lon="0.50283">
        <ele>1324</ele>
        <time>2025-06-10T16:37:08Z</time>
      </trkpt>
      <trkpt lat="42.89436" lon="0.50275">
        <ele>1325</ele>
        <time>2025-06-10T16:37:12Z</time>
      </trkpt>
      <trkpt lat="42.89437" lon="0.50266">
        <ele>1326</ele>
        <time>2025-06-10T16:37:18Z</time>
      </trkpt>
      <trkpt lat="42.89452" lon="0.50227">
        <ele>1326</ele>
        <time>2025-06-10T16:37:44Z</time>
      </trkpt>
      <trkpt lat="42.89455" lon="0.50218">
        <ele>1326</ele>
        <time>2025-06-10T16:37:49Z</time>
      </trkpt>
      <trkpt lat="42.89456" lon="0.50211">
        <ele>1327</ele>
        <time>2025-06-10T16:37:54Z</time>
      </trkpt>
      <trkpt lat="42.89456" lon="0.50202">
        <ele>1327</ele>
        <time>2025-06-10T16:37:59Z</time>
      </trkpt>
      <trkpt lat="42.89454" lon="0.50194">
        <ele>1328</ele>
        <time>2025-06-10T16:38:04Z</time>
      </trkpt>
      <trkpt lat="42.8945" lon="0.50185">
        <ele>1329</ele>
        <time>2025-06-10T16:38:10Z</time>
      </trkpt>
      <trkpt lat="42.89428" lon="0.50146">
        <ele>1334</ele>
        <time>2025-06-10T16:38:39Z</time>
      </trkpt>
      <trkpt lat="42.89421" lon="0.50134">
        <ele>1336</ele>
        <time>2025-06-10T16:38:48Z</time>
      </trkpt>
      <trkpt lat="42.89415" lon="0.50128">
        <ele>1337</ele>
        <time>2025-06-10T16:38:54Z</time>
      </trkpt>
      <trkpt lat="42.89408" lon="0.50124">
        <ele>1339</ele>
        <time>2025-06-10T16:39:00Z</time>
      </trkpt>
      <trkpt lat="42.89403" lon="0.50122">
        <ele>1341</ele>
        <time>2025-06-10T16:39:04Z</time>
      </trkpt>
      <trkpt lat="42.89395" lon="0.50119">
        <ele>1344</ele>
        <time>2025-06-10T16:39:11Z</time>
      </trkpt>
      <trkpt lat="42.89371" lon="0.50116">
        <ele>1351</ele>
        <time>2025-06-10T16:39:30Z</time>
      </trkpt>
      <trkpt lat="42.89368" lon="0.50114">
        <ele>1352</ele>
        <time>2025-06-10T16:39:33Z</time>
      </trkpt>
      <trkpt lat="42.89364" lon="0.5011">
        <ele>1354</ele>
        <time>2025-06-10T16:39:37Z</time>
      </trkpt>
      <trkpt lat="42.89362" lon="0.50103">
        <ele>1355</ele>
        <time>2025-06-10T16:39:41Z</time>
      </trkpt>
      <trkpt lat="42.89362" lon="0.50096">
        <ele>1356</ele>
        <time>2025-06-10T16:39:45Z</time>
      </trkpt>
      <trkpt lat="42.89364" lon="0.50083">
        <ele>1357</ele>
        <time>2025-06-10T16:39:53Z</time>
      </trkpt>
      <trkpt lat="42.89368" lon="0.50073">
        <ele>1357</ele>
        <time>2025-06-10T16:40:00Z</time>
      </trkpt>
      <trkpt lat="42.89379" lon="0.50052">
        <ele>1356</ele>
        <time>2025-06-10T16:40:15Z</time>
      </trkpt>
      <trkpt lat="42.89385" lon="0.50043">
        <ele>1354</ele>
        <time>2025-06-10T16:40:22Z</time>
      </trkpt>
      <trkpt lat="42.8939" lon="0.50037">
        <ele>1353</ele>
        <time>2025-06-10T16:40:27Z</time>
      </trkpt>
      <trkpt lat="42.89402" lon="0.50028">
        <ele>1350</ele>
        <time>2025-06-10T16:40:38Z</time>
      </trkpt>
      <trkpt lat="42.89407" lon="0.50022">
        <ele>1349</ele>
        <time>2025-06-10T16:40:44Z</time>
      </trkpt>
      <trkpt lat="42.89409" lon="0.50019">
        <ele>1348</ele>
        <time>2025-06-10T16:40:46Z</time>
      </trkpt>
      <trkpt lat="42.8941" lon="0.50014">
        <ele>1348</ele>
        <time>2025-06-10T16:40:49Z</time>
      </trkpt>
      <trkpt lat="42.8941" lon="0.50008">
        <ele>1349</ele>
        <time>2025-06-10T16:40:53Z</time>
      </trkpt>
      <trkpt lat="42.89409" lon="0.50002">
        <ele>1350</ele>
        <time>2025-06-10T16:40:56Z</time>
      </trkpt>
      <trkpt lat="42.89405" lon="0.49996">
        <ele>1351</ele>
        <time>2025-06-10T16:41:01Z</time>
      </trkpt>
      <trkpt lat="42.89395" lon="0.49982">
        <ele>1352</ele>
        <time>2025-06-10T16:41:12Z</time>
      </trkpt>
      <trkpt lat="42.8935" lon="0.49922">
        <ele>1365</ele>
        <time>2025-06-10T16:42:03Z</time>
      </trkpt>
      <trkpt lat="42.89338" lon="0.49901">
        <ele>1368</ele>
        <time>2025-06-10T16:42:18Z</time>
      </trkpt>
      <trkpt lat="42.89325" lon="0.49874">
        <ele>1371</ele>
        <time>2025-06-10T16:42:37Z</time>
      </trkpt>
      <trkpt lat="42.8931" lon="0.49831">
        <ele>1372</ele>
        <time>2025-06-10T16:43:05Z</time>
      </trkpt>
      <trkpt lat="42.89303" lon="0.49811">
        <ele>1374</ele>
        <time>2025-06-10T16:43:18Z</time>
      </trkpt>
      <trkpt lat="42.89297" lon="0.498">
        <ele>1376</ele>
        <time>2025-06-10T16:43:26Z</time>
      </trkpt>
      <trkpt lat="42.89287" lon="0.49786">
        <ele>1379</ele>
        <time>2025-06-10T16:43:38Z</time>
      </trkpt>
      <trkpt lat="42.89268" lon="0.49756">
        <ele>1384</ele>
        <time>2025-06-10T16:44:01Z</time>
      </trkpt>
      <trkpt lat="42.8922" lon="0.49678">
        <ele>1393</ele>
        <time>2025-06-10T16:45:01Z</time>
      </trkpt>
      <trkpt lat="42.89203" lon="0.49642">
        <ele>1394</ele>
        <time>2025-06-10T16:45:26Z</time>
      </trkpt>
      <trkpt lat="42.89193" lon="0.49625">
        <ele>1395</ele>
        <time>2025-06-10T16:45:39Z</time>
      </trkpt>
      <trkpt lat="42.89187" lon="0.49616">
        <ele>1396</ele>
        <time>2025-06-10T16:45:46Z</time>
      </trkpt>
      <trkpt lat="42.89163" lon="0.49593">
        <ele>1399</ele>
        <time>2025-06-10T16:46:09Z</time>
      </trkpt>
      <trkpt lat="42.89149" lon="0.49574">
        <ele>1403</ele>
        <time>2025-06-10T16:46:25Z</time>
      </trkpt>
      <trkpt lat="42.89144" lon="0.49569">
        <ele>1405</ele>
        <time>2025-06-10T16:46:30Z</time>
      </trkpt>
      <trkpt lat="42.89139" lon="0.49565">
        <ele>1407</ele>
        <time>2025-06-10T16:46:35Z</time>
      </trkpt>
      <trkpt lat="42.89135" lon="0.49565">
        <ele>1408</ele>
        <time>2025-06-10T16:46:38Z</time>
      </trkpt>
      <trkpt lat="42.89132" lon="0.49567">
        <ele>1409</ele>
        <time>2025-06-10T16:46:41Z</time>
      </trkpt>
      <trkpt lat="42.89128" lon="0.49571">
        <ele>1411</ele>
        <time>2025-06-10T16:46:45Z</time>
      </trkpt>
      <trkpt lat="42.89127" lon="0.49577">
        <ele>1412</ele>
        <time>2025-06-10T16:46:48Z</time>
      </trkpt>
      <trkpt lat="42.89127" lon="0.49585">
        <ele>1413</ele>
        <time>2025-06-10T16:46:53Z</time>
      </trkpt>
      <trkpt lat="42.89129" lon="0.49592">
        <ele>1414</ele>
        <time>2025-06-10T16:46:57Z</time>
      </trkpt>
      <trkpt lat="42.89157" lon="0.49646">
        <ele>1415</ele>
        <time>2025-06-10T16:47:36Z</time>
      </trkpt>
      <trkpt lat="42.89165" lon="0.49664">
        <ele>1415</ele>
        <time>2025-06-10T16:47:48Z</time>
      </trkpt>
      <trkpt lat="42.89182" lon="0.49718">
        <ele>1424</ele>
        <time>2025-06-10T16:48:23Z</time>
      </trkpt>
      <trkpt lat="42.89201" lon="0.4977">
        <ele>1428</ele>
        <time>2025-06-10T16:48:57Z</time>
      </trkpt>
      <trkpt lat="42.8922" lon="0.49819">
        <ele>1430</ele>
        <time>2025-06-10T16:49:30Z</time>
      </trkpt>
      <trkpt lat="42.89233" lon="0.49857">
        <ele>1430</ele>
        <time>2025-06-10T16:49:54Z</time>
      </trkpt>
      <trkpt lat="42.89239" lon="0.49881">
        <ele>1430</ele>
        <time>2025-06-10T16:50:09Z</time>
      </trkpt>
      <trkpt lat="42.89246" lon="0.49911">
        <ele>1431</ele>
        <time>2025-06-10T16:50:27Z</time>
      </trkpt>
      <trkpt lat="42.89247" lon="0.49935">
        <ele>1430</ele>
        <time>2025-06-10T16:50:42Z</time>
      </trkpt>
      <trkpt lat="42.89246" lon="0.4995">
        <ele>1430</ele>
        <time>2025-06-10T16:50:50Z</time>
      </trkpt>
      <trkpt lat="42.89243" lon="0.49965">
        <ele>1431</ele>
        <time>2025-06-10T16:51:00Z</time>
      </trkpt>
      <trkpt lat="42.89236" lon="0.4998">
        <ele>1434</ele>
        <time>2025-06-10T16:51:10Z</time>
      </trkpt>
      <trkpt lat="42.8923" lon="0.49993">
        <ele>1437</ele>
        <time>2025-06-10T16:51:19Z</time>
      </trkpt>
      <trkpt lat="42.89222" lon="0.50004">
        <ele>1440</ele>
        <time>2025-06-10T16:51:28Z</time>
      </trkpt>
      <trkpt lat="42.89194" lon="0.50035">
        <ele>1448</ele>
        <time>2025-06-10T16:51:57Z</time>
      </trkpt>
      <trkpt lat="42.89172" lon="0.50069">
        <ele>1451</ele>
        <time>2025-06-10T16:52:24Z</time>
      </trkpt>
      <trkpt lat="42.89159" lon="0.50088">
        <ele>1452</ele>
        <time>2025-06-10T16:52:39Z</time>
      </trkpt>
      <trkpt lat="42.89129" lon="0.50126">
        <ele>1457</ele>
        <time>2025-06-10T16:53:12Z</time>
      </trkpt>
      <trkpt lat="42.89104" lon="0.50155">
        <ele>1461</ele>
        <time>2025-06-10T16:53:38Z</time>
      </trkpt>
      <trkpt lat="42.89093" lon="0.50168">
        <ele>1463</ele>
        <time>2025-06-10T16:53:49Z</time>
      </trkpt>
      <trkpt lat="42.89075" lon="0.50186">
        <ele>1469</ele>
        <time>2025-06-10T16:54:07Z</time>
      </trkpt>
      <trkpt lat="42.8907" lon="0.50192">
        <ele>1470</ele>
        <time>2025-06-10T16:54:13Z</time>
      </trkpt>
      <trkpt lat="42.89065" lon="0.502">
        <ele>1471</ele>
        <time>2025-06-10T16:54:19Z</time>
      </trkpt>
      <trkpt lat="42.89051" lon="0.5023">
        <ele>1470</ele>
        <time>2025-06-10T16:54:40Z</time>
      </trkpt>
      <trkpt lat="42.89031" lon="0.50267">
        <ele>1471</ele>
        <time>2025-06-10T16:55:07Z</time>
      </trkpt>
      <trkpt lat="42.89024" lon="0.50278">
        <ele>1471</ele>
        <time>2025-06-10T16:55:15Z</time>
      </trkpt>
      <trkpt lat="42.89008" lon="0.50299">
        <ele>1472</ele>
        <time>2025-06-10T16:55:33Z</time>
      </trkpt>
      <trkpt lat="42.89005" lon="0.50303">
        <ele>1471</ele>
        <time>2025-06-10T16:55:36Z</time>
      </trkpt>
      <trkpt lat="42.89001" lon="0.50305">
        <ele>1472</ele>
        <time>2025-06-10T16:55:40Z</time>
      </trkpt>
      <trkpt lat="42.88996" lon="0.50305">
        <ele>1473</ele>
        <time>2025-06-10T16:55:44Z</time>
      </trkpt>
      <trkpt lat="42.88978" lon="0.50301">
        <ele>1477</ele>
        <time>2025-06-10T16:55:58Z</time>
      </trkpt>
      <trkpt lat="42.88954" lon="0.50298">
        <ele>1482</ele>
        <time>2025-06-10T16:56:18Z</time>
      </trkpt>
      <trkpt lat="42.88948" lon="0.50296">
        <ele>1484</ele>
        <time>2025-06-10T16:56:23Z</time>
      </trkpt>
      <trkpt lat="42.88927" lon="0.50287">
        <ele>1491</ele>
        <time>2025-06-10T16:56:40Z</time>
      </trkpt>
      <trkpt lat="42.88917" lon="0.50285">
        <ele>1494</ele>
        <time>2025-06-10T16:56:48Z</time>
      </trkpt>
      <trkpt lat="42.88894" lon="0.50282">
        <ele>1501</ele>
        <time>2025-06-10T16:57:07Z</time>
      </trkpt>
      <trkpt lat="42.88884" lon="0.50281">
        <ele>1504</ele>
        <time>2025-06-10T16:57:15Z</time>
      </trkpt>
      <trkpt lat="42.88877" lon="0.50282">
        <ele>1505</ele>
        <time>2025-06-10T16:57:20Z</time>
      </trkpt>
      <trkpt lat="42.88872" lon="0.50284">
        <ele>1506</ele>
        <time>2025-06-10T16:57:25Z</time>
      </trkpt>
      <trkpt lat="42.88867" lon="0.50288">
        <ele>1505</ele>
        <time>2025-06-10T16:57:29Z</time>
      </trkpt>
      <trkpt lat="42.88862" lon="0.50293">
        <ele>1503</ele>
        <time>2025-06-10T16:57:34Z</time>
      </trkpt>
      <trkpt lat="42.88853" lon="0.50309">
        <ele>1497</ele>
        <time>2025-06-10T16:57:46Z</time>
      </trkpt>
      <trkpt lat="42.88849" lon="0.50314">
        <ele>1495</ele>
        <time>2025-06-10T16:57:50Z</time>
      </trkpt>
      <trkpt lat="42.8884" lon="0.5032">
        <ele>1494</ele>
        <time>2025-06-10T16:57:58Z</time>
      </trkpt>
      <trkpt lat="42.88834" lon="0.50322">
        <ele>1494</ele>
        <time>2025-06-10T16:58:03Z</time>
      </trkpt>
      <trkpt lat="42.88827" lon="0.50322">
        <ele>1495</ele>
        <time>2025-06-10T16:58:09Z</time>
      </trkpt>
      <trkpt lat="42.8881" lon="0.50318">
        <ele>1498</ele>
        <time>2025-06-10T16:58:23Z</time>
      </trkpt>
      <trkpt lat="42.88804" lon="0.50317">
        <ele>1499</ele>
        <time>2025-06-10T16:58:28Z</time>
      </trkpt>
      <trkpt lat="42.88796" lon="0.50318">
        <ele>1499</ele>
        <time>2025-06-10T16:58:34Z</time>
      </trkpt>
      <trkpt lat="42.88781" lon="0.50323">
        <ele>1497</ele>
        <time>2025-06-10T16:58:46Z</time>
      </trkpt>
      <trkpt lat="42.88774" lon="0.50324">
        <ele>1497</ele>
        <time>2025-06-10T16:58:52Z</time>
      </trkpt>
      <trkpt lat="42.88769" lon="0.50323">
        <ele>1498</ele>
        <time>2025-06-10T16:58:56Z</time>
      </trkpt>
      <trkpt lat="42.88764" lon="0.50322">
        <ele>1499</ele>
        <time>2025-06-10T16:59:00Z</time>
      </trkpt>
      <trkpt lat="42.8876" lon="0.50318">
        <ele>1501</ele>
        <time>2025-06-10T16:59:04Z</time>
      </trkpt>
      <trkpt lat="42.88748" lon="0.50302">
        <ele>1510</ele>
        <time>2025-06-10T16:59:18Z</time>
      </trkpt>
      <trkpt lat="42.88743" lon="0.50298">
        <ele>1512</ele>
        <time>2025-06-10T16:59:22Z</time>
      </trkpt>
      <trkpt lat="42.88721" lon="0.50288">
        <ele>1515</ele>
        <time>2025-06-10T16:59:41Z</time>
      </trkpt>
      <trkpt lat="42.88707" lon="0.5028">
        <ele>1517</ele>
        <time>2025-06-10T16:59:53Z</time>
      </trkpt>
      <trkpt lat="42.88686" lon="0.50274">
        <ele>1518</ele>
        <time>2025-06-10T17:00:10Z</time>
      </trkpt>
      <trkpt lat="42.88681" lon="0.50271">
        <ele>1519</ele>
        <time>2025-06-10T17:00:15Z</time>
      </trkpt>
      <trkpt lat="42.88675" lon="0.50265">
        <ele>1521</ele>
        <time>2025-06-10T17:00:20Z</time>
      </trkpt>
      <trkpt lat="42.88656" lon="0.50244">
        <ele>1528</ele>
        <time>2025-06-10T17:00:40Z</time>
      </trkpt>
      <trkpt lat="42.88642" lon="0.50233">
        <ele>1530</ele>
        <time>2025-06-10T17:00:53Z</time>
      </trkpt>
      <trkpt lat="42.88637" lon="0.50227">
        <ele>1532</ele>
        <time>2025-06-10T17:00:58Z</time>
      </trkpt>
      <trkpt lat="42.88625" lon="0.50209">
        <ele>1538</ele>
        <time>2025-06-10T17:01:13Z</time>
      </trkpt>
      <trkpt lat="42.88621" lon="0.50205">
        <ele>1539</ele>
        <time>2025-06-10T17:01:17Z</time>
      </trkpt>
      <trkpt lat="42.88616" lon="0.50202">
        <ele>1540</ele>
        <time>2025-06-10T17:01:21Z</time>
      </trkpt>
      <trkpt lat="42.88609" lon="0.502">
        <ele>1540</ele>
        <time>2025-06-10T17:01:27Z</time>
      </trkpt>
      <trkpt lat="42.88591" lon="0.50201">
        <ele>1537</ele>
        <time>2025-06-10T17:01:41Z</time>
      </trkpt>
      <trkpt lat="42.88586" lon="0.502">
        <ele>1537</ele>
        <time>2025-06-10T17:01:45Z</time>
      </trkpt>
      <trkpt lat="42.88579" lon="0.50198">
        <ele>1539</ele>
        <time>2025-06-10T17:01:51Z</time>
      </trkpt>
      <trkpt lat="42.88569" lon="0.50191">
        <ele>1544</ele>
        <time>2025-06-10T17:02:00Z</time>
      </trkpt>
      <trkpt lat="42.88556" lon="0.50179">
        <ele>1552</ele>
        <time>2025-06-10T17:02:12Z</time>
      </trkpt>
      <trkpt lat="42.88549" lon="0.50175">
        <ele>1556</ele>
        <time>2025-06-10T17:02:18Z</time>
      </trkpt>
      <trkpt lat="42.88544" lon="0.50174">
        <ele>1557</ele>
        <time>2025-06-10T17:02:23Z</time>
      </trkpt>
      <trkpt lat="42.8854" lon="0.50175">
        <ele>1558</ele>
        <time>2025-06-10T17:02:26Z</time>
      </trkpt>
      <trkpt lat="42.88536" lon="0.50178">
        <ele>1557</ele>
        <time>2025-06-10T17:02:29Z</time>
      </trkpt>
      <trkpt lat="42.88531" lon="0.50183">
        <ele>1556</ele>
        <time>2025-06-10T17:02:34Z</time>
      </trkpt>
      <trkpt lat="42.88523" lon="0.502">
        <ele>1552</ele>
        <time>2025-06-10T17:02:46Z</time>
      </trkpt>
      <trkpt lat="42.88516" lon="0.50212">
        <ele>1549</ele>
        <time>2025-06-10T17:02:55Z</time>
      </trkpt>
      <trkpt lat="42.88509" lon="0.50222">
        <ele>1547</ele>
        <time>2025-06-10T17:03:03Z</time>
      </trkpt>
      <trkpt lat="42.88495" lon="0.50239">
        <ele>1547</ele>
        <time>2025-06-10T17:03:18Z</time>
      </trkpt>
      <trkpt lat="42.88484" lon="0.50248">
        <ele>1551</ele>
        <time>2025-06-10T17:03:29Z</time>
      </trkpt>
      <trkpt lat="42.8847" lon="0.50261">
        <ele>1558</ele>
        <time>2025-06-10T17:03:42Z</time>
      </trkpt>
      <trkpt lat="42.88463" lon="0.50268">
        <ele>1561</ele>
        <time>2025-06-10T17:03:49Z</time>
      </trkpt>
      <trkpt lat="42.88459" lon="0.50277">
        <ele>1563</ele>
        <time>2025-06-10T17:03:55Z</time>
      </trkpt>
      <trkpt lat="42.88457" lon="0.50288">
        <ele>1563</ele>
        <time>2025-06-10T17:04:02Z</time>
      </trkpt>
      <trkpt lat="42.88456" lon="0.50301">
        <ele>1562</ele>
        <time>2025-06-10T17:04:10Z</time>
      </trkpt>
      <trkpt lat="42.88453" lon="0.50312">
        <ele>1562</ele>
        <time>2025-06-10T17:04:17Z</time>
      </trkpt>
      <trkpt lat="42.88444" lon="0.50347">
        <ele>1565</ele>
        <time>2025-06-10T17:04:38Z</time>
      </trkpt>
      <trkpt lat="42.88443" lon="0.50363">
        <ele>1565</ele>
        <time>2025-06-10T17:04:48Z</time>
      </trkpt>
      <trkpt lat="42.88444" lon="0.50376">
        <ele>1565</ele>
        <time>2025-06-10T17:04:55Z</time>
      </trkpt>
      <trkpt lat="42.88445" lon="0.50391">
        <ele>1564</ele>
        <time>2025-06-10T17:05:04Z</time>
      </trkpt>
      <trkpt lat="42.88452" lon="0.50418">
        <ele>1560</ele>
        <time>2025-06-10T17:05:21Z</time>
      </trkpt>
      <trkpt lat="42.88461" lon="0.50447">
        <ele>1551</ele>
        <time>2025-06-10T17:05:40Z</time>
      </trkpt>
      <trkpt lat="42.88462" lon="0.50454">
        <ele>1550</ele>
        <time>2025-06-10T17:05:44Z</time>
      </trkpt>
      <trkpt lat="42.88462" lon="0.5046">
        <ele>1549</ele>
        <time>2025-06-10T17:05:47Z</time>
      </trkpt>
      <trkpt lat="42.88461" lon="0.50465">
        <ele>1549</ele>
        <time>2025-06-10T17:05:50Z</time>
      </trkpt>
      <trkpt lat="42.88459" lon="0.50469">
        <ele>1549</ele>
        <time>2025-06-10T17:05:53Z</time>
      </trkpt>
      <trkpt lat="42.88455" lon="0.50471">
        <ele>1550</ele>
        <time>2025-06-10T17:05:57Z</time>
      </trkpt>
      <trkpt lat="42.88433" lon="0.50471">
        <ele>1558</ele>
        <time>2025-06-10T17:06:14Z</time>
      </trkpt>
      <trkpt lat="42.8842" lon="0.50472">
        <ele>1562</ele>
        <time>2025-06-10T17:06:25Z</time>
      </trkpt>
      <trkpt lat="42.88403" lon="0.5047">
        <ele>1562</ele>
        <time>2025-06-10T17:06:38Z</time>
      </trkpt>
      <trkpt lat="42.88397" lon="0.50466">
        <ele>1563</ele>
        <time>2025-06-10T17:06:44Z</time>
      </trkpt>
      <trkpt lat="42.88378" lon="0.5044">
        <ele>1571</ele>
        <time>2025-06-10T17:07:05Z</time>
      </trkpt>
      <trkpt lat="42.88368" lon="0.50428">
        <ele>1575</ele>
        <time>2025-06-10T17:07:16Z</time>
      </trkpt>
      <trkpt lat="42.88356" lon="0.50419">
        <ele>1579</ele>
        <time>2025-06-10T17:07:27Z</time>
      </trkpt>
      <trkpt lat="42.88342" lon="0.50414">
        <ele>1582</ele>
        <time>2025-06-10T17:07:38Z</time>
      </trkpt>
      <trkpt lat="42.88318" lon="0.50409">
        <ele>1585</ele>
        <time>2025-06-10T17:07:58Z</time>
      </trkpt>
      <trkpt lat="42.88307" lon="0.50408">
        <ele>1586</ele>
        <time>2025-06-10T17:08:07Z</time>
      </trkpt>
      <trkpt lat="42.88251" lon="0.50409">
        <ele>1584</ele>
        <time>2025-06-10T17:08:51Z</time>
      </trkpt>
      <trkpt lat="42.88239" lon="0.50407">
        <ele>1583</ele>
        <time>2025-06-10T17:09:01Z</time>
      </trkpt>
      <trkpt lat="42.88187" lon="0.50396">
        <ele>1579</ele>
        <time>2025-06-10T17:09:43Z</time>
      </trkpt>
      <trkpt lat="42.88178" lon="0.50391">
        <ele>1580</ele>
        <time>2025-06-10T17:09:51Z</time>
      </trkpt>
      <trkpt lat="42.88172" lon="0.50385">
        <ele>1582</ele>
        <time>2025-06-10T17:09:57Z</time>
      </trkpt>
      <trkpt lat="42.88165" lon="0.50377">
        <ele>1584</ele>
        <time>2025-06-10T17:10:04Z</time>
      </trkpt>
      <trkpt lat="42.88158" lon="0.50364">
        <ele>1588</ele>
        <time>2025-06-10T17:10:14Z</time>
      </trkpt>
      <trkpt lat="42.88154" lon="0.50358">
        <ele>1590</ele>
        <time>2025-06-10T17:10:18Z</time>
      </trkpt>
      <trkpt lat="42.88148" lon="0.50353">
        <ele>1590</ele>
        <time>2025-06-10T17:10:24Z</time>
      </trkpt>
      <trkpt lat="42.88134" lon="0.50343">
        <ele>1591</ele>
        <time>2025-06-10T17:10:37Z</time>
      </trkpt>
      <trkpt lat="42.88126" lon="0.50339">
        <ele>1591</ele>
        <time>2025-06-10T17:10:44Z</time>
      </trkpt>
      <trkpt lat="42.88119" lon="0.50337">
        <ele>1590</ele>
        <time>2025-06-10T17:10:49Z</time>
      </trkpt>
      <trkpt lat="42.88101" lon="0.50335">
        <ele>1586</ele>
        <time>2025-06-10T17:11:04Z</time>
      </trkpt>
      <trkpt lat="42.88081" lon="0.5033">
        <ele>1584</ele>
        <time>2025-06-10T17:11:20Z</time>
      </trkpt>
      <trkpt lat="42.88063" lon="0.50327">
        <ele>1585</ele>
        <time>2025-06-10T17:11:35Z</time>
      </trkpt>
      <trkpt lat="42.88052" lon="0.50323">
        <ele>1586</ele>
        <time>2025-06-10T17:11:44Z</time>
      </trkpt>
      <trkpt lat="42.88026" lon="0.50309">
        <ele>1590</ele>
        <time>2025-06-10T17:12:06Z</time>
      </trkpt>
      <trkpt lat="42.8802" lon="0.50303">
        <ele>1592</ele>
        <time>2025-06-10T17:12:12Z</time>
      </trkpt>
      <trkpt lat="42.87989" lon="0.50256">
        <ele>1605</ele>
        <time>2025-06-10T17:12:49Z</time>
      </trkpt>
      <trkpt lat="42.87984" lon="0.50248">
        <ele>1607</ele>
        <time>2025-06-10T17:12:55Z</time>
      </trkpt>
      <trkpt lat="42.87982" lon="0.50241">
        <ele>1609</ele>
        <time>2025-06-10T17:13:00Z</time>
      </trkpt>
      <trkpt lat="42.8798" lon="0.5023">
        <ele>1612</ele>
        <time>2025-06-10T17:13:06Z</time>
      </trkpt>
      <trkpt lat="42.87978" lon="0.50205">
        <ele>1618</ele>
        <time>2025-06-10T17:13:21Z</time>
      </trkpt>
      <trkpt lat="42.87977" lon="0.50195">
        <ele>1620</ele>
        <time>2025-06-10T17:13:27Z</time>
      </trkpt>
      <trkpt lat="42.87973" lon="0.50182">
        <ele>1622</ele>
        <time>2025-06-10T17:13:35Z</time>
      </trkpt>
      <trkpt lat="42.87963" lon="0.50158">
        <ele>1624</ele>
        <time>2025-06-10T17:13:52Z</time>
      </trkpt>
      <trkpt lat="42.87958" lon="0.5015">
        <ele>1625</ele>
        <time>2025-06-10T17:13:58Z</time>
      </trkpt>
      <trkpt lat="42.87951" lon="0.50142">
        <ele>1625</ele>
        <time>2025-06-10T17:14:05Z</time>
      </trkpt>
      <trkpt lat="42.87946" lon="0.50141">
        <ele>1624</ele>
        <time>2025-06-10T17:14:09Z</time>
      </trkpt>
      <trkpt lat="42.87917" lon="0.50145">
        <ele>1616</ele>
        <time>2025-06-10T17:14:32Z</time>
      </trkpt>
      <trkpt lat="42.87908" lon="0.50148">
        <ele>1618</ele>
        <time>2025-06-10T17:14:40Z</time>
      </trkpt>
      <trkpt lat="42.87896" lon="0.50161">
        <ele>1619</ele>
        <time>2025-06-10T17:14:52Z</time>
      </trkpt>
      <trkpt lat="42.87875" lon="0.50177">
        <ele>1627</ele>
        <time>2025-06-10T17:15:11Z</time>
      </trkpt>
      <trkpt lat="42.87872" lon="0.50181">
        <ele>1628</ele>
        <time>2025-06-10T17:15:15Z</time>
      </trkpt>
      <trkpt lat="42.87869" lon="0.50186">
        <ele>1630</ele>
        <time>2025-06-10T17:15:18Z</time>
      </trkpt>
      <trkpt lat="42.87868" lon="0.50193">
        <ele>1631</ele>
        <time>2025-06-10T17:15:23Z</time>
      </trkpt>
      <trkpt lat="42.87869" lon="0.50206">
        <ele>1631</ele>
        <time>2025-06-10T17:15:30Z</time>
      </trkpt>
      <trkpt lat="42.87879" lon="0.50251">
        <ele>1629</ele>
        <time>2025-06-10T17:15:58Z</time>
      </trkpt>
      <trkpt lat="42.87896" lon="0.50308">
        <ele>1625</ele>
        <time>2025-06-10T17:16:34Z</time>
      </trkpt>
      <trkpt lat="42.87898" lon="0.5032">
        <ele>1625</ele>
        <time>2025-06-10T17:16:41Z</time>
      </trkpt>
      <trkpt lat="42.87898" lon="0.50333">
        <ele>1626</ele>
        <time>2025-06-10T17:16:49Z</time>
      </trkpt>
      <trkpt lat="42.87896" lon="0.50346">
        <ele>1624</ele>
        <time>2025-06-10T17:16:57Z</time>
      </trkpt>
      <trkpt lat="42.87892" lon="0.50357">
        <ele>1623</ele>
        <time>2025-06-10T17:17:04Z</time>
      </trkpt>
      <trkpt lat="42.87887" lon="0.50365">
        <ele>1624</ele>
        <time>2025-06-10T17:17:10Z</time>
      </trkpt>
      <trkpt lat="42.87878" lon="0.50373">
        <ele>1626</ele>
        <time>2025-06-10T17:17:19Z</time>
      </trkpt>
      <trkpt lat="42.8787" lon="0.50377">
        <ele>1629</ele>
        <time>2025-06-10T17:17:25Z</time>
      </trkpt>
      <trkpt lat="42.87861" lon="0.50383">
        <ele>1632</ele>
        <time>2025-06-10T17:17:33Z</time>
      </trkpt>
      <trkpt lat="42.87854" lon="0.5039">
        <ele>1633</ele>
        <time>2025-06-10T17:17:40Z</time>
      </trkpt>
      <trkpt lat="42.87842" lon="0.50407">
        <ele>1633</ele>
        <time>2025-06-10T17:17:54Z</time>
      </trkpt>
      <trkpt lat="42.87807" lon="0.50444">
        <ele>1633</ele>
        <time>2025-06-10T17:18:30Z</time>
      </trkpt>
      <trkpt lat="42.87773" lon="0.50476">
        <ele>1634</ele>
        <time>2025-06-10T17:19:03Z</time>
      </trkpt>
      <trkpt lat="42.87758" lon="0.50487">
        <ele>1635</ele>
        <time>2025-06-10T17:19:16Z</time>
      </trkpt>
      <trkpt lat="42.87724" lon="0.50507">
        <ele>1633</ele>
        <time>2025-06-10T17:19:46Z</time>
      </trkpt>
      <trkpt lat="42.87715" lon="0.50509">
        <ele>1633</ele>
        <time>2025-06-10T17:19:53Z</time>
      </trkpt>
      <trkpt lat="42.87708" lon="0.50509">
        <ele>1634</ele>
        <time>2025-06-10T17:19:59Z</time>
      </trkpt>
      <trkpt lat="42.87702" lon="0.50506">
        <ele>1635</ele>
        <time>2025-06-10T17:20:04Z</time>
      </trkpt>
      <trkpt lat="42.87656" lon="0.50467">
        <ele>1652</ele>
        <time>2025-06-10T17:20:47Z</time>
      </trkpt>
      <trkpt lat="42.87622" lon="0.50441">
        <ele>1661</ele>
        <time>2025-06-10T17:21:19Z</time>
      </trkpt>
      <trkpt lat="42.87612" lon="0.50432">
        <ele>1665</ele>
        <time>2025-06-10T17:21:28Z</time>
      </trkpt>
      <trkpt lat="42.87606" lon="0.50428">
        <ele>1666</ele>
        <time>2025-06-10T17:21:34Z</time>
      </trkpt>
      <trkpt lat="42.87603" lon="0.50427">
        <ele>1666</ele>
        <time>2025-06-10T17:21:36Z</time>
      </trkpt>
      <trkpt lat="42.87598" lon="0.50428">
        <ele>1666</ele>
        <time>2025-06-10T17:21:40Z</time>
      </trkpt>
      <trkpt lat="42.87593" lon="0.5043">
        <ele>1665</ele>
        <time>2025-06-10T17:21:44Z</time>
      </trkpt>
      <trkpt lat="42.87567" lon="0.50455">
        <ele>1660</ele>
        <time>2025-06-10T17:22:10Z</time>
      </trkpt>
      <trkpt lat="42.87537" lon="0.50478">
        <ele>1662</ele>
        <time>2025-06-10T17:22:37Z</time>
      </trkpt>
      <trkpt lat="42.87507" lon="0.50498">
        <ele>1667</ele>
        <time>2025-06-10T17:23:04Z</time>
      </trkpt>
      <trkpt lat="42.87501" lon="0.50504">
        <ele>1667</ele>
        <time>2025-06-10T17:23:10Z</time>
      </trkpt>
      <trkpt lat="42.87488" lon="0.5052">
        <ele>1662</ele>
        <time>2025-06-10T17:23:24Z</time>
      </trkpt>
      <trkpt lat="42.87479" lon="0.50525">
        <ele>1661</ele>
        <time>2025-06-10T17:23:32Z</time>
      </trkpt>
      <trkpt lat="42.87475" lon="0.50526">
        <ele>1661</ele>
        <time>2025-06-10T17:23:35Z</time>
      </trkpt>
      <trkpt lat="42.87471" lon="0.50525">
        <ele>1661</ele>
        <time>2025-06-10T17:23:38Z</time>
      </trkpt>
      <trkpt lat="42.87466" lon="0.50523">
        <ele>1662</ele>
        <time>2025-06-10T17:23:42Z</time>
      </trkpt>
      <trkpt lat="42.87429" lon="0.50495">
        <ele>1672</ele>
        <time>2025-06-10T17:24:16Z</time>
      </trkpt>
      <trkpt lat="42.87423" lon="0.50488">
        <ele>1674</ele>
        <time>2025-06-10T17:24:23Z</time>
      </trkpt>
      <trkpt lat="42.8741" lon="0.50473">
        <ele>1680</ele>
        <time>2025-06-10T17:24:36Z</time>
      </trkpt>
      <trkpt lat="42.87405" lon="0.5047">
        <ele>1681</ele>
        <time>2025-06-10T17:24:41Z</time>
      </trkpt>
      <trkpt lat="42.87372" lon="0.50459">
        <ele>1688</ele>
        <time>2025-06-10T17:25:08Z</time>
      </trkpt>
      <trkpt lat="42.87362" lon="0.50457">
        <ele>1689</ele>
        <time>2025-06-10T17:25:16Z</time>
      </trkpt>
      <trkpt lat="42.87354" lon="0.50456">
        <ele>1690</ele>
        <time>2025-06-10T17:25:22Z</time>
      </trkpt>
      <trkpt lat="42.8735" lon="0.50458">
        <ele>1690</ele>
        <time>2025-06-10T17:25:26Z</time>
      </trkpt>
      <trkpt lat="42.87341" lon="0.50464">
        <ele>1690</ele>
        <time>2025-06-10T17:25:34Z</time>
      </trkpt>
      <trkpt lat="42.87339" lon="0.50469">
        <ele>1689</ele>
        <time>2025-06-10T17:25:37Z</time>
      </trkpt>
      <trkpt lat="42.87337" lon="0.50473">
        <ele>1688</ele>
        <time>2025-06-10T17:25:40Z</time>
      </trkpt>
      <trkpt lat="42.87338" lon="0.50501">
        <ele>1681</ele>
        <time>2025-06-10T17:25:56Z</time>
      </trkpt>
      <trkpt lat="42.87337" lon="0.50511">
        <ele>1681</ele>
        <time>2025-06-10T17:26:02Z</time>
      </trkpt>
      <trkpt lat="42.8733" lon="0.50535">
        <ele>1682</ele>
        <time>2025-06-10T17:26:18Z</time>
      </trkpt>
      <trkpt lat="42.87325" lon="0.50551">
        <ele>1683</ele>
        <time>2025-06-10T17:26:28Z</time>
      </trkpt>
      <trkpt lat="42.87321" lon="0.50563">
        <ele>1685</ele>
        <time>2025-06-10T17:26:35Z</time>
      </trkpt>
      <trkpt lat="42.87317" lon="0.50588">
        <ele>1686</ele>
        <time>2025-06-10T17:26:51Z</time>
      </trkpt>
      <trkpt lat="42.87309" lon="0.50617">
        <ele>1691</ele>
        <time>2025-06-10T17:27:09Z</time>
      </trkpt>
      <trkpt lat="42.87306" lon="0.50631">
        <ele>1692</ele>
        <time>2025-06-10T17:27:17Z</time>
      </trkpt>
      <trkpt lat="42.87301" lon="0.50663">
        <ele>1693</ele>
        <time>2025-06-10T17:27:36Z</time>
      </trkpt>
      <trkpt lat="42.87299" lon="0.50665">
        <ele>1694</ele>
        <time>2025-06-10T17:27:38Z</time>
      </trkpt>
      <trkpt lat="42.87297" lon="0.50666">
        <ele>1695</ele>
        <time>2025-06-10T17:27:40Z</time>
      </trkpt>
      <trkpt lat="42.87294" lon="0.50665">
        <ele>1696</ele>
        <time>2025-06-10T17:27:43Z</time>
      </trkpt>
      <trkpt lat="42.87292" lon="0.50663">
        <ele>1697</ele>
        <time>2025-06-10T17:27:45Z</time>
      </trkpt>
      <trkpt lat="42.87291" lon="0.50658">
        <ele>1697</ele>
        <time>2025-06-10T17:27:48Z</time>
      </trkpt>
      <trkpt lat="42.87291" lon="0.5065">
        <ele>1698</ele>
        <time>2025-06-10T17:27:52Z</time>
      </trkpt>
      <trkpt lat="42.87295" lon="0.50617">
        <ele>1698</ele>
        <time>2025-06-10T17:28:12Z</time>
      </trkpt>
      <trkpt lat="42.87299" lon="0.50566">
        <ele>1697</ele>
        <time>2025-06-10T17:28:42Z</time>
      </trkpt>
      <trkpt lat="42.87302" lon="0.50531">
        <ele>1697</ele>
        <time>2025-06-10T17:29:03Z</time>
      </trkpt>
      <trkpt lat="42.87302" lon="0.50519">
        <ele>1697</ele>
        <time>2025-06-10T17:29:10Z</time>
      </trkpt>
      <trkpt lat="42.873" lon="0.50508">
        <ele>1698</ele>
        <time>2025-06-10T17:29:16Z</time>
      </trkpt>
      <trkpt lat="42.87297" lon="0.50495">
        <ele>1701</ele>
        <time>2025-06-10T17:29:24Z</time>
      </trkpt>
      <trkpt lat="42.87292" lon="0.50484">
        <ele>1705</ele>
        <time>2025-06-10T17:29:32Z</time>
      </trkpt>
      <trkpt lat="42.87283" lon="0.50469">
        <ele>1712</ele>
        <time>2025-06-10T17:29:43Z</time>
      </trkpt>
      <trkpt lat="42.87282" lon="0.50463">
        <ele>1713</ele>
        <time>2025-06-10T17:29:47Z</time>
      </trkpt>
      <trkpt lat="42.87283" lon="0.50458">
        <ele>1713</ele>
        <time>2025-06-10T17:29:50Z</time>
      </trkpt>
      <trkpt lat="42.8729" lon="0.50437">
        <ele>1714</ele>
        <time>2025-06-10T17:30:04Z</time>
      </trkpt>
      <trkpt lat="42.87293" lon="0.50428">
        <ele>1715</ele>
        <time>2025-06-10T17:30:09Z</time>
      </trkpt>
      <trkpt lat="42.87299" lon="0.50387">
        <ele>1720</ele>
        <time>2025-06-10T17:30:34Z</time>
      </trkpt>
      <trkpt lat="42.87305" lon="0.50373">
        <ele>1721</ele>
        <time>2025-06-10T17:30:43Z</time>
      </trkpt>
      <trkpt lat="42.87321" lon="0.50341">
        <ele>1722</ele>
        <time>2025-06-10T17:31:06Z</time>
      </trkpt>
      <trkpt lat="42.87326" lon="0.50332">
        <ele>1722</ele>
        <time>2025-06-10T17:31:13Z</time>
      </trkpt>
      <trkpt lat="42.87336" lon="0.50326">
        <ele>1721</ele>
        <time>2025-06-10T17:31:22Z</time>
      </trkpt>
      <trkpt lat="42.87349" lon="0.50322">
        <ele>1724</ele>
        <time>2025-06-10T17:31:32Z</time>
      </trkpt>
      <trkpt lat="42.87354" lon="0.50323">
        <ele>1724</ele>
        <time>2025-06-10T17:31:36Z</time>
      </trkpt>
      <trkpt lat="42.87361" lon="0.50327">
        <ele>1723</ele>
        <time>2025-06-10T17:31:42Z</time>
      </trkpt>
      <trkpt lat="42.87373" lon="0.50338">
        <ele>1721</ele>
        <time>2025-06-10T17:31:54Z</time>
      </trkpt>
      <trkpt lat="42.87384" lon="0.50343">
        <ele>1721</ele>
        <time>2025-06-10T17:32:03Z</time>
      </trkpt>
      <trkpt lat="42.87423" lon="0.50351">
        <ele>1720</ele>
        <time>2025-06-10T17:32:35Z</time>
      </trkpt>
      <trkpt lat="42.87435" lon="0.5035">
        <ele>1719</ele>
        <time>2025-06-10T17:32:44Z</time>
      </trkpt>
      <trkpt lat="42.8744" lon="0.50347">
        <ele>1719</ele>
        <time>2025-06-10T17:32:49Z</time>
      </trkpt>
      <trkpt lat="42.87445" lon="0.50342">
        <ele>1720</ele>
        <time>2025-06-10T17:32:54Z</time>
      </trkpt>
      <trkpt lat="42.87471" lon="0.5031">
        <ele>1726</ele>
        <time>2025-06-10T17:33:22Z</time>
      </trkpt>
      <trkpt lat="42.87482" lon="0.50293">
        <ele>1729</ele>
        <time>2025-06-10T17:33:35Z</time>
      </trkpt>
      <trkpt lat="42.87503" lon="0.50265">
        <ele>1732</ele>
        <time>2025-06-10T17:33:59Z</time>
      </trkpt>
      <trkpt lat="42.87508" lon="0.50257">
        <ele>1733</ele>
        <time>2025-06-10T17:34:05Z</time>
      </trkpt>
      <trkpt lat="42.8751" lon="0.5025">
        <ele>1734</ele>
        <time>2025-06-10T17:34:09Z</time>
      </trkpt>
      <trkpt lat="42.87512" lon="0.50241">
        <ele>1733</ele>
        <time>2025-06-10T17:34:15Z</time>
      </trkpt>
      <trkpt lat="42.87511" lon="0.50235">
        <ele>1733</ele>
        <time>2025-06-10T17:34:18Z</time>
      </trkpt>
      <trkpt lat="42.8751" lon="0.50226">
        <ele>1734</ele>
        <time>2025-06-10T17:34:24Z</time>
      </trkpt>
      <trkpt lat="42.87506" lon="0.50217">
        <ele>1735</ele>
        <time>2025-06-10T17:34:30Z</time>
      </trkpt>
      <trkpt lat="42.87495" lon="0.50196">
        <ele>1738</ele>
        <time>2025-06-10T17:34:45Z</time>
      </trkpt>
      <trkpt lat="42.87461" lon="0.50142">
        <ele>1747</ele>
        <time>2025-06-10T17:35:27Z</time>
      </trkpt>
      <trkpt lat="42.87448" lon="0.5012">
        <ele>1749</ele>
        <time>2025-06-10T17:35:43Z</time>
      </trkpt>
      <trkpt lat="42.87429" lon="0.50083">
        <ele>1750</ele>
        <time>2025-06-10T17:36:10Z</time>
      </trkpt>
      <trkpt lat="42.87417" lon="0.50064">
        <ele>1752</ele>
        <time>2025-06-10T17:36:25Z</time>
      </trkpt>
      <trkpt lat="42.87408" lon="0.50048">
        <ele>1752</ele>
        <time>2025-06-10T17:36:36Z</time>
      </trkpt>
      <trkpt lat="42.87386" lon="0.5001">
        <ele>1751</ele>
        <time>2025-06-10T17:37:05Z</time>
      </trkpt>
      <trkpt lat="42.87366" lon="0.49971">
        <ele>1751</ele>
        <time>2025-06-10T17:37:33Z</time>
      </trkpt>
      <trkpt lat="42.87335" lon="0.49913">
        <ele>1748</ele>
        <time>2025-06-10T17:38:15Z</time>
      </trkpt>
      <trkpt lat="42.87319" lon="0.49881">
        <ele>1747</ele>
        <time>2025-06-10T17:38:38Z</time>
      </trkpt>
      <trkpt lat="42.8731" lon="0.49866">
        <ele>1746</ele>
        <time>2025-06-10T17:38:49Z</time>
      </trkpt>
      <trkpt lat="42.8729" lon="0.49839">
        <ele>1742</ele>
        <time>2025-06-10T17:39:11Z</time>
      </trkpt>
      <trkpt lat="42.8728" lon="0.49819">
        <ele>1739</ele>
        <time>2025-06-10T17:39:26Z</time>
      </trkpt>
      <trkpt lat="42.87276" lon="0.49805">
        <ele>1737</ele>
        <time>2025-06-10T17:39:35Z</time>
      </trkpt>
      <trkpt lat="42.87274" lon="0.49786">
        <ele>1735</ele>
        <time>2025-06-10T17:39:46Z</time>
      </trkpt>
      <trkpt lat="42.87274" lon="0.49776">
        <ele>1735</ele>
        <time>2025-06-10T17:39:52Z</time>
      </trkpt>
      <trkpt lat="42.87277" lon="0.49759">
        <ele>1735</ele>
        <time>2025-06-10T17:40:02Z</time>
      </trkpt>
      <trkpt lat="42.87283" lon="0.49727">
        <ele>1735</ele>
        <time>2025-06-10T17:40:21Z</time>
      </trkpt>
      <trkpt lat="42.87287" lon="0.49716">
        <ele>1735</ele>
        <time>2025-06-10T17:40:28Z</time>
      </trkpt>
      <trkpt lat="42.87291" lon="0.49706">
        <ele>1736</ele>
        <time>2025-06-10T17:40:35Z</time>
      </trkpt>
      <trkpt lat="42.87303" lon="0.49686">
        <ele>1737</ele>
        <time>2025-06-10T17:40:50Z</time>
      </trkpt>
      <trkpt lat="42.87306" lon="0.49681">
        <ele>1738</ele>
        <time>2025-06-10T17:40:54Z</time>
      </trkpt>
      <trkpt lat="42.87306" lon="0.49671">
        <ele>1737</ele>
        <time>2025-06-10T17:41:00Z</time>
      </trkpt>
      <trkpt lat="42.87304" lon="0.49667">
        <ele>1736</ele>
        <time>2025-06-10T17:41:03Z</time>
      </trkpt>
      <trkpt lat="42.87301" lon="0.49664">
        <ele>1736</ele>
        <time>2025-06-10T17:41:06Z</time>
      </trkpt>
      <trkpt lat="42.87295" lon="0.49663">
        <ele>1735</ele>
        <time>2025-06-10T17:41:11Z</time>
      </trkpt>
      <trkpt lat="42.87266" lon="0.49646">
        <ele>1732</ele>
        <time>2025-06-10T17:41:36Z</time>
      </trkpt>
      <trkpt lat="42.87256" lon="0.49644">
        <ele>1730</ele>
        <time>2025-06-10T17:41:44Z</time>
      </trkpt>
      <trkpt lat="42.87246" lon="0.49645">
        <ele>1729</ele>
        <time>2025-06-10T17:41:52Z</time>
      </trkpt>
      <trkpt lat="42.87215" lon="0.49654">
        <ele>1723</ele>
        <time>2025-06-10T17:42:17Z</time>
      </trkpt>
      <trkpt lat="42.87206" lon="0.49655">
        <ele>1722</ele>
        <time>2025-06-10T17:42:25Z</time>
      </trkpt>
      <trkpt lat="42.872" lon="0.49654">
        <ele>1721</ele>
        <time>2025-06-10T17:42:29Z</time>
      </trkpt>
      <trkpt lat="42.87193" lon="0.49651">
        <ele>1721</ele>
        <time>2025-06-10T17:42:35Z</time>
      </trkpt>
      <trkpt lat="42.87187" lon="0.49647">
        <ele>1720</ele>
        <time>2025-06-10T17:42:41Z</time>
      </trkpt>
      <trkpt lat="42.8715" lon="0.49605">
        <ele>1716</ele>
        <time>2025-06-10T17:43:19Z</time>
      </trkpt>
      <trkpt lat="42.87141" lon="0.49591">
        <ele>1714</ele>
        <time>2025-06-10T17:43:30Z</time>
      </trkpt>
      <trkpt lat="42.87133" lon="0.49574">
        <ele>1712</ele>
        <time>2025-06-10T17:43:42Z</time>
      </trkpt>
      <trkpt lat="42.8713" lon="0.49564">
        <ele>1711</ele>
        <time>2025-06-10T17:43:48Z</time>
      </trkpt>
      <trkpt lat="42.87128" lon="0.49536">
        <ele>1712</ele>
        <time>2025-06-10T17:44:05Z</time>
      </trkpt>
      <trkpt lat="42.87126" lon="0.49532">
        <ele>1711</ele>
        <time>2025-06-10T17:44:08Z</time>
      </trkpt>
      <trkpt lat="42.87122" lon="0.49529">
        <ele>1710</ele>
        <time>2025-06-10T17:44:11Z</time>
      </trkpt>
      <trkpt lat="42.87116" lon="0.49528">
        <ele>1708</ele>
        <time>2025-06-10T17:44:16Z</time>
      </trkpt>
      <trkpt lat="42.87111" lon="0.49525">
        <ele>1707</ele>
        <time>2025-06-10T17:44:21Z</time>
      </trkpt>
      <trkpt lat="42.87106" lon="0.49521">
        <ele>1705</ele>
        <time>2025-06-10T17:44:25Z</time>
      </trkpt>
      <trkpt lat="42.87103" lon="0.49511">
        <ele>1704</ele>
        <time>2025-06-10T17:44:32Z</time>
      </trkpt>
      <trkpt lat="42.871" lon="0.49496">
        <ele>1704</ele>
        <time>2025-06-10T17:44:41Z</time>
      </trkpt>
      <trkpt lat="42.87099" lon="0.49473">
        <ele>1707</ele>
        <time>2025-06-10T17:44:54Z</time>
      </trkpt>
      <trkpt lat="42.87097" lon="0.49462">
        <ele>1708</ele>
        <time>2025-06-10T17:45:01Z</time>
      </trkpt>
      <trkpt lat="42.87091" lon="0.49449">
        <ele>1708</ele>
        <time>2025-06-10T17:45:10Z</time>
      </trkpt>
      <trkpt lat="42.87084" lon="0.49437">
        <ele>1708</ele>
        <time>2025-06-10T17:45:19Z</time>
      </trkpt>
      <trkpt lat="42.87072" lon="0.49422">
        <ele>1705</ele>
        <time>2025-06-10T17:45:32Z</time>
      </trkpt>
      <trkpt lat="42.87067" lon="0.49415">
        <ele>1704</ele>
        <time>2025-06-10T17:45:38Z</time>
      </trkpt>
      <trkpt lat="42.87062" lon="0.49396">
        <ele>1705</ele>
        <time>2025-06-10T17:45:49Z</time>
      </trkpt>
      <trkpt lat="42.87058" lon="0.49387">
        <ele>1706</ele>
        <time>2025-06-10T17:45:56Z</time>
      </trkpt>
      <trkpt lat="42.87032" lon="0.49368">
        <ele>1699</ele>
        <time>2025-06-10T17:46:19Z</time>
      </trkpt>
      <trkpt lat="42.87026" lon="0.4936">
        <ele>1698</ele>
        <time>2025-06-10T17:46:26Z</time>
      </trkpt>
      <trkpt lat="42.87015" lon="0.49342">
        <ele>1698</ele>
        <time>2025-06-10T17:46:40Z</time>
      </trkpt>
      <trkpt lat="42.87003" lon="0.4933">
        <ele>1697</ele>
        <time>2025-06-10T17:46:52Z</time>
      </trkpt>
      <trkpt lat="42.86985" lon="0.49305">
        <ele>1693</ele>
        <time>2025-06-10T17:47:12Z</time>
      </trkpt>
      <trkpt lat="42.86979" lon="0.493">
        <ele>1691</ele>
        <time>2025-06-10T17:47:18Z</time>
      </trkpt>
      <trkpt lat="42.86965" lon="0.49295">
        <ele>1686</ele>
        <time>2025-06-10T17:47:29Z</time>
      </trkpt>
      <trkpt lat="42.86955" lon="0.49289">
        <ele>1683</ele>
        <time>2025-06-10T17:47:38Z</time>
      </trkpt>
      <trkpt lat="42.86945" lon="0.49281">
        <ele>1680</ele>
        <time>2025-06-10T17:47:47Z</time>
      </trkpt>
      <trkpt lat="42.86939" lon="0.49274">
        <ele>1679</ele>
        <time>2025-06-10T17:47:54Z</time>
      </trkpt>
      <trkpt lat="42.86931" lon="0.49264">
        <ele>1677</ele>
        <time>2025-06-10T17:48:02Z</time>
      </trkpt>
      <trkpt lat="42.86924" lon="0.49252">
        <ele>1677</ele>
        <time>2025-06-10T17:48:11Z</time>
      </trkpt>
      <trkpt lat="42.8692" lon="0.49243">
        <ele>1675</ele>
        <time>2025-06-10T17:48:18Z</time>
      </trkpt>
      <trkpt lat="42.86918" lon="0.49229">
        <ele>1673</ele>
        <time>2025-06-10T17:48:26Z</time>
      </trkpt>
      <trkpt lat="42.86918" lon="0.49216">
        <ele>1671</ele>
        <time>2025-06-10T17:48:34Z</time>
      </trkpt>
      <trkpt lat="42.86921" lon="0.49199">
        <ele>1671</ele>
        <time>2025-06-10T17:48:44Z</time>
      </trkpt>
      <trkpt lat="42.86924" lon="0.49188">
        <ele>1671</ele>
        <time>2025-06-10T17:48:51Z</time>
      </trkpt>
      <trkpt lat="42.86933" lon="0.49161">
        <ele>1672</ele>
        <time>2025-06-10T17:49:08Z</time>
      </trkpt>
      <trkpt lat="42.8696" lon="0.4909">
        <ele>1669</ele>
        <time>2025-06-10T17:49:55Z</time>
      </trkpt>
      <trkpt lat="42.86965" lon="0.49073">
        <ele>1668</ele>
        <time>2025-06-10T17:50:06Z</time>
      </trkpt>
      <trkpt lat="42.86967" lon="0.49059">
        <ele>1665</ele>
        <time>2025-06-10T17:50:14Z</time>
      </trkpt>
      <trkpt lat="42.86973" lon="0.49039">
        <ele>1662</ele>
        <time>2025-06-10T17:50:27Z</time>
      </trkpt>
      <trkpt lat="42.8698" lon="0.49027">
        <ele>1662</ele>
        <time>2025-06-10T17:50:36Z</time>
      </trkpt>
      <trkpt lat="42.87001" lon="0.4899">
        <ele>1660</ele>
        <time>2025-06-10T17:51:03Z</time>
      </trkpt>
      <trkpt lat="42.87015" lon="0.48959">
        <ele>1656</ele>
        <time>2025-06-10T17:51:25Z</time>
      </trkpt>
      <trkpt lat="42.87032" lon="0.48927">
        <ele>1652</ele>
        <time>2025-06-10T17:51:48Z</time>
      </trkpt>
      <trkpt lat="42.87046" lon="0.48898">
        <ele>1648</ele>
        <time>2025-06-10T17:52:08Z</time>
      </trkpt>
      <trkpt lat="42.87055" lon="0.48883">
        <ele>1646</ele>
        <time>2025-06-10T17:52:20Z</time>
      </trkpt>
      <trkpt lat="42.87069" lon="0.48861">
        <ele>1644</ele>
        <time>2025-06-10T17:52:37Z</time>
      </trkpt>
      <trkpt lat="42.87079" lon="0.4885">
        <ele>1645</ele>
        <time>2025-06-10T17:52:47Z</time>
      </trkpt>
      <trkpt lat="42.87085" lon="0.48846">
        <ele>1646</ele>
        <time>2025-06-10T17:52:52Z</time>
      </trkpt>
      <trkpt lat="42.87102" lon="0.4884">
        <ele>1650</ele>
        <time>2025-06-10T17:53:07Z</time>
      </trkpt>
      <trkpt lat="42.87107" lon="0.48838">
        <ele>1651</ele>
        <time>2025-06-10T17:53:11Z</time>
      </trkpt>
      <trkpt lat="42.87109" lon="0.48835">
        <ele>1651</ele>
        <time>2025-06-10T17:53:13Z</time>
      </trkpt>
      <trkpt lat="42.8711" lon="0.48831">
        <ele>1650</ele>
        <time>2025-06-10T17:53:16Z</time>
      </trkpt>
      <trkpt lat="42.8711" lon="0.48823">
        <ele>1649</ele>
        <time>2025-06-10T17:53:20Z</time>
      </trkpt>
      <trkpt lat="42.87108" lon="0.48821">
        <ele>1648</ele>
        <time>2025-06-10T17:53:22Z</time>
      </trkpt>
      <trkpt lat="42.87106" lon="0.4882">
        <ele>1647</ele>
        <time>2025-06-10T17:53:24Z</time>
      </trkpt>
      <trkpt lat="42.87103" lon="0.4882">
        <ele>1646</ele>
        <time>2025-06-10T17:53:26Z</time>
      </trkpt>
      <trkpt lat="42.87099" lon="0.48822">
        <ele>1645</ele>
        <time>2025-06-10T17:53:30Z</time>
      </trkpt>
      <trkpt lat="42.87054" lon="0.48848">
        <ele>1635</ele>
        <time>2025-06-10T17:54:09Z</time>
      </trkpt>
      <trkpt lat="42.87045" lon="0.48854">
        <ele>1633</ele>
        <time>2025-06-10T17:54:17Z</time>
      </trkpt>
      <trkpt lat="42.87029" lon="0.48868">
        <ele>1632</ele>
        <time>2025-06-10T17:54:32Z</time>
      </trkpt>
      <trkpt lat="42.87014" lon="0.48884">
        <ele>1632</ele>
        <time>2025-06-10T17:54:47Z</time>
      </trkpt>
      <trkpt lat="42.86971" lon="0.48935">
        <ele>1632</ele>
        <time>2025-06-10T17:55:33Z</time>
      </trkpt>
      <trkpt lat="42.86931" lon="0.48976">
        <ele>1628</ele>
        <time>2025-06-10T17:56:13Z</time>
      </trkpt>
      <trkpt lat="42.86924" lon="0.48984">
        <ele>1628</ele>
        <time>2025-06-10T17:56:20Z</time>
      </trkpt>
      <trkpt lat="42.86911" lon="0.49006">
        <ele>1629</ele>
        <time>2025-06-10T17:56:37Z</time>
      </trkpt>
      <trkpt lat="42.86896" lon="0.49026">
        <ele>1628</ele>
        <time>2025-06-10T17:56:54Z</time>
      </trkpt>
      <trkpt lat="42.86872" lon="0.49051">
        <ele>1624</ele>
        <time>2025-06-10T17:57:18Z</time>
      </trkpt>
      <trkpt lat="42.8685" lon="0.49071">
        <ele>1619</ele>
        <time>2025-06-10T17:57:39Z</time>
      </trkpt>
      <trkpt lat="42.86842" lon="0.4908">
        <ele>1617</ele>
        <time>2025-06-10T17:57:47Z</time>
      </trkpt>
      <trkpt lat="42.86791" lon="0.49155">
        <ele>1609</ele>
        <time>2025-06-10T17:58:47Z</time>
      </trkpt>
      <trkpt lat="42.86782" lon="0.49166">
        <ele>1608</ele>
        <time>2025-06-10T17:58:57Z</time>
      </trkpt>
      <trkpt lat="42.86774" lon="0.49172">
        <ele>1605</ele>
        <time>2025-06-10T17:59:04Z</time>
      </trkpt>
      <trkpt lat="42.8675" lon="0.4918">
        <ele>1597</ele>
        <time>2025-06-10T17:59:24Z</time>
      </trkpt>
      <trkpt lat="42.86743" lon="0.49185">
        <ele>1595</ele>
        <time>2025-06-10T17:59:31Z</time>
      </trkpt>
      <trkpt lat="42.86738" lon="0.49191">
        <ele>1594</ele>
        <time>2025-06-10T17:59:36Z</time>
      </trkpt>
      <trkpt lat="42.86734" lon="0.492">
        <ele>1593</ele>
        <time>2025-06-10T17:59:42Z</time>
      </trkpt>
      <trkpt lat="42.8672" lon="0.4924">
        <ele>1592</ele>
        <time>2025-06-10T18:00:08Z</time>
      </trkpt>
      <trkpt lat="42.86719" lon="0.49256">
        <ele>1592</ele>
        <time>2025-06-10T18:00:17Z</time>
      </trkpt>
      <trkpt lat="42.86722" lon="0.49279">
        <ele>1591</ele>
        <time>2025-06-10T18:00:31Z</time>
      </trkpt>
      <trkpt lat="42.86725" lon="0.49292">
        <ele>1591</ele>
        <time>2025-06-10T18:00:39Z</time>
      </trkpt>
      <trkpt lat="42.86731" lon="0.49303">
        <ele>1592</ele>
        <time>2025-06-10T18:00:47Z</time>
      </trkpt>
      <trkpt lat="42.86737" lon="0.4931">
        <ele>1593</ele>
        <time>2025-06-10T18:00:54Z</time>
      </trkpt>
      <trkpt lat="42.86747" lon="0.49323">
        <ele>1595</ele>
        <time>2025-06-10T18:01:05Z</time>
      </trkpt>
      <trkpt lat="42.86751" lon="0.49332">
        <ele>1595</ele>
        <time>2025-06-10T18:01:11Z</time>
      </trkpt>
      <trkpt lat="42.86762" lon="0.49376">
        <ele>1592</ele>
        <time>2025-06-10T18:01:38Z</time>
      </trkpt>
      <trkpt lat="42.86764" lon="0.49391">
        <ele>1591</ele>
        <time>2025-06-10T18:01:47Z</time>
      </trkpt>
      <trkpt lat="42.86765" lon="0.49402">
        <ele>1590</ele>
        <time>2025-06-10T18:01:53Z</time>
      </trkpt>
      <trkpt lat="42.86764" lon="0.49416">
        <ele>1587</ele>
        <time>2025-06-10T18:02:02Z</time>
      </trkpt>
      <trkpt lat="42.86761" lon="0.49429">
        <ele>1587</ele>
        <time>2025-06-10T18:02:10Z</time>
      </trkpt>
      <trkpt lat="42.86758" lon="0.49439">
        <ele>1587</ele>
        <time>2025-06-10T18:02:16Z</time>
      </trkpt>
      <trkpt lat="42.86754" lon="0.49446">
        <ele>1586</ele>
        <time>2025-06-10T18:02:21Z</time>
      </trkpt>
      <trkpt lat="42.86732" lon="0.4947">
        <ele>1589</ele>
        <time>2025-06-10T18:02:44Z</time>
      </trkpt>
      <trkpt lat="42.86726" lon="0.49474">
        <ele>1590</ele>
        <time>2025-06-10T18:02:49Z</time>
      </trkpt>
      <trkpt lat="42.86722" lon="0.49475">
        <ele>1591</ele>
        <time>2025-06-10T18:02:52Z</time>
      </trkpt>
      <trkpt lat="42.86717" lon="0.49475">
        <ele>1591</ele>
        <time>2025-06-10T18:02:56Z</time>
      </trkpt>
      <trkpt lat="42.86712" lon="0.49472">
        <ele>1591</ele>
        <time>2025-06-10T18:03:01Z</time>
      </trkpt>
      <trkpt lat="42.86678" lon="0.49446">
        <ele>1588</ele>
        <time>2025-06-10T18:03:32Z</time>
      </trkpt>
      <trkpt lat="42.86668" lon="0.49438">
        <ele>1586</ele>
        <time>2025-06-10T18:03:41Z</time>
      </trkpt>
      <trkpt lat="42.86662" lon="0.49431">
        <ele>1584</ele>
        <time>2025-06-10T18:03:48Z</time>
      </trkpt>
      <trkpt lat="42.86636" lon="0.49389">
        <ele>1578</ele>
        <time>2025-06-10T18:04:20Z</time>
      </trkpt>
      <trkpt lat="42.86622" lon="0.49362">
        <ele>1572</ele>
        <time>2025-06-10T18:04:39Z</time>
      </trkpt>
      <trkpt lat="42.86616" lon="0.49353">
        <ele>1570</ele>
        <time>2025-06-10T18:04:46Z</time>
      </trkpt>
      <trkpt lat="42.86612" lon="0.49347">
        <ele>1568</ele>
        <time>2025-06-10T18:04:51Z</time>
      </trkpt>
      <trkpt lat="42.86606" lon="0.49343">
        <ele>1566</ele>
        <time>2025-06-10T18:04:57Z</time>
      </trkpt>
      <trkpt lat="42.86599" lon="0.4934">
        <ele>1565</ele>
        <time>2025-06-10T18:05:02Z</time>
      </trkpt>
      <trkpt lat="42.86554" lon="0.4933">
        <ele>1559</ele>
        <time>2025-06-10T18:05:39Z</time>
      </trkpt>
      <trkpt lat="42.86525" lon="0.49319">
        <ele>1553</ele>
        <time>2025-06-10T18:06:03Z</time>
      </trkpt>
      <trkpt lat="42.86516" lon="0.49312">
        <ele>1550</ele>
        <time>2025-06-10T18:06:11Z</time>
      </trkpt>
      <trkpt lat="42.8651" lon="0.49304">
        <ele>1546</ele>
        <time>2025-06-10T18:06:18Z</time>
      </trkpt>
      <trkpt lat="42.865" lon="0.49302">
        <ele>1544</ele>
        <time>2025-06-10T18:06:26Z</time>
      </trkpt>
      <trkpt lat="42.86487" lon="0.49305">
        <ele>1544</ele>
        <time>2025-06-10T18:06:37Z</time>
      </trkpt>
      <trkpt lat="42.86478" lon="0.49312">
        <ele>1546</ele>
        <time>2025-06-10T18:06:45Z</time>
      </trkpt>
      <trkpt lat="42.86469" lon="0.49323">
        <ele>1550</ele>
        <time>2025-06-10T18:06:55Z</time>
      </trkpt>
      <trkpt lat="42.86446" lon="0.49337">
        <ele>1553</ele>
        <time>2025-06-10T18:07:15Z</time>
      </trkpt>
      <trkpt lat="42.86436" lon="0.49341">
        <ele>1554</ele>
        <time>2025-06-10T18:07:23Z</time>
      </trkpt>
      <trkpt lat="42.86429" lon="0.49343">
        <ele>1555</ele>
        <time>2025-06-10T18:07:29Z</time>
      </trkpt>
      <trkpt lat="42.86415" lon="0.49343">
        <ele>1553</ele>
        <time>2025-06-10T18:07:40Z</time>
      </trkpt>
      <trkpt lat="42.86385" lon="0.4934">
        <ele>1543</ele>
        <time>2025-06-10T18:08:04Z</time>
      </trkpt>
      <trkpt lat="42.86365" lon="0.49341">
        <ele>1537</ele>
        <time>2025-06-10T18:08:20Z</time>
      </trkpt>
      <trkpt lat="42.86354" lon="0.49343">
        <ele>1535</ele>
        <time>2025-06-10T18:08:29Z</time>
      </trkpt>
      <trkpt lat="42.86338" lon="0.49349">
        <ele>1532</ele>
        <time>2025-06-10T18:08:42Z</time>
      </trkpt>
      <trkpt lat="42.86323" lon="0.49358">
        <ele>1528</ele>
        <time>2025-06-10T18:08:56Z</time>
      </trkpt>
      <trkpt lat="42.86315" lon="0.49365">
        <ele>1527</ele>
        <time>2025-06-10T18:09:03Z</time>
      </trkpt>
      <trkpt lat="42.86307" lon="0.49372">
        <ele>1525</ele>
        <time>2025-06-10T18:09:11Z</time>
      </trkpt>
      <trkpt lat="42.86301" lon="0.4938">
        <ele>1525</ele>
        <time>2025-06-10T18:09:17Z</time>
      </trkpt>
      <trkpt lat="42.86289" lon="0.49403">
        <ele>1526</ele>
        <time>2025-06-10T18:09:34Z</time>
      </trkpt>
      <trkpt lat="42.86283" lon="0.49419">
        <ele>1528</ele>
        <time>2025-06-10T18:09:45Z</time>
      </trkpt>
      <trkpt lat="42.8627" lon="0.49462">
        <ele>1528</ele>
        <time>2025-06-10T18:10:12Z</time>
      </trkpt>
      <trkpt lat="42.86267" lon="0.49476">
        <ele>1528</ele>
        <time>2025-06-10T18:10:20Z</time>
      </trkpt>
      <trkpt lat="42.86265" lon="0.49506">
        <ele>1530</ele>
        <time>2025-06-10T18:10:38Z</time>
      </trkpt>
      <trkpt lat="42.86262" lon="0.49524">
        <ele>1530</ele>
        <time>2025-06-10T18:10:49Z</time>
      </trkpt>
      <trkpt lat="42.86259" lon="0.49542">
        <ele>1530</ele>
        <time>2025-06-10T18:11:00Z</time>
      </trkpt>
      <trkpt lat="42.86254" lon="0.49559">
        <ele>1528</ele>
        <time>2025-06-10T18:11:11Z</time>
      </trkpt>
      <trkpt lat="42.86248" lon="0.49575">
        <ele>1526</ele>
        <time>2025-06-10T18:11:21Z</time>
      </trkpt>
      <trkpt lat="42.86234" lon="0.49608">
        <ele>1524</ele>
        <time>2025-06-10T18:11:43Z</time>
      </trkpt>
      <trkpt lat="42.86218" lon="0.49652">
        <ele>1521</ele>
        <time>2025-06-10T18:12:12Z</time>
      </trkpt>
      <trkpt lat="42.8621" lon="0.49669">
        <ele>1518</ele>
        <time>2025-06-10T18:12:24Z</time>
      </trkpt>
      <trkpt lat="42.8619" lon="0.49706">
        <ele>1509</ele>
        <time>2025-06-10T18:12:51Z</time>
      </trkpt>
      <trkpt lat="42.86186" lon="0.49718">
        <ele>1507</ele>
        <time>2025-06-10T18:12:59Z</time>
      </trkpt>
      <trkpt lat="42.86172" lon="0.49785">
        <ele>1506</ele>
        <time>2025-06-10T18:13:40Z</time>
      </trkpt>
      <trkpt lat="42.86171" lon="0.498">
        <ele>1508</ele>
        <time>2025-06-10T18:13:49Z</time>
      </trkpt>
      <trkpt lat="42.86171" lon="0.49813">
        <ele>1510</ele>
        <time>2025-06-10T18:13:56Z</time>
      </trkpt>
      <trkpt lat="42.86174" lon="0.4984">
        <ele>1516</ele>
        <time>2025-06-10T18:14:12Z</time>
      </trkpt>
      <trkpt lat="42.86174" lon="0.49863">
        <ele>1517</ele>
        <time>2025-06-10T18:14:26Z</time>
      </trkpt>
      <trkpt lat="42.86171" lon="0.49881">
        <ele>1517</ele>
        <time>2025-06-10T18:14:37Z</time>
      </trkpt>
      <trkpt lat="42.86167" lon="0.49894">
        <ele>1515</ele>
        <time>2025-06-10T18:14:45Z</time>
      </trkpt>
      <trkpt lat="42.86163" lon="0.49905">
        <ele>1513</ele>
        <time>2025-06-10T18:14:52Z</time>
      </trkpt>
      <trkpt lat="42.86146" lon="0.49933">
        <ele>1503</ele>
        <time>2025-06-10T18:15:13Z</time>
      </trkpt>
      <trkpt lat="42.8614" lon="0.49945">
        <ele>1500</ele>
        <time>2025-06-10T18:15:22Z</time>
      </trkpt>
      <trkpt lat="42.86135" lon="0.49962">
        <ele>1499</ele>
        <time>2025-06-10T18:15:33Z</time>
      </trkpt>
      <trkpt lat="42.8613" lon="0.49981">
        <ele>1497</ele>
        <time>2025-06-10T18:15:45Z</time>
      </trkpt>
      <trkpt lat="42.86128" lon="0.49995">
        <ele>1497</ele>
        <time>2025-06-10T18:15:53Z</time>
      </trkpt>
      <trkpt lat="42.86125" lon="0.50047">
        <ele>1498</ele>
        <time>2025-06-10T18:16:23Z</time>
      </trkpt>
      <trkpt lat="42.86114" lon="0.50132">
        <ele>1493</ele>
        <time>2025-06-10T18:17:14Z</time>
      </trkpt>
      <trkpt lat="42.86111" lon="0.50152">
        <ele>1491</ele>
        <time>2025-06-10T18:17:26Z</time>
      </trkpt>
      <trkpt lat="42.86097" lon="0.50211">
        <ele>1482</ele>
        <time>2025-06-10T18:18:03Z</time>
      </trkpt>
      <trkpt lat="42.86091" lon="0.50242">
        <ele>1478</ele>
        <time>2025-06-10T18:18:21Z</time>
      </trkpt>
      <trkpt lat="42.86085" lon="0.50282">
        <ele>1471</ele>
        <time>2025-06-10T18:18:45Z</time>
      </trkpt>
      <trkpt lat="42.86084" lon="0.50298">
        <ele>1469</ele>
        <time>2025-06-10T18:18:55Z</time>
      </trkpt>
      <trkpt lat="42.86084" lon="0.50326">
        <ele>1466</ele>
        <time>2025-06-10T18:19:11Z</time>
      </trkpt>
      <trkpt lat="42.86085" lon="0.50337">
        <ele>1466</ele>
        <time>2025-06-10T18:19:18Z</time>
      </trkpt>
      <trkpt lat="42.86088" lon="0.50344">
        <ele>1468</ele>
        <time>2025-06-10T18:19:22Z</time>
      </trkpt>
      <trkpt lat="42.86095" lon="0.50358">
        <ele>1472</ele>
        <time>2025-06-10T18:19:32Z</time>
      </trkpt>
      <trkpt lat="42.86096" lon="0.50363">
        <ele>1472</ele>
        <time>2025-06-10T18:19:35Z</time>
      </trkpt>
      <trkpt lat="42.86097" lon="0.5037">
        <ele>1473</ele>
        <time>2025-06-10T18:19:40Z</time>
      </trkpt>
      <trkpt lat="42.86096" lon="0.50386">
        <ele>1471</ele>
        <time>2025-06-10T18:19:49Z</time>
      </trkpt>
      <trkpt lat="42.86092" lon="0.50438">
        <ele>1466</ele>
        <time>2025-06-10T18:20:20Z</time>
      </trkpt>
      <trkpt lat="42.86084" lon="0.50493">
        <ele>1461</ele>
        <time>2025-06-10T18:20:53Z</time>
      </trkpt>
      <trkpt lat="42.86082" lon="0.50506">
        <ele>1461</ele>
        <time>2025-06-10T18:21:00Z</time>
      </trkpt>
      <trkpt lat="42.86075" lon="0.50531">
        <ele>1461</ele>
        <time>2025-06-10T18:21:16Z</time>
      </trkpt>
      <trkpt lat="42.86071" lon="0.50574">
        <ele>1466</ele>
        <time>2025-06-10T18:21:42Z</time>
      </trkpt>
      <trkpt lat="42.86071" lon="0.50589">
        <ele>1469</ele>
        <time>2025-06-10T18:21:50Z</time>
      </trkpt>
      <trkpt lat="42.86069" lon="0.50597">
        <ele>1471</ele>
        <time>2025-06-10T18:21:55Z</time>
      </trkpt>
      <trkpt lat="42.86068" lon="0.50601">
        <ele>1472</ele>
        <time>2025-06-10T18:21:58Z</time>
      </trkpt>
      <trkpt lat="42.86063" lon="0.50606">
        <ele>1473</ele>
        <time>2025-06-10T18:22:03Z</time>
      </trkpt>
      <trkpt lat="42.86055" lon="0.50606">
        <ele>1471</ele>
        <time>2025-06-10T18:22:09Z</time>
      </trkpt>
      <trkpt lat="42.86025" lon="0.50594">
        <ele>1457</ele>
        <time>2025-06-10T18:22:34Z</time>
      </trkpt>
      <trkpt lat="42.86016" lon="0.50592">
        <ele>1454</ele>
        <time>2025-06-10T18:22:42Z</time>
      </trkpt>
      <trkpt lat="42.85997" lon="0.50594">
        <ele>1449</ele>
        <time>2025-06-10T18:22:57Z</time>
      </trkpt>
      <trkpt lat="42.85986" lon="0.50598">
        <ele>1446</ele>
        <time>2025-06-10T18:23:06Z</time>
      </trkpt>
      <trkpt lat="42.85974" lon="0.50603">
        <ele>1444</ele>
        <time>2025-06-10T18:23:16Z</time>
      </trkpt>
      <trkpt lat="42.85963" lon="0.50611">
        <ele>1443</ele>
        <time>2025-06-10T18:23:26Z</time>
      </trkpt>
      <trkpt lat="42.85947" lon="0.50627">
        <ele>1443</ele>
        <time>2025-06-10T18:23:42Z</time>
      </trkpt>
      <trkpt lat="42.85923" lon="0.50652">
        <ele>1442</ele>
        <time>2025-06-10T18:24:06Z</time>
      </trkpt>
      <trkpt lat="42.85876" lon="0.50712">
        <ele>1438</ele>
        <time>2025-06-10T18:24:58Z</time>
      </trkpt>
      <trkpt lat="42.85865" lon="0.5073">
        <ele>1438</ele>
        <time>2025-06-10T18:25:11Z</time>
      </trkpt>
      <trkpt lat="42.85853" lon="0.50753">
        <ele>1439</ele>
        <time>2025-06-10T18:25:28Z</time>
      </trkpt>
      <trkpt lat="42.85842" lon="0.50778">
        <ele>1441</ele>
        <time>2025-06-10T18:25:45Z</time>
      </trkpt>
      <trkpt lat="42.85834" lon="0.50794">
        <ele>1442</ele>
        <time>2025-06-10T18:25:56Z</time>
      </trkpt>
      <trkpt lat="42.85811" lon="0.50833">
        <ele>1439</ele>
        <time>2025-06-10T18:26:26Z</time>
      </trkpt>
      <trkpt lat="42.85794" lon="0.50865">
        <ele>1435</ele>
        <time>2025-06-10T18:26:49Z</time>
      </trkpt>
      <trkpt lat="42.85746" lon="0.50963">
        <ele>1427</ele>
        <time>2025-06-10T18:27:58Z</time>
      </trkpt>
      <trkpt lat="42.85708" lon="0.51037">
        <ele>1422</ele>
        <time>2025-06-10T18:28:51Z</time>
      </trkpt>
      <trkpt lat="42.85698" lon="0.51053">
        <ele>1420</ele>
        <time>2025-06-10T18:29:03Z</time>
      </trkpt>
      <trkpt lat="42.85682" lon="0.51077">
        <ele>1416</ele>
        <time>2025-06-10T18:29:22Z</time>
      </trkpt>
      <trkpt lat="42.85676" lon="0.51091">
        <ele>1415</ele>
        <time>2025-06-10T18:29:32Z</time>
      </trkpt>
      <trkpt lat="42.85669" lon="0.51111">
        <ele>1413</ele>
        <time>2025-06-10T18:29:45Z</time>
      </trkpt>
      <trkpt lat="42.85664" lon="0.51129">
        <ele>1411</ele>
        <time>2025-06-10T18:29:56Z</time>
      </trkpt>
      <trkpt lat="42.85662" lon="0.51147">
        <ele>1412</ele>
        <time>2025-06-10T18:30:07Z</time>
      </trkpt>
      <trkpt lat="42.85657" lon="0.51201">
        <ele>1413</ele>
        <time>2025-06-10T18:30:39Z</time>
      </trkpt>
      <trkpt lat="42.85641" lon="0.51267">
        <ele>1408</ele>
        <time>2025-06-10T18:31:20Z</time>
      </trkpt>
      <trkpt lat="42.85634" lon="0.51305">
        <ele>1405</ele>
        <time>2025-06-10T18:31:43Z</time>
      </trkpt>
      <trkpt lat="42.85631" lon="0.51324">
        <ele>1404</ele>
        <time>2025-06-10T18:31:54Z</time>
      </trkpt>
      <trkpt lat="42.8563" lon="0.51333">
        <ele>1403</ele>
        <time>2025-06-10T18:31:59Z</time>
      </trkpt>
      <trkpt lat="42.85631" lon="0.5134">
        <ele>1403</ele>
        <time>2025-06-10T18:32:04Z</time>
      </trkpt>
      <trkpt lat="42.85633" lon="0.51346">
        <ele>1403</ele>
        <time>2025-06-10T18:32:08Z</time>
      </trkpt>
      <trkpt lat="42.85636" lon="0.5135">
        <ele>1404</ele>
        <time>2025-06-10T18:32:11Z</time>
      </trkpt>
      <trkpt lat="42.85648" lon="0.51366">
        <ele>1405</ele>
        <time>2025-06-10T18:32:24Z</time>
      </trkpt>
      <trkpt lat="42.85652" lon="0.51375">
        <ele>1405</ele>
        <time>2025-06-10T18:32:31Z</time>
      </trkpt>
      <trkpt lat="42.85653" lon="0.5138">
        <ele>1405</ele>
        <time>2025-06-10T18:32:34Z</time>
      </trkpt>
      <trkpt lat="42.85654" lon="0.51386">
        <ele>1404</ele>
        <time>2025-06-10T18:32:37Z</time>
      </trkpt>
      <trkpt lat="42.85653" lon="0.51391">
        <ele>1403</ele>
        <time>2025-06-10T18:32:40Z</time>
      </trkpt>
      <trkpt lat="42.8565" lon="0.51395">
        <ele>1402</ele>
        <time>2025-06-10T18:32:44Z</time>
      </trkpt>
      <trkpt lat="42.85646" lon="0.51399">
        <ele>1401</ele>
        <time>2025-06-10T18:32:48Z</time>
      </trkpt>
      <trkpt lat="42.85641" lon="0.51401">
        <ele>1399</ele>
        <time>2025-06-10T18:32:52Z</time>
      </trkpt>
      <trkpt lat="42.85636" lon="0.51401">
        <ele>1398</ele>
        <time>2025-06-10T18:32:56Z</time>
      </trkpt>
      <trkpt lat="42.8563" lon="0.514">
        <ele>1397</ele>
        <time>2025-06-10T18:33:01Z</time>
      </trkpt>
      <trkpt lat="42.85625" lon="0.51396">
        <ele>1396</ele>
        <time>2025-06-10T18:33:05Z</time>
      </trkpt>
      <trkpt lat="42.8562" lon="0.5139">
        <ele>1395</ele>
        <time>2025-06-10T18:33:11Z</time>
      </trkpt>
      <trkpt lat="42.85617" lon="0.51382">
        <ele>1395</ele>
        <time>2025-06-10T18:33:16Z</time>
      </trkpt>
      <trkpt lat="42.85616" lon="0.51371">
        <ele>1396</ele>
        <time>2025-06-10T18:33:22Z</time>
      </trkpt>
      <trkpt lat="42.85616" lon="0.51359">
        <ele>1396</ele>
        <time>2025-06-10T18:33:29Z</time>
      </trkpt>
      <trkpt lat="42.85622" lon="0.51285">
        <ele>1400</ele>
        <time>2025-06-10T18:34:13Z</time>
      </trkpt>
      <trkpt lat="42.85631" lon="0.5119">
        <ele>1398</ele>
        <time>2025-06-10T18:35:09Z</time>
      </trkpt>
      <trkpt lat="42.85633" lon="0.51145">
        <ele>1394</ele>
        <time>2025-06-10T18:35:36Z</time>
      </trkpt>
      <trkpt lat="42.85637" lon="0.51098">
        <ele>1392</ele>
        <time>2025-06-10T18:36:04Z</time>
      </trkpt>
      <trkpt lat="42.85643" lon="0.51062">
        <ele>1391</ele>
        <time>2025-06-10T18:36:25Z</time>
      </trkpt>
      <trkpt lat="42.85647" lon="0.51044">
        <ele>1390</ele>
        <time>2025-06-10T18:36:36Z</time>
      </trkpt>
      <trkpt lat="42.85655" lon="0.51017">
        <ele>1390</ele>
        <time>2025-06-10T18:36:53Z</time>
      </trkpt>
      <trkpt lat="42.85671" lon="0.50972">
        <ele>1389</ele>
        <time>2025-06-10T18:37:23Z</time>
      </trkpt>
      <trkpt lat="42.85708" lon="0.50851">
        <ele>1377</ele>
        <time>2025-06-10T18:38:40Z</time>
      </trkpt>
      <trkpt lat="42.85724" lon="0.50806">
        <ele>1375</ele>
        <time>2025-06-10T18:39:09Z</time>
      </trkpt>
      <trkpt lat="42.85743" lon="0.50741">
        <ele>1369</ele>
        <time>2025-06-10T18:39:50Z</time>
      </trkpt>
      <trkpt lat="42.85756" lon="0.50704">
        <ele>1366</ele>
        <time>2025-06-10T18:40:14Z</time>
      </trkpt>
      <trkpt lat="42.85776" lon="0.50647">
        <ele>1362</ele>
        <time>2025-06-10T18:40:51Z</time>
      </trkpt>
      <trkpt lat="42.85807" lon="0.50566">
        <ele>1357</ele>
        <time>2025-06-10T18:41:45Z</time>
      </trkpt>
      <trkpt lat="42.85821" lon="0.50519">
        <ele>1352</ele>
        <time>2025-06-10T18:42:15Z</time>
      </trkpt>
      <trkpt lat="42.85854" lon="0.5045">
        <ele>1351</ele>
        <time>2025-06-10T18:43:03Z</time>
      </trkpt>
      <trkpt lat="42.85864" lon="0.5043">
        <ele>1351</ele>
        <time>2025-06-10T18:43:17Z</time>
      </trkpt>
      <trkpt lat="42.85867" lon="0.50422">
        <ele>1351</ele>
        <time>2025-06-10T18:43:22Z</time>
      </trkpt>
      <trkpt lat="42.85869" lon="0.50409">
        <ele>1350</ele>
        <time>2025-06-10T18:43:30Z</time>
      </trkpt>
      <trkpt lat="42.85874" lon="0.50335">
        <ele>1348</ele>
        <time>2025-06-10T18:44:14Z</time>
      </trkpt>
      <trkpt lat="42.85874" lon="0.50305">
        <ele>1346</ele>
        <time>2025-06-10T18:44:31Z</time>
      </trkpt>
      <trkpt lat="42.85873" lon="0.50247">
        <ele>1344</ele>
        <time>2025-06-10T18:45:06Z</time>
      </trkpt>
      <trkpt lat="42.85869" lon="0.50126">
        <ele>1340</ele>
        <time>2025-06-10T18:46:17Z</time>
      </trkpt>
      <trkpt lat="42.85869" lon="0.50113">
        <ele>1340</ele>
        <time>2025-06-10T18:46:24Z</time>
      </trkpt>
      <trkpt lat="42.85874" lon="0.50094">
        <ele>1341</ele>
        <time>2025-06-10T18:46:36Z</time>
      </trkpt>
      <trkpt lat="42.85874" lon="0.50087">
        <ele>1341</ele>
        <time>2025-06-10T18:46:40Z</time>
      </trkpt>
      <trkpt lat="42.85874" lon="0.50082">
        <ele>1341</ele>
        <time>2025-06-10T18:46:43Z</time>
      </trkpt>
      <trkpt lat="42.85871" lon="0.50076">
        <ele>1340</ele>
        <time>2025-06-10T18:46:47Z</time>
      </trkpt>
      <trkpt lat="42.85868" lon="0.50075">
        <ele>1339</ele>
        <time>2025-06-10T18:46:50Z</time>
      </trkpt>
      <trkpt lat="42.85865" lon="0.50077">
        <ele>1338</ele>
        <time>2025-06-10T18:46:53Z</time>
      </trkpt>
      <trkpt lat="42.85861" lon="0.50097">
        <ele>1336</ele>
        <time>2025-06-10T18:47:05Z</time>
      </trkpt>
      <trkpt lat="42.85856" lon="0.50133">
        <ele>1335</ele>
        <time>2025-06-10T18:47:26Z</time>
      </trkpt>
      <trkpt lat="42.85843" lon="0.50195">
        <ele>1330</ele>
        <time>2025-06-10T18:48:04Z</time>
      </trkpt>
      <trkpt lat="42.85836" lon="0.50222">
        <ele>1328</ele>
        <time>2025-06-10T18:48:21Z</time>
      </trkpt>
      <trkpt lat="42.85828" lon="0.50243">
        <ele>1325</ele>
        <time>2025-06-10T18:48:35Z</time>
      </trkpt>
      <trkpt lat="42.85818" lon="0.50265">
        <ele>1323</ele>
        <time>2025-06-10T18:48:50Z</time>
      </trkpt>
      <trkpt lat="42.85806" lon="0.50287">
        <ele>1321</ele>
        <time>2025-06-10T18:49:06Z</time>
      </trkpt>
      <trkpt lat="42.85779" lon="0.50331">
        <ele>1316</ele>
        <time>2025-06-10T18:49:40Z</time>
      </trkpt>
      <trkpt lat="42.85766" lon="0.50349">
        <ele>1314</ele>
        <time>2025-06-10T18:49:55Z</time>
      </trkpt>
      <trkpt lat="42.85736" lon="0.50386">
        <ele>1310</ele>
        <time>2025-06-10T18:50:27Z</time>
      </trkpt>
      <trkpt lat="42.8573" lon="0.50395">
        <ele>1309</ele>
        <time>2025-06-10T18:50:34Z</time>
      </trkpt>
      <trkpt lat="42.85727" lon="0.50406">
        <ele>1309</ele>
        <time>2025-06-10T18:50:41Z</time>
      </trkpt>
      <trkpt lat="42.85708" lon="0.50481">
        <ele>1307</ele>
        <time>2025-06-10T18:51:28Z</time>
      </trkpt>
      <trkpt lat="42.85707" lon="0.50492">
        <ele>1307</ele>
        <time>2025-06-10T18:51:34Z</time>
      </trkpt>
      <trkpt lat="42.85709" lon="0.50515">
        <ele>1310</ele>
        <time>2025-06-10T18:51:48Z</time>
      </trkpt>
      <trkpt lat="42.85708" lon="0.50525">
        <ele>1310</ele>
        <time>2025-06-10T18:51:54Z</time>
      </trkpt>
      <trkpt lat="42.85706" lon="0.50534">
        <ele>1310</ele>
        <time>2025-06-10T18:51:59Z</time>
      </trkpt>
      <trkpt lat="42.85704" lon="0.50542">
        <ele>1310</ele>
        <time>2025-06-10T18:52:04Z</time>
      </trkpt>
      <trkpt lat="42.85691" lon="0.50567">
        <ele>1307</ele>
        <time>2025-06-10T18:52:22Z</time>
      </trkpt>
      <trkpt lat="42.85684" lon="0.50586">
        <ele>1305</ele>
        <time>2025-06-10T18:52:35Z</time>
      </trkpt>
      <trkpt lat="42.85672" lon="0.50621">
        <ele>1308</ele>
        <time>2025-06-10T18:52:57Z</time>
      </trkpt>
      <trkpt lat="42.85666" lon="0.50634">
        <ele>1308</ele>
        <time>2025-06-10T18:53:06Z</time>
      </trkpt>
      <trkpt lat="42.85658" lon="0.50647">
        <ele>1308</ele>
        <time>2025-06-10T18:53:16Z</time>
      </trkpt>
      <trkpt lat="42.85645" lon="0.50665">
        <ele>1306</ele>
        <time>2025-06-10T18:53:31Z</time>
      </trkpt>
      <trkpt lat="42.85594" lon="0.50724">
        <ele>1292</ele>
        <time>2025-06-10T18:54:25Z</time>
      </trkpt>
      <trkpt lat="42.85587" lon="0.50734">
        <ele>1289</ele>
        <time>2025-06-10T18:54:33Z</time>
      </trkpt>
      <trkpt lat="42.85566" lon="0.50773">
        <ele>1290</ele>
        <time>2025-06-10T18:55:01Z</time>
      </trkpt>
      <trkpt lat="42.85561" lon="0.50787">
        <ele>1291</ele>
        <time>2025-06-10T18:55:10Z</time>
      </trkpt>
      <trkpt lat="42.85549" lon="0.50817">
        <ele>1291</ele>
        <time>2025-06-10T18:55:30Z</time>
      </trkpt>
      <trkpt lat="42.85541" lon="0.50831">
        <ele>1290</ele>
        <time>2025-06-10T18:55:41Z</time>
      </trkpt>
      <trkpt lat="42.8553" lon="0.50847">
        <ele>1287</ele>
        <time>2025-06-10T18:55:54Z</time>
      </trkpt>
      <trkpt lat="42.85517" lon="0.50866">
        <ele>1284</ele>
        <time>2025-06-10T18:56:09Z</time>
      </trkpt>
      <trkpt lat="42.85493" lon="0.50917">
        <ele>1282</ele>
        <time>2025-06-10T18:56:44Z</time>
      </trkpt>
      <trkpt lat="42.8547" lon="0.50953">
        <ele>1282</ele>
        <time>2025-06-10T18:57:12Z</time>
      </trkpt>
      <trkpt lat="42.85462" lon="0.50966">
        <ele>1280</ele>
        <time>2025-06-10T18:57:22Z</time>
      </trkpt>
      <trkpt lat="42.85458" lon="0.50976">
        <ele>1279</ele>
        <time>2025-06-10T18:57:29Z</time>
      </trkpt>
      <trkpt lat="42.85456" lon="0.50985">
        <ele>1279</ele>
        <time>2025-06-10T18:57:35Z</time>
      </trkpt>
      <trkpt lat="42.85451" lon="0.51028">
        <ele>1279</ele>
        <time>2025-06-10T18:58:00Z</time>
      </trkpt>
      <trkpt lat="42.85448" lon="0.51047">
        <ele>1280</ele>
        <time>2025-06-10T18:58:12Z</time>
      </trkpt>
      <trkpt lat="42.85445" lon="0.51061">
        <ele>1280</ele>
        <time>2025-06-10T18:58:20Z</time>
      </trkpt>
      <trkpt lat="42.85438" lon="0.5108">
        <ele>1278</ele>
        <time>2025-06-10T18:58:33Z</time>
      </trkpt>
      <trkpt lat="42.85421" lon="0.51121">
        <ele>1273</ele>
        <time>2025-06-10T18:59:00Z</time>
      </trkpt>
      <trkpt lat="42.85418" lon="0.51133">
        <ele>1272</ele>
        <time>2025-06-10T18:59:08Z</time>
      </trkpt>
      <trkpt lat="42.85413" lon="0.51168">
        <ele>1273</ele>
        <time>2025-06-10T18:59:29Z</time>
      </trkpt>
      <trkpt lat="42.85396" lon="0.51236">
        <ele>1273</ele>
        <time>2025-06-10T19:00:11Z</time>
      </trkpt>
      <trkpt lat="42.85376" lon="0.51325">
        <ele>1272</ele>
        <time>2025-06-10T19:01:05Z</time>
      </trkpt>
      <trkpt lat="42.85362" lon="0.51378">
        <ele>1271</ele>
        <time>2025-06-10T19:01:39Z</time>
      </trkpt>
      <trkpt lat="42.85354" lon="0.51402">
        <ele>1269</ele>
        <time>2025-06-10T19:01:54Z</time>
      </trkpt>
      <trkpt lat="42.8534" lon="0.51435">
        <ele>1265</ele>
        <time>2025-06-10T19:02:16Z</time>
      </trkpt>
      <trkpt lat="42.85334" lon="0.51455">
        <ele>1264</ele>
        <time>2025-06-10T19:02:29Z</time>
      </trkpt>
      <trkpt lat="42.8533" lon="0.51472">
        <ele>1264</ele>
        <time>2025-06-10T19:02:40Z</time>
      </trkpt>
      <trkpt lat="42.85324" lon="0.51507">
        <ele>1265</ele>
        <time>2025-06-10T19:03:01Z</time>
      </trkpt>
      <trkpt lat="42.8532" lon="0.51523">
        <ele>1266</ele>
        <time>2025-06-10T19:03:11Z</time>
      </trkpt>
      <trkpt lat="42.85314" lon="0.51547">
        <ele>1266</ele>
        <time>2025-06-10T19:03:25Z</time>
      </trkpt>
      <trkpt lat="42.85309" lon="0.5156">
        <ele>1266</ele>
        <time>2025-06-10T19:03:34Z</time>
      </trkpt>
      <trkpt lat="42.85297" lon="0.51583">
        <ele>1264</ele>
        <time>2025-06-10T19:03:51Z</time>
      </trkpt>
      <trkpt lat="42.85286" lon="0.51598">
        <ele>1262</ele>
        <time>2025-06-10T19:04:03Z</time>
      </trkpt>
      <trkpt lat="42.85288" lon="0.51603">
        <ele>1263</ele>
        <time>2025-06-10T19:04:06Z</time>
      </trkpt>
      <trkpt lat="42.85287" lon="0.51606">
        <ele>1263</ele>
        <time>2025-06-10T19:04:08Z</time>
      </trkpt>
      <trkpt lat="42.85282" lon="0.51615">
        <ele>1262</ele>
        <time>2025-06-10T19:04:15Z</time>
      </trkpt>
      <trkpt lat="42.85278" lon="0.51627">
        <ele>1263</ele>
        <time>2025-06-10T19:04:23Z</time>
      </trkpt>
      <trkpt lat="42.85273" lon="0.51643">
        <ele>1263</ele>
        <time>2025-06-10T19:04:33Z</time>
      </trkpt>
      <trkpt lat="42.85266" lon="0.51688">
        <ele>1264</ele>
        <time>2025-06-10T19:05:00Z</time>
      </trkpt>
      <trkpt lat="42.85266" lon="0.517">
        <ele>1265</ele>
        <time>2025-06-10T19:05:07Z</time>
      </trkpt>
      <trkpt lat="42.85266" lon="0.51707">
        <ele>1265</ele>
        <time>2025-06-10T19:05:11Z</time>
      </trkpt>
      <trkpt lat="42.85264" lon="0.51718">
        <ele>1265</ele>
        <time>2025-06-10T19:05:18Z</time>
      </trkpt>
      <trkpt lat="42.8526" lon="0.51727">
        <ele>1264</ele>
        <time>2025-06-10T19:05:24Z</time>
      </trkpt>
      <trkpt lat="42.85258" lon="0.5174">
        <ele>1264</ele>
        <time>2025-06-10T19:05:32Z</time>
      </trkpt>
      <trkpt lat="42.85258" lon="0.51749">
        <ele>1265</ele>
        <time>2025-06-10T19:05:37Z</time>
      </trkpt>
      <trkpt lat="42.8526" lon="0.51768">
        <ele>1264</ele>
        <time>2025-06-10T19:05:48Z</time>
      </trkpt>
      <trkpt lat="42.85267" lon="0.51795">
        <ele>1263</ele>
        <time>2025-06-10T19:06:05Z</time>
      </trkpt>
      <trkpt lat="42.85269" lon="0.51803">
        <ele>1263</ele>
        <time>2025-06-10T19:06:10Z</time>
      </trkpt>
      <trkpt lat="42.8526" lon="0.51807">
        <ele>1261</ele>
        <time>2025-06-10T19:06:18Z</time>
      </trkpt>
      <trkpt lat="42.8526" lon="0.51809">
        <ele>1261</ele>
        <time>2025-06-10T19:06:19Z</time>
      </trkpt>
      <trkpt lat="42.8526" lon="0.51812">
        <ele>1261</ele>
        <time>2025-06-10T19:06:21Z</time>
      </trkpt>
      <trkpt lat="42.8526" lon="0.51815">
        <ele>1261</ele>
        <time>2025-06-10T19:06:22Z</time>
      </trkpt>
      <trkpt lat="42.85262" lon="0.5182">
        <ele>1261</ele>
        <time>2025-06-10T19:06:26Z</time>
      </trkpt>
      <trkpt lat="42.85266" lon="0.51823">
        <ele>1261</ele>
        <time>2025-06-10T19:06:29Z</time>
      </trkpt>
      <trkpt lat="42.85267" lon="0.51826">
        <ele>1261</ele>
        <time>2025-06-10T19:06:31Z</time>
      </trkpt>
      <trkpt lat="42.85261" lon="0.51852">
        <ele>1259</ele>
        <time>2025-06-10T19:06:47Z</time>
      </trkpt>
      <trkpt lat="42.85258" lon="0.51862">
        <ele>1259</ele>
        <time>2025-06-10T19:06:54Z</time>
      </trkpt>
      <trkpt lat="42.85255" lon="0.51864">
        <ele>1258</ele>
        <time>2025-06-10T19:06:56Z</time>
      </trkpt>
      <trkpt lat="42.85255" lon="0.51868">
        <ele>1258</ele>
        <time>2025-06-10T19:06:59Z</time>
      </trkpt>
      <trkpt lat="42.85255" lon="0.51875">
        <ele>1258</ele>
        <time>2025-06-10T19:07:03Z</time>
      </trkpt>
      <trkpt lat="42.85253" lon="0.51882">
        <ele>1257</ele>
        <time>2025-06-10T19:07:07Z</time>
      </trkpt>
      <trkpt lat="42.85251" lon="0.51887">
        <ele>1257</ele>
        <time>2025-06-10T19:07:10Z</time>
      </trkpt>
      <trkpt lat="42.85248" lon="0.5189">
        <ele>1257</ele>
        <time>2025-06-10T19:07:13Z</time>
      </trkpt>
      <trkpt lat="42.85245" lon="0.51893">
        <ele>1256</ele>
        <time>2025-06-10T19:07:16Z</time>
      </trkpt>
      <trkpt lat="42.85237" lon="0.51894">
        <ele>1256</ele>
        <time>2025-06-10T19:07:23Z</time>
      </trkpt>
      <trkpt lat="42.85223" lon="0.51894">
        <ele>1255</ele>
        <time>2025-06-10T19:07:34Z</time>
      </trkpt>
      <trkpt lat="42.85217" lon="0.51896">
        <ele>1255</ele>
        <time>2025-06-10T19:07:39Z</time>
      </trkpt>
      <trkpt lat="42.85212" lon="0.51898">
        <ele>1255</ele>
        <time>2025-06-10T19:07:43Z</time>
      </trkpt>
      <trkpt lat="42.85206" lon="0.51902">
        <ele>1255</ele>
        <time>2025-06-10T19:07:49Z</time>
      </trkpt>
      <trkpt lat="42.85166" lon="0.51947">
        <ele>1255</ele>
        <time>2025-06-10T19:08:30Z</time>
      </trkpt>
      <trkpt lat="42.8516" lon="0.51956">
        <ele>1253</ele>
        <time>2025-06-10T19:08:37Z</time>
      </trkpt>
      <trkpt lat="42.85154" lon="0.51966">
        <ele>1252</ele>
        <time>2025-06-10T19:08:45Z</time>
      </trkpt>
      <trkpt lat="42.85147" lon="0.51981">
        <ele>1251</ele>
        <time>2025-06-10T19:08:55Z</time>
      </trkpt>
      <trkpt lat="42.85134" lon="0.52015">
        <ele>1250</ele>
        <time>2025-06-10T19:09:18Z</time>
      </trkpt>
      <trkpt lat="42.85104" lon="0.52093">
        <ele>1252</ele>
        <time>2025-06-10T19:10:09Z</time>
      </trkpt>
      <trkpt lat="42.85098" lon="0.52119">
        <ele>1252</ele>
        <time>2025-06-10T19:10:25Z</time>
      </trkpt>
      <trkpt lat="42.85092" lon="0.52158">
        <ele>1253</ele>
        <time>2025-06-10T19:10:49Z</time>
      </trkpt>
      <trkpt lat="42.85088" lon="0.52185">
        <ele>1254</ele>
        <time>2025-06-10T19:11:05Z</time>
      </trkpt>
      <trkpt lat="42.85085" lon="0.52217">
        <ele>1255</ele>
        <time>2025-06-10T19:11:24Z</time>
      </trkpt>
      <trkpt lat="42.85084" lon="0.52235">
        <ele>1256</ele>
        <time>2025-06-10T19:11:35Z</time>
      </trkpt>
      <trkpt lat="42.85085" lon="0.52242">
        <ele>1257</ele>
        <time>2025-06-10T19:11:39Z</time>
      </trkpt>
      <trkpt lat="42.85088" lon="0.52267">
        <ele>1259</ele>
        <time>2025-06-10T19:11:54Z</time>
      </trkpt>
      <trkpt lat="42.85091" lon="0.52304">
        <ele>1262</ele>
        <time>2025-06-10T19:12:15Z</time>
      </trkpt>
      <trkpt lat="42.85091" lon="0.52319">
        <ele>1262</ele>
        <time>2025-06-10T19:12:24Z</time>
      </trkpt>
      <trkpt lat="42.85091" lon="0.52322">
        <ele>1262</ele>
        <time>2025-06-10T19:12:26Z</time>
      </trkpt>
      <trkpt lat="42.85087" lon="0.52326">
        <ele>1262</ele>
        <time>2025-06-10T19:12:30Z</time>
      </trkpt>
      <trkpt lat="42.85082" lon="0.52327">
        <ele>1262</ele>
        <time>2025-06-10T19:12:34Z</time>
      </trkpt>
      <trkpt lat="42.85033" lon="0.52302">
        <ele>1257</ele>
        <time>2025-06-10T19:13:16Z</time>
      </trkpt>
      <trkpt lat="42.85016" lon="0.52297">
        <ele>1254</ele>
        <time>2025-06-10T19:13:30Z</time>
      </trkpt>
      <trkpt lat="42.85002" lon="0.52294">
        <ele>1253</ele>
        <time>2025-06-10T19:13:41Z</time>
      </trkpt>
      <trkpt lat="42.84992" lon="0.52293">
        <ele>1251</ele>
        <time>2025-06-10T19:13:49Z</time>
      </trkpt>
      <trkpt lat="42.84976" lon="0.52294">
        <ele>1249</ele>
        <time>2025-06-10T19:14:02Z</time>
      </trkpt>
      <trkpt lat="42.84961" lon="0.52299">
        <ele>1248</ele>
        <time>2025-06-10T19:14:14Z</time>
      </trkpt>
      <trkpt lat="42.84921" lon="0.52325">
        <ele>1247</ele>
        <time>2025-06-10T19:14:50Z</time>
      </trkpt>
      <trkpt lat="42.84909" lon="0.52335">
        <ele>1246</ele>
        <time>2025-06-10T19:15:01Z</time>
      </trkpt>
      <trkpt lat="42.84898" lon="0.52346">
        <ele>1246</ele>
        <time>2025-06-10T19:15:12Z</time>
      </trkpt>
      <trkpt lat="42.8489" lon="0.52356">
        <ele>1246</ele>
        <time>2025-06-10T19:15:21Z</time>
      </trkpt>
      <trkpt lat="42.84874" lon="0.52377">
        <ele>1246</ele>
        <time>2025-06-10T19:15:39Z</time>
      </trkpt>
      <trkpt lat="42.84817" lon="0.5246">
        <ele>1243</ele>
        <time>2025-06-10T19:16:45Z</time>
      </trkpt>
      <trkpt lat="42.84796" lon="0.52492">
        <ele>1241</ele>
        <time>2025-06-10T19:17:10Z</time>
      </trkpt>
      <trkpt lat="42.84778" lon="0.52521">
        <ele>1240</ele>
        <time>2025-06-10T19:17:33Z</time>
      </trkpt>
      <trkpt lat="42.84741" lon="0.52593">
        <ele>1238</ele>
        <time>2025-06-10T19:18:24Z</time>
      </trkpt>
      <trkpt lat="42.84718" lon="0.5264">
        <ele>1236</ele>
        <time>2025-06-10T19:18:58Z</time>
      </trkpt>
      <trkpt lat="42.84712" lon="0.52658">
        <ele>1236</ele>
        <time>2025-06-10T19:19:09Z</time>
      </trkpt>
      <trkpt lat="42.84703" lon="0.52687">
        <ele>1234</ele>
        <time>2025-06-10T19:19:28Z</time>
      </trkpt>
      <trkpt lat="42.84693" lon="0.5273">
        <ele>1232</ele>
        <time>2025-06-10T19:19:54Z</time>
      </trkpt>
      <trkpt lat="42.84689" lon="0.52746">
        <ele>1231</ele>
        <time>2025-06-10T19:20:04Z</time>
      </trkpt>
      <trkpt lat="42.84688" lon="0.52757">
        <ele>1231</ele>
        <time>2025-06-10T19:20:11Z</time>
      </trkpt>
      <trkpt lat="42.84686" lon="0.52797">
        <ele>1229</ele>
        <time>2025-06-10T19:20:34Z</time>
      </trkpt>
      <trkpt lat="42.8469" lon="0.52863">
        <ele>1234</ele>
        <time>2025-06-10T19:21:13Z</time>
      </trkpt>
      <trkpt lat="42.84689" lon="0.5287">
        <ele>1234</ele>
        <time>2025-06-10T19:21:17Z</time>
      </trkpt>
      <trkpt lat="42.84687" lon="0.52876">
        <ele>1234</ele>
        <time>2025-06-10T19:21:21Z</time>
      </trkpt>
      <trkpt lat="42.84682" lon="0.52886">
        <ele>1234</ele>
        <time>2025-06-10T19:21:28Z</time>
      </trkpt>
      <trkpt lat="42.8466" lon="0.52911">
        <ele>1229</ele>
        <time>2025-06-10T19:21:51Z</time>
      </trkpt>
      <trkpt lat="42.84649" lon="0.52927">
        <ele>1228</ele>
        <time>2025-06-10T19:22:04Z</time>
      </trkpt>
      <trkpt lat="42.84599" lon="0.53003">
        <ele>1223</ele>
        <time>2025-06-10T19:23:04Z</time>
      </trkpt>
      <trkpt lat="42.84576" lon="0.53038">
        <ele>1221</ele>
        <time>2025-06-10T19:23:31Z</time>
      </trkpt>
      <trkpt lat="42.84568" lon="0.53052">
        <ele>1221</ele>
        <time>2025-06-10T19:23:42Z</time>
      </trkpt>
      <trkpt lat="42.84562" lon="0.53064">
        <ele>1220</ele>
        <time>2025-06-10T19:23:50Z</time>
      </trkpt>
      <trkpt lat="42.84534" lon="0.53132">
        <ele>1219</ele>
        <time>2025-06-10T19:24:36Z</time>
      </trkpt>
      <trkpt lat="42.84516" lon="0.53167">
        <ele>1216</ele>
        <time>2025-06-10T19:25:01Z</time>
      </trkpt>
      <trkpt lat="42.84502" lon="0.53191">
        <ele>1214</ele>
        <time>2025-06-10T19:25:19Z</time>
      </trkpt>
      <trkpt lat="42.84461" lon="0.5325">
        <ele>1210</ele>
        <time>2025-06-10T19:26:07Z</time>
      </trkpt>
      <trkpt lat="42.84437" lon="0.53291">
        <ele>1210</ele>
        <time>2025-06-10T19:26:38Z</time>
      </trkpt>
      <trkpt lat="42.84432" lon="0.53302">
        <ele>1210</ele>
        <time>2025-06-10T19:26:45Z</time>
      </trkpt>
      <trkpt lat="42.84383" lon="0.53428">
        <ele>1209</ele>
        <time>2025-06-10T19:28:09Z</time>
      </trkpt>
      <trkpt lat="42.84374" lon="0.5345">
        <ele>1208</ele>
        <time>2025-06-10T19:28:24Z</time>
      </trkpt>
      <trkpt lat="42.84345" lon="0.53508">
        <ele>1202</ele>
        <time>2025-06-10T19:29:05Z</time>
      </trkpt>
      <trkpt lat="42.84339" lon="0.5352">
        <ele>1201</ele>
        <time>2025-06-10T19:29:14Z</time>
      </trkpt>
      <trkpt lat="42.84334" lon="0.53533">
        <ele>1200</ele>
        <time>2025-06-10T19:29:22Z</time>
      </trkpt>
      <trkpt lat="42.84329" lon="0.53546">
        <ele>1200</ele>
        <time>2025-06-10T19:29:31Z</time>
      </trkpt>
      <trkpt lat="42.84326" lon="0.53562">
        <ele>1200</ele>
        <time>2025-06-10T19:29:41Z</time>
      </trkpt>
      <trkpt lat="42.84322" lon="0.53586">
        <ele>1200</ele>
        <time>2025-06-10T19:29:55Z</time>
      </trkpt>
      <trkpt lat="42.84318" lon="0.53627">
        <ele>1199</ele>
        <time>2025-06-10T19:30:19Z</time>
      </trkpt>
      <trkpt lat="42.84316" lon="0.5367">
        <ele>1198</ele>
        <time>2025-06-10T19:30:45Z</time>
      </trkpt>
      <trkpt lat="42.84316" lon="0.53699">
        <ele>1198</ele>
        <time>2025-06-10T19:31:02Z</time>
      </trkpt>
      <trkpt lat="42.84318" lon="0.53761">
        <ele>1199</ele>
        <time>2025-06-10T19:31:38Z</time>
      </trkpt>
      <trkpt lat="42.8432" lon="0.53772">
        <ele>1200</ele>
        <time>2025-06-10T19:31:45Z</time>
      </trkpt>
      <trkpt lat="42.84329" lon="0.53808">
        <ele>1202</ele>
        <time>2025-06-10T19:32:07Z</time>
      </trkpt>
      <trkpt lat="42.8433" lon="0.53819">
        <ele>1202</ele>
        <time>2025-06-10T19:32:14Z</time>
      </trkpt>
      <trkpt lat="42.8433" lon="0.53854">
        <ele>1203</ele>
        <time>2025-06-10T19:32:34Z</time>
      </trkpt>
      <trkpt lat="42.84331" lon="0.53859">
        <ele>1203</ele>
        <time>2025-06-10T19:32:37Z</time>
      </trkpt>
      <trkpt lat="42.84338" lon="0.53879">
        <ele>1203</ele>
        <time>2025-06-10T19:32:50Z</time>
      </trkpt>
      <trkpt lat="42.84342" lon="0.53886">
        <ele>1204</ele>
        <time>2025-06-10T19:32:55Z</time>
      </trkpt>
      <trkpt lat="42.84355" lon="0.53902">
        <ele>1204</ele>
        <time>2025-06-10T19:33:09Z</time>
      </trkpt>
      <trkpt lat="42.84373" lon="0.53919">
        <ele>1205</ele>
        <time>2025-06-10T19:33:27Z</time>
      </trkpt>
      <trkpt lat="42.84377" lon="0.53924">
        <ele>1205</ele>
        <time>2025-06-10T19:33:31Z</time>
      </trkpt>
      <trkpt lat="42.84379" lon="0.53928">
        <ele>1205</ele>
        <time>2025-06-10T19:33:34Z</time>
      </trkpt>
      <trkpt lat="42.84382" lon="0.53935">
        <ele>1205</ele>
        <time>2025-06-10T19:33:39Z</time>
      </trkpt>
      <trkpt lat="42.84385" lon="0.53945">
        <ele>1205</ele>
        <time>2025-06-10T19:33:45Z</time>
      </trkpt>
      <trkpt lat="42.84385" lon="0.5395">
        <ele>1205</ele>
        <time>2025-06-10T19:33:48Z</time>
      </trkpt>
      <trkpt lat="42.84382" lon="0.53962">
        <ele>1205</ele>
        <time>2025-06-10T19:33:56Z</time>
      </trkpt>
      <trkpt lat="42.84378" lon="0.53971">
        <ele>1205</ele>
        <time>2025-06-10T19:34:02Z</time>
      </trkpt>
      <trkpt lat="42.84374" lon="0.53978">
        <ele>1205</ele>
        <time>2025-06-10T19:34:07Z</time>
      </trkpt>
      <trkpt lat="42.84358" lon="0.53999">
        <ele>1204</ele>
        <time>2025-06-10T19:34:25Z</time>
      </trkpt>
      <trkpt lat="42.84357" lon="0.54001">
        <ele>1204</ele>
        <time>2025-06-10T19:34:26Z</time>
      </trkpt>
      <trkpt lat="42.84354" lon="0.54005">
        <ele>1205</ele>
        <time>2025-06-10T19:34:30Z</time>
      </trkpt>
      <trkpt lat="42.84346" lon="0.54009">
        <ele>1205</ele>
        <time>2025-06-10T19:34:36Z</time>
      </trkpt>
      <trkpt lat="42.84325" lon="0.54013">
        <ele>1204</ele>
        <time>2025-06-10T19:34:53Z</time>
      </trkpt>
      <trkpt lat="42.84289" lon="0.54017">
        <ele>1200</ele>
        <time>2025-06-10T19:35:22Z</time>
      </trkpt>
      <trkpt lat="42.84263" lon="0.54024">
        <ele>1198</ele>
        <time>2025-06-10T19:35:44Z</time>
      </trkpt>
      <trkpt lat="42.84252" lon="0.54028">
        <ele>1198</ele>
        <time>2025-06-10T19:35:53Z</time>
      </trkpt>
      <trkpt lat="42.84243" lon="0.54033">
        <ele>1198</ele>
        <time>2025-06-10T19:36:00Z</time>
      </trkpt>
      <trkpt lat="42.8423" lon="0.54043">
        <ele>1198</ele>
        <time>2025-06-10T19:36:12Z</time>
      </trkpt>
      <trkpt lat="42.84209" lon="0.54061">
        <ele>1199</ele>
        <time>2025-06-10T19:36:32Z</time>
      </trkpt>
      <trkpt lat="42.84198" lon="0.54073">
        <ele>1199</ele>
        <time>2025-06-10T19:36:44Z</time>
      </trkpt>
      <trkpt lat="42.84183" lon="0.54089">
        <ele>1199</ele>
        <time>2025-06-10T19:36:59Z</time>
      </trkpt>
      <trkpt lat="42.84153" lon="0.54127">
        <ele>1198</ele>
        <time>2025-06-10T19:37:32Z</time>
      </trkpt>
      <trkpt lat="42.8408" lon="0.54236">
        <ele>1197</ele>
        <time>2025-06-10T19:38:58Z</time>
      </trkpt>
      <trkpt lat="42.84069" lon="0.5425">
        <ele>1197</ele>
        <time>2025-06-10T19:39:10Z</time>
      </trkpt>
      <trkpt lat="42.84057" lon="0.54265">
        <ele>1197</ele>
        <time>2025-06-10T19:39:23Z</time>
      </trkpt>
      <trkpt lat="42.84025" lon="0.54298">
        <ele>1195</ele>
        <time>2025-06-10T19:39:55Z</time>
      </trkpt>
      <trkpt lat="42.84007" lon="0.54316">
        <ele>1193</ele>
        <time>2025-06-10T19:40:13Z</time>
      </trkpt>
      <trkpt lat="42.83994" lon="0.54331">
        <ele>1193</ele>
        <time>2025-06-10T19:40:27Z</time>
      </trkpt>
      <trkpt lat="42.83944" lon="0.54396">
        <ele>1189</ele>
        <time>2025-06-10T19:41:22Z</time>
      </trkpt>
      <trkpt lat="42.83925" lon="0.54418">
        <ele>1186</ele>
        <time>2025-06-10T19:41:42Z</time>
      </trkpt>
      <trkpt lat="42.8391" lon="0.54435">
        <ele>1185</ele>
        <time>2025-06-10T19:41:58Z</time>
      </trkpt>
      <trkpt lat="42.83831" lon="0.54518">
        <ele>1179</ele>
        <time>2025-06-10T19:43:18Z</time>
      </trkpt>
      <trkpt lat="42.83824" lon="0.54527">
        <ele>1178</ele>
        <time>2025-06-10T19:43:25Z</time>
      </trkpt>
      <trkpt lat="42.83797" lon="0.54571">
        <ele>1177</ele>
        <time>2025-06-10T19:43:59Z</time>
      </trkpt>
      <trkpt lat="42.83758" lon="0.54624">
        <ele>1172</ele>
        <time>2025-06-10T19:44:43Z</time>
      </trkpt>
      <trkpt lat="42.83725" lon="0.54675">
        <ele>1168</ele>
        <time>2025-06-10T19:45:23Z</time>
      </trkpt>
      <trkpt lat="42.83716" lon="0.54691">
        <ele>1167</ele>
        <time>2025-06-10T19:45:35Z</time>
      </trkpt>
      <trkpt lat="42.83691" lon="0.54743">
        <ele>1163</ele>
        <time>2025-06-10T19:46:11Z</time>
      </trkpt>
      <trkpt lat="42.83666" lon="0.54801">
        <ele>1158</ele>
        <time>2025-06-10T19:46:51Z</time>
      </trkpt>
      <trkpt lat="42.83637" lon="0.54858">
        <ele>1155</ele>
        <time>2025-06-10T19:47:32Z</time>
      </trkpt>
      <trkpt lat="42.83632" lon="0.54873">
        <ele>1155</ele>
        <time>2025-06-10T19:47:41Z</time>
      </trkpt>
      <trkpt lat="42.83626" lon="0.5489">
        <ele>1155</ele>
        <time>2025-06-10T19:47:52Z</time>
      </trkpt>
      <trkpt lat="42.83623" lon="0.54905">
        <ele>1155</ele>
        <time>2025-06-10T19:48:02Z</time>
      </trkpt>
      <trkpt lat="42.83618" lon="0.54929">
        <ele>1155</ele>
        <time>2025-06-10T19:48:16Z</time>
      </trkpt>
      <trkpt lat="42.83614" lon="0.54953">
        <ele>1155</ele>
        <time>2025-06-10T19:48:31Z</time>
      </trkpt>
      <trkpt lat="42.83609" lon="0.55015">
        <ele>1157</ele>
        <time>2025-06-10T19:49:07Z</time>
      </trkpt>
      <trkpt lat="42.83607" lon="0.55029">
        <ele>1157</ele>
        <time>2025-06-10T19:49:16Z</time>
      </trkpt>
      <trkpt lat="42.83603" lon="0.55041">
        <ele>1157</ele>
        <time>2025-06-10T19:49:23Z</time>
      </trkpt>
      <trkpt lat="42.83598" lon="0.5505">
        <ele>1156</ele>
        <time>2025-06-10T19:49:30Z</time>
      </trkpt>
      <trkpt lat="42.83592" lon="0.55055">
        <ele>1155</ele>
        <time>2025-06-10T19:49:36Z</time>
      </trkpt>
      <trkpt lat="42.83578" lon="0.55061">
        <ele>1153</ele>
        <time>2025-06-10T19:49:47Z</time>
      </trkpt>
      <trkpt lat="42.83568" lon="0.55063">
        <ele>1152</ele>
        <time>2025-06-10T19:49:55Z</time>
      </trkpt>
      <trkpt lat="42.83542" lon="0.55062">
        <ele>1148</ele>
        <time>2025-06-10T19:50:16Z</time>
      </trkpt>
      <trkpt lat="42.83444" lon="0.55068">
        <ele>1137</ele>
        <time>2025-06-10T19:51:35Z</time>
      </trkpt>
      <trkpt lat="42.83424" lon="0.5507">
        <ele>1136</ele>
        <time>2025-06-10T19:51:51Z</time>
      </trkpt>
      <trkpt lat="42.83402" lon="0.55074">
        <ele>1135</ele>
        <time>2025-06-10T19:52:09Z</time>
      </trkpt>
      <trkpt lat="42.83377" lon="0.55081">
        <ele>1135</ele>
        <time>2025-06-10T19:52:29Z</time>
      </trkpt>
      <trkpt lat="42.83353" lon="0.55086">
        <ele>1135</ele>
        <time>2025-06-10T19:52:49Z</time>
      </trkpt>
      <trkpt lat="42.83335" lon="0.55088">
        <ele>1135</ele>
        <time>2025-06-10T19:53:03Z</time>
      </trkpt>
      <trkpt lat="42.83317" lon="0.55088">
        <ele>1133</ele>
        <time>2025-06-10T19:53:17Z</time>
      </trkpt>
      <trkpt lat="42.83267" lon="0.55092">
        <ele>1130</ele>
        <time>2025-06-10T19:53:58Z</time>
      </trkpt>
      <trkpt lat="42.83226" lon="0.55091">
        <ele>1129</ele>
        <time>2025-06-10T19:54:30Z</time>
      </trkpt>
      <trkpt lat="42.83154" lon="0.55082">
        <ele>1127</ele>
        <time>2025-06-10T19:55:28Z</time>
      </trkpt>
      <trkpt lat="42.8312" lon="0.55076">
        <ele>1126</ele>
        <time>2025-06-10T19:55:56Z</time>
      </trkpt>
      <trkpt lat="42.831" lon="0.55071">
        <ele>1126</ele>
        <time>2025-06-10T19:56:12Z</time>
      </trkpt>
      <trkpt lat="42.83085" lon="0.55066">
        <ele>1125</ele>
        <time>2025-06-10T19:56:24Z</time>
      </trkpt>
      <trkpt lat="42.83061" lon="0.55055">
        <ele>1123</ele>
        <time>2025-06-10T19:56:45Z</time>
      </trkpt>
      <trkpt lat="42.83048" lon="0.55051">
        <ele>1122</ele>
        <time>2025-06-10T19:56:55Z</time>
      </trkpt>
      <trkpt lat="42.83037" lon="0.5505">
        <ele>1123</ele>
        <time>2025-06-10T19:57:04Z</time>
      </trkpt>
      <trkpt lat="42.83027" lon="0.55051">
        <ele>1123</ele>
        <time>2025-06-10T19:57:12Z</time>
      </trkpt>
      <trkpt lat="42.83017" lon="0.55054">
        <ele>1124</ele>
        <time>2025-06-10T19:57:20Z</time>
      </trkpt>
      <trkpt lat="42.8301" lon="0.55058">
        <ele>1125</ele>
        <time>2025-06-10T19:57:26Z</time>
      </trkpt>
      <trkpt lat="42.82989" lon="0.55072">
        <ele>1128</ele>
        <time>2025-06-10T19:57:45Z</time>
      </trkpt>
      <trkpt lat="42.82981" lon="0.55075">
        <ele>1128</ele>
        <time>2025-06-10T19:57:52Z</time>
      </trkpt>
      <trkpt lat="42.82964" lon="0.55076">
        <ele>1127</ele>
        <time>2025-06-10T19:58:05Z</time>
      </trkpt>
      <trkpt lat="42.82949" lon="0.55073">
        <ele>1126</ele>
        <time>2025-06-10T19:58:18Z</time>
      </trkpt>
      <trkpt lat="42.82946" lon="0.5507">
        <ele>1126</ele>
        <time>2025-06-10T19:58:21Z</time>
      </trkpt>
      <trkpt lat="42.8294" lon="0.55064">
        <ele>1124</ele>
        <time>2025-06-10T19:58:26Z</time>
      </trkpt>
      <trkpt lat="42.82932" lon="0.55048">
        <ele>1121</ele>
        <time>2025-06-10T19:58:38Z</time>
      </trkpt>
      <trkpt lat="42.82923" lon="0.55034">
        <ele>1119</ele>
        <time>2025-06-10T19:58:49Z</time>
      </trkpt>
      <trkpt lat="42.82916" lon="0.55029">
        <ele>1118</ele>
        <time>2025-06-10T19:58:55Z</time>
      </trkpt>
      <trkpt lat="42.82908" lon="0.55028">
        <ele>1117</ele>
        <time>2025-06-10T19:59:02Z</time>
      </trkpt>
      <trkpt lat="42.82893" lon="0.55029">
        <ele>1117</ele>
        <time>2025-06-10T19:59:14Z</time>
      </trkpt>
      <trkpt lat="42.82883" lon="0.5503">
        <ele>1116</ele>
        <time>2025-06-10T19:59:22Z</time>
      </trkpt>
      <trkpt lat="42.82826" lon="0.55042">
        <ele>1113</ele>
        <time>2025-06-10T20:00:08Z</time>
      </trkpt>
      <trkpt lat="42.82809" lon="0.55049">
        <ele>1112</ele>
        <time>2025-06-10T20:00:22Z</time>
      </trkpt>
      <trkpt lat="42.82764" lon="0.55071">
        <ele>1109</ele>
        <time>2025-06-10T20:01:00Z</time>
      </trkpt>
      <trkpt lat="42.82742" lon="0.55072">
        <ele>1107</ele>
        <time>2025-06-10T20:01:18Z</time>
      </trkpt>
      <trkpt lat="42.82713" lon="0.55066">
        <ele>1105</ele>
        <time>2025-06-10T20:01:41Z</time>
      </trkpt>
      <trkpt lat="42.82694" lon="0.55057">
        <ele>1103</ele>
        <time>2025-06-10T20:01:57Z</time>
      </trkpt>
      <trkpt lat="42.82681" lon="0.55052">
        <ele>1102</ele>
        <time>2025-06-10T20:02:08Z</time>
      </trkpt>
      <trkpt lat="42.8267" lon="0.55052">
        <ele>1102</ele>
        <time>2025-06-10T20:02:17Z</time>
      </trkpt>
      <trkpt lat="42.82656" lon="0.55056">
        <ele>1102</ele>
        <time>2025-06-10T20:02:29Z</time>
      </trkpt>
      <trkpt lat="42.82631" lon="0.55062">
        <ele>1101</ele>
        <time>2025-06-10T20:02:49Z</time>
      </trkpt>
      <trkpt lat="42.82608" lon="0.55063">
        <ele>1101</ele>
        <time>2025-06-10T20:03:07Z</time>
      </trkpt>
      <trkpt lat="42.82532" lon="0.55053">
        <ele>1093</ele>
        <time>2025-06-10T20:04:08Z</time>
      </trkpt>
      <trkpt lat="42.82488" lon="0.55059">
        <ele>1089</ele>
        <time>2025-06-10T20:04:44Z</time>
      </trkpt>
      <trkpt lat="42.82459" lon="0.55069">
        <ele>1086</ele>
        <time>2025-06-10T20:05:08Z</time>
      </trkpt>
      <trkpt lat="42.82426" lon="0.55074">
        <ele>1082</ele>
        <time>2025-06-10T20:05:34Z</time>
      </trkpt>
      <trkpt lat="42.82403" lon="0.55079">
        <ele>1079</ele>
        <time>2025-06-10T20:05:53Z</time>
      </trkpt>
      <trkpt lat="42.82397" lon="0.5508">
        <ele>1079</ele>
        <time>2025-06-10T20:05:58Z</time>
      </trkpt>
      <trkpt lat="42.82395" lon="0.55078">
        <ele>1078</ele>
        <time>2025-06-10T20:06:00Z</time>
      </trkpt>
      <trkpt lat="42.82393" lon="0.55073">
        <ele>1078</ele>
        <time>2025-06-10T20:06:03Z</time>
      </trkpt>
      <trkpt lat="42.82392" lon="0.55066">
        <ele>1078</ele>
        <time>2025-06-10T20:06:07Z</time>
      </trkpt>
      <trkpt lat="42.82393" lon="0.5504">
        <ele>1077</ele>
        <time>2025-06-10T20:06:23Z</time>
      </trkpt>
      <trkpt lat="42.82392" lon="0.55006">
        <ele>1075</ele>
        <time>2025-06-10T20:06:43Z</time>
      </trkpt>
      <trkpt lat="42.82391" lon="0.54922">
        <ele>1069</ele>
        <time>2025-06-10T20:07:32Z</time>
      </trkpt>
      <trkpt lat="42.82392" lon="0.54915">
        <ele>1069</ele>
        <time>2025-06-10T20:07:36Z</time>
      </trkpt>
      <trkpt lat="42.82394" lon="0.54909">
        <ele>1069</ele>
        <time>2025-06-10T20:07:40Z</time>
      </trkpt>
      <trkpt lat="42.82397" lon="0.54904">
        <ele>1069</ele>
        <time>2025-06-10T20:07:44Z</time>
      </trkpt>
      <trkpt lat="42.824" lon="0.549">
        <ele>1069</ele>
        <time>2025-06-10T20:07:47Z</time>
      </trkpt>
      <trkpt lat="42.82404" lon="0.54898">
        <ele>1069</ele>
        <time>2025-06-10T20:07:51Z</time>
      </trkpt>
      <trkpt lat="42.82409" lon="0.54897">
        <ele>1070</ele>
        <time>2025-06-10T20:07:55Z</time>
      </trkpt>
      <trkpt lat="42.82463" lon="0.54889">
        <ele>1071</ele>
        <time>2025-06-10T20:08:38Z</time>
      </trkpt>
      <trkpt lat="42.82473" lon="0.54886">
        <ele>1071</ele>
        <time>2025-06-10T20:08:46Z</time>
      </trkpt>
      <trkpt lat="42.82503" lon="0.54873">
        <ele>1070</ele>
        <time>2025-06-10T20:09:12Z</time>
      </trkpt>
      <trkpt lat="42.82529" lon="0.54863">
        <ele>1071</ele>
        <time>2025-06-10T20:09:33Z</time>
      </trkpt>
      <trkpt lat="42.82539" lon="0.54855">
        <ele>1071</ele>
        <time>2025-06-10T20:09:42Z</time>
      </trkpt>
      <trkpt lat="42.82542" lon="0.5485">
        <ele>1071</ele>
        <time>2025-06-10T20:09:46Z</time>
      </trkpt>
      <trkpt lat="42.82544" lon="0.54843">
        <ele>1071</ele>
        <time>2025-06-10T20:09:51Z</time>
      </trkpt>
      <trkpt lat="42.82545" lon="0.54838">
        <ele>1070</ele>
        <time>2025-06-10T20:09:54Z</time>
      </trkpt>
      <trkpt lat="42.82544" lon="0.54827">
        <ele>1071</ele>
        <time>2025-06-10T20:10:00Z</time>
      </trkpt>
      <trkpt lat="42.82541" lon="0.5482">
        <ele>1071</ele>
        <time>2025-06-10T20:10:05Z</time>
      </trkpt>
      <trkpt lat="42.82539" lon="0.54817">
        <ele>1071</ele>
        <time>2025-06-10T20:10:07Z</time>
      </trkpt>
      <trkpt lat="42.82531" lon="0.54814">
        <ele>1071</ele>
        <time>2025-06-10T20:10:14Z</time>
      </trkpt>
      <trkpt lat="42.82525" lon="0.54814">
        <ele>1070</ele>
        <time>2025-06-10T20:10:19Z</time>
      </trkpt>
      <trkpt lat="42.8248" lon="0.54817">
        <ele>1066</ele>
        <time>2025-06-10T20:10:55Z</time>
      </trkpt>
      <trkpt lat="42.82472" lon="0.54817">
        <ele>1066</ele>
        <time>2025-06-10T20:11:01Z</time>
      </trkpt>
      <trkpt lat="42.8246" lon="0.54811">
        <ele>1066</ele>
        <time>2025-06-10T20:11:12Z</time>
      </trkpt>
      <trkpt lat="42.82453" lon="0.54805">
        <ele>1066</ele>
        <time>2025-06-10T20:11:18Z</time>
      </trkpt>
      <trkpt lat="42.82441" lon="0.54787">
        <ele>1066</ele>
        <time>2025-06-10T20:11:32Z</time>
      </trkpt>
      <trkpt lat="42.82435" lon="0.54775">
        <ele>1065</ele>
        <time>2025-06-10T20:11:41Z</time>
      </trkpt>
      <trkpt lat="42.82422" lon="0.54746">
        <ele>1065</ele>
        <time>2025-06-10T20:12:01Z</time>
      </trkpt>
      <trkpt lat="42.82417" lon="0.54739">
        <ele>1067</ele>
        <time>2025-06-10T20:12:07Z</time>
      </trkpt>
      <trkpt lat="42.82412" lon="0.54733">
        <ele>1068</ele>
        <time>2025-06-10T20:12:12Z</time>
      </trkpt>
      <trkpt lat="42.82404" lon="0.54726">
        <ele>1070</ele>
        <time>2025-06-10T20:12:20Z</time>
      </trkpt>
      <trkpt lat="42.82378" lon="0.54711">
        <ele>1071</ele>
        <time>2025-06-10T20:12:42Z</time>
      </trkpt>
      <trkpt lat="42.82348" lon="0.54695">
        <ele>1073</ele>
        <time>2025-06-10T20:13:08Z</time>
      </trkpt>
      <trkpt lat="42.82329" lon="0.54691">
        <ele>1073</ele>
        <time>2025-06-10T20:13:23Z</time>
      </trkpt>
      <trkpt lat="42.82313" lon="0.54692">
        <ele>1075</ele>
        <time>2025-06-10T20:13:36Z</time>
      </trkpt>
      <trkpt lat="42.82306" lon="0.54695">
        <ele>1074</ele>
        <time>2025-06-10T20:13:42Z</time>
      </trkpt>
      <trkpt lat="42.82287" lon="0.54704">
        <ele>1073</ele>
        <time>2025-06-10T20:13:58Z</time>
      </trkpt>
      <trkpt lat="42.8228" lon="0.54709">
        <ele>1072</ele>
        <time>2025-06-10T20:14:05Z</time>
      </trkpt>
      <trkpt lat="42.82267" lon="0.54723">
        <ele>1069</ele>
        <time>2025-06-10T20:14:18Z</time>
      </trkpt>
      <trkpt lat="42.82237" lon="0.54776">
        <ele>1058</ele>
        <time>2025-06-10T20:14:57Z</time>
      </trkpt>
      <trkpt lat="42.82232" lon="0.54786">
        <ele>1057</ele>
        <time>2025-06-10T20:15:04Z</time>
      </trkpt>
      <trkpt lat="42.82222" lon="0.54815">
        <ele>1052</ele>
        <time>2025-06-10T20:15:23Z</time>
      </trkpt>
      <trkpt lat="42.82215" lon="0.54829">
        <ele>1050</ele>
        <time>2025-06-10T20:15:33Z</time>
      </trkpt>
      <trkpt lat="42.82197" lon="0.54859">
        <ele>1047</ele>
        <time>2025-06-10T20:15:56Z</time>
      </trkpt>
      <trkpt lat="42.82187" lon="0.54871">
        <ele>1045</ele>
        <time>2025-06-10T20:16:06Z</time>
      </trkpt>
      <trkpt lat="42.82179" lon="0.54877">
        <ele>1045</ele>
        <time>2025-06-10T20:16:14Z</time>
      </trkpt>
      <trkpt lat="42.82149" lon="0.54898">
        <ele>1043</ele>
        <time>2025-06-10T20:16:41Z</time>
      </trkpt>
      <trkpt lat="42.82139" lon="0.54906">
        <ele>1043</ele>
        <time>2025-06-10T20:16:50Z</time>
      </trkpt>
      <trkpt lat="42.82131" lon="0.54917">
        <ele>1042</ele>
        <time>2025-06-10T20:16:59Z</time>
      </trkpt>
      <trkpt lat="42.82119" lon="0.54949">
        <ele>1038</ele>
        <time>2025-06-10T20:17:20Z</time>
      </trkpt>
      <trkpt lat="42.82115" lon="0.54956">
        <ele>1037</ele>
        <time>2025-06-10T20:17:25Z</time>
      </trkpt>
      <trkpt lat="42.82085" lon="0.54983">
        <ele>1033</ele>
        <time>2025-06-10T20:17:54Z</time>
      </trkpt>
      <trkpt lat="42.82026" lon="0.55058">
        <ele>1025</ele>
        <time>2025-06-10T20:18:59Z</time>
      </trkpt>
      <trkpt lat="42.82008" lon="0.5509">
        <ele>1020</ele>
        <time>2025-06-10T20:19:22Z</time>
      </trkpt>
      <trkpt lat="42.81964" lon="0.55174">
        <ele>1012</ele>
        <time>2025-06-10T20:20:23Z</time>
      </trkpt>
      <trkpt lat="42.81953" lon="0.55191">
        <ele>1010</ele>
        <time>2025-06-10T20:20:36Z</time>
      </trkpt>
      <trkpt lat="42.81939" lon="0.55205">
        <ele>1010</ele>
        <time>2025-06-10T20:20:50Z</time>
      </trkpt>
      <trkpt lat="42.8189" lon="0.55252">
        <ele>1007</ele>
        <time>2025-06-10T20:21:38Z</time>
      </trkpt>
      <trkpt lat="42.81841" lon="0.55306">
        <ele>999</ele>
        <time>2025-06-10T20:22:29Z</time>
      </trkpt>
      <trkpt lat="42.81833" lon="0.55312">
        <ele>998</ele>
        <time>2025-06-10T20:22:36Z</time>
      </trkpt>
      <trkpt lat="42.81786" lon="0.55345">
        <ele>993</ele>
        <time>2025-06-10T20:23:18Z</time>
      </trkpt>
      <trkpt lat="42.81766" lon="0.55363">
        <ele>990</ele>
        <time>2025-06-10T20:23:38Z</time>
      </trkpt>
      <trkpt lat="42.81726" lon="0.55406">
        <ele>986</ele>
        <time>2025-06-10T20:24:18Z</time>
      </trkpt>
      <trkpt lat="42.81717" lon="0.55417">
        <ele>985</ele>
        <time>2025-06-10T20:24:28Z</time>
      </trkpt>
      <trkpt lat="42.81711" lon="0.55425">
        <ele>985</ele>
        <time>2025-06-10T20:24:35Z</time>
      </trkpt>
      <trkpt lat="42.81706" lon="0.55436">
        <ele>983</ele>
        <time>2025-06-10T20:24:42Z</time>
      </trkpt>
      <trkpt lat="42.81696" lon="0.55464">
        <ele>979</ele>
        <time>2025-06-10T20:25:01Z</time>
      </trkpt>
      <trkpt lat="42.81693" lon="0.55476">
        <ele>977</ele>
        <time>2025-06-10T20:25:08Z</time>
      </trkpt>
      <trkpt lat="42.81691" lon="0.55489">
        <ele>974</ele>
        <time>2025-06-10T20:25:16Z</time>
      </trkpt>
      <trkpt lat="42.8169" lon="0.55497">
        <ele>972</ele>
        <time>2025-06-10T20:25:21Z</time>
      </trkpt>
      <trkpt lat="42.81689" lon="0.55509">
        <ele>970</ele>
        <time>2025-06-10T20:25:28Z</time>
      </trkpt>
      <trkpt lat="42.81689" lon="0.55563">
        <ele>961</ele>
        <time>2025-06-10T20:25:59Z</time>
      </trkpt>
      <trkpt lat="42.81688" lon="0.55573">
        <ele>960</ele>
        <time>2025-06-10T20:26:05Z</time>
      </trkpt>
      <trkpt lat="42.81687" lon="0.55581">
        <ele>959</ele>
        <time>2025-06-10T20:26:10Z</time>
      </trkpt>
      <trkpt lat="42.81684" lon="0.55589">
        <ele>958</ele>
        <time>2025-06-10T20:26:15Z</time>
      </trkpt>
      <trkpt lat="42.8168" lon="0.55596">
        <ele>957</ele>
        <time>2025-06-10T20:26:21Z</time>
      </trkpt>
      <trkpt lat="42.81676" lon="0.55602">
        <ele>955</ele>
        <time>2025-06-10T20:26:25Z</time>
      </trkpt>
      <trkpt lat="42.81671" lon="0.55606">
        <ele>955</ele>
        <time>2025-06-10T20:26:30Z</time>
      </trkpt>
      <trkpt lat="42.81663" lon="0.5561">
        <ele>954</ele>
        <time>2025-06-10T20:26:37Z</time>
      </trkpt>
      <trkpt lat="42.81635" lon="0.55617">
        <ele>956</ele>
        <time>2025-06-10T20:27:00Z</time>
      </trkpt>
      <trkpt lat="42.81617" lon="0.55623">
        <ele>957</ele>
        <time>2025-06-10T20:27:14Z</time>
      </trkpt>
      <trkpt lat="42.81611" lon="0.55626">
        <ele>957</ele>
        <time>2025-06-10T20:27:20Z</time>
      </trkpt>
      <trkpt lat="42.81601" lon="0.55634">
        <ele>957</ele>
        <time>2025-06-10T20:27:29Z</time>
      </trkpt>
      <trkpt lat="42.81549" lon="0.55684">
        <ele>949</ele>
        <time>2025-06-10T20:28:20Z</time>
      </trkpt>
      <trkpt lat="42.81527" lon="0.55703">
        <ele>946</ele>
        <time>2025-06-10T20:28:41Z</time>
      </trkpt>
      <trkpt lat="42.81513" lon="0.55713">
        <ele>944</ele>
        <time>2025-06-10T20:28:53Z</time>
      </trkpt>
      <trkpt lat="42.81501" lon="0.55719">
        <ele>944</ele>
        <time>2025-06-10T20:29:04Z</time>
      </trkpt>
      <trkpt lat="42.81464" lon="0.55735">
        <ele>936</ele>
        <time>2025-06-10T20:29:35Z</time>
      </trkpt>
      <trkpt lat="42.81447" lon="0.55741">
        <ele>933</ele>
        <time>2025-06-10T20:29:49Z</time>
      </trkpt>
      <trkpt lat="42.81431" lon="0.55745">
        <ele>931</ele>
        <time>2025-06-10T20:30:02Z</time>
      </trkpt>
      <trkpt lat="42.81421" lon="0.55746">
        <ele>930</ele>
        <time>2025-06-10T20:30:10Z</time>
      </trkpt>
      <trkpt lat="42.81354" lon="0.55745">
        <ele>933</ele>
        <time>2025-06-10T20:31:03Z</time>
      </trkpt>
      <trkpt lat="42.81346" lon="0.55747">
        <ele>933</ele>
        <time>2025-06-10T20:31:10Z</time>
      </trkpt>
      <trkpt lat="42.81337" lon="0.55751">
        <ele>932</ele>
        <time>2025-06-10T20:31:18Z</time>
      </trkpt>
      <trkpt lat="42.81327" lon="0.55759">
        <ele>932</ele>
        <time>2025-06-10T20:31:27Z</time>
      </trkpt>
      <trkpt lat="42.81316" lon="0.55769">
        <ele>932</ele>
        <time>2025-06-10T20:31:37Z</time>
      </trkpt>
      <trkpt lat="42.81292" lon="0.55794">
        <ele>930</ele>
        <time>2025-06-10T20:32:02Z</time>
      </trkpt>
      <trkpt lat="42.81264" lon="0.55829">
        <ele>923</ele>
        <time>2025-06-10T20:32:32Z</time>
      </trkpt>
      <trkpt lat="42.8124" lon="0.55858">
        <ele>917</ele>
        <time>2025-06-10T20:32:58Z</time>
      </trkpt>
      <trkpt lat="42.81229" lon="0.55867">
        <ele>915</ele>
        <time>2025-06-10T20:33:08Z</time>
      </trkpt>
      <trkpt lat="42.81223" lon="0.55871">
        <ele>915</ele>
        <time>2025-06-10T20:33:13Z</time>
      </trkpt>
      <trkpt lat="42.81214" lon="0.55874">
        <ele>914</ele>
        <time>2025-06-10T20:33:21Z</time>
      </trkpt>
      <trkpt lat="42.81191" lon="0.55874">
        <ele>916</ele>
        <time>2025-06-10T20:33:39Z</time>
      </trkpt>
      <trkpt lat="42.81185" lon="0.55875">
        <ele>916</ele>
        <time>2025-06-10T20:33:44Z</time>
      </trkpt>
      <trkpt lat="42.81179" lon="0.55876">
        <ele>916</ele>
        <time>2025-06-10T20:33:49Z</time>
      </trkpt>
      <trkpt lat="42.81168" lon="0.55883">
        <ele>913</ele>
        <time>2025-06-10T20:33:59Z</time>
      </trkpt>
      <trkpt lat="42.81144" lon="0.55904">
        <ele>906</ele>
        <time>2025-06-10T20:34:21Z</time>
      </trkpt>
      <trkpt lat="42.81131" lon="0.55914">
        <ele>902</ele>
        <time>2025-06-10T20:34:33Z</time>
      </trkpt>
      <trkpt lat="42.81077" lon="0.55951">
        <ele>896</ele>
        <time>2025-06-10T20:35:22Z</time>
      </trkpt>
      <trkpt lat="42.81058" lon="0.55959">
        <ele>896</ele>
        <time>2025-06-10T20:35:38Z</time>
      </trkpt>
      <trkpt lat="42.80974" lon="0.55991">
        <ele>883</ele>
        <time>2025-06-10T20:36:47Z</time>
      </trkpt>
      <trkpt lat="42.80965" lon="0.55996">
        <ele>880</ele>
        <time>2025-06-10T20:36:55Z</time>
      </trkpt>
      <trkpt lat="42.80939" lon="0.56013">
        <ele>872</ele>
        <time>2025-06-10T20:37:18Z</time>
      </trkpt>
      <trkpt lat="42.80928" lon="0.56018">
        <ele>870</ele>
        <time>2025-06-10T20:37:28Z</time>
      </trkpt>
      <trkpt lat="42.80923" lon="0.5602">
        <ele>869</ele>
        <time>2025-06-10T20:37:32Z</time>
      </trkpt>
      <trkpt lat="42.80914" lon="0.56018">
        <ele>868</ele>
        <time>2025-06-10T20:37:39Z</time>
      </trkpt>
      <trkpt lat="42.80907" lon="0.56015">
        <ele>869</ele>
        <time>2025-06-10T20:37:45Z</time>
      </trkpt>
      <trkpt lat="42.80896" lon="0.56006">
        <ele>870</ele>
        <time>2025-06-10T20:37:55Z</time>
      </trkpt>
      <trkpt lat="42.80886" lon="0.56001">
        <ele>871</ele>
        <time>2025-06-10T20:38:04Z</time>
      </trkpt>
      <trkpt lat="42.80834" lon="0.55991">
        <ele>871</ele>
        <time>2025-06-10T20:38:46Z</time>
      </trkpt>
      <trkpt lat="42.80825" lon="0.5599">
        <ele>871</ele>
        <time>2025-06-10T20:38:53Z</time>
      </trkpt>
      <trkpt lat="42.80789" lon="0.55993">
        <ele>865</ele>
        <time>2025-06-10T20:39:22Z</time>
      </trkpt>
      <trkpt lat="42.80752" lon="0.55991">
        <ele>862</ele>
        <time>2025-06-10T20:39:52Z</time>
      </trkpt>
      <trkpt lat="42.80745" lon="0.55992">
        <ele>860</ele>
        <time>2025-06-10T20:39:57Z</time>
      </trkpt>
      <trkpt lat="42.80738" lon="0.55994">
        <ele>857</ele>
        <time>2025-06-10T20:40:03Z</time>
      </trkpt>
      <trkpt lat="42.80723" lon="0.56003">
        <ele>850</ele>
        <time>2025-06-10T20:40:16Z</time>
      </trkpt>
      <trkpt lat="42.80703" lon="0.56005">
        <ele>846</ele>
        <time>2025-06-10T20:40:32Z</time>
      </trkpt>
      <trkpt lat="42.8069" lon="0.56005">
        <ele>843</ele>
        <time>2025-06-10T20:40:43Z</time>
      </trkpt>
      <trkpt lat="42.80678" lon="0.56003">
        <ele>841</ele>
        <time>2025-06-10T20:40:52Z</time>
      </trkpt>
      <trkpt lat="42.8067" lon="0.55999">
        <ele>840</ele>
        <time>2025-06-10T20:40:59Z</time>
      </trkpt>
      <trkpt lat="42.80664" lon="0.55995">
        <ele>840</ele>
        <time>2025-06-10T20:41:04Z</time>
      </trkpt>
      <trkpt lat="42.80655" lon="0.55983">
        <ele>842</ele>
        <time>2025-06-10T20:41:14Z</time>
      </trkpt>
      <trkpt lat="42.80651" lon="0.55985">
        <ele>841</ele>
        <time>2025-06-10T20:41:18Z</time>
      </trkpt>
      <trkpt lat="42.80642" lon="0.55986">
        <ele>839</ele>
        <time>2025-06-10T20:41:25Z</time>
      </trkpt>
      <trkpt lat="42.80633" lon="0.55982">
        <ele>838</ele>
        <time>2025-06-10T20:41:33Z</time>
      </trkpt>
      <trkpt lat="42.80616" lon="0.5597">
        <ele>838</ele>
        <time>2025-06-10T20:41:48Z</time>
      </trkpt>
      <trkpt lat="42.80601" lon="0.55965">
        <ele>837</ele>
        <time>2025-06-10T20:42:00Z</time>
      </trkpt>
      <trkpt lat="42.80589" lon="0.55964">
        <ele>834</ele>
        <time>2025-06-10T20:42:10Z</time>
      </trkpt>
      <trkpt lat="42.80548" lon="0.55964">
        <ele>826</ele>
        <time>2025-06-10T20:42:43Z</time>
      </trkpt>
      <trkpt lat="42.80537" lon="0.55965">
        <ele>824</ele>
        <time>2025-06-10T20:42:52Z</time>
      </trkpt>
      <trkpt lat="42.80528" lon="0.55967">
        <ele>822</ele>
        <time>2025-06-10T20:42:59Z</time>
      </trkpt>
      <trkpt lat="42.80502" lon="0.55985">
        <ele>815</ele>
        <time>2025-06-10T20:43:22Z</time>
      </trkpt>
      <trkpt lat="42.80496" lon="0.55988">
        <ele>813</ele>
        <time>2025-06-10T20:43:27Z</time>
      </trkpt>
      <trkpt lat="42.80488" lon="0.55989">
        <ele>811</ele>
        <time>2025-06-10T20:43:34Z</time>
      </trkpt>
      <trkpt lat="42.80475" lon="0.5599">
        <ele>807</ele>
        <time>2025-06-10T20:43:44Z</time>
      </trkpt>
      <trkpt lat="42.8047" lon="0.55991">
        <ele>806</ele>
        <time>2025-06-10T20:43:48Z</time>
      </trkpt>
      <trkpt lat="42.80466" lon="0.55994">
        <ele>805</ele>
        <time>2025-06-10T20:43:52Z</time>
      </trkpt>
      <trkpt lat="42.80462" lon="0.55999">
        <ele>803</ele>
        <time>2025-06-10T20:43:56Z</time>
      </trkpt>
      <trkpt lat="42.8046" lon="0.56006">
        <ele>802</ele>
        <time>2025-06-10T20:44:01Z</time>
      </trkpt>
      <trkpt lat="42.8046" lon="0.56013">
        <ele>801</ele>
        <time>2025-06-10T20:44:05Z</time>
      </trkpt>
      <trkpt lat="42.80462" lon="0.56021">
        <ele>800</ele>
        <time>2025-06-10T20:44:10Z</time>
      </trkpt>
      <trkpt lat="42.80466" lon="0.56025">
        <ele>801</ele>
        <time>2025-06-10T20:44:14Z</time>
      </trkpt>
      <trkpt lat="42.80469" lon="0.56028">
        <ele>801</ele>
        <time>2025-06-10T20:44:17Z</time>
      </trkpt>
      <trkpt lat="42.80474" lon="0.56029">
        <ele>802</ele>
        <time>2025-06-10T20:44:21Z</time>
      </trkpt>
      <trkpt lat="42.8048" lon="0.56028">
        <ele>804</ele>
        <time>2025-06-10T20:44:26Z</time>
      </trkpt>
      <trkpt lat="42.80489" lon="0.56022">
        <ele>807</ele>
        <time>2025-06-10T20:44:34Z</time>
      </trkpt>
      <trkpt lat="42.80498" lon="0.56014">
        <ele>810</ele>
        <time>2025-06-10T20:44:42Z</time>
      </trkpt>
      <trkpt lat="42.80506" lon="0.56008">
        <ele>813</ele>
        <time>2025-06-10T20:44:50Z</time>
      </trkpt>
      <trkpt lat="42.80514" lon="0.56005">
        <ele>814</ele>
        <time>2025-06-10T20:44:56Z</time>
      </trkpt>
      <trkpt lat="42.80523" lon="0.56003">
        <ele>816</ele>
        <time>2025-06-10T20:45:04Z</time>
      </trkpt>
      <trkpt lat="42.80531" lon="0.56003">
        <ele>817</ele>
        <time>2025-06-10T20:45:10Z</time>
      </trkpt>
      <trkpt lat="42.80549" lon="0.56006">
        <ele>818</ele>
        <time>2025-06-10T20:45:24Z</time>
      </trkpt>
      <trkpt lat="42.80582" lon="0.56013">
        <ele>821</ele>
        <time>2025-06-10T20:45:51Z</time>
      </trkpt>
      <trkpt lat="42.80601" lon="0.56022">
        <ele>822</ele>
        <time>2025-06-10T20:46:07Z</time>
      </trkpt>
      <trkpt lat="42.80611" lon="0.56028">
        <ele>823</ele>
        <time>2025-06-10T20:46:16Z</time>
      </trkpt>
      <trkpt lat="42.8062" lon="0.56036">
        <ele>822</ele>
        <time>2025-06-10T20:46:25Z</time>
      </trkpt>
      <trkpt lat="42.80627" lon="0.56044">
        <ele>822</ele>
        <time>2025-06-10T20:46:32Z</time>
      </trkpt>
      <trkpt lat="42.80632" lon="0.56053">
        <ele>821</ele>
        <time>2025-06-10T20:46:39Z</time>
      </trkpt>
      <trkpt lat="42.80634" lon="0.56062">
        <ele>819</ele>
        <time>2025-06-10T20:46:44Z</time>
      </trkpt>
      <trkpt lat="42.80635" lon="0.56071">
        <ele>817</ele>
        <time>2025-06-10T20:46:49Z</time>
      </trkpt>
      <trkpt lat="42.80634" lon="0.56078">
        <ele>815</ele>
        <time>2025-06-10T20:46:54Z</time>
      </trkpt>
      <trkpt lat="42.80632" lon="0.56086">
        <ele>815</ele>
        <time>2025-06-10T20:46:59Z</time>
      </trkpt>
      <trkpt lat="42.8063" lon="0.5609">
        <ele>815</ele>
        <time>2025-06-10T20:47:01Z</time>
      </trkpt>
      <trkpt lat="42.80622" lon="0.56099">
        <ele>817</ele>
        <time>2025-06-10T20:47:10Z</time>
      </trkpt>
      <trkpt lat="42.80616" lon="0.56102">
        <ele>816</ele>
        <time>2025-06-10T20:47:15Z</time>
      </trkpt>
      <trkpt lat="42.80605" lon="0.56104">
        <ele>815</ele>
        <time>2025-06-10T20:47:24Z</time>
      </trkpt>
      <trkpt lat="42.8057" lon="0.56106">
        <ele>810</ele>
        <time>2025-06-10T20:47:52Z</time>
      </trkpt>
      <trkpt lat="42.80554" lon="0.56109">
        <ele>808</ele>
        <time>2025-06-10T20:48:05Z</time>
      </trkpt>
      <trkpt lat="42.80544" lon="0.56113">
        <ele>808</ele>
        <time>2025-06-10T20:48:13Z</time>
      </trkpt>
      <trkpt lat="42.80525" lon="0.56125">
        <ele>807</ele>
        <time>2025-06-10T20:48:30Z</time>
      </trkpt>
      <trkpt lat="42.80465" lon="0.56166">
        <ele>796</ele>
        <time>2025-06-10T20:49:24Z</time>
      </trkpt>
      <trkpt lat="42.80424" lon="0.56187">
        <ele>792</ele>
        <time>2025-06-10T20:49:59Z</time>
      </trkpt>
      <trkpt lat="42.80408" lon="0.56194">
        <ele>790</ele>
        <time>2025-06-10T20:50:12Z</time>
      </trkpt>
      <trkpt lat="42.80399" lon="0.56197">
        <ele>789</ele>
        <time>2025-06-10T20:50:20Z</time>
      </trkpt>
      <trkpt lat="42.80391" lon="0.56198">
        <ele>788</ele>
        <time>2025-06-10T20:50:26Z</time>
      </trkpt>
      <trkpt lat="42.80354" lon="0.56196">
        <ele>781</ele>
        <time>2025-06-10T20:50:56Z</time>
      </trkpt>
      <trkpt lat="42.80345" lon="0.56198">
        <ele>780</ele>
        <time>2025-06-10T20:51:03Z</time>
      </trkpt>
      <trkpt lat="42.80336" lon="0.56201">
        <ele>778</ele>
        <time>2025-06-10T20:51:10Z</time>
      </trkpt>
      <trkpt lat="42.80328" lon="0.56205">
        <ele>779</ele>
        <time>2025-06-10T20:51:17Z</time>
      </trkpt>
      <trkpt lat="42.80321" lon="0.56212">
        <ele>781</ele>
        <time>2025-06-10T20:51:24Z</time>
      </trkpt>
      <trkpt lat="42.80315" lon="0.5622">
        <ele>783</ele>
        <time>2025-06-10T20:51:31Z</time>
      </trkpt>
      <trkpt lat="42.80307" lon="0.56234">
        <ele>784</ele>
        <time>2025-06-10T20:51:41Z</time>
      </trkpt>
      <trkpt lat="42.80291" lon="0.5627">
        <ele>784</ele>
        <time>2025-06-10T20:52:06Z</time>
      </trkpt>
      <trkpt lat="42.80284" lon="0.56283">
        <ele>783</ele>
        <time>2025-06-10T20:52:15Z</time>
      </trkpt>
      <trkpt lat="42.80277" lon="0.56293">
        <ele>781</ele>
        <time>2025-06-10T20:52:24Z</time>
      </trkpt>
      <trkpt lat="42.80258" lon="0.56318">
        <ele>776</ele>
        <time>2025-06-10T20:52:45Z</time>
      </trkpt>
      <trkpt lat="42.80251" lon="0.56328">
        <ele>773</ele>
        <time>2025-06-10T20:52:53Z</time>
      </trkpt>
      <trkpt lat="42.80154" lon="0.56454">
        <ele>772</ele>
        <time>2025-06-10T20:54:40Z</time>
      </trkpt>
      <trkpt lat="42.80131" lon="0.56481">
        <ele>771</ele>
        <time>2025-06-10T20:55:04Z</time>
      </trkpt>
      <trkpt lat="42.80119" lon="0.56493">
        <ele>770</ele>
        <time>2025-06-10T20:55:16Z</time>
      </trkpt>
      <trkpt lat="42.80095" lon="0.56512">
        <ele>774</ele>
        <time>2025-06-10T20:55:39Z</time>
      </trkpt>
      <trkpt lat="42.80072" lon="0.56524">
        <ele>778</ele>
        <time>2025-06-10T20:55:58Z</time>
      </trkpt>
      <trkpt lat="42.8003" lon="0.56544">
        <ele>778</ele>
        <time>2025-06-10T20:56:34Z</time>
      </trkpt>
      <trkpt lat="42.80017" lon="0.56553">
        <ele>775</ele>
        <time>2025-06-10T20:56:46Z</time>
      </trkpt>
      <trkpt lat="42.79927" lon="0.56632">
        <ele>777</ele>
        <time>2025-06-10T20:58:11Z</time>
      </trkpt>
      <trkpt lat="42.79909" lon="0.56645">
        <ele>776</ele>
        <time>2025-06-10T20:58:28Z</time>
      </trkpt>
      <trkpt lat="42.79903" lon="0.56649">
        <ele>776</ele>
        <time>2025-06-10T20:58:33Z</time>
      </trkpt>
      <trkpt lat="42.79894" lon="0.56651">
        <ele>775</ele>
        <time>2025-06-10T20:58:40Z</time>
      </trkpt>
      <trkpt lat="42.79863" lon="0.56658">
        <ele>772</ele>
        <time>2025-06-10T20:59:05Z</time>
      </trkpt>
      <trkpt lat="42.79835" lon="0.56662">
        <ele>768</ele>
        <time>2025-06-10T20:59:28Z</time>
      </trkpt>
      <trkpt lat="42.79827" lon="0.56662">
        <ele>767</ele>
        <time>2025-06-10T20:59:34Z</time>
      </trkpt>
      <trkpt lat="42.798" lon="0.56658">
        <ele>764</ele>
        <time>2025-06-10T20:59:56Z</time>
      </trkpt>
      <trkpt lat="42.7979" lon="0.56658">
        <ele>763</ele>
        <time>2025-06-10T21:00:04Z</time>
      </trkpt>
      <trkpt lat="42.79784" lon="0.5666">
        <ele>762</ele>
        <time>2025-06-10T21:00:09Z</time>
      </trkpt>
      <trkpt lat="42.79776" lon="0.56664">
        <ele>760</ele>
        <time>2025-06-10T21:00:16Z</time>
      </trkpt>
      <trkpt lat="42.79767" lon="0.5667">
        <ele>759</ele>
        <time>2025-06-10T21:00:24Z</time>
      </trkpt>
      <trkpt lat="42.7976" lon="0.56676">
        <ele>758</ele>
        <time>2025-06-10T21:00:31Z</time>
      </trkpt>
      <trkpt lat="42.79753" lon="0.56686">
        <ele>758</ele>
        <time>2025-06-10T21:00:39Z</time>
      </trkpt>
      <trkpt lat="42.79748" lon="0.56695">
        <ele>759</ele>
        <time>2025-06-10T21:00:45Z</time>
      </trkpt>
      <trkpt lat="42.79743" lon="0.56707">
        <ele>759</ele>
        <time>2025-06-10T21:00:53Z</time>
      </trkpt>
      <trkpt lat="42.79732" lon="0.56746">
        <ele>760</ele>
        <time>2025-06-10T21:01:18Z</time>
      </trkpt>
      <trkpt lat="42.79728" lon="0.56758">
        <ele>761</ele>
        <time>2025-06-10T21:01:26Z</time>
      </trkpt>
      <trkpt lat="42.79724" lon="0.56769">
        <ele>762</ele>
        <time>2025-06-10T21:01:33Z</time>
      </trkpt>
      <trkpt lat="42.79691" lon="0.56824">
        <ele>756</ele>
        <time>2025-06-10T21:02:15Z</time>
      </trkpt>
      <trkpt lat="42.79674" lon="0.56859">
        <ele>752</ele>
        <time>2025-06-10T21:02:39Z</time>
      </trkpt>
      <trkpt lat="42.79652" lon="0.56924">
        <ele>755</ele>
        <time>2025-06-10T21:03:21Z</time>
      </trkpt>
      <trkpt lat="42.79636" lon="0.56974">
        <ele>757</ele>
        <time>2025-06-10T21:03:53Z</time>
      </trkpt>
      <trkpt lat="42.79621" lon="0.57029">
        <ele>753</ele>
        <time>2025-06-10T21:04:28Z</time>
      </trkpt>
      <trkpt lat="42.7962" lon="0.57039">
        <ele>752</ele>
        <time>2025-06-10T21:04:34Z</time>
      </trkpt>
      <trkpt lat="42.79621" lon="0.57047">
        <ele>752</ele>
        <time>2025-06-10T21:04:39Z</time>
      </trkpt>
      <trkpt lat="42.79622" lon="0.57055">
        <ele>752</ele>
        <time>2025-06-10T21:04:43Z</time>
      </trkpt>
      <trkpt lat="42.79645" lon="0.57132">
        <ele>756</ele>
        <time>2025-06-10T21:05:32Z</time>
      </trkpt>
      <trkpt lat="42.79653" lon="0.57167">
        <ele>755</ele>
        <time>2025-06-10T21:05:54Z</time>
      </trkpt>
      <trkpt lat="42.79655" lon="0.57182">
        <ele>756</ele>
        <time>2025-06-10T21:06:03Z</time>
      </trkpt>
      <trkpt lat="42.79656" lon="0.57199">
        <ele>756</ele>
        <time>2025-06-10T21:06:13Z</time>
      </trkpt>
      <trkpt lat="42.79655" lon="0.57233">
        <ele>754</ele>
        <time>2025-06-10T21:06:33Z</time>
      </trkpt>
      <trkpt lat="42.79643" lon="0.57306">
        <ele>746</ele>
        <time>2025-06-10T21:07:17Z</time>
      </trkpt>
      <trkpt lat="42.79639" lon="0.57335">
        <ele>743</ele>
        <time>2025-06-10T21:07:34Z</time>
      </trkpt>
      <trkpt lat="42.79635" lon="0.57359">
        <ele>742</ele>
        <time>2025-06-10T21:07:48Z</time>
      </trkpt>
      <trkpt lat="42.7963" lon="0.57382">
        <ele>741</ele>
        <time>2025-06-10T21:08:03Z</time>
      </trkpt>
      <trkpt lat="42.79611" lon="0.57448">
        <ele>732</ele>
        <time>2025-06-10T21:08:44Z</time>
      </trkpt>
      <trkpt lat="42.79602" lon="0.57484">
        <ele>728</ele>
        <time>2025-06-10T21:09:07Z</time>
      </trkpt>
      <trkpt lat="42.79583" lon="0.57565">
        <ele>716</ele>
        <time>2025-06-10T21:09:56Z</time>
      </trkpt>
      <trkpt lat="42.79583" lon="0.57575">
        <ele>716</ele>
        <time>2025-06-10T21:10:02Z</time>
      </trkpt>
      <trkpt lat="42.79583" lon="0.57584">
        <ele>716</ele>
        <time>2025-06-10T21:10:08Z</time>
      </trkpt>
      <trkpt lat="42.79586" lon="0.57602">
        <ele>717</ele>
        <time>2025-06-10T21:10:18Z</time>
      </trkpt>
      <trkpt lat="42.79586" lon="0.57615">
        <ele>716</ele>
        <time>2025-06-10T21:10:26Z</time>
      </trkpt>
      <trkpt lat="42.7958" lon="0.57689">
        <ele>712</ele>
        <time>2025-06-10T21:11:10Z</time>
      </trkpt>
      <trkpt lat="42.79579" lon="0.57705">
        <ele>714</ele>
        <time>2025-06-10T21:11:19Z</time>
      </trkpt>
      <trkpt lat="42.79576" lon="0.57719">
        <ele>715</ele>
        <time>2025-06-10T21:11:28Z</time>
      </trkpt>
      <trkpt lat="42.79572" lon="0.57732">
        <ele>714</ele>
        <time>2025-06-10T21:11:36Z</time>
      </trkpt>
      <trkpt lat="42.79567" lon="0.57746">
        <ele>714</ele>
        <time>2025-06-10T21:11:45Z</time>
      </trkpt>
      <trkpt lat="42.79501" lon="0.57866">
        <ele>693</ele>
        <time>2025-06-10T21:13:13Z</time>
      </trkpt>
      <trkpt lat="42.79486" lon="0.5789">
        <ele>692</ele>
        <time>2025-06-10T21:13:32Z</time>
      </trkpt>
      <trkpt lat="42.79464" lon="0.57916">
        <ele>688</ele>
        <time>2025-06-10T21:13:55Z</time>
      </trkpt>
      <trkpt lat="42.79457" lon="0.57927">
        <ele>686</ele>
        <time>2025-06-10T21:14:04Z</time>
      </trkpt>
      <trkpt lat="42.79454" lon="0.57935">
        <ele>686</ele>
        <time>2025-06-10T21:14:09Z</time>
      </trkpt>
      <trkpt lat="42.79447" lon="0.57959">
        <ele>685</ele>
        <time>2025-06-10T21:14:24Z</time>
      </trkpt>
      <trkpt lat="42.79438" lon="0.58001">
        <ele>684</ele>
        <time>2025-06-10T21:14:50Z</time>
      </trkpt>
      <trkpt lat="42.79436" lon="0.58012">
        <ele>684</ele>
        <time>2025-06-10T21:14:57Z</time>
      </trkpt>
      <trkpt lat="42.7943" lon="0.58039">
        <ele>684</ele>
        <time>2025-06-10T21:15:13Z</time>
      </trkpt>
      <trkpt lat="42.79427" lon="0.58063">
        <ele>684</ele>
        <time>2025-06-10T21:15:28Z</time>
      </trkpt>
      <trkpt lat="42.79424" lon="0.58089">
        <ele>684</ele>
        <time>2025-06-10T21:15:43Z</time>
      </trkpt>
      <trkpt lat="42.79422" lon="0.58121">
        <ele>684</ele>
        <time>2025-06-10T21:16:02Z</time>
      </trkpt>
      <trkpt lat="42.79423" lon="0.58164">
        <ele>686</ele>
        <time>2025-06-10T21:16:27Z</time>
      </trkpt>
      <trkpt lat="42.79426" lon="0.58233">
        <ele>691</ele>
        <time>2025-06-10T21:17:08Z</time>
      </trkpt>
      <trkpt lat="42.79425" lon="0.58261">
        <ele>691</ele>
        <time>2025-06-10T21:17:24Z</time>
      </trkpt>
      <trkpt lat="42.79423" lon="0.58281">
        <ele>690</ele>
        <time>2025-06-10T21:17:36Z</time>
      </trkpt>
      <trkpt lat="42.79419" lon="0.583">
        <ele>687</ele>
        <time>2025-06-10T21:17:48Z</time>
      </trkpt>
      <trkpt lat="42.79409" lon="0.58336">
        <ele>683</ele>
        <time>2025-06-10T21:18:10Z</time>
      </trkpt>
      <trkpt lat="42.79405" lon="0.58352">
        <ele>681</ele>
        <time>2025-06-10T21:18:20Z</time>
      </trkpt>
      <trkpt lat="42.79403" lon="0.58371">
        <ele>680</ele>
        <time>2025-06-10T21:18:31Z</time>
      </trkpt>
      <trkpt lat="42.79398" lon="0.58425">
        <ele>678</ele>
        <time>2025-06-10T21:19:03Z</time>
      </trkpt>
      <trkpt lat="42.79391" lon="0.58467">
        <ele>674</ele>
        <time>2025-06-10T21:19:29Z</time>
      </trkpt>
      <trkpt lat="42.79374" lon="0.58529">
        <ele>665</ele>
        <time>2025-06-10T21:20:08Z</time>
      </trkpt>
      <trkpt lat="42.79349" lon="0.58598">
        <ele>654</ele>
        <time>2025-06-10T21:20:53Z</time>
      </trkpt>
      <trkpt lat="42.7934" lon="0.58627">
        <ele>649</ele>
        <time>2025-06-10T21:21:11Z</time>
      </trkpt>
      <trkpt lat="42.79338" lon="0.58637">
        <ele>648</ele>
        <time>2025-06-10T21:21:17Z</time>
      </trkpt>
      <trkpt lat="42.79337" lon="0.58651">
        <ele>647</ele>
        <time>2025-06-10T21:21:26Z</time>
      </trkpt>
      <trkpt lat="42.79338" lon="0.58668">
        <ele>647</ele>
        <time>2025-06-10T21:21:36Z</time>
      </trkpt>
      <trkpt lat="42.79343" lon="0.58725">
        <ele>646</ele>
        <time>2025-06-10T21:22:09Z</time>
      </trkpt>
      <trkpt lat="42.79342" lon="0.58766">
        <ele>644</ele>
        <time>2025-06-10T21:22:34Z</time>
      </trkpt>
      <trkpt lat="42.79343" lon="0.58781">
        <ele>644</ele>
        <time>2025-06-10T21:22:42Z</time>
      </trkpt>
      <trkpt lat="42.7935" lon="0.58823">
        <ele>644</ele>
        <time>2025-06-10T21:23:08Z</time>
      </trkpt>
      <trkpt lat="42.79354" lon="0.58848">
        <ele>644</ele>
        <time>2025-06-10T21:23:23Z</time>
      </trkpt>
      <trkpt lat="42.79356" lon="0.5887">
        <ele>644</ele>
        <time>2025-06-10T21:23:36Z</time>
      </trkpt>
      <trkpt lat="42.7936" lon="0.58901">
        <ele>643</ele>
        <time>2025-06-10T21:23:54Z</time>
      </trkpt>
      <trkpt lat="42.79377" lon="0.59008">
        <ele>642</ele>
        <time>2025-06-10T21:24:59Z</time>
      </trkpt>
      <trkpt lat="42.79378" lon="0.59027">
        <ele>641</ele>
        <time>2025-06-10T21:25:10Z</time>
      </trkpt>
      <trkpt lat="42.79379" lon="0.59035">
        <ele>641</ele>
        <time>2025-06-10T21:25:15Z</time>
      </trkpt>
      <trkpt lat="42.79377" lon="0.59064">
        <ele>639</ele>
        <time>2025-06-10T21:25:32Z</time>
      </trkpt>
      <trkpt lat="42.79374" lon="0.59099">
        <ele>637</ele>
        <time>2025-06-10T21:25:52Z</time>
      </trkpt>
      <trkpt lat="42.79373" lon="0.59117">
        <ele>637</ele>
        <time>2025-06-10T21:26:03Z</time>
      </trkpt>
      <trkpt lat="42.79373" lon="0.59129">
        <ele>636</ele>
        <time>2025-06-10T21:26:10Z</time>
      </trkpt>
      <trkpt lat="42.79374" lon="0.59142">
        <ele>636</ele>
        <time>2025-06-10T21:26:18Z</time>
      </trkpt>
      <trkpt lat="42.79377" lon="0.59155">
        <ele>635</ele>
        <time>2025-06-10T21:26:26Z</time>
      </trkpt>
      <trkpt lat="42.79383" lon="0.59173">
        <ele>635</ele>
        <time>2025-06-10T21:26:37Z</time>
      </trkpt>
      <trkpt lat="42.79423" lon="0.59248">
        <ele>638</ele>
        <time>2025-06-10T21:27:32Z</time>
      </trkpt>
      <trkpt lat="42.79439" lon="0.59275">
        <ele>640</ele>
        <time>2025-06-10T21:27:52Z</time>
      </trkpt>
      <trkpt lat="42.79451" lon="0.59294">
        <ele>640</ele>
        <time>2025-06-10T21:28:07Z</time>
      </trkpt>
      <trkpt lat="42.79462" lon="0.59313">
        <ele>639</ele>
        <time>2025-06-10T21:28:21Z</time>
      </trkpt>
      <trkpt lat="42.79474" lon="0.59339">
        <ele>636</ele>
        <time>2025-06-10T21:28:39Z</time>
      </trkpt>
      <trkpt lat="42.79488" lon="0.59369">
        <ele>634</ele>
        <time>2025-06-10T21:29:00Z</time>
      </trkpt>
      <trkpt lat="42.79488" lon="0.59381">
        <ele>633</ele>
        <time>2025-06-10T21:29:07Z</time>
      </trkpt>
      <trkpt lat="42.79486" lon="0.59392">
        <ele>632</ele>
        <time>2025-06-10T21:29:14Z</time>
      </trkpt>
      <trkpt lat="42.7948" lon="0.59395">
        <ele>631</ele>
        <time>2025-06-10T21:29:19Z</time>
      </trkpt>
      <trkpt lat="42.79474" lon="0.59397">
        <ele>631</ele>
        <time>2025-06-10T21:29:24Z</time>
      </trkpt>
      <trkpt lat="42.79469" lon="0.59396">
        <ele>631</ele>
        <time>2025-06-10T21:29:28Z</time>
      </trkpt>
      <trkpt lat="42.79426" lon="0.59353">
        <ele>635</ele>
        <time>2025-06-10T21:30:11Z</time>
      </trkpt>
      <trkpt lat="42.79403" lon="0.59332">
        <ele>635</ele>
        <time>2025-06-10T21:30:33Z</time>
      </trkpt>
      <trkpt lat="42.79426" lon="0.59353">
        <ele>635</ele>
        <time>2025-06-10T21:30:55Z</time>
      </trkpt>
      <trkpt lat="42.79469" lon="0.59396">
        <ele>631</ele>
        <time>2025-06-10T21:31:38Z</time>
      </trkpt>
      <trkpt lat="42.79473" lon="0.59402">
        <ele>631</ele>
        <time>2025-06-10T21:31:42Z</time>
      </trkpt>
      <trkpt lat="42.79483" lon="0.5941">
        <ele>630</ele>
        <time>2025-06-10T21:31:52Z</time>
      </trkpt>
      <trkpt lat="42.7949" lon="0.59418">
        <ele>629</ele>
        <time>2025-06-10T21:31:59Z</time>
      </trkpt>
      <trkpt lat="42.79495" lon="0.59426">
        <ele>629</ele>
        <time>2025-06-10T21:32:05Z</time>
      </trkpt>
      <trkpt lat="42.79496" lon="0.59431">
        <ele>629</ele>
        <time>2025-06-10T21:32:08Z</time>
      </trkpt>
      <trkpt lat="42.79496" lon="0.59446">
        <ele>628</ele>
        <time>2025-06-10T21:32:17Z</time>
      </trkpt>
      <trkpt lat="42.79497" lon="0.59452">
        <ele>628</ele>
        <time>2025-06-10T21:32:21Z</time>
      </trkpt>
      <trkpt lat="42.79501" lon="0.59457">
        <ele>628</ele>
        <time>2025-06-10T21:32:25Z</time>
      </trkpt>
      <trkpt lat="42.79505" lon="0.59471">
        <ele>627</ele>
        <time>2025-06-10T21:32:34Z</time>
      </trkpt>
      <trkpt lat="42.79511" lon="0.59593">
        <ele>626</ele>
        <time>2025-06-10T21:33:46Z</time>
      </trkpt>
      <trkpt lat="42.79512" lon="0.59621">
        <ele>626</ele>
        <time>2025-06-10T21:34:02Z</time>
      </trkpt>
      <trkpt lat="42.79509" lon="0.59623">
        <ele>626</ele>
        <time>2025-06-10T21:34:05Z</time>
      </trkpt>
      <trkpt lat="42.79475" lon="0.5964">
        <ele>627</ele>
        <time>2025-06-10T21:34:34Z</time>
      </trkpt>
      <trkpt lat="42.79441" lon="0.59655">
        <ele>628</ele>
        <time>2025-06-10T21:35:02Z</time>
      </trkpt>
      <trkpt lat="42.79436" lon="0.59657">
        <ele>628</ele>
        <time>2025-06-10T21:35:07Z</time>
      </trkpt>
      <trkpt lat="42.79431" lon="0.59659">
        <ele>628</ele>
        <time>2025-06-10T21:35:11Z</time>
      </trkpt>
      <trkpt lat="42.79422" lon="0.59663">
        <ele>628</ele>
        <time>2025-06-10T21:35:18Z</time>
      </trkpt>
      <trkpt lat="42.79415" lon="0.59667">
        <ele>628</ele>
        <time>2025-06-10T21:35:24Z</time>
      </trkpt>
      <trkpt lat="42.79396" lon="0.59676">
        <ele>628</ele>
        <time>2025-06-10T21:35:41Z</time>
      </trkpt>
      <trkpt lat="42.79379" lon="0.59688">
        <ele>628</ele>
        <time>2025-06-10T21:35:56Z</time>
      </trkpt>
      <trkpt lat="42.7934" lon="0.59717">
        <ele>627</ele>
        <time>2025-06-10T21:36:31Z</time>
      </trkpt>
      <trkpt lat="42.79294" lon="0.59751">
        <ele>626</ele>
        <time>2025-06-10T21:37:13Z</time>
      </trkpt>
      <trkpt lat="42.79268" lon="0.59769">
        <ele>627</ele>
        <time>2025-06-10T21:37:37Z</time>
      </trkpt>
      <trkpt lat="42.79258" lon="0.59773">
        <ele>627</ele>
        <time>2025-06-10T21:37:45Z</time>
      </trkpt>
      <trkpt lat="42.79248" lon="0.59776">
        <ele>627</ele>
        <time>2025-06-10T21:37:53Z</time>
      </trkpt>
      <trkpt lat="42.79239" lon="0.59777">
        <ele>627</ele>
        <time>2025-06-10T21:38:00Z</time>
      </trkpt>
      <trkpt lat="42.79228" lon="0.59778">
        <ele>627</ele>
        <time>2025-06-10T21:38:09Z</time>
      </trkpt>
      <trkpt lat="42.79185" lon="0.59778">
        <ele>628</ele>
        <time>2025-06-10T21:38:44Z</time>
      </trkpt>
      <trkpt lat="42.79162" lon="0.59777">
        <ele>629</ele>
        <time>2025-06-10T21:39:02Z</time>
      </trkpt>
      <trkpt lat="42.79156" lon="0.59777">
        <ele>629</ele>
        <time>2025-06-10T21:39:07Z</time>
      </trkpt>
      <trkpt lat="42.79146" lon="0.59776">
        <ele>629</ele>
        <time>2025-06-10T21:39:15Z</time>
      </trkpt>
      <trkpt lat="42.79134" lon="0.59775">
        <ele>629</ele>
        <time>2025-06-10T21:39:25Z</time>
      </trkpt>
      <trkpt lat="42.79123" lon="0.59773">
        <ele>630</ele>
        <time>2025-06-10T21:39:33Z</time>
      </trkpt>
      <trkpt lat="42.79123" lon="0.59769">
        <ele>630</ele>
        <time>2025-06-10T21:39:36Z</time>
      </trkpt>
      <trkpt lat="42.7912" lon="0.59763">
        <ele>630</ele>
        <time>2025-06-10T21:39:40Z</time>
      </trkpt>
      <trkpt lat="42.79115" lon="0.59759">
        <ele>630</ele>
        <time>2025-06-10T21:39:45Z</time>
      </trkpt>
      <trkpt lat="42.79109" lon="0.5976">
        <ele>630</ele>
        <time>2025-06-10T21:39:50Z</time>
      </trkpt>
      <trkpt lat="42.79107" lon="0.59763">
        <ele>630</ele>
        <time>2025-06-10T21:39:52Z</time>
      </trkpt>
      <trkpt lat="42.79105" lon="0.59767">
        <ele>630</ele>
        <time>2025-06-10T21:39:55Z</time>
      </trkpt>
      <trkpt lat="42.79104" lon="0.59771">
        <ele>630</ele>
        <time>2025-06-10T21:39:57Z</time>
      </trkpt>
      <trkpt lat="42.79056" lon="0.59764">
        <ele>630</ele>
        <time>2025-06-10T21:40:36Z</time>
      </trkpt>
      <trkpt lat="42.79011" lon="0.59749">
        <ele>628</ele>
        <time>2025-06-10T21:41:13Z</time>
      </trkpt>
      <trkpt lat="42.78985" lon="0.59744">
        <ele>628</ele>
        <time>2025-06-10T21:41:34Z</time>
      </trkpt>
      <trkpt lat="42.78953" lon="0.59738">
        <ele>629</ele>
        <time>2025-06-10T21:42:00Z</time>
      </trkpt>
      <trkpt lat="42.78905" lon="0.59729">
        <ele>630</ele>
        <time>2025-06-10T21:42:39Z</time>
      </trkpt>
      <trkpt lat="42.78873" lon="0.59723">
        <ele>631</ele>
        <time>2025-06-10T21:43:05Z</time>
      </trkpt>
      <trkpt lat="42.78849" lon="0.59721">
        <ele>632</ele>
        <time>2025-06-10T21:43:24Z</time>
      </trkpt>
      <trkpt lat="42.78826" lon="0.59721">
        <ele>632</ele>
        <time>2025-06-10T21:43:42Z</time>
      </trkpt>
      <trkpt lat="42.78773" lon="0.59733">
        <ele>633</ele>
        <time>2025-06-10T21:44:25Z</time>
      </trkpt>
      <trkpt lat="42.78756" lon="0.5974">
        <ele>634</ele>
        <time>2025-06-10T21:44:39Z</time>
      </trkpt>
      <trkpt lat="42.78709" lon="0.59767">
        <ele>634</ele>
        <time>2025-06-10T21:45:20Z</time>
      </trkpt>
      <trkpt lat="42.78639" lon="0.59806">
        <ele>634</ele>
        <time>2025-06-10T21:46:21Z</time>
      </trkpt>
      <trkpt lat="42.78631" lon="0.59814">
        <ele>634</ele>
        <time>2025-06-10T21:46:29Z</time>
      </trkpt>
      <trkpt lat="42.78624" lon="0.598">
        <ele>634</ele>
        <time>2025-06-10T21:46:39Z</time>
      </trkpt>
      <trkpt lat="42.78617" lon="0.5978">
        <ele>635</ele>
        <time>2025-06-10T21:46:52Z</time>
      </trkpt>
      <trkpt lat="42.78612" lon="0.59762">
        <ele>635</ele>
        <time>2025-06-10T21:47:03Z</time>
      </trkpt>
      <trkpt lat="42.78564" lon="0.59595">
        <ele>636</ele>
        <time>2025-06-10T21:48:49Z</time>
      </trkpt>
      <trkpt lat="42.7855" lon="0.59546">
        <ele>635</ele>
        <time>2025-06-10T21:49:19Z</time>
      </trkpt>
      <trkpt lat="42.78546" lon="0.59531">
        <ele>635</ele>
        <time>2025-06-10T21:49:29Z</time>
      </trkpt>
      <trkpt lat="42.78537" lon="0.59535">
        <ele>635</ele>
        <time>2025-06-10T21:49:36Z</time>
      </trkpt>
      <trkpt lat="42.78515" lon="0.59548">
        <ele>635</ele>
        <time>2025-06-10T21:49:56Z</time>
      </trkpt>
      <trkpt lat="42.78509" lon="0.59549">
        <ele>635</ele>
        <time>2025-06-10T21:50:00Z</time>
      </trkpt>
      <trkpt lat="42.78504" lon="0.59552">
        <ele>635</ele>
        <time>2025-06-10T21:50:05Z</time>
      </trkpt>
      <trkpt lat="42.78496" lon="0.59558">
        <ele>635</ele>
        <time>2025-06-10T21:50:12Z</time>
      </trkpt>
      <trkpt lat="42.78479" lon="0.59568">
        <ele>636</ele>
        <time>2025-06-10T21:50:27Z</time>
      </trkpt>
      <trkpt lat="42.78467" lon="0.59573">
        <ele>636</ele>
        <time>2025-06-10T21:50:37Z</time>
      </trkpt>
      <trkpt lat="42.78455" lon="0.59578">
        <ele>637</ele>
        <time>2025-06-10T21:50:47Z</time>
      </trkpt>
      <trkpt lat="42.7844" lon="0.59589">
        <ele>638</ele>
        <time>2025-06-10T21:51:01Z</time>
      </trkpt>
      <trkpt lat="42.78415" lon="0.59609">
        <ele>639</ele>
        <time>2025-06-10T21:51:24Z</time>
      </trkpt>
      <trkpt lat="42.78386" lon="0.59632">
        <ele>641</ele>
        <time>2025-06-10T21:51:51Z</time>
      </trkpt>
      <trkpt lat="42.78376" lon="0.5964">
        <ele>641</ele>
        <time>2025-06-10T21:52:00Z</time>
      </trkpt>
      <trkpt lat="42.78374" lon="0.59641">
        <ele>641</ele>
        <time>2025-06-10T21:52:02Z</time>
      </trkpt>
      <trkpt lat="42.7836" lon="0.5965">
        <ele>641</ele>
        <time>2025-06-10T21:52:14Z</time>
      </trkpt>
      <trkpt lat="42.78325" lon="0.59675">
        <ele>642</ele>
        <time>2025-06-10T21:52:46Z</time>
      </trkpt>
      <trkpt lat="42.78309" lon="0.59685">
        <ele>643</ele>
        <time>2025-06-10T21:53:00Z</time>
      </trkpt>
      <trkpt lat="42.78278" lon="0.59704">
        <ele>645</ele>
        <time>2025-06-10T21:53:27Z</time>
      </trkpt>
      <trkpt lat="42.78268" lon="0.59709">
        <ele>645</ele>
        <time>2025-06-10T21:53:36Z</time>
      </trkpt>
      <trkpt lat="42.78268" lon="0.59734">
        <ele>643</ele>
        <time>2025-06-10T21:53:50Z</time>
      </trkpt>
      <trkpt lat="42.78266" lon="0.59854">
        <ele>639</ele>
        <time>2025-06-10T21:55:01Z</time>
      </trkpt>
      <trkpt lat="42.78265" lon="0.59866">
        <ele>639</ele>
        <time>2025-06-10T21:55:08Z</time>
      </trkpt>
      <trkpt lat="42.78265" lon="0.59882">
        <ele>638</ele>
        <time>2025-06-10T21:55:17Z</time>
      </trkpt>
      <trkpt lat="42.78265" lon="0.5997">
        <ele>638</ele>
        <time>2025-06-10T21:56:09Z</time>
      </trkpt>
      <trkpt lat="42.78264" lon="0.60036">
        <ele>639</ele>
        <time>2025-06-10T21:56:48Z</time>
      </trkpt>
      <trkpt lat="42.78263" lon="0.60103">
        <ele>639</ele>
        <time>2025-06-10T21:57:27Z</time>
      </trkpt>
      <trkpt lat="42.78263" lon="0.60175">
        <ele>640</ele>
        <time>2025-06-10T21:58:10Z</time>
      </trkpt>
      <trkpt lat="42.782" lon="0.60181">
        <ele>639</ele>
        <time>2025-06-10T21:59:00Z</time>
      </trkpt>
      <trkpt lat="42.78176" lon="0.60186">
        <ele>638</ele>
        <time>2025-06-10T21:59:20Z</time>
      </trkpt>
      <trkpt lat="42.78143" lon="0.60197">
        <ele>639</ele>
        <time>2025-06-10T21:59:47Z</time>
      </trkpt>
      <trkpt lat="42.78072" lon="0.60231">
        <ele>640</ele>
        <time>2025-06-10T22:00:47Z</time>
      </trkpt>
      <trkpt lat="42.78062" lon="0.60236">
        <ele>641</ele>
        <time>2025-06-10T22:00:56Z</time>
      </trkpt>
      <trkpt lat="42.78034" lon="0.60244">
        <ele>642</ele>
        <time>2025-06-10T22:01:18Z</time>
      </trkpt>
      <trkpt lat="42.77874" lon="0.60318">
        <ele>647</ele>
        <time>2025-06-10T22:03:34Z</time>
      </trkpt>
      <trkpt lat="42.77817" lon="0.60345">
        <ele>649</ele>
        <time>2025-06-10T22:04:22Z</time>
      </trkpt>
      <trkpt lat="42.77791" lon="0.60358">
        <ele>649</ele>
        <time>2025-06-10T22:04:44Z</time>
      </trkpt>
      <trkpt lat="42.77764" lon="0.60369">
        <ele>650</ele>
        <time>2025-06-10T22:05:07Z</time>
      </trkpt>
      <trkpt lat="42.77706" lon="0.60399">
        <ele>654</ele>
        <time>2025-06-10T22:05:56Z</time>
      </trkpt>
      <trkpt lat="42.77699" lon="0.60403">
        <ele>655</ele>
        <time>2025-06-10T22:06:03Z</time>
      </trkpt>
      <trkpt lat="42.77675" lon="0.60411">
        <ele>656</ele>
        <time>2025-06-10T22:06:22Z</time>
      </trkpt>
      <trkpt lat="42.7765" lon="0.6042">
        <ele>658</ele>
        <time>2025-06-10T22:06:43Z</time>
      </trkpt>
      <trkpt lat="42.77608" lon="0.60437">
        <ele>664</ele>
        <time>2025-06-10T22:07:18Z</time>
      </trkpt>
      <trkpt lat="42.77581" lon="0.60448">
        <ele>667</ele>
        <time>2025-06-10T22:07:41Z</time>
      </trkpt>
      <trkpt lat="42.77498" lon="0.60489">
        <ele>666</ele>
        <time>2025-06-10T22:08:51Z</time>
      </trkpt>
      <trkpt lat="42.77452" lon="0.60516">
        <ele>670</ele>
        <time>2025-06-10T22:09:31Z</time>
      </trkpt>
      <trkpt lat="42.77395" lon="0.60558">
        <ele>677</ele>
        <time>2025-06-10T22:10:23Z</time>
      </trkpt>
      <trkpt lat="42.77358" lon="0.60589">
        <ele>681</ele>
        <time>2025-06-10T22:10:58Z</time>
      </trkpt>
      <trkpt lat="42.77347" lon="0.60598">
        <ele>682</ele>
        <time>2025-06-10T22:11:08Z</time>
      </trkpt>
      <trkpt lat="42.77341" lon="0.60606">
        <ele>684</ele>
        <time>2025-06-10T22:11:15Z</time>
      </trkpt>
      <trkpt lat="42.77327" lon="0.60624">
        <ele>688</ele>
        <time>2025-06-10T22:11:31Z</time>
      </trkpt>
      <trkpt lat="42.77319" lon="0.60633">
        <ele>691</ele>
        <time>2025-06-10T22:11:39Z</time>
      </trkpt>
      <trkpt lat="42.77314" lon="0.60637">
        <ele>692</ele>
        <time>2025-06-10T22:11:43Z</time>
      </trkpt>
      <trkpt lat="42.77307" lon="0.60641">
        <ele>693</ele>
        <time>2025-06-10T22:11:50Z</time>
      </trkpt>
      <trkpt lat="42.77302" lon="0.60642">
        <ele>694</ele>
        <time>2025-06-10T22:11:54Z</time>
      </trkpt>
      <trkpt lat="42.77297" lon="0.60641">
        <ele>694</ele>
        <time>2025-06-10T22:11:58Z</time>
      </trkpt>
      <trkpt lat="42.7729" lon="0.60638">
        <ele>694</ele>
        <time>2025-06-10T22:12:04Z</time>
      </trkpt>
      <trkpt lat="42.77284" lon="0.6063">
        <ele>693</ele>
        <time>2025-06-10T22:12:10Z</time>
      </trkpt>
      <trkpt lat="42.7727" lon="0.60594">
        <ele>688</ele>
        <time>2025-06-10T22:12:34Z</time>
      </trkpt>
      <trkpt lat="42.77259" lon="0.60577">
        <ele>688</ele>
        <time>2025-06-10T22:12:47Z</time>
      </trkpt>
      <trkpt lat="42.77245" lon="0.60562">
        <ele>689</ele>
        <time>2025-06-10T22:13:02Z</time>
      </trkpt>
      <trkpt lat="42.77235" lon="0.60558">
        <ele>689</ele>
        <time>2025-06-10T22:13:10Z</time>
      </trkpt>
      <trkpt lat="42.77226" lon="0.60557">
        <ele>689</ele>
        <time>2025-06-10T22:13:17Z</time>
      </trkpt>
      <trkpt lat="42.77214" lon="0.60561">
        <ele>689</ele>
        <time>2025-06-10T22:13:27Z</time>
      </trkpt>
      <trkpt lat="42.77204" lon="0.6057">
        <ele>689</ele>
        <time>2025-06-10T22:13:37Z</time>
      </trkpt>
      <trkpt lat="42.77176" lon="0.60616">
        <ele>693</ele>
        <time>2025-06-10T22:14:12Z</time>
      </trkpt>
      <trkpt lat="42.77157" lon="0.60643">
        <ele>696</ele>
        <time>2025-06-10T22:14:34Z</time>
      </trkpt>
      <trkpt lat="42.77139" lon="0.60662">
        <ele>699</ele>
        <time>2025-06-10T22:14:52Z</time>
      </trkpt>
      <trkpt lat="42.77105" lon="0.60695">
        <ele>703</ele>
        <time>2025-06-10T22:15:26Z</time>
      </trkpt>
      <trkpt lat="42.77089" lon="0.6071">
        <ele>704</ele>
        <time>2025-06-10T22:15:41Z</time>
      </trkpt>
      <trkpt lat="42.77051" lon="0.6074">
        <ele>701</ele>
        <time>2025-06-10T22:16:16Z</time>
      </trkpt>
      <trkpt lat="42.77012" lon="0.60774">
        <ele>699</ele>
        <time>2025-06-10T22:16:53Z</time>
      </trkpt>
      <trkpt lat="42.76994" lon="0.60788">
        <ele>699</ele>
        <time>2025-06-10T22:17:10Z</time>
      </trkpt>
      <trkpt lat="42.76953" lon="0.60811">
        <ele>700</ele>
        <time>2025-06-10T22:17:45Z</time>
      </trkpt>
      <trkpt lat="42.76947" lon="0.60816">
        <ele>700</ele>
        <time>2025-06-10T22:17:51Z</time>
      </trkpt>
      <trkpt lat="42.76939" lon="0.60823">
        <ele>700</ele>
        <time>2025-06-10T22:17:59Z</time>
      </trkpt>
      <trkpt lat="42.76917" lon="0.6085">
        <ele>703</ele>
        <time>2025-06-10T22:18:22Z</time>
      </trkpt>
      <trkpt lat="42.76901" lon="0.60874">
        <ele>709</ele>
        <time>2025-06-10T22:18:41Z</time>
      </trkpt>
      <trkpt lat="42.76897" lon="0.60883">
        <ele>710</ele>
        <time>2025-06-10T22:18:48Z</time>
      </trkpt>
      <trkpt lat="42.76895" lon="0.60899">
        <ele>712</ele>
        <time>2025-06-10T22:18:57Z</time>
      </trkpt>
      <trkpt lat="42.76894" lon="0.60937">
        <ele>715</ele>
        <time>2025-06-10T22:19:20Z</time>
      </trkpt>
      <trkpt lat="42.7689" lon="0.60957">
        <ele>717</ele>
        <time>2025-06-10T22:19:32Z</time>
      </trkpt>
      <trkpt lat="42.76878" lon="0.60996">
        <ele>717</ele>
        <time>2025-06-10T22:19:57Z</time>
      </trkpt>
      <trkpt lat="42.76868" lon="0.61034">
        <ele>720</ele>
        <time>2025-06-10T22:20:20Z</time>
      </trkpt>
      <trkpt lat="42.76865" lon="0.61074">
        <ele>725</ele>
        <time>2025-06-10T22:20:44Z</time>
      </trkpt>
      <trkpt lat="42.76862" lon="0.61091">
        <ele>727</ele>
        <time>2025-06-10T22:20:54Z</time>
      </trkpt>
      <trkpt lat="42.76852" lon="0.61124">
        <ele>731</ele>
        <time>2025-06-10T22:21:15Z</time>
      </trkpt>
      <trkpt lat="42.76842" lon="0.61173">
        <ele>738</ele>
        <time>2025-06-10T22:21:45Z</time>
      </trkpt>
      <trkpt lat="42.76829" lon="0.61226">
        <ele>744</ele>
        <time>2025-06-10T22:22:18Z</time>
      </trkpt>
      <trkpt lat="42.76822" lon="0.61262">
        <ele>749</ele>
        <time>2025-06-10T22:22:40Z</time>
      </trkpt>
      <trkpt lat="42.76817" lon="0.61337">
        <ele>759</ele>
        <time>2025-06-10T22:23:24Z</time>
      </trkpt>
      <trkpt lat="42.76825" lon="0.61492">
        <ele>771</ele>
        <time>2025-06-10T22:24:55Z</time>
      </trkpt>
      <trkpt lat="42.76834" lon="0.61603">
        <ele>775</ele>
        <time>2025-06-10T22:26:01Z</time>
      </trkpt>
      <trkpt lat="42.76849" lon="0.61665">
        <ele>786</ele>
        <time>2025-06-10T22:26:39Z</time>
      </trkpt>
      <trkpt lat="42.7686" lon="0.6172">
        <ele>791</ele>
        <time>2025-06-10T22:27:13Z</time>
      </trkpt>
      <trkpt lat="42.76862" lon="0.61739">
        <ele>791</ele>
        <time>2025-06-10T22:27:24Z</time>
      </trkpt>
      <trkpt lat="42.76863" lon="0.61757">
        <ele>791</ele>
        <time>2025-06-10T22:27:35Z</time>
      </trkpt>
      <trkpt lat="42.76859" lon="0.61844">
        <ele>798</ele>
        <time>2025-06-10T22:28:26Z</time>
      </trkpt>
      <trkpt lat="42.7686" lon="0.61866">
        <ele>802</ele>
        <time>2025-06-10T22:28:39Z</time>
      </trkpt>
      <trkpt lat="42.76864" lon="0.61886">
        <ele>806</ele>
        <time>2025-06-10T22:28:51Z</time>
      </trkpt>
      <trkpt lat="42.76863" lon="0.61904">
        <ele>810</ele>
        <time>2025-06-10T22:29:02Z</time>
      </trkpt>
      <trkpt lat="42.76862" lon="0.61929">
        <ele>813</ele>
        <time>2025-06-10T22:29:17Z</time>
      </trkpt>
      <trkpt lat="42.76862" lon="0.61945">
        <ele>815</ele>
        <time>2025-06-10T22:29:26Z</time>
      </trkpt>
      <trkpt lat="42.76863" lon="0.61952">
        <ele>816</ele>
        <time>2025-06-10T22:29:30Z</time>
      </trkpt>
      <trkpt lat="42.76866" lon="0.61956">
        <ele>816</ele>
        <time>2025-06-10T22:29:34Z</time>
      </trkpt>
      <trkpt lat="42.76871" lon="0.61958">
        <ele>816</ele>
        <time>2025-06-10T22:29:38Z</time>
      </trkpt>
      <trkpt lat="42.76876" lon="0.61956">
        <ele>816</ele>
        <time>2025-06-10T22:29:42Z</time>
      </trkpt>
      <trkpt lat="42.76878" lon="0.61953">
        <ele>816</ele>
        <time>2025-06-10T22:29:44Z</time>
      </trkpt>
      <trkpt lat="42.7688" lon="0.61947">
        <ele>815</ele>
        <time>2025-06-10T22:29:48Z</time>
      </trkpt>
      <trkpt lat="42.7688" lon="0.61935">
        <ele>814</ele>
        <time>2025-06-10T22:29:55Z</time>
      </trkpt>
      <trkpt lat="42.76875" lon="0.61869">
        <ele>804</ele>
        <time>2025-06-10T22:30:34Z</time>
      </trkpt>
      <trkpt lat="42.76876" lon="0.6186">
        <ele>803</ele>
        <time>2025-06-10T22:30:40Z</time>
      </trkpt>
      <trkpt lat="42.76879" lon="0.61852">
        <ele>802</ele>
        <time>2025-06-10T22:30:45Z</time>
      </trkpt>
      <trkpt lat="42.76883" lon="0.61848">
        <ele>802</ele>
        <time>2025-06-10T22:30:49Z</time>
      </trkpt>
      <trkpt lat="42.76888" lon="0.61848">
        <ele>803</ele>
        <time>2025-06-10T22:30:53Z</time>
      </trkpt>
      <trkpt lat="42.76891" lon="0.6185">
        <ele>803</ele>
        <time>2025-06-10T22:30:55Z</time>
      </trkpt>
      <trkpt lat="42.76894" lon="0.61855">
        <ele>805</ele>
        <time>2025-06-10T22:30:59Z</time>
      </trkpt>
      <trkpt lat="42.76895" lon="0.61865">
        <ele>806</ele>
        <time>2025-06-10T22:31:05Z</time>
      </trkpt>
      <trkpt lat="42.76893" lon="0.61884">
        <ele>809</ele>
        <time>2025-06-10T22:31:16Z</time>
      </trkpt>
      <trkpt lat="42.7689" lon="0.61918">
        <ele>813</ele>
        <time>2025-06-10T22:31:37Z</time>
      </trkpt>
      <trkpt lat="42.76892" lon="0.61934">
        <ele>814</ele>
        <time>2025-06-10T22:31:46Z</time>
      </trkpt>
      <trkpt lat="42.76894" lon="0.61946">
        <ele>815</ele>
        <time>2025-06-10T22:31:53Z</time>
      </trkpt>
      <trkpt lat="42.7691" lon="0.61982">
        <ele>816</ele>
        <time>2025-06-10T22:32:18Z</time>
      </trkpt>
      <trkpt lat="42.76914" lon="0.61998">
        <ele>816</ele>
        <time>2025-06-10T22:32:28Z</time>
      </trkpt>
      <trkpt lat="42.76923" lon="0.62021">
        <ele>820</ele>
        <time>2025-06-10T22:32:43Z</time>
      </trkpt>
      <trkpt lat="42.76934" lon="0.62039">
        <ele>826</ele>
        <time>2025-06-10T22:32:57Z</time>
      </trkpt>
      <trkpt lat="42.76939" lon="0.6205">
        <ele>828</ele>
        <time>2025-06-10T22:33:05Z</time>
      </trkpt>
      <trkpt lat="42.76942" lon="0.62061">
        <ele>830</ele>
        <time>2025-06-10T22:33:12Z</time>
      </trkpt>
      <trkpt lat="42.76945" lon="0.62075">
        <ele>832</ele>
        <time>2025-06-10T22:33:20Z</time>
      </trkpt>
      <trkpt lat="42.76946" lon="0.62087">
        <ele>833</ele>
        <time>2025-06-10T22:33:27Z</time>
      </trkpt>
      <trkpt lat="42.76944" lon="0.62093">
        <ele>833</ele>
        <time>2025-06-10T22:33:31Z</time>
      </trkpt>
      <trkpt lat="42.76941" lon="0.62098">
        <ele>833</ele>
        <time>2025-06-10T22:33:35Z</time>
      </trkpt>
      <trkpt lat="42.76936" lon="0.621">
        <ele>832</ele>
        <time>2025-06-10T22:33:39Z</time>
      </trkpt>
      <trkpt lat="42.7693" lon="0.62098">
        <ele>830</ele>
        <time>2025-06-10T22:33:44Z</time>
      </trkpt>
      <trkpt lat="42.76901" lon="0.62084">
        <ele>829</ele>
        <time>2025-06-10T22:34:09Z</time>
      </trkpt>
      <trkpt lat="42.76876" lon="0.62076">
        <ele>835</ele>
        <time>2025-06-10T22:34:29Z</time>
      </trkpt>
      <trkpt lat="42.76862" lon="0.62069">
        <ele>837</ele>
        <time>2025-06-10T22:34:41Z</time>
      </trkpt>
      <trkpt lat="42.76858" lon="0.62064">
        <ele>837</ele>
        <time>2025-06-10T22:34:46Z</time>
      </trkpt>
      <trkpt lat="42.76854" lon="0.62056">
        <ele>836</ele>
        <time>2025-06-10T22:34:51Z</time>
      </trkpt>
      <trkpt lat="42.76849" lon="0.62039">
        <ele>833</ele>
        <time>2025-06-10T22:35:02Z</time>
      </trkpt>
      <trkpt lat="42.76844" lon="0.62026">
        <ele>830</ele>
        <time>2025-06-10T22:35:11Z</time>
      </trkpt>
      <trkpt lat="42.76839" lon="0.62022">
        <ele>830</ele>
        <time>2025-06-10T22:35:15Z</time>
      </trkpt>
      <trkpt lat="42.76834" lon="0.62021">
        <ele>830</ele>
        <time>2025-06-10T22:35:19Z</time>
      </trkpt>
      <trkpt lat="42.76829" lon="0.62023">
        <ele>833</ele>
        <time>2025-06-10T22:35:24Z</time>
      </trkpt>
      <trkpt lat="42.76825" lon="0.62029">
        <ele>836</ele>
        <time>2025-06-10T22:35:28Z</time>
      </trkpt>
      <trkpt lat="42.76824" lon="0.62037">
        <ele>839</ele>
        <time>2025-06-10T22:35:33Z</time>
      </trkpt>
      <trkpt lat="42.76827" lon="0.62045">
        <ele>840</ele>
        <time>2025-06-10T22:35:38Z</time>
      </trkpt>
      <trkpt lat="42.76839" lon="0.62058">
        <ele>840</ele>
        <time>2025-06-10T22:35:51Z</time>
      </trkpt>
      <trkpt lat="42.76851" lon="0.62078">
        <ele>842</ele>
        <time>2025-06-10T22:36:06Z</time>
      </trkpt>
      <trkpt lat="42.76863" lon="0.62105">
        <ele>845</ele>
        <time>2025-06-10T22:36:24Z</time>
      </trkpt>
      <trkpt lat="42.76873" lon="0.6213">
        <ele>847</ele>
        <time>2025-06-10T22:36:41Z</time>
      </trkpt>
      <trkpt lat="42.76889" lon="0.62161">
        <ele>847</ele>
        <time>2025-06-10T22:37:03Z</time>
      </trkpt>
      <trkpt lat="42.76896" lon="0.62172">
        <ele>847</ele>
        <time>2025-06-10T22:37:12Z</time>
      </trkpt>
      <trkpt lat="42.76923" lon="0.62201">
        <ele>847</ele>
        <time>2025-06-10T22:37:39Z</time>
      </trkpt>
      <trkpt lat="42.76944" lon="0.62221">
        <ele>854</ele>
        <time>2025-06-10T22:38:00Z</time>
      </trkpt>
      <trkpt lat="42.76952" lon="0.62226">
        <ele>856</ele>
        <time>2025-06-10T22:38:07Z</time>
      </trkpt>
      <trkpt lat="42.76959" lon="0.62226">
        <ele>857</ele>
        <time>2025-06-10T22:38:13Z</time>
      </trkpt>
      <trkpt lat="42.76965" lon="0.62222">
        <ele>857</ele>
        <time>2025-06-10T22:38:18Z</time>
      </trkpt>
      <trkpt lat="42.7697" lon="0.62215">
        <ele>856</ele>
        <time>2025-06-10T22:38:24Z</time>
      </trkpt>
      <trkpt lat="42.76976" lon="0.622">
        <ele>855</ele>
        <time>2025-06-10T22:38:34Z</time>
      </trkpt>
      <trkpt lat="42.76996" lon="0.62142">
        <ele>851</ele>
        <time>2025-06-10T22:39:11Z</time>
      </trkpt>
      <trkpt lat="42.77002" lon="0.62119">
        <ele>851</ele>
        <time>2025-06-10T22:39:26Z</time>
      </trkpt>
      <trkpt lat="42.77009" lon="0.62075">
        <ele>853</ele>
        <time>2025-06-10T22:39:52Z</time>
      </trkpt>
      <trkpt lat="42.7701" lon="0.62071">
        <ele>853</ele>
        <time>2025-06-10T22:39:55Z</time>
      </trkpt>
      <trkpt lat="42.77012" lon="0.62069">
        <ele>854</ele>
        <time>2025-06-10T22:39:57Z</time>
      </trkpt>
      <trkpt lat="42.77016" lon="0.62067">
        <ele>856</ele>
        <time>2025-06-10T22:40:00Z</time>
      </trkpt>
      <trkpt lat="42.77019" lon="0.62067">
        <ele>857</ele>
        <time>2025-06-10T22:40:02Z</time>
      </trkpt>
      <trkpt lat="42.77021" lon="0.62068">
        <ele>858</ele>
        <time>2025-06-10T22:40:04Z</time>
      </trkpt>
      <trkpt lat="42.77024" lon="0.62071">
        <ele>860</ele>
        <time>2025-06-10T22:40:07Z</time>
      </trkpt>
      <trkpt lat="42.77024" lon="0.62076">
        <ele>859</ele>
        <time>2025-06-10T22:40:10Z</time>
      </trkpt>
      <trkpt lat="42.77023" lon="0.62082">
        <ele>859</ele>
        <time>2025-06-10T22:40:14Z</time>
      </trkpt>
      <trkpt lat="42.7702" lon="0.62091">
        <ele>858</ele>
        <time>2025-06-10T22:40:20Z</time>
      </trkpt>
      <trkpt lat="42.77014" lon="0.62118">
        <ele>857</ele>
        <time>2025-06-10T22:40:36Z</time>
      </trkpt>
      <trkpt lat="42.77011" lon="0.62154">
        <ele>858</ele>
        <time>2025-06-10T22:40:57Z</time>
      </trkpt>
      <trkpt lat="42.77008" lon="0.62205">
        <ele>862</ele>
        <time>2025-06-10T22:41:27Z</time>
      </trkpt>
      <trkpt lat="42.77008" lon="0.62216">
        <ele>863</ele>
        <time>2025-06-10T22:41:34Z</time>
      </trkpt>
      <trkpt lat="42.77011" lon="0.62245">
        <ele>868</ele>
        <time>2025-06-10T22:41:51Z</time>
      </trkpt>
      <trkpt lat="42.7701" lon="0.62267">
        <ele>870</ele>
        <time>2025-06-10T22:42:04Z</time>
      </trkpt>
      <trkpt lat="42.77009" lon="0.62306">
        <ele>876</ele>
        <time>2025-06-10T22:42:27Z</time>
      </trkpt>
      <trkpt lat="42.77005" lon="0.62329">
        <ele>878</ele>
        <time>2025-06-10T22:42:41Z</time>
      </trkpt>
      <trkpt lat="42.77001" lon="0.6235">
        <ele>881</ele>
        <time>2025-06-10T22:42:54Z</time>
      </trkpt>
      <trkpt lat="42.76995" lon="0.62372">
        <ele>884</ele>
        <time>2025-06-10T22:43:07Z</time>
      </trkpt>
      <trkpt lat="42.76985" lon="0.62399">
        <ele>888</ele>
        <time>2025-06-10T22:43:25Z</time>
      </trkpt>
      <trkpt lat="42.76979" lon="0.62429">
        <ele>892</ele>
        <time>2025-06-10T22:43:44Z</time>
      </trkpt>
      <trkpt lat="42.76977" lon="0.62457">
        <ele>895</ele>
        <time>2025-06-10T22:44:00Z</time>
      </trkpt>
      <trkpt lat="42.76978" lon="0.62474">
        <ele>897</ele>
        <time>2025-06-10T22:44:10Z</time>
      </trkpt>
      <trkpt lat="42.76982" lon="0.6249">
        <ele>898</ele>
        <time>2025-06-10T22:44:20Z</time>
      </trkpt>
      <trkpt lat="42.76988" lon="0.62501">
        <ele>899</ele>
        <time>2025-06-10T22:44:28Z</time>
      </trkpt>
      <trkpt lat="42.7701" lon="0.62536">
        <ele>899</ele>
        <time>2025-06-10T22:44:55Z</time>
      </trkpt>
      <trkpt lat="42.77017" lon="0.62554">
        <ele>899</ele>
        <time>2025-06-10T22:45:07Z</time>
      </trkpt>
      <trkpt lat="42.77023" lon="0.62615">
        <ele>900</ele>
        <time>2025-06-10T22:45:43Z</time>
      </trkpt>
      <trkpt lat="42.77023" lon="0.62619">
        <ele>900</ele>
        <time>2025-06-10T22:45:46Z</time>
      </trkpt>
      <trkpt lat="42.77022" lon="0.62643">
        <ele>901</ele>
        <time>2025-06-10T22:46:00Z</time>
      </trkpt>
      <trkpt lat="42.77017" lon="0.62716">
        <ele>905</ele>
        <time>2025-06-10T22:46:43Z</time>
      </trkpt>
      <trkpt lat="42.77012" lon="0.62754">
        <ele>907</ele>
        <time>2025-06-10T22:47:06Z</time>
      </trkpt>
      <trkpt lat="42.76982" lon="0.6292">
        <ele>914</ele>
        <time>2025-06-10T22:48:46Z</time>
      </trkpt>
      <trkpt lat="42.76933" lon="0.63266">
        <ele>912</ele>
        <time>2025-06-10T22:52:13Z</time>
      </trkpt>
      <trkpt lat="42.76921" lon="0.63358">
        <ele>919</ele>
        <time>2025-06-10T22:53:08Z</time>
      </trkpt>
      <trkpt lat="42.76914" lon="0.63401">
        <ele>922</ele>
        <time>2025-06-10T22:53:34Z</time>
      </trkpt>
      <trkpt lat="42.76908" lon="0.63444">
        <ele>925</ele>
        <time>2025-06-10T22:54:00Z</time>
      </trkpt>
      <trkpt lat="42.76907" lon="0.6346">
        <ele>926</ele>
        <time>2025-06-10T22:54:09Z</time>
      </trkpt>
      <trkpt lat="42.76907" lon="0.63493">
        <ele>927</ele>
        <time>2025-06-10T22:54:29Z</time>
      </trkpt>
      <trkpt lat="42.76912" lon="0.63525">
        <ele>928</ele>
        <time>2025-06-10T22:54:48Z</time>
      </trkpt>
      <trkpt lat="42.76918" lon="0.63546">
        <ele>930</ele>
        <time>2025-06-10T22:55:01Z</time>
      </trkpt>
      <trkpt lat="42.76922" lon="0.63557">
        <ele>932</ele>
        <time>2025-06-10T22:55:08Z</time>
      </trkpt>
      <trkpt lat="42.76927" lon="0.63565">
        <ele>934</ele>
        <time>2025-06-10T22:55:14Z</time>
      </trkpt>
      <trkpt lat="42.76933" lon="0.6357">
        <ele>936</ele>
        <time>2025-06-10T22:55:20Z</time>
      </trkpt>
      <trkpt lat="42.76962" lon="0.63597">
        <ele>947</ele>
        <time>2025-06-10T22:55:48Z</time>
      </trkpt>
      <trkpt lat="42.76969" lon="0.63608">
        <ele>950</ele>
        <time>2025-06-10T22:55:57Z</time>
      </trkpt>
      <trkpt lat="42.76971" lon="0.63622">
        <ele>952</ele>
        <time>2025-06-10T22:56:05Z</time>
      </trkpt>
      <trkpt lat="42.76965" lon="0.63651">
        <ele>954</ele>
        <time>2025-06-10T22:56:23Z</time>
      </trkpt>
      <trkpt lat="42.76957" lon="0.63675">
        <ele>954</ele>
        <time>2025-06-10T22:56:38Z</time>
      </trkpt>
      <trkpt lat="42.76951" lon="0.63699">
        <ele>953</ele>
        <time>2025-06-10T22:56:53Z</time>
      </trkpt>
      <trkpt lat="42.76944" lon="0.63736">
        <ele>952</ele>
        <time>2025-06-10T22:57:16Z</time>
      </trkpt>
      <trkpt lat="42.76939" lon="0.63791">
        <ele>956</ele>
        <time>2025-06-10T22:57:48Z</time>
      </trkpt>
      <trkpt lat="42.76934" lon="0.63814">
        <ele>957</ele>
        <time>2025-06-10T22:58:02Z</time>
      </trkpt>
      <trkpt lat="42.76921" lon="0.63843">
        <ele>954</ele>
        <time>2025-06-10T22:58:22Z</time>
      </trkpt>
      <trkpt lat="42.76914" lon="0.63863">
        <ele>954</ele>
        <time>2025-06-10T22:58:35Z</time>
      </trkpt>
      <trkpt lat="42.76911" lon="0.63878">
        <ele>956</ele>
        <time>2025-06-10T22:58:44Z</time>
      </trkpt>
      <trkpt lat="42.76912" lon="0.63932">
        <ele>963</ele>
        <time>2025-06-10T22:59:16Z</time>
      </trkpt>
      <trkpt lat="42.76909" lon="0.63965">
        <ele>966</ele>
        <time>2025-06-10T22:59:36Z</time>
      </trkpt>
      <trkpt lat="42.76902" lon="0.63995">
        <ele>968</ele>
        <time>2025-06-10T22:59:54Z</time>
      </trkpt>
      <trkpt lat="42.76891" lon="0.64021">
        <ele>968</ele>
        <time>2025-06-10T23:00:12Z</time>
      </trkpt>
      <trkpt lat="42.76847" lon="0.64109">
        <ele>967</ele>
        <time>2025-06-10T23:01:15Z</time>
      </trkpt>
      <trkpt lat="42.76816" lon="0.64191">
        <ele>977</ele>
        <time>2025-06-10T23:02:09Z</time>
      </trkpt>
      <trkpt lat="42.76813" lon="0.64205">
        <ele>979</ele>
        <time>2025-06-10T23:02:17Z</time>
      </trkpt>
      <trkpt lat="42.76814" lon="0.64212">
        <ele>980</ele>
        <time>2025-06-10T23:02:21Z</time>
      </trkpt>
      <trkpt lat="42.76819" lon="0.6422">
        <ele>981</ele>
        <time>2025-06-10T23:02:28Z</time>
      </trkpt>
      <trkpt lat="42.76822" lon="0.64221">
        <ele>981</ele>
        <time>2025-06-10T23:02:30Z</time>
      </trkpt>
      <trkpt lat="42.76827" lon="0.64221">
        <ele>980</ele>
        <time>2025-06-10T23:02:34Z</time>
      </trkpt>
      <trkpt lat="42.76832" lon="0.64217">
        <ele>980</ele>
        <time>2025-06-10T23:02:39Z</time>
      </trkpt>
      <trkpt lat="42.76851" lon="0.64201">
        <ele>981</ele>
        <time>2025-06-10T23:02:57Z</time>
      </trkpt>
      <trkpt lat="42.76859" lon="0.64196">
        <ele>982</ele>
        <time>2025-06-10T23:03:04Z</time>
      </trkpt>
      <trkpt lat="42.76909" lon="0.64177">
        <ele>990</ele>
        <time>2025-06-10T23:03:45Z</time>
      </trkpt>
      <trkpt lat="42.76914" lon="0.64178">
        <ele>991</ele>
        <time>2025-06-10T23:03:49Z</time>
      </trkpt>
      <trkpt lat="42.76918" lon="0.64182">
        <ele>993</ele>
        <time>2025-06-10T23:03:53Z</time>
      </trkpt>
      <trkpt lat="42.76921" lon="0.64191">
        <ele>997</ele>
        <time>2025-06-10T23:03:59Z</time>
      </trkpt>
      <trkpt lat="42.7692" lon="0.64199">
        <ele>997</ele>
        <time>2025-06-10T23:04:04Z</time>
      </trkpt>
      <trkpt lat="42.76917" lon="0.64205">
        <ele>996</ele>
        <time>2025-06-10T23:04:08Z</time>
      </trkpt>
      <trkpt lat="42.76904" lon="0.64223">
        <ele>996</ele>
        <time>2025-06-10T23:04:23Z</time>
      </trkpt>
      <trkpt lat="42.76893" lon="0.64241">
        <ele>996</ele>
        <time>2025-06-10T23:04:37Z</time>
      </trkpt>
      <trkpt lat="42.76884" lon="0.6426">
        <ele>997</ele>
        <time>2025-06-10T23:04:50Z</time>
      </trkpt>
      <trkpt lat="42.76877" lon="0.6428">
        <ele>997</ele>
        <time>2025-06-10T23:05:03Z</time>
      </trkpt>
      <trkpt lat="42.76864" lon="0.64353">
        <ele>1002</ele>
        <time>2025-06-10T23:05:47Z</time>
      </trkpt>
      <trkpt lat="42.76859" lon="0.64388">
        <ele>1004</ele>
        <time>2025-06-10T23:06:08Z</time>
      </trkpt>
      <trkpt lat="42.76859" lon="0.64411">
        <ele>1006</ele>
        <time>2025-06-10T23:06:22Z</time>
      </trkpt>
      <trkpt lat="42.76858" lon="0.64586">
        <ele>1030</ele>
        <time>2025-06-10T23:08:05Z</time>
      </trkpt>
      <trkpt lat="42.76859" lon="0.64594">
        <ele>1031</ele>
        <time>2025-06-10T23:08:09Z</time>
      </trkpt>
      <trkpt lat="42.7686" lon="0.64601">
        <ele>1033</ele>
        <time>2025-06-10T23:08:14Z</time>
      </trkpt>
      <trkpt lat="42.7687" lon="0.64622">
        <ele>1036</ele>
        <time>2025-06-10T23:08:28Z</time>
      </trkpt>
      <trkpt lat="42.76918" lon="0.64709">
        <ele>1039</ele>
        <time>2025-06-10T23:09:32Z</time>
      </trkpt>
      <trkpt lat="42.76953" lon="0.64786">
        <ele>1045</ele>
        <time>2025-06-10T23:10:25Z</time>
      </trkpt>
      <trkpt lat="42.76958" lon="0.64793">
        <ele>1045</ele>
        <time>2025-06-10T23:10:31Z</time>
      </trkpt>
      <trkpt lat="42.76963" lon="0.64799">
        <ele>1045</ele>
        <time>2025-06-10T23:10:37Z</time>
      </trkpt>
      <trkpt lat="42.76991" lon="0.64808">
        <ele>1048</ele>
        <time>2025-06-10T23:11:00Z</time>
      </trkpt>
      <trkpt lat="42.77007" lon="0.64817">
        <ele>1050</ele>
        <time>2025-06-10T23:11:13Z</time>
      </trkpt>
      <trkpt lat="42.77026" lon="0.64836">
        <ele>1054</ele>
        <time>2025-06-10T23:11:32Z</time>
      </trkpt>
      <trkpt lat="42.77035" lon="0.6485">
        <ele>1057</ele>
        <time>2025-06-10T23:11:43Z</time>
      </trkpt>
      <trkpt lat="42.7704" lon="0.64863">
        <ele>1059</ele>
        <time>2025-06-10T23:11:52Z</time>
      </trkpt>
      <trkpt lat="42.77058" lon="0.64996">
        <ele>1071</ele>
        <time>2025-06-10T23:13:11Z</time>
      </trkpt>
      <trkpt lat="42.77055" lon="0.65033">
        <ele>1075</ele>
        <time>2025-06-10T23:13:33Z</time>
      </trkpt>
      <trkpt lat="42.77057" lon="0.65062">
        <ele>1081</ele>
        <time>2025-06-10T23:13:50Z</time>
      </trkpt>
      <trkpt lat="42.77045" lon="0.65103">
        <ele>1081</ele>
        <time>2025-06-10T23:14:16Z</time>
      </trkpt>
      <trkpt lat="42.77041" lon="0.65154">
        <ele>1089</ele>
        <time>2025-06-10T23:14:46Z</time>
      </trkpt>
      <trkpt lat="42.77034" lon="0.65184">
        <ele>1090</ele>
        <time>2025-06-10T23:15:05Z</time>
      </trkpt>
      <trkpt lat="42.77028" lon="0.65206">
        <ele>1091</ele>
        <time>2025-06-10T23:15:19Z</time>
      </trkpt>
      <trkpt lat="42.77026" lon="0.65218">
        <ele>1092</ele>
        <time>2025-06-10T23:15:26Z</time>
      </trkpt>
      <trkpt lat="42.77028" lon="0.65222">
        <ele>1094</ele>
        <time>2025-06-10T23:15:29Z</time>
      </trkpt>
      <trkpt lat="42.77031" lon="0.65224">
        <ele>1096</ele>
        <time>2025-06-10T23:15:31Z</time>
      </trkpt>
      <trkpt lat="42.77033" lon="0.65225">
        <ele>1097</ele>
        <time>2025-06-10T23:15:33Z</time>
      </trkpt>
      <trkpt lat="42.77037" lon="0.65224">
        <ele>1099</ele>
        <time>2025-06-10T23:15:36Z</time>
      </trkpt>
      <trkpt lat="42.77042" lon="0.65222">
        <ele>1101</ele>
        <time>2025-06-10T23:15:41Z</time>
      </trkpt>
      <trkpt lat="42.77046" lon="0.65215">
        <ele>1102</ele>
        <time>2025-06-10T23:15:46Z</time>
      </trkpt>
      <trkpt lat="42.77051" lon="0.65173">
        <ele>1098</ele>
        <time>2025-06-10T23:16:11Z</time>
      </trkpt>
      <trkpt lat="42.77057" lon="0.65143">
        <ele>1096</ele>
        <time>2025-06-10T23:16:29Z</time>
      </trkpt>
      <trkpt lat="42.77067" lon="0.65112">
        <ele>1097</ele>
        <time>2025-06-10T23:16:49Z</time>
      </trkpt>
      <trkpt lat="42.77083" lon="0.65085">
        <ele>1101</ele>
        <time>2025-06-10T23:17:09Z</time>
      </trkpt>
      <trkpt lat="42.77121" lon="0.64923">
        <ele>1101</ele>
        <time>2025-06-10T23:18:49Z</time>
      </trkpt>
      <trkpt lat="42.77149" lon="0.64818">
        <ele>1113</ele>
        <time>2025-06-10T23:19:55Z</time>
      </trkpt>
      <trkpt lat="42.77158" lon="0.64674">
        <ele>1119</ele>
        <time>2025-06-10T23:21:20Z</time>
      </trkpt>
      <trkpt lat="42.7716" lon="0.64667">
        <ele>1120</ele>
        <time>2025-06-10T23:21:24Z</time>
      </trkpt>
      <trkpt lat="42.77164" lon="0.6466">
        <ele>1122</ele>
        <time>2025-06-10T23:21:30Z</time>
      </trkpt>
      <trkpt lat="42.7717" lon="0.6466">
        <ele>1125</ele>
        <time>2025-06-10T23:21:34Z</time>
      </trkpt>
      <trkpt lat="42.77175" lon="0.64663">
        <ele>1128</ele>
        <time>2025-06-10T23:21:39Z</time>
      </trkpt>
      <trkpt lat="42.77178" lon="0.64672">
        <ele>1129</ele>
        <time>2025-06-10T23:21:45Z</time>
      </trkpt>
      <trkpt lat="42.77177" lon="0.64687">
        <ele>1129</ele>
        <time>2025-06-10T23:21:53Z</time>
      </trkpt>
      <trkpt lat="42.77168" lon="0.64756">
        <ele>1125</ele>
        <time>2025-06-10T23:22:35Z</time>
      </trkpt>
      <trkpt lat="42.7717" lon="0.64767">
        <ele>1126</ele>
        <time>2025-06-10T23:22:41Z</time>
      </trkpt>
      <trkpt lat="42.77178" lon="0.64793">
        <ele>1133</ele>
        <time>2025-06-10T23:22:58Z</time>
      </trkpt>
      <trkpt lat="42.7718" lon="0.64808">
        <ele>1135</ele>
        <time>2025-06-10T23:23:07Z</time>
      </trkpt>
      <trkpt lat="42.77181" lon="0.6483">
        <ele>1136</ele>
        <time>2025-06-10T23:23:20Z</time>
      </trkpt>
      <trkpt lat="42.77179" lon="0.6497">
        <ele>1146</ele>
        <time>2025-06-10T23:24:42Z</time>
      </trkpt>
      <trkpt lat="42.7717" lon="0.65029">
        <ele>1147</ele>
        <time>2025-06-10T23:25:17Z</time>
      </trkpt>
      <trkpt lat="42.77169" lon="0.65082">
        <ele>1155</ele>
        <time>2025-06-10T23:25:49Z</time>
      </trkpt>
      <trkpt lat="42.77154" lon="0.6512">
        <ele>1157</ele>
        <time>2025-06-10T23:26:14Z</time>
      </trkpt>
      <trkpt lat="42.7714" lon="0.65213">
        <ele>1167</ele>
        <time>2025-06-10T23:27:10Z</time>
      </trkpt>
      <trkpt lat="42.7714" lon="0.65232">
        <ele>1170</ele>
        <time>2025-06-10T23:27:21Z</time>
      </trkpt>
      <trkpt lat="42.77152" lon="0.65351">
        <ele>1183</ele>
        <time>2025-06-10T23:28:32Z</time>
      </trkpt>
      <trkpt lat="42.77148" lon="0.65531">
        <ele>1192</ele>
        <time>2025-06-10T23:30:17Z</time>
      </trkpt>
      <trkpt lat="42.77149" lon="0.65602">
        <ele>1196</ele>
        <time>2025-06-10T23:30:59Z</time>
      </trkpt>
      <trkpt lat="42.77152" lon="0.6562">
        <ele>1197</ele>
        <time>2025-06-10T23:31:10Z</time>
      </trkpt>
      <trkpt lat="42.77156" lon="0.65634">
        <ele>1198</ele>
        <time>2025-06-10T23:31:19Z</time>
      </trkpt>
      <trkpt lat="42.77163" lon="0.65642">
        <ele>1200</ele>
        <time>2025-06-10T23:31:26Z</time>
      </trkpt>
      <trkpt lat="42.77184" lon="0.65653">
        <ele>1208</ele>
        <time>2025-06-10T23:31:44Z</time>
      </trkpt>
      <trkpt lat="42.77194" lon="0.65663">
        <ele>1211</ele>
        <time>2025-06-10T23:31:54Z</time>
      </trkpt>
      <trkpt lat="42.77198" lon="0.6567">
        <ele>1212</ele>
        <time>2025-06-10T23:31:59Z</time>
      </trkpt>
      <trkpt lat="42.77206" lon="0.65694">
        <ele>1214</ele>
        <time>2025-06-10T23:32:15Z</time>
      </trkpt>
      <trkpt lat="42.77222" lon="0.65724">
        <ele>1219</ele>
        <time>2025-06-10T23:32:37Z</time>
      </trkpt>
      <trkpt lat="42.77229" lon="0.65744">
        <ele>1221</ele>
        <time>2025-06-10T23:32:50Z</time>
      </trkpt>
      <trkpt lat="42.77232" lon="0.65764">
        <ele>1222</ele>
        <time>2025-06-10T23:33:02Z</time>
      </trkpt>
      <trkpt lat="42.77235" lon="0.65807">
        <ele>1225</ele>
        <time>2025-06-10T23:33:27Z</time>
      </trkpt>
      <trkpt lat="42.77238" lon="0.65876">
        <ele>1229</ele>
        <time>2025-06-10T23:34:08Z</time>
      </trkpt>
      <trkpt lat="42.77247" lon="0.65941">
        <ele>1236</ele>
        <time>2025-06-10T23:34:47Z</time>
      </trkpt>
      <trkpt lat="42.77252" lon="0.66072">
        <ele>1255</ele>
        <time>2025-06-10T23:36:04Z</time>
      </trkpt>
      <trkpt lat="42.7725" lon="0.66116">
        <ele>1265</ele>
        <time>2025-06-10T23:36:30Z</time>
      </trkpt>
      <trkpt lat="42.77247" lon="0.66125">
        <ele>1267</ele>
        <time>2025-06-10T23:36:35Z</time>
      </trkpt>
      <trkpt lat="42.7724" lon="0.66131">
        <ele>1268</ele>
        <time>2025-06-10T23:36:42Z</time>
      </trkpt>
      <trkpt lat="42.77233" lon="0.66131">
        <ele>1268</ele>
        <time>2025-06-10T23:36:48Z</time>
      </trkpt>
      <trkpt lat="42.77225" lon="0.66129">
        <ele>1267</ele>
        <time>2025-06-10T23:36:54Z</time>
      </trkpt>
      <trkpt lat="42.7721" lon="0.66123">
        <ele>1264</ele>
        <time>2025-06-10T23:37:07Z</time>
      </trkpt>
      <trkpt lat="42.77203" lon="0.66124">
        <ele>1264</ele>
        <time>2025-06-10T23:37:12Z</time>
      </trkpt>
      <trkpt lat="42.77198" lon="0.66126">
        <ele>1264</ele>
        <time>2025-06-10T23:37:16Z</time>
      </trkpt>
      <trkpt lat="42.77189" lon="0.66138">
        <ele>1266</ele>
        <time>2025-06-10T23:37:26Z</time>
      </trkpt>
      <trkpt lat="42.77174" lon="0.66149">
        <ele>1268</ele>
        <time>2025-06-10T23:37:40Z</time>
      </trkpt>
      <trkpt lat="42.77153" lon="0.66159">
        <ele>1274</ele>
        <time>2025-06-10T23:37:58Z</time>
      </trkpt>
      <trkpt lat="42.77144" lon="0.66161">
        <ele>1276</ele>
        <time>2025-06-10T23:38:05Z</time>
      </trkpt>
      <trkpt lat="42.77132" lon="0.66161">
        <ele>1279</ele>
        <time>2025-06-10T23:38:15Z</time>
      </trkpt>
      <trkpt lat="42.77124" lon="0.6616">
        <ele>1281</ele>
        <time>2025-06-10T23:38:21Z</time>
      </trkpt>
      <trkpt lat="42.77115" lon="0.66154">
        <ele>1282</ele>
        <time>2025-06-10T23:38:29Z</time>
      </trkpt>
      <trkpt lat="42.77092" lon="0.66129">
        <ele>1282</ele>
        <time>2025-06-10T23:38:53Z</time>
      </trkpt>
      <trkpt lat="42.77082" lon="0.66115">
        <ele>1282</ele>
        <time>2025-06-10T23:39:04Z</time>
      </trkpt>
      <trkpt lat="42.77076" lon="0.66103">
        <ele>1281</ele>
        <time>2025-06-10T23:39:13Z</time>
      </trkpt>
      <trkpt lat="42.77066" lon="0.66049">
        <ele>1273</ele>
        <time>2025-06-10T23:39:46Z</time>
      </trkpt>
      <trkpt lat="42.77064" lon="0.66042">
        <ele>1272</ele>
        <time>2025-06-10T23:39:50Z</time>
      </trkpt>
      <trkpt lat="42.7706" lon="0.66034">
        <ele>1272</ele>
        <time>2025-06-10T23:39:56Z</time>
      </trkpt>
      <trkpt lat="42.77055" lon="0.6603">
        <ele>1273</ele>
        <time>2025-06-10T23:40:00Z</time>
      </trkpt>
      <trkpt lat="42.77048" lon="0.66026">
        <ele>1274</ele>
        <time>2025-06-10T23:40:06Z</time>
      </trkpt>
      <trkpt lat="42.77037" lon="0.66027">
        <ele>1277</ele>
        <time>2025-06-10T23:40:15Z</time>
      </trkpt>
      <trkpt lat="42.77029" lon="0.66032">
        <ele>1281</ele>
        <time>2025-06-10T23:40:22Z</time>
      </trkpt>
      <trkpt lat="42.77022" lon="0.66039">
        <ele>1285</ele>
        <time>2025-06-10T23:40:29Z</time>
      </trkpt>
      <trkpt lat="42.77015" lon="0.66053">
        <ele>1290</ele>
        <time>2025-06-10T23:40:39Z</time>
      </trkpt>
      <trkpt lat="42.77012" lon="0.66065">
        <ele>1293</ele>
        <time>2025-06-10T23:40:47Z</time>
      </trkpt>
      <trkpt lat="42.77012" lon="0.66077">
        <ele>1296</ele>
        <time>2025-06-10T23:40:54Z</time>
      </trkpt>
      <trkpt lat="42.77015" lon="0.66086">
        <ele>1297</ele>
        <time>2025-06-10T23:41:00Z</time>
      </trkpt>
      <trkpt lat="42.7703" lon="0.66117">
        <ele>1297</ele>
        <time>2025-06-10T23:41:21Z</time>
      </trkpt>
      <trkpt lat="42.77032" lon="0.66124">
        <ele>1298</ele>
        <time>2025-06-10T23:41:26Z</time>
      </trkpt>
      <trkpt lat="42.7703" lon="0.66129">
        <ele>1299</ele>
        <time>2025-06-10T23:41:29Z</time>
      </trkpt>
      <trkpt lat="42.77028" lon="0.66132">
        <ele>1300</ele>
        <time>2025-06-10T23:41:31Z</time>
      </trkpt>
      <trkpt lat="42.77024" lon="0.66132">
        <ele>1301</ele>
        <time>2025-06-10T23:41:35Z</time>
      </trkpt>
      <trkpt lat="42.7702" lon="0.6613">
        <ele>1302</ele>
        <time>2025-06-10T23:41:38Z</time>
      </trkpt>
      <trkpt lat="42.77016" lon="0.66125">
        <ele>1302</ele>
        <time>2025-06-10T23:41:42Z</time>
      </trkpt>
      <trkpt lat="42.76993" lon="0.66077">
        <ele>1300</ele>
        <time>2025-06-10T23:42:16Z</time>
      </trkpt>
      <trkpt lat="42.76979" lon="0.66038">
        <ele>1294</ele>
        <time>2025-06-10T23:42:42Z</time>
      </trkpt>
      <trkpt lat="42.76974" lon="0.66028">
        <ele>1294</ele>
        <time>2025-06-10T23:42:49Z</time>
      </trkpt>
      <trkpt lat="42.76971" lon="0.66022">
        <ele>1293</ele>
        <time>2025-06-10T23:42:53Z</time>
      </trkpt>
      <trkpt lat="42.76965" lon="0.66018">
        <ele>1293</ele>
        <time>2025-06-10T23:42:58Z</time>
      </trkpt>
      <trkpt lat="42.76958" lon="0.66015">
        <ele>1294</ele>
        <time>2025-06-10T23:43:04Z</time>
      </trkpt>
      <trkpt lat="42.76952" lon="0.66014">
        <ele>1295</ele>
        <time>2025-06-10T23:43:09Z</time>
      </trkpt>
      <trkpt lat="42.76928" lon="0.66015">
        <ele>1300</ele>
        <time>2025-06-10T23:43:28Z</time>
      </trkpt>
      <trkpt lat="42.76922" lon="0.66014">
        <ele>1301</ele>
        <time>2025-06-10T23:43:33Z</time>
      </trkpt>
      <trkpt lat="42.7691" lon="0.6601">
        <ele>1302</ele>
        <time>2025-06-10T23:43:43Z</time>
      </trkpt>
      <trkpt lat="42.76902" lon="0.66007">
        <ele>1301</ele>
        <time>2025-06-10T23:43:50Z</time>
      </trkpt>
      <trkpt lat="42.76896" lon="0.66004">
        <ele>1300</ele>
        <time>2025-06-10T23:43:55Z</time>
      </trkpt>
      <trkpt lat="42.76876" lon="0.65999">
        <ele>1300</ele>
        <time>2025-06-10T23:44:11Z</time>
      </trkpt>
      <trkpt lat="42.76867" lon="0.65995">
        <ele>1299</ele>
        <time>2025-06-10T23:44:19Z</time>
      </trkpt>
      <trkpt lat="42.76857" lon="0.65988">
        <ele>1299</ele>
        <time>2025-06-10T23:44:28Z</time>
      </trkpt>
      <trkpt lat="42.76848" lon="0.6598">
        <ele>1299</ele>
        <time>2025-06-10T23:44:36Z</time>
      </trkpt>
      <trkpt lat="42.76845" lon="0.65975">
        <ele>1300</ele>
        <time>2025-06-10T23:44:40Z</time>
      </trkpt>
      <trkpt lat="42.76838" lon="0.65958">
        <ele>1300</ele>
        <time>2025-06-10T23:44:52Z</time>
      </trkpt>
      <trkpt lat="42.76832" lon="0.6594">
        <ele>1301</ele>
        <time>2025-06-10T23:45:03Z</time>
      </trkpt>
      <trkpt lat="42.76827" lon="0.6593">
        <ele>1301</ele>
        <time>2025-06-10T23:45:10Z</time>
      </trkpt>
      <trkpt lat="42.76821" lon="0.65923">
        <ele>1301</ele>
        <time>2025-06-10T23:45:17Z</time>
      </trkpt>
      <trkpt lat="42.76813" lon="0.6592">
        <ele>1301</ele>
        <time>2025-06-10T23:45:23Z</time>
      </trkpt>
      <trkpt lat="42.76799" lon="0.65917">
        <ele>1300</ele>
        <time>2025-06-10T23:45:35Z</time>
      </trkpt>
      <trkpt lat="42.76773" lon="0.65917">
        <ele>1298</ele>
        <time>2025-06-10T23:45:55Z</time>
      </trkpt>
      <trkpt lat="42.76757" lon="0.65918">
        <ele>1297</ele>
        <time>2025-06-10T23:46:08Z</time>
      </trkpt>
      <trkpt lat="42.7674" lon="0.65922">
        <ele>1297</ele>
        <time>2025-06-10T23:46:22Z</time>
      </trkpt>
      <trkpt lat="42.76734" lon="0.65925">
        <ele>1297</ele>
        <time>2025-06-10T23:46:27Z</time>
      </trkpt>
      <trkpt lat="42.76729" lon="0.65929">
        <ele>1297</ele>
        <time>2025-06-10T23:46:32Z</time>
      </trkpt>
      <trkpt lat="42.76678" lon="0.65987">
        <ele>1292</ele>
        <time>2025-06-10T23:47:25Z</time>
      </trkpt>
      <trkpt lat="42.76671" lon="0.65997">
        <ele>1291</ele>
        <time>2025-06-10T23:47:33Z</time>
      </trkpt>
      <trkpt lat="42.76668" lon="0.66005">
        <ele>1290</ele>
        <time>2025-06-10T23:47:38Z</time>
      </trkpt>
      <trkpt lat="42.76666" lon="0.66013">
        <ele>1289</ele>
        <time>2025-06-10T23:47:43Z</time>
      </trkpt>
      <trkpt lat="42.76667" lon="0.66025">
        <ele>1288</ele>
        <time>2025-06-10T23:47:50Z</time>
      </trkpt>
      <trkpt lat="42.76671" lon="0.66034">
        <ele>1287</ele>
        <time>2025-06-10T23:47:57Z</time>
      </trkpt>
      <trkpt lat="42.76679" lon="0.66044">
        <ele>1286</ele>
        <time>2025-06-10T23:48:05Z</time>
      </trkpt>
      <trkpt lat="42.76691" lon="0.66055">
        <ele>1284</ele>
        <time>2025-06-10T23:48:17Z</time>
      </trkpt>
      <trkpt lat="42.76716" lon="0.66071">
        <ele>1283</ele>
        <time>2025-06-10T23:48:39Z</time>
      </trkpt>
      <trkpt lat="42.76726" lon="0.66073">
        <ele>1283</ele>
        <time>2025-06-10T23:48:47Z</time>
      </trkpt>
      <trkpt lat="42.76763" lon="0.66075">
        <ele>1285</ele>
        <time>2025-06-10T23:49:17Z</time>
      </trkpt>
      <trkpt lat="42.76772" lon="0.66078">
        <ele>1286</ele>
        <time>2025-06-10T23:49:24Z</time>
      </trkpt>
      <trkpt lat="42.76778" lon="0.66085">
        <ele>1286</ele>
        <time>2025-06-10T23:49:31Z</time>
      </trkpt>
      <trkpt lat="42.76783" lon="0.66094">
        <ele>1287</ele>
        <time>2025-06-10T23:49:37Z</time>
      </trkpt>
      <trkpt lat="42.76785" lon="0.66103">
        <ele>1286</ele>
        <time>2025-06-10T23:49:43Z</time>
      </trkpt>
      <trkpt lat="42.76784" lon="0.66116">
        <ele>1285</ele>
        <time>2025-06-10T23:49:50Z</time>
      </trkpt>
      <trkpt lat="42.76782" lon="0.66125">
        <ele>1285</ele>
        <time>2025-06-10T23:49:56Z</time>
      </trkpt>
      <trkpt lat="42.76776" lon="0.66132">
        <ele>1283</ele>
        <time>2025-06-10T23:50:02Z</time>
      </trkpt>
      <trkpt lat="42.76769" lon="0.66137">
        <ele>1282</ele>
        <time>2025-06-10T23:50:09Z</time>
      </trkpt>
      <trkpt lat="42.76736" lon="0.66142">
        <ele>1277</ele>
        <time>2025-06-10T23:50:35Z</time>
      </trkpt>
      <trkpt lat="42.76726" lon="0.66146">
        <ele>1277</ele>
        <time>2025-06-10T23:50:43Z</time>
      </trkpt>
      <trkpt lat="42.76717" lon="0.66151">
        <ele>1276</ele>
        <time>2025-06-10T23:50:51Z</time>
      </trkpt>
      <trkpt lat="42.76712" lon="0.66158">
        <ele>1276</ele>
        <time>2025-06-10T23:50:57Z</time>
      </trkpt>
      <trkpt lat="42.76708" lon="0.66167">
        <ele>1275</ele>
        <time>2025-06-10T23:51:03Z</time>
      </trkpt>
      <trkpt lat="42.76706" lon="0.66176">
        <ele>1274</ele>
        <time>2025-06-10T23:51:09Z</time>
      </trkpt>
      <trkpt lat="42.76701" lon="0.66208">
        <ele>1268</ele>
        <time>2025-06-10T23:51:28Z</time>
      </trkpt>
      <trkpt lat="42.76698" lon="0.66218">
        <ele>1266</ele>
        <time>2025-06-10T23:51:34Z</time>
      </trkpt>
      <trkpt lat="42.76692" lon="0.66227">
        <ele>1264</ele>
        <time>2025-06-10T23:51:41Z</time>
      </trkpt>
      <trkpt lat="42.76665" lon="0.66265">
        <ele>1253</ele>
        <time>2025-06-10T23:52:13Z</time>
      </trkpt>
      <trkpt lat="42.76658" lon="0.66274">
        <ele>1250</ele>
        <time>2025-06-10T23:52:20Z</time>
      </trkpt>
      <trkpt lat="42.76653" lon="0.66277">
        <ele>1248</ele>
        <time>2025-06-10T23:52:25Z</time>
      </trkpt>
      <trkpt lat="42.76648" lon="0.66277">
        <ele>1247</ele>
        <time>2025-06-10T23:52:29Z</time>
      </trkpt>
      <trkpt lat="42.76643" lon="0.66273">
        <ele>1247</ele>
        <time>2025-06-10T23:52:33Z</time>
      </trkpt>
      <trkpt lat="42.76622" lon="0.6624">
        <ele>1250</ele>
        <time>2025-06-10T23:52:59Z</time>
      </trkpt>
      <trkpt lat="42.76612" lon="0.66228">
        <ele>1251</ele>
        <time>2025-06-10T23:53:10Z</time>
      </trkpt>
      <trkpt lat="42.76589" lon="0.66208">
        <ele>1250</ele>
        <time>2025-06-10T23:53:31Z</time>
      </trkpt>
      <trkpt lat="42.76582" lon="0.66198">
        <ele>1250</ele>
        <time>2025-06-10T23:53:40Z</time>
      </trkpt>
      <trkpt lat="42.76568" lon="0.66175">
        <ele>1253</ele>
        <time>2025-06-10T23:53:57Z</time>
      </trkpt>
      <trkpt lat="42.7656" lon="0.66166">
        <ele>1254</ele>
        <time>2025-06-10T23:54:05Z</time>
      </trkpt>
      <trkpt lat="42.7655" lon="0.66162">
        <ele>1255</ele>
        <time>2025-06-10T23:54:14Z</time>
      </trkpt>
      <trkpt lat="42.76539" lon="0.66161">
        <ele>1254</ele>
        <time>2025-06-10T23:54:23Z</time>
      </trkpt>
      <trkpt lat="42.76529" lon="0.66166">
        <ele>1252</ele>
        <time>2025-06-10T23:54:31Z</time>
      </trkpt>
      <trkpt lat="42.76517" lon="0.66178">
        <ele>1249</ele>
        <time>2025-06-10T23:54:43Z</time>
      </trkpt>
      <trkpt lat="42.76504" lon="0.66196">
        <ele>1245</ele>
        <time>2025-06-10T23:54:58Z</time>
      </trkpt>
      <trkpt lat="42.76487" lon="0.66223">
        <ele>1241</ele>
        <time>2025-06-10T23:55:19Z</time>
      </trkpt>
      <trkpt lat="42.76471" lon="0.66254">
        <ele>1239</ele>
        <time>2025-06-10T23:55:41Z</time>
      </trkpt>
      <trkpt lat="42.7646" lon="0.66284">
        <ele>1236</ele>
        <time>2025-06-10T23:56:01Z</time>
      </trkpt>
      <trkpt lat="42.7645" lon="0.66316">
        <ele>1235</ele>
        <time>2025-06-10T23:56:21Z</time>
      </trkpt>
      <trkpt lat="42.76445" lon="0.66336">
        <ele>1234</ele>
        <time>2025-06-10T23:56:34Z</time>
      </trkpt>
      <trkpt lat="42.76443" lon="0.66355">
        <ele>1233</ele>
        <time>2025-06-10T23:56:45Z</time>
      </trkpt>
      <trkpt lat="42.76444" lon="0.66369">
        <ele>1232</ele>
        <time>2025-06-10T23:56:53Z</time>
      </trkpt>
      <trkpt lat="42.76447" lon="0.66378">
        <ele>1231</ele>
        <time>2025-06-10T23:56:59Z</time>
      </trkpt>
      <trkpt lat="42.76454" lon="0.66384">
        <ele>1228</ele>
        <time>2025-06-10T23:57:06Z</time>
      </trkpt>
      <trkpt lat="42.76462" lon="0.66385">
        <ele>1225</ele>
        <time>2025-06-10T23:57:12Z</time>
      </trkpt>
      <trkpt lat="42.76469" lon="0.66381">
        <ele>1223</ele>
        <time>2025-06-10T23:57:18Z</time>
      </trkpt>
      <trkpt lat="42.76475" lon="0.66371">
        <ele>1222</ele>
        <time>2025-06-10T23:57:26Z</time>
      </trkpt>
      <trkpt lat="42.76487" lon="0.66332">
        <ele>1223</ele>
        <time>2025-06-10T23:57:51Z</time>
      </trkpt>
      <trkpt lat="42.76496" lon="0.66309">
        <ele>1225</ele>
        <time>2025-06-10T23:58:06Z</time>
      </trkpt>
      <trkpt lat="42.76502" lon="0.66298">
        <ele>1226</ele>
        <time>2025-06-10T23:58:14Z</time>
      </trkpt>
      <trkpt lat="42.7651" lon="0.66289">
        <ele>1228</ele>
        <time>2025-06-10T23:58:22Z</time>
      </trkpt>
      <trkpt lat="42.76519" lon="0.66288">
        <ele>1228</ele>
        <time>2025-06-10T23:58:30Z</time>
      </trkpt>
      <trkpt lat="42.76528" lon="0.6629">
        <ele>1228</ele>
        <time>2025-06-10T23:58:37Z</time>
      </trkpt>
      <trkpt lat="42.76538" lon="0.66295">
        <ele>1227</ele>
        <time>2025-06-10T23:58:45Z</time>
      </trkpt>
      <trkpt lat="42.7657" lon="0.66324">
        <ele>1221</ele>
        <time>2025-06-10T23:59:16Z</time>
      </trkpt>
      <trkpt lat="42.76579" lon="0.66333">
        <ele>1218</ele>
        <time>2025-06-10T23:59:25Z</time>
      </trkpt>
      <trkpt lat="42.76586" lon="0.66346">
        <ele>1216</ele>
        <time>2025-06-10T23:59:35Z</time>
      </trkpt>
      <trkpt lat="42.76593" lon="0.66363">
        <ele>1215</ele>
        <time>2025-06-10T23:59:46Z</time>
      </trkpt>
      <trkpt lat="42.76598" lon="0.66382">
        <ele>1213</ele>
        <time>2025-06-10T23:59:58Z</time>
      </trkpt>
      <trkpt lat="42.76602" lon="0.66402">
        <ele>1210</ele>
        <time>2025-06-11T00:00:10Z</time>
      </trkpt>
      <trkpt lat="42.76604" lon="0.66421">
        <ele>1208</ele>
        <time>2025-06-11T00:00:21Z</time>
      </trkpt>
      <trkpt lat="42.76604" lon="0.66469">
        <ele>1203</ele>
        <time>2025-06-11T00:00:50Z</time>
      </trkpt>
      <trkpt lat="42.76607" lon="0.66486">
        <ele>1202</ele>
        <time>2025-06-11T00:01:00Z</time>
      </trkpt>
      <trkpt lat="42.76612" lon="0.66506">
        <ele>1200</ele>
        <time>2025-06-11T00:01:12Z</time>
      </trkpt>
      <trkpt lat="42.76642" lon="0.66599">
        <ele>1189</ele>
        <time>2025-06-11T00:02:12Z</time>
      </trkpt>
      <trkpt lat="42.76647" lon="0.66618">
        <ele>1186</ele>
        <time>2025-06-11T00:02:24Z</time>
      </trkpt>
      <trkpt lat="42.7665" lon="0.66638">
        <ele>1183</ele>
        <time>2025-06-11T00:02:36Z</time>
      </trkpt>
      <trkpt lat="42.76654" lon="0.66653">
        <ele>1181</ele>
        <time>2025-06-11T00:02:45Z</time>
      </trkpt>
      <trkpt lat="42.76659" lon="0.66666">
        <ele>1179</ele>
        <time>2025-06-11T00:02:54Z</time>
      </trkpt>
      <trkpt lat="42.76665" lon="0.66674">
        <ele>1178</ele>
        <time>2025-06-11T00:03:01Z</time>
      </trkpt>
      <trkpt lat="42.76674" lon="0.66682">
        <ele>1177</ele>
        <time>2025-06-11T00:03:09Z</time>
      </trkpt>
      <trkpt lat="42.76687" lon="0.66684">
        <ele>1177</ele>
        <time>2025-06-11T00:03:20Z</time>
      </trkpt>
      <trkpt lat="42.76701" lon="0.66685">
        <ele>1177</ele>
        <time>2025-06-11T00:03:31Z</time>
      </trkpt>
      <trkpt lat="42.76707" lon="0.66683">
        <ele>1178</ele>
        <time>2025-06-11T00:03:36Z</time>
      </trkpt>
      <trkpt lat="42.76709" lon="0.66683">
        <ele>1178</ele>
        <time>2025-06-11T00:03:37Z</time>
      </trkpt>
      <trkpt lat="42.76715" lon="0.66677">
        <ele>1180</ele>
        <time>2025-06-11T00:03:43Z</time>
      </trkpt>
      <trkpt lat="42.76723" lon="0.66665">
        <ele>1182</ele>
        <time>2025-06-11T00:03:53Z</time>
      </trkpt>
      <trkpt lat="42.76728" lon="0.66659">
        <ele>1184</ele>
        <time>2025-06-11T00:03:58Z</time>
      </trkpt>
      <trkpt lat="42.76736" lon="0.66657">
        <ele>1185</ele>
        <time>2025-06-11T00:04:05Z</time>
      </trkpt>
      <trkpt lat="42.76742" lon="0.66659">
        <ele>1185</ele>
        <time>2025-06-11T00:04:10Z</time>
      </trkpt>
      <trkpt lat="42.76749" lon="0.66666">
        <ele>1183</ele>
        <time>2025-06-11T00:04:17Z</time>
      </trkpt>
      <trkpt lat="42.76763" lon="0.66685">
        <ele>1181</ele>
        <time>2025-06-11T00:04:32Z</time>
      </trkpt>
      <trkpt lat="42.76796" lon="0.66714">
        <ele>1178</ele>
        <time>2025-06-11T00:05:04Z</time>
      </trkpt>
      <trkpt lat="42.76807" lon="0.66726">
        <ele>1176</ele>
        <time>2025-06-11T00:05:15Z</time>
      </trkpt>
      <trkpt lat="42.76818" lon="0.66744">
        <ele>1172</ele>
        <time>2025-06-11T00:05:29Z</time>
      </trkpt>
      <trkpt lat="42.76826" lon="0.66761">
        <ele>1169</ele>
        <time>2025-06-11T00:05:41Z</time>
      </trkpt>
      <trkpt lat="42.76833" lon="0.6678">
        <ele>1166</ele>
        <time>2025-06-11T00:05:53Z</time>
      </trkpt>
      <trkpt lat="42.76837" lon="0.66794">
        <ele>1165</ele>
        <time>2025-06-11T00:06:02Z</time>
      </trkpt>
      <trkpt lat="42.7684" lon="0.66811">
        <ele>1162</ele>
        <time>2025-06-11T00:06:12Z</time>
      </trkpt>
      <trkpt lat="42.76845" lon="0.66856">
        <ele>1158</ele>
        <time>2025-06-11T00:06:39Z</time>
      </trkpt>
      <trkpt lat="42.76846" lon="0.66872">
        <ele>1157</ele>
        <time>2025-06-11T00:06:49Z</time>
      </trkpt>
      <trkpt lat="42.76845" lon="0.66884">
        <ele>1156</ele>
        <time>2025-06-11T00:06:56Z</time>
      </trkpt>
      <trkpt lat="42.76842" lon="0.6689">
        <ele>1155</ele>
        <time>2025-06-11T00:07:00Z</time>
      </trkpt>
      <trkpt lat="42.76841" lon="0.66894">
        <ele>1155</ele>
        <time>2025-06-11T00:07:02Z</time>
      </trkpt>
      <trkpt lat="42.76833" lon="0.66909">
        <ele>1152</ele>
        <time>2025-06-11T00:07:13Z</time>
      </trkpt>
      <trkpt lat="42.7682" lon="0.66925">
        <ele>1150</ele>
        <time>2025-06-11T00:07:27Z</time>
      </trkpt>
      <trkpt lat="42.76809" lon="0.66942">
        <ele>1148</ele>
        <time>2025-06-11T00:07:41Z</time>
      </trkpt>
      <trkpt lat="42.76803" lon="0.6696">
        <ele>1147</ele>
        <time>2025-06-11T00:07:52Z</time>
      </trkpt>
      <trkpt lat="42.76798" lon="0.66983">
        <ele>1146</ele>
        <time>2025-06-11T00:08:06Z</time>
      </trkpt>
      <trkpt lat="42.76796" lon="0.67004">
        <ele>1144</ele>
        <time>2025-06-11T00:08:19Z</time>
      </trkpt>
      <trkpt lat="42.76797" lon="0.67022">
        <ele>1143</ele>
        <time>2025-06-11T00:08:29Z</time>
      </trkpt>
      <trkpt lat="42.76805" lon="0.67059">
        <ele>1141</ele>
        <time>2025-06-11T00:08:52Z</time>
      </trkpt>
      <trkpt lat="42.76811" lon="0.67086">
        <ele>1140</ele>
        <time>2025-06-11T00:09:09Z</time>
      </trkpt>
      <trkpt lat="42.76818" lon="0.67106">
        <ele>1138</ele>
        <time>2025-06-11T00:09:22Z</time>
      </trkpt>
      <trkpt lat="42.76825" lon="0.67122">
        <ele>1137</ele>
        <time>2025-06-11T00:09:33Z</time>
      </trkpt>
      <trkpt lat="42.76833" lon="0.67136">
        <ele>1136</ele>
        <time>2025-06-11T00:09:43Z</time>
      </trkpt>
      <trkpt lat="42.76841" lon="0.67144">
        <ele>1137</ele>
        <time>2025-06-11T00:09:51Z</time>
      </trkpt>
      <trkpt lat="42.76843" lon="0.67148">
        <ele>1137</ele>
        <time>2025-06-11T00:09:54Z</time>
      </trkpt>
      <trkpt lat="42.76858" lon="0.67163">
        <ele>1138</ele>
        <time>2025-06-11T00:10:09Z</time>
      </trkpt>
      <trkpt lat="42.76869" lon="0.67171">
        <ele>1138</ele>
        <time>2025-06-11T00:10:19Z</time>
      </trkpt>
      <trkpt lat="42.76893" lon="0.67192">
        <ele>1138</ele>
        <time>2025-06-11T00:10:42Z</time>
      </trkpt>
      <trkpt lat="42.76902" lon="0.67198">
        <ele>1138</ele>
        <time>2025-06-11T00:10:50Z</time>
      </trkpt>
      <trkpt lat="42.76914" lon="0.67212">
        <ele>1137</ele>
        <time>2025-06-11T00:11:02Z</time>
      </trkpt>
      <trkpt lat="42.76917" lon="0.67215">
        <ele>1136</ele>
        <time>2025-06-11T00:11:05Z</time>
      </trkpt>
      <trkpt lat="42.76926" lon="0.67232">
        <ele>1135</ele>
        <time>2025-06-11T00:11:18Z</time>
      </trkpt>
      <trkpt lat="42.7693" lon="0.67237">
        <ele>1135</ele>
        <time>2025-06-11T00:11:22Z</time>
      </trkpt>
      <trkpt lat="42.76946" lon="0.67272">
        <ele>1134</ele>
        <time>2025-06-11T00:11:46Z</time>
      </trkpt>
      <trkpt lat="42.76954" lon="0.67296">
        <ele>1132</ele>
        <time>2025-06-11T00:12:02Z</time>
      </trkpt>
      <trkpt lat="42.76975" lon="0.67377">
        <ele>1123</ele>
        <time>2025-06-11T00:12:52Z</time>
      </trkpt>
      <trkpt lat="42.76983" lon="0.67405">
        <ele>1120</ele>
        <time>2025-06-11T00:13:10Z</time>
      </trkpt>
      <trkpt lat="42.76988" lon="0.67422">
        <ele>1118</ele>
        <time>2025-06-11T00:13:21Z</time>
      </trkpt>
      <trkpt lat="42.76998" lon="0.67436">
        <ele>1119</ele>
        <time>2025-06-11T00:13:32Z</time>
      </trkpt>
      <trkpt lat="42.77008" lon="0.67454">
        <ele>1119</ele>
        <time>2025-06-11T00:13:45Z</time>
      </trkpt>
      <trkpt lat="42.77017" lon="0.67478">
        <ele>1117</ele>
        <time>2025-06-11T00:14:01Z</time>
      </trkpt>
      <trkpt lat="42.77033" lon="0.6753">
        <ele>1113</ele>
        <time>2025-06-11T00:14:34Z</time>
      </trkpt>
      <trkpt lat="42.77056" lon="0.67605">
        <ele>1106</ele>
        <time>2025-06-11T00:15:22Z</time>
      </trkpt>
      <trkpt lat="42.77063" lon="0.67621">
        <ele>1106</ele>
        <time>2025-06-11T00:15:33Z</time>
      </trkpt>
      <trkpt lat="42.77072" lon="0.67635">
        <ele>1106</ele>
        <time>2025-06-11T00:15:44Z</time>
      </trkpt>
      <trkpt lat="42.77109" lon="0.67681">
        <ele>1103</ele>
        <time>2025-06-11T00:16:24Z</time>
      </trkpt>
      <trkpt lat="42.77118" lon="0.6769">
        <ele>1101</ele>
        <time>2025-06-11T00:16:33Z</time>
      </trkpt>
      <trkpt lat="42.77173" lon="0.67719">
        <ele>1096</ele>
        <time>2025-06-11T00:17:20Z</time>
      </trkpt>
      <trkpt lat="42.7721" lon="0.67745">
        <ele>1089</ele>
        <time>2025-06-11T00:17:54Z</time>
      </trkpt>
      <trkpt lat="42.77248" lon="0.67762">
        <ele>1084</ele>
        <time>2025-06-11T00:18:26Z</time>
      </trkpt>
      <trkpt lat="42.77255" lon="0.67763">
        <ele>1084</ele>
        <time>2025-06-11T00:18:31Z</time>
      </trkpt>
      <trkpt lat="42.77262" lon="0.67763">
        <ele>1083</ele>
        <time>2025-06-11T00:18:37Z</time>
      </trkpt>
      <trkpt lat="42.77302" lon="0.67759">
        <ele>1081</ele>
        <time>2025-06-11T00:19:09Z</time>
      </trkpt>
      <trkpt lat="42.7732" lon="0.67764">
        <ele>1078</ele>
        <time>2025-06-11T00:19:24Z</time>
      </trkpt>
      <trkpt lat="42.77356" lon="0.67767">
        <ele>1074</ele>
        <time>2025-06-11T00:19:53Z</time>
      </trkpt>
      <trkpt lat="42.774" lon="0.67766">
        <ele>1072</ele>
        <time>2025-06-11T00:20:28Z</time>
      </trkpt>
      <trkpt lat="42.77426" lon="0.67772">
        <ele>1068</ele>
        <time>2025-06-11T00:20:49Z</time>
      </trkpt>
      <trkpt lat="42.77434" lon="0.67771">
        <ele>1069</ele>
        <time>2025-06-11T00:20:55Z</time>
      </trkpt>
      <trkpt lat="42.77469" lon="0.67764">
        <ele>1073</ele>
        <time>2025-06-11T00:21:24Z</time>
      </trkpt>
      <trkpt lat="42.77483" lon="0.67764">
        <ele>1074</ele>
        <time>2025-06-11T00:21:35Z</time>
      </trkpt>
      <trkpt lat="42.77505" lon="0.67778">
        <ele>1067</ele>
        <time>2025-06-11T00:21:54Z</time>
      </trkpt>
      <trkpt lat="42.77516" lon="0.67783">
        <ele>1066</ele>
        <time>2025-06-11T00:22:04Z</time>
      </trkpt>
      <trkpt lat="42.77575" lon="0.67794">
        <ele>1063</ele>
        <time>2025-06-11T00:22:51Z</time>
      </trkpt>
      <trkpt lat="42.77615" lon="0.67806">
        <ele>1062</ele>
        <time>2025-06-11T00:23:24Z</time>
      </trkpt>
      <trkpt lat="42.77635" lon="0.67813">
        <ele>1061</ele>
        <time>2025-06-11T00:23:41Z</time>
      </trkpt>
      <trkpt lat="42.77651" lon="0.67822">
        <ele>1058</ele>
        <time>2025-06-11T00:23:54Z</time>
      </trkpt>
      <trkpt lat="42.77666" lon="0.67833">
        <ele>1053</ele>
        <time>2025-06-11T00:24:08Z</time>
      </trkpt>
      <trkpt lat="42.77683" lon="0.67847">
        <ele>1051</ele>
        <time>2025-06-11T00:24:24Z</time>
      </trkpt>
      <trkpt lat="42.77723" lon="0.67896">
        <ele>1041</ele>
        <time>2025-06-11T00:25:07Z</time>
      </trkpt>
      <trkpt lat="42.77737" lon="0.67906">
        <ele>1041</ele>
        <time>2025-06-11T00:25:20Z</time>
      </trkpt>
      <trkpt lat="42.77757" lon="0.67918">
        <ele>1041</ele>
        <time>2025-06-11T00:25:37Z</time>
      </trkpt>
      <trkpt lat="42.77774" lon="0.67936">
        <ele>1036</ele>
        <time>2025-06-11T00:25:54Z</time>
      </trkpt>
      <trkpt lat="42.77784" lon="0.6795">
        <ele>1032</ele>
        <time>2025-06-11T00:26:06Z</time>
      </trkpt>
      <trkpt lat="42.77791" lon="0.67962">
        <ele>1029</ele>
        <time>2025-06-11T00:26:15Z</time>
      </trkpt>
      <trkpt lat="42.77795" lon="0.67968">
        <ele>1028</ele>
        <time>2025-06-11T00:26:20Z</time>
      </trkpt>
      <trkpt lat="42.77798" lon="0.67976">
        <ele>1026</ele>
        <time>2025-06-11T00:26:25Z</time>
      </trkpt>
      <trkpt lat="42.77799" lon="0.6799">
        <ele>1022</ele>
        <time>2025-06-11T00:26:33Z</time>
      </trkpt>
      <trkpt lat="42.77798" lon="0.68009">
        <ele>1016</ele>
        <time>2025-06-11T00:26:44Z</time>
      </trkpt>
      <trkpt lat="42.77798" lon="0.68016">
        <ele>1013</ele>
        <time>2025-06-11T00:26:49Z</time>
      </trkpt>
      <trkpt lat="42.77801" lon="0.68029">
        <ele>1009</ele>
        <time>2025-06-11T00:26:57Z</time>
      </trkpt>
      <trkpt lat="42.77808" lon="0.68035">
        <ele>1008</ele>
        <time>2025-06-11T00:27:03Z</time>
      </trkpt>
      <trkpt lat="42.77813" lon="0.68037">
        <ele>1009</ele>
        <time>2025-06-11T00:27:07Z</time>
      </trkpt>
      <trkpt lat="42.7782" lon="0.68037">
        <ele>1010</ele>
        <time>2025-06-11T00:27:13Z</time>
      </trkpt>
      <trkpt lat="42.77825" lon="0.68036">
        <ele>1011</ele>
        <time>2025-06-11T00:27:17Z</time>
      </trkpt>
      <trkpt lat="42.7787" lon="0.68">
        <ele>1017</ele>
        <time>2025-06-11T00:27:59Z</time>
      </trkpt>
      <trkpt lat="42.77906" lon="0.67994">
        <ele>1011</ele>
        <time>2025-06-11T00:28:28Z</time>
      </trkpt>
      <trkpt lat="42.77924" lon="0.67986">
        <ele>1009</ele>
        <time>2025-06-11T00:28:43Z</time>
      </trkpt>
      <trkpt lat="42.78002" lon="0.67935">
        <ele>1007</ele>
        <time>2025-06-11T00:29:52Z</time>
      </trkpt>
      <trkpt lat="42.78028" lon="0.6792">
        <ele>1006</ele>
        <time>2025-06-11T00:30:15Z</time>
      </trkpt>
      <trkpt lat="42.78034" lon="0.67917">
        <ele>1005</ele>
        <time>2025-06-11T00:30:20Z</time>
      </trkpt>
      <trkpt lat="42.7806" lon="0.67911">
        <ele>999</ele>
        <time>2025-06-11T00:30:41Z</time>
      </trkpt>
      <trkpt lat="42.78066" lon="0.67907">
        <ele>999</ele>
        <time>2025-06-11T00:30:46Z</time>
      </trkpt>
      <trkpt lat="42.78076" lon="0.67897">
        <ele>998</ele>
        <time>2025-06-11T00:30:56Z</time>
      </trkpt>
      <trkpt lat="42.78084" lon="0.67881">
        <ele>1000</ele>
        <time>2025-06-11T00:31:08Z</time>
      </trkpt>
      <trkpt lat="42.78089" lon="0.67864">
        <ele>1003</ele>
        <time>2025-06-11T00:31:19Z</time>
      </trkpt>
      <trkpt lat="42.78094" lon="0.67837">
        <ele>1008</ele>
        <time>2025-06-11T00:31:35Z</time>
      </trkpt>
      <trkpt lat="42.78098" lon="0.67828">
        <ele>1008</ele>
        <time>2025-06-11T00:31:41Z</time>
      </trkpt>
      <trkpt lat="42.78104" lon="0.67824">
        <ele>1006</ele>
        <time>2025-06-11T00:31:46Z</time>
      </trkpt>
      <trkpt lat="42.78109" lon="0.67822">
        <ele>1004</ele>
        <time>2025-06-11T00:31:51Z</time>
      </trkpt>
      <trkpt lat="42.78112" lon="0.67823">
        <ele>1003</ele>
        <time>2025-06-11T00:31:53Z</time>
      </trkpt>
      <trkpt lat="42.7812" lon="0.67829">
        <ele>999</ele>
        <time>2025-06-11T00:32:00Z</time>
      </trkpt>
      <trkpt lat="42.78123" lon="0.67837">
        <ele>996</ele>
        <time>2025-06-11T00:32:06Z</time>
      </trkpt>
      <trkpt lat="42.78124" lon="0.67846">
        <ele>993</ele>
        <time>2025-06-11T00:32:11Z</time>
      </trkpt>
      <trkpt lat="42.78124" lon="0.67854">
        <ele>992</ele>
        <time>2025-06-11T00:32:16Z</time>
      </trkpt>
      <trkpt lat="42.78122" lon="0.67863">
        <ele>990</ele>
        <time>2025-06-11T00:32:21Z</time>
      </trkpt>
      <trkpt lat="42.78119" lon="0.67873">
        <ele>989</ele>
        <time>2025-06-11T00:32:28Z</time>
      </trkpt>
      <trkpt lat="42.78094" lon="0.67916">
        <ele>987</ele>
        <time>2025-06-11T00:33:00Z</time>
      </trkpt>
      <trkpt lat="42.78085" lon="0.67928">
        <ele>986</ele>
        <time>2025-06-11T00:33:10Z</time>
      </trkpt>
      <trkpt lat="42.78076" lon="0.67936">
        <ele>986</ele>
        <time>2025-06-11T00:33:19Z</time>
      </trkpt>
      <trkpt lat="42.78045" lon="0.67956">
        <ele>987</ele>
        <time>2025-06-11T00:33:46Z</time>
      </trkpt>
      <trkpt lat="42.78026" lon="0.67976">
        <ele>985</ele>
        <time>2025-06-11T00:34:05Z</time>
      </trkpt>
      <trkpt lat="42.77991" lon="0.68031">
        <ele>975</ele>
        <time>2025-06-11T00:34:48Z</time>
      </trkpt>
      <trkpt lat="42.7797" lon="0.68062">
        <ele>970</ele>
        <time>2025-06-11T00:35:13Z</time>
      </trkpt>
      <trkpt lat="42.77959" lon="0.68076">
        <ele>968</ele>
        <time>2025-06-11T00:35:25Z</time>
      </trkpt>
      <trkpt lat="42.77945" lon="0.68088">
        <ele>968</ele>
        <time>2025-06-11T00:35:38Z</time>
      </trkpt>
      <trkpt lat="42.7788" lon="0.68123">
        <ele>967</ele>
        <time>2025-06-11T00:36:34Z</time>
      </trkpt>
      <trkpt lat="42.77833" lon="0.68151">
        <ele>962</ele>
        <time>2025-06-11T00:37:15Z</time>
      </trkpt>
      <trkpt lat="42.77821" lon="0.68154">
        <ele>959</ele>
        <time>2025-06-11T00:37:25Z</time>
      </trkpt>
      <trkpt lat="42.77813" lon="0.68154">
        <ele>958</ele>
        <time>2025-06-11T00:37:31Z</time>
      </trkpt>
      <trkpt lat="42.77793" lon="0.68157">
        <ele>955</ele>
        <time>2025-06-11T00:37:47Z</time>
      </trkpt>
      <trkpt lat="42.77786" lon="0.6816">
        <ele>952</ele>
        <time>2025-06-11T00:37:53Z</time>
      </trkpt>
      <trkpt lat="42.77771" lon="0.68169">
        <ele>947</ele>
        <time>2025-06-11T00:38:06Z</time>
      </trkpt>
      <trkpt lat="42.77765" lon="0.68171">
        <ele>945</ele>
        <time>2025-06-11T00:38:11Z</time>
      </trkpt>
      <trkpt lat="42.77759" lon="0.68171">
        <ele>944</ele>
        <time>2025-06-11T00:38:16Z</time>
      </trkpt>
      <trkpt lat="42.77752" lon="0.6817">
        <ele>944</ele>
        <time>2025-06-11T00:38:22Z</time>
      </trkpt>
      <trkpt lat="42.7774" lon="0.68164">
        <ele>943</ele>
        <time>2025-06-11T00:38:32Z</time>
      </trkpt>
      <trkpt lat="42.77728" lon="0.68155">
        <ele>942</ele>
        <time>2025-06-11T00:38:43Z</time>
      </trkpt>
      <trkpt lat="42.77717" lon="0.68144">
        <ele>942</ele>
        <time>2025-06-11T00:38:54Z</time>
      </trkpt>
      <trkpt lat="42.77704" lon="0.68129">
        <ele>942</ele>
        <time>2025-06-11T00:39:08Z</time>
      </trkpt>
      <trkpt lat="42.77684" lon="0.68094">
        <ele>947</ele>
        <time>2025-06-11T00:39:34Z</time>
      </trkpt>
      <trkpt lat="42.77671" lon="0.68075">
        <ele>949</ele>
        <time>2025-06-11T00:39:49Z</time>
      </trkpt>
      <trkpt lat="42.77658" lon="0.68061">
        <ele>950</ele>
        <time>2025-06-11T00:40:02Z</time>
      </trkpt>
      <trkpt lat="42.77646" lon="0.68053">
        <ele>951</ele>
        <time>2025-06-11T00:40:13Z</time>
      </trkpt>
      <trkpt lat="42.77627" lon="0.68046">
        <ele>950</ele>
        <time>2025-06-11T00:40:29Z</time>
      </trkpt>
      <trkpt lat="42.77587" lon="0.6804">
        <ele>944</ele>
        <time>2025-06-11T00:41:01Z</time>
      </trkpt>
      <trkpt lat="42.77571" lon="0.68038">
        <ele>944</ele>
        <time>2025-06-11T00:41:14Z</time>
      </trkpt>
      <trkpt lat="42.77563" lon="0.68039">
        <ele>943</ele>
        <time>2025-06-11T00:41:20Z</time>
      </trkpt>
      <trkpt lat="42.7753" lon="0.68055">
        <ele>935</ele>
        <time>2025-06-11T00:41:48Z</time>
      </trkpt>
      <trkpt lat="42.77505" lon="0.68051">
        <ele>936</ele>
        <time>2025-06-11T00:42:08Z</time>
      </trkpt>
      <trkpt lat="42.77493" lon="0.68051">
        <ele>936</ele>
        <time>2025-06-11T00:42:18Z</time>
      </trkpt>
      <trkpt lat="42.77486" lon="0.68052">
        <ele>935</ele>
        <time>2025-06-11T00:42:24Z</time>
      </trkpt>
      <trkpt lat="42.77472" lon="0.68058">
        <ele>932</ele>
        <time>2025-06-11T00:42:35Z</time>
      </trkpt>
      <trkpt lat="42.77458" lon="0.68063">
        <ele>930</ele>
        <time>2025-06-11T00:42:47Z</time>
      </trkpt>
      <trkpt lat="42.77452" lon="0.68062">
        <ele>930</ele>
        <time>2025-06-11T00:42:52Z</time>
      </trkpt>
      <trkpt lat="42.77435" lon="0.68058">
        <ele>932</ele>
        <time>2025-06-11T00:43:06Z</time>
      </trkpt>
      <trkpt lat="42.77426" lon="0.68057">
        <ele>932</ele>
        <time>2025-06-11T00:43:13Z</time>
      </trkpt>
      <trkpt lat="42.77383" lon="0.68072">
        <ele>923</ele>
        <time>2025-06-11T00:43:48Z</time>
      </trkpt>
      <trkpt lat="42.77374" lon="0.68074">
        <ele>922</ele>
        <time>2025-06-11T00:43:56Z</time>
      </trkpt>
      <trkpt lat="42.77355" lon="0.68074">
        <ele>921</ele>
        <time>2025-06-11T00:44:11Z</time>
      </trkpt>
      <trkpt lat="42.77337" lon="0.68066">
        <ele>925</ele>
        <time>2025-06-11T00:44:26Z</time>
      </trkpt>
      <trkpt lat="42.77332" lon="0.68065">
        <ele>926</ele>
        <time>2025-06-11T00:44:30Z</time>
      </trkpt>
      <trkpt lat="42.77324" lon="0.68066">
        <ele>927</ele>
        <time>2025-06-11T00:44:36Z</time>
      </trkpt>
      <trkpt lat="42.77316" lon="0.68069">
        <ele>927</ele>
        <time>2025-06-11T00:44:43Z</time>
      </trkpt>
      <trkpt lat="42.77314" lon="0.68073">
        <ele>925</ele>
        <time>2025-06-11T00:44:46Z</time>
      </trkpt>
      <trkpt lat="42.77311" lon="0.68082">
        <ele>921</ele>
        <time>2025-06-11T00:44:52Z</time>
      </trkpt>
      <trkpt lat="42.77312" lon="0.68093">
        <ele>915</ele>
        <time>2025-06-11T00:44:58Z</time>
      </trkpt>
      <trkpt lat="42.77316" lon="0.681">
        <ele>911</ele>
        <time>2025-06-11T00:45:04Z</time>
      </trkpt>
      <trkpt lat="42.77321" lon="0.68103">
        <ele>909</ele>
        <time>2025-06-11T00:45:08Z</time>
      </trkpt>
      <trkpt lat="42.77326" lon="0.68104">
        <ele>908</ele>
        <time>2025-06-11T00:45:12Z</time>
      </trkpt>
      <trkpt lat="42.7736" lon="0.68097">
        <ele>911</ele>
        <time>2025-06-11T00:45:39Z</time>
      </trkpt>
      <trkpt lat="42.77469" lon="0.68105">
        <ele>910</ele>
        <time>2025-06-11T00:47:07Z</time>
      </trkpt>
      <trkpt lat="42.7748" lon="0.6811">
        <ele>909</ele>
        <time>2025-06-11T00:47:16Z</time>
      </trkpt>
      <trkpt lat="42.7751" lon="0.68128">
        <ele>901</ele>
        <time>2025-06-11T00:47:42Z</time>
      </trkpt>
      <trkpt lat="42.77537" lon="0.68134">
        <ele>900</ele>
        <time>2025-06-11T00:48:04Z</time>
      </trkpt>
      <trkpt lat="42.77551" lon="0.68135">
        <ele>901</ele>
        <time>2025-06-11T00:48:16Z</time>
      </trkpt>
      <trkpt lat="42.7756" lon="0.68137">
        <ele>900</ele>
        <time>2025-06-11T00:48:23Z</time>
      </trkpt>
      <trkpt lat="42.77582" lon="0.68151">
        <ele>896</ele>
        <time>2025-06-11T00:48:42Z</time>
      </trkpt>
      <trkpt lat="42.77613" lon="0.68174">
        <ele>894</ele>
        <time>2025-06-11T00:49:11Z</time>
      </trkpt>
      <trkpt lat="42.77628" lon="0.68187">
        <ele>892</ele>
        <time>2025-06-11T00:49:25Z</time>
      </trkpt>
      <trkpt lat="42.7766" lon="0.68236">
        <ele>875</ele>
        <time>2025-06-11T00:50:03Z</time>
      </trkpt>
      <trkpt lat="42.77666" lon="0.68241">
        <ele>874</ele>
        <time>2025-06-11T00:50:09Z</time>
      </trkpt>
      <trkpt lat="42.7767" lon="0.68243">
        <ele>874</ele>
        <time>2025-06-11T00:50:12Z</time>
      </trkpt>
      <trkpt lat="42.77693" lon="0.68247">
        <ele>878</ele>
        <time>2025-06-11T00:50:31Z</time>
      </trkpt>
      <trkpt lat="42.77699" lon="0.68249">
        <ele>879</ele>
        <time>2025-06-11T00:50:36Z</time>
      </trkpt>
      <trkpt lat="42.77704" lon="0.68253">
        <ele>878</ele>
        <time>2025-06-11T00:50:41Z</time>
      </trkpt>
      <trkpt lat="42.77724" lon="0.68274">
        <ele>873</ele>
        <time>2025-06-11T00:51:01Z</time>
      </trkpt>
      <trkpt lat="42.77729" lon="0.68278">
        <ele>872</ele>
        <time>2025-06-11T00:51:05Z</time>
      </trkpt>
      <trkpt lat="42.77736" lon="0.68281">
        <ele>873</ele>
        <time>2025-06-11T00:51:11Z</time>
      </trkpt>
      <trkpt lat="42.7776" lon="0.6828">
        <ele>879</ele>
        <time>2025-06-11T00:51:30Z</time>
      </trkpt>
      <trkpt lat="42.77775" lon="0.68283">
        <ele>880</ele>
        <time>2025-06-11T00:51:43Z</time>
      </trkpt>
      <trkpt lat="42.77789" lon="0.68291">
        <ele>878</ele>
        <time>2025-06-11T00:51:55Z</time>
      </trkpt>
      <trkpt lat="42.77823" lon="0.68319">
        <ele>869</ele>
        <time>2025-06-11T00:52:27Z</time>
      </trkpt>
      <trkpt lat="42.77827" lon="0.68321">
        <ele>869</ele>
        <time>2025-06-11T00:52:30Z</time>
      </trkpt>
      <trkpt lat="42.77836" lon="0.6832">
        <ele>870</ele>
        <time>2025-06-11T00:52:37Z</time>
      </trkpt>
      <trkpt lat="42.77858" lon="0.68317">
        <ele>871</ele>
        <time>2025-06-11T00:52:55Z</time>
      </trkpt>
      <trkpt lat="42.77892" lon="0.68316">
        <ele>871</ele>
        <time>2025-06-11T00:53:22Z</time>
      </trkpt>
      <trkpt lat="42.77907" lon="0.68317">
        <ele>870</ele>
        <time>2025-06-11T00:53:34Z</time>
      </trkpt>
      <trkpt lat="42.77922" lon="0.68314">
        <ele>870</ele>
        <time>2025-06-11T00:53:46Z</time>
      </trkpt>
      <trkpt lat="42.77931" lon="0.68308">
        <ele>871</ele>
        <time>2025-06-11T00:53:54Z</time>
      </trkpt>
      <trkpt lat="42.7794" lon="0.68298">
        <ele>874</ele>
        <time>2025-06-11T00:54:04Z</time>
      </trkpt>
      <trkpt lat="42.77954" lon="0.68289">
        <ele>875</ele>
        <time>2025-06-11T00:54:16Z</time>
      </trkpt>
      <trkpt lat="42.77961" lon="0.68288">
        <ele>874</ele>
        <time>2025-06-11T00:54:22Z</time>
      </trkpt>
      <trkpt lat="42.77969" lon="0.6829">
        <ele>872</ele>
        <time>2025-06-11T00:54:28Z</time>
      </trkpt>
      <trkpt lat="42.77975" lon="0.68294">
        <ele>869</ele>
        <time>2025-06-11T00:54:34Z</time>
      </trkpt>
      <trkpt lat="42.77978" lon="0.683">
        <ele>866</ele>
        <time>2025-06-11T00:54:38Z</time>
      </trkpt>
      <trkpt lat="42.7798" lon="0.68312">
        <ele>860</ele>
        <time>2025-06-11T00:54:45Z</time>
      </trkpt>
      <trkpt lat="42.77978" lon="0.68323">
        <ele>856</ele>
        <time>2025-06-11T00:54:52Z</time>
      </trkpt>
      <trkpt lat="42.77972" lon="0.68334">
        <ele>853</ele>
        <time>2025-06-11T00:55:00Z</time>
      </trkpt>
      <trkpt lat="42.77967" lon="0.6834">
        <ele>851</ele>
        <time>2025-06-11T00:55:05Z</time>
      </trkpt>
      <trkpt lat="42.77958" lon="0.68344">
        <ele>851</ele>
        <time>2025-06-11T00:55:13Z</time>
      </trkpt>
      <trkpt lat="42.77947" lon="0.68347">
        <ele>852</ele>
        <time>2025-06-11T00:55:22Z</time>
      </trkpt>
      <trkpt lat="42.77928" lon="0.68349">
        <ele>854</ele>
        <time>2025-06-11T00:55:37Z</time>
      </trkpt>
      <trkpt lat="42.77911" lon="0.6835">
        <ele>855</ele>
        <time>2025-06-11T00:55:51Z</time>
      </trkpt>
      <trkpt lat="42.77884" lon="0.68348">
        <ele>856</ele>
        <time>2025-06-11T00:56:12Z</time>
      </trkpt>
      <trkpt lat="42.77868" lon="0.68348">
        <ele>856</ele>
        <time>2025-06-11T00:56:25Z</time>
      </trkpt>
      <trkpt lat="42.77837" lon="0.68361">
        <ele>851</ele>
        <time>2025-06-11T00:56:51Z</time>
      </trkpt>
      <trkpt lat="42.77831" lon="0.68363">
        <ele>850</ele>
        <time>2025-06-11T00:56:56Z</time>
      </trkpt>
      <trkpt lat="42.77824" lon="0.68363">
        <ele>848</ele>
        <time>2025-06-11T00:57:02Z</time>
      </trkpt>
      <trkpt lat="42.77818" lon="0.68362">
        <ele>848</ele>
        <time>2025-06-11T00:57:06Z</time>
      </trkpt>
      <trkpt lat="42.77809" lon="0.68357">
        <ele>848</ele>
        <time>2025-06-11T00:57:14Z</time>
      </trkpt>
      <trkpt lat="42.77798" lon="0.68346">
        <ele>851</ele>
        <time>2025-06-11T00:57:25Z</time>
      </trkpt>
      <trkpt lat="42.77778" lon="0.68332">
        <ele>854</ele>
        <time>2025-06-11T00:57:43Z</time>
      </trkpt>
      <trkpt lat="42.77767" lon="0.68329">
        <ele>854</ele>
        <time>2025-06-11T00:57:52Z</time>
      </trkpt>
      <trkpt lat="42.7773" lon="0.68325">
        <ele>848</ele>
        <time>2025-06-11T00:58:22Z</time>
      </trkpt>
      <trkpt lat="42.77721" lon="0.68322">
        <ele>848</ele>
        <time>2025-06-11T00:58:29Z</time>
      </trkpt>
      <trkpt lat="42.77706" lon="0.68314">
        <ele>848</ele>
        <time>2025-06-11T00:58:42Z</time>
      </trkpt>
      <trkpt lat="42.77685" lon="0.68304">
        <ele>847</ele>
        <time>2025-06-11T00:59:00Z</time>
      </trkpt>
      <trkpt lat="42.77648" lon="0.68295">
        <ele>844</ele>
        <time>2025-06-11T00:59:30Z</time>
      </trkpt>
      <trkpt lat="42.77639" lon="0.68289">
        <ele>845</ele>
        <time>2025-06-11T00:59:38Z</time>
      </trkpt>
      <trkpt lat="42.77621" lon="0.68274">
        <ele>849</ele>
        <time>2025-06-11T00:59:55Z</time>
      </trkpt>
      <trkpt lat="42.77611" lon="0.68268">
        <ele>850</ele>
        <time>2025-06-11T01:00:04Z</time>
      </trkpt>
      <trkpt lat="42.77601" lon="0.68267">
        <ele>848</ele>
        <time>2025-06-11T01:00:12Z</time>
      </trkpt>
      <trkpt lat="42.77593" lon="0.68269">
        <ele>846</ele>
        <time>2025-06-11T01:00:18Z</time>
      </trkpt>
      <trkpt lat="42.77581" lon="0.68273">
        <ele>842</ele>
        <time>2025-06-11T01:00:28Z</time>
      </trkpt>
      <trkpt lat="42.77568" lon="0.68274">
        <ele>841</ele>
        <time>2025-06-11T01:00:39Z</time>
      </trkpt>
      <trkpt lat="42.77557" lon="0.68273">
        <ele>841</ele>
        <time>2025-06-11T01:00:47Z</time>
      </trkpt>
      <trkpt lat="42.77549" lon="0.68275">
        <ele>839</ele>
        <time>2025-06-11T01:00:54Z</time>
      </trkpt>
      <trkpt lat="42.77534" lon="0.6828">
        <ele>836</ele>
        <time>2025-06-11T01:01:06Z</time>
      </trkpt>
      <trkpt lat="42.77517" lon="0.68288">
        <ele>832</ele>
        <time>2025-06-11T01:01:21Z</time>
      </trkpt>
      <trkpt lat="42.775" lon="0.68293">
        <ele>829</ele>
        <time>2025-06-11T01:01:35Z</time>
      </trkpt>
      <trkpt lat="42.77464" lon="0.68295">
        <ele>829</ele>
        <time>2025-06-11T01:02:03Z</time>
      </trkpt>
      <trkpt lat="42.77445" lon="0.68293">
        <ele>831</ele>
        <time>2025-06-11T01:02:19Z</time>
      </trkpt>
      <trkpt lat="42.77421" lon="0.68293">
        <ele>831</ele>
        <time>2025-06-11T01:02:38Z</time>
      </trkpt>
      <trkpt lat="42.7741" lon="0.68299">
        <ele>829</ele>
        <time>2025-06-11T01:02:47Z</time>
      </trkpt>
      <trkpt lat="42.77388" lon="0.68326">
        <ele>818</ele>
        <time>2025-06-11T01:03:11Z</time>
      </trkpt>
      <trkpt lat="42.77383" lon="0.68331">
        <ele>816</ele>
        <time>2025-06-11T01:03:16Z</time>
      </trkpt>
      <trkpt lat="42.77377" lon="0.68335">
        <ele>814</ele>
        <time>2025-06-11T01:03:21Z</time>
      </trkpt>
      <trkpt lat="42.77332" lon="0.6835">
        <ele>809</ele>
        <time>2025-06-11T01:03:58Z</time>
      </trkpt>
      <trkpt lat="42.77323" lon="0.6835">
        <ele>808</ele>
        <time>2025-06-11T01:04:06Z</time>
      </trkpt>
      <trkpt lat="42.77315" lon="0.68348">
        <ele>809</ele>
        <time>2025-06-11T01:04:12Z</time>
      </trkpt>
      <trkpt lat="42.77265" lon="0.68324">
        <ele>812</ele>
        <time>2025-06-11T01:04:55Z</time>
      </trkpt>
      <trkpt lat="42.77235" lon="0.68312">
        <ele>817</ele>
        <time>2025-06-11T01:05:20Z</time>
      </trkpt>
      <trkpt lat="42.77216" lon="0.68309">
        <ele>819</ele>
        <time>2025-06-11T01:05:35Z</time>
      </trkpt>
      <trkpt lat="42.77205" lon="0.68309">
        <ele>820</ele>
        <time>2025-06-11T01:05:44Z</time>
      </trkpt>
      <trkpt lat="42.77195" lon="0.68312">
        <ele>820</ele>
        <time>2025-06-11T01:05:52Z</time>
      </trkpt>
      <trkpt lat="42.77177" lon="0.68321">
        <ele>819</ele>
        <time>2025-06-11T01:06:07Z</time>
      </trkpt>
      <trkpt lat="42.77167" lon="0.68328">
        <ele>818</ele>
        <time>2025-06-11T01:06:16Z</time>
      </trkpt>
      <trkpt lat="42.77163" lon="0.68333">
        <ele>816</ele>
        <time>2025-06-11T01:06:21Z</time>
      </trkpt>
      <trkpt lat="42.7716" lon="0.68339">
        <ele>815</ele>
        <time>2025-06-11T01:06:25Z</time>
      </trkpt>
      <trkpt lat="42.7716" lon="0.68347">
        <ele>813</ele>
        <time>2025-06-11T01:06:30Z</time>
      </trkpt>
      <trkpt lat="42.7716" lon="0.68354">
        <ele>811</ele>
        <time>2025-06-11T01:06:34Z</time>
      </trkpt>
      <trkpt lat="42.77163" lon="0.68359">
        <ele>809</ele>
        <time>2025-06-11T01:06:38Z</time>
      </trkpt>
      <trkpt lat="42.77167" lon="0.68364">
        <ele>808</ele>
        <time>2025-06-11T01:06:42Z</time>
      </trkpt>
      <trkpt lat="42.77173" lon="0.68365">
        <ele>807</ele>
        <time>2025-06-11T01:06:47Z</time>
      </trkpt>
      <trkpt lat="42.77177" lon="0.68365">
        <ele>807</ele>
        <time>2025-06-11T01:06:50Z</time>
      </trkpt>
      <trkpt lat="42.77193" lon="0.68357">
        <ele>807</ele>
        <time>2025-06-11T01:07:04Z</time>
      </trkpt>
      <trkpt lat="42.77203" lon="0.68353">
        <ele>807</ele>
        <time>2025-06-11T01:07:12Z</time>
      </trkpt>
      <trkpt lat="42.7721" lon="0.68351">
        <ele>807</ele>
        <time>2025-06-11T01:07:18Z</time>
      </trkpt>
      <trkpt lat="42.77219" lon="0.68352">
        <ele>805</ele>
        <time>2025-06-11T01:07:25Z</time>
      </trkpt>
      <trkpt lat="42.77241" lon="0.68362">
        <ele>800</ele>
        <time>2025-06-11T01:07:43Z</time>
      </trkpt>
      <trkpt lat="42.77254" lon="0.68364">
        <ele>799</ele>
        <time>2025-06-11T01:07:54Z</time>
      </trkpt>
      <trkpt lat="42.7727" lon="0.68366">
        <ele>799</ele>
        <time>2025-06-11T01:08:07Z</time>
      </trkpt>
      <trkpt lat="42.77279" lon="0.68366">
        <ele>800</ele>
        <time>2025-06-11T01:08:14Z</time>
      </trkpt>
      <trkpt lat="42.77292" lon="0.68369">
        <ele>799</ele>
        <time>2025-06-11T01:08:25Z</time>
      </trkpt>
      <trkpt lat="42.77337" lon="0.68389">
        <ele>791</ele>
        <time>2025-06-11T01:09:02Z</time>
      </trkpt>
      <trkpt lat="42.77348" lon="0.6839">
        <ele>790</ele>
        <time>2025-06-11T01:09:11Z</time>
      </trkpt>
      <trkpt lat="42.77393" lon="0.68387">
        <ele>788</ele>
        <time>2025-06-11T01:09:47Z</time>
      </trkpt>
      <trkpt lat="42.77406" lon="0.68387">
        <ele>787</ele>
        <time>2025-06-11T01:09:58Z</time>
      </trkpt>
      <trkpt lat="42.77419" lon="0.68388">
        <ele>786</ele>
        <time>2025-06-11T01:10:08Z</time>
      </trkpt>
      <trkpt lat="42.77455" lon="0.68394">
        <ele>782</ele>
        <time>2025-06-11T01:10:37Z</time>
      </trkpt>
      <trkpt lat="42.77467" lon="0.68394">
        <ele>782</ele>
        <time>2025-06-11T01:10:47Z</time>
      </trkpt>
      <trkpt lat="42.77497" lon="0.68388">
        <ele>784</ele>
        <time>2025-06-11T01:11:11Z</time>
      </trkpt>
      <trkpt lat="42.77507" lon="0.68388">
        <ele>784</ele>
        <time>2025-06-11T01:11:19Z</time>
      </trkpt>
      <trkpt lat="42.77531" lon="0.68393">
        <ele>782</ele>
        <time>2025-06-11T01:11:39Z</time>
      </trkpt>
      <trkpt lat="42.77568" lon="0.68403">
        <ele>778</ele>
        <time>2025-06-11T01:12:09Z</time>
      </trkpt>
      <trkpt lat="42.77599" lon="0.68408">
        <ele>779</ele>
        <time>2025-06-11T01:12:34Z</time>
      </trkpt>
      <trkpt lat="42.77609" lon="0.68411">
        <ele>780</ele>
        <time>2025-06-11T01:12:42Z</time>
      </trkpt>
      <trkpt lat="42.77634" lon="0.68424">
        <ele>778</ele>
        <time>2025-06-11T01:13:03Z</time>
      </trkpt>
      <trkpt lat="42.77703" lon="0.68473">
        <ele>767</ele>
        <time>2025-06-11T01:14:06Z</time>
      </trkpt>
      <trkpt lat="42.77716" lon="0.6848">
        <ele>766</ele>
        <time>2025-06-11T01:14:17Z</time>
      </trkpt>
      <trkpt lat="42.77728" lon="0.68485">
        <ele>765</ele>
        <time>2025-06-11T01:14:27Z</time>
      </trkpt>
      <trkpt lat="42.77781" lon="0.68493">
        <ele>771</ele>
        <time>2025-06-11T01:15:10Z</time>
      </trkpt>
      <trkpt lat="42.7779" lon="0.68497">
        <ele>771</ele>
        <time>2025-06-11T01:15:17Z</time>
      </trkpt>
      <trkpt lat="42.77801" lon="0.68505">
        <ele>770</ele>
        <time>2025-06-11T01:15:27Z</time>
      </trkpt>
      <trkpt lat="42.77814" lon="0.68515">
        <ele>769</ele>
        <time>2025-06-11T01:15:39Z</time>
      </trkpt>
      <trkpt lat="42.77862" lon="0.68559">
        <ele>759</ele>
        <time>2025-06-11T01:16:25Z</time>
      </trkpt>
      <trkpt lat="42.77871" lon="0.68568">
        <ele>757</ele>
        <time>2025-06-11T01:16:34Z</time>
      </trkpt>
      <trkpt lat="42.77874" lon="0.68574">
        <ele>754</ele>
        <time>2025-06-11T01:16:39Z</time>
      </trkpt>
      <trkpt lat="42.77877" lon="0.68581">
        <ele>752</ele>
        <time>2025-06-11T01:16:43Z</time>
      </trkpt>
      <trkpt lat="42.77881" lon="0.68595">
        <ele>750</ele>
        <time>2025-06-11T01:16:52Z</time>
      </trkpt>
      <trkpt lat="42.77887" lon="0.68647">
        <ele>744</ele>
        <time>2025-06-11T01:17:23Z</time>
      </trkpt>
      <trkpt lat="42.77888" lon="0.68663">
        <ele>741</ele>
        <time>2025-06-11T01:17:33Z</time>
      </trkpt>
      <trkpt lat="42.77891" lon="0.68741">
        <ele>736</ele>
        <time>2025-06-11T01:18:19Z</time>
      </trkpt>
      <trkpt lat="42.77893" lon="0.68759">
        <ele>735</ele>
        <time>2025-06-11T01:18:29Z</time>
      </trkpt>
      <trkpt lat="42.77896" lon="0.68777">
        <ele>735</ele>
        <time>2025-06-11T01:18:40Z</time>
      </trkpt>
      <trkpt lat="42.77907" lon="0.68812">
        <ele>735</ele>
        <time>2025-06-11T01:19:02Z</time>
      </trkpt>
      <trkpt lat="42.77913" lon="0.6883">
        <ele>735</ele>
        <time>2025-06-11T01:19:14Z</time>
      </trkpt>
      <trkpt lat="42.7792" lon="0.68844">
        <ele>734</ele>
        <time>2025-06-11T01:19:24Z</time>
      </trkpt>
      <trkpt lat="42.77929" lon="0.68857">
        <ele>733</ele>
        <time>2025-06-11T01:19:35Z</time>
      </trkpt>
      <trkpt lat="42.77952" lon="0.6888">
        <ele>731</ele>
        <time>2025-06-11T01:19:57Z</time>
      </trkpt>
      <trkpt lat="42.7797" lon="0.68896">
        <ele>730</ele>
        <time>2025-06-11T01:20:15Z</time>
      </trkpt>
      <trkpt lat="42.77984" lon="0.68905">
        <ele>729</ele>
        <time>2025-06-11T01:20:27Z</time>
      </trkpt>
      <trkpt lat="42.77996" lon="0.68911">
        <ele>728</ele>
        <time>2025-06-11T01:20:37Z</time>
      </trkpt>
      <trkpt lat="42.78031" lon="0.68918">
        <ele>726</ele>
        <time>2025-06-11T01:21:06Z</time>
      </trkpt>
      <trkpt lat="42.78042" lon="0.68921">
        <ele>726</ele>
        <time>2025-06-11T01:21:15Z</time>
      </trkpt>
      <trkpt lat="42.78051" lon="0.68924">
        <ele>725</ele>
        <time>2025-06-11T01:21:22Z</time>
      </trkpt>
      <trkpt lat="42.78061" lon="0.68931">
        <ele>725</ele>
        <time>2025-06-11T01:21:31Z</time>
      </trkpt>
      <trkpt lat="42.78071" lon="0.68943">
        <ele>724</ele>
        <time>2025-06-11T01:21:42Z</time>
      </trkpt>
      <trkpt lat="42.78075" lon="0.68952">
        <ele>723</ele>
        <time>2025-06-11T01:21:48Z</time>
      </trkpt>
      <trkpt lat="42.78077" lon="0.68962">
        <ele>722</ele>
        <time>2025-06-11T01:21:54Z</time>
      </trkpt>
      <trkpt lat="42.78078" lon="0.68971">
        <ele>722</ele>
        <time>2025-06-11T01:21:59Z</time>
      </trkpt>
      <trkpt lat="42.78075" lon="0.68992">
        <ele>721</ele>
        <time>2025-06-11T01:22:12Z</time>
      </trkpt>
      <trkpt lat="42.78073" lon="0.69001">
        <ele>720</ele>
        <time>2025-06-11T01:22:17Z</time>
      </trkpt>
      <trkpt lat="42.7807" lon="0.69005">
        <ele>720</ele>
        <time>2025-06-11T01:22:21Z</time>
      </trkpt>
      <trkpt lat="42.78068" lon="0.69009">
        <ele>720</ele>
        <time>2025-06-11T01:22:24Z</time>
      </trkpt>
      <trkpt lat="42.78066" lon="0.69015">
        <ele>720</ele>
        <time>2025-06-11T01:22:27Z</time>
      </trkpt>
      <trkpt lat="42.78066" lon="0.6902">
        <ele>719</ele>
        <time>2025-06-11T01:22:30Z</time>
      </trkpt>
      <trkpt lat="42.78068" lon="0.69025">
        <ele>719</ele>
        <time>2025-06-11T01:22:34Z</time>
      </trkpt>
      <trkpt lat="42.7807" lon="0.6903">
        <ele>719</ele>
        <time>2025-06-11T01:22:37Z</time>
      </trkpt>
      <trkpt lat="42.78073" lon="0.69034">
        <ele>718</ele>
        <time>2025-06-11T01:22:40Z</time>
      </trkpt>
      <trkpt lat="42.78077" lon="0.69037">
        <ele>718</ele>
        <time>2025-06-11T01:22:44Z</time>
      </trkpt>
      <trkpt lat="42.78082" lon="0.69037">
        <ele>718</ele>
        <time>2025-06-11T01:22:48Z</time>
      </trkpt>
      <trkpt lat="42.78088" lon="0.69035">
        <ele>718</ele>
        <time>2025-06-11T01:22:53Z</time>
      </trkpt>
      <trkpt lat="42.7811" lon="0.69038">
        <ele>718</ele>
        <time>2025-06-11T01:23:11Z</time>
      </trkpt>
      <trkpt lat="42.78117" lon="0.69039">
        <ele>718</ele>
        <time>2025-06-11T01:23:16Z</time>
      </trkpt>
      <trkpt lat="42.78125" lon="0.69043">
        <ele>718</ele>
        <time>2025-06-11T01:23:23Z</time>
      </trkpt>
      <trkpt lat="42.78136" lon="0.69047">
        <ele>717</ele>
        <time>2025-06-11T01:23:32Z</time>
      </trkpt>
      <trkpt lat="42.7814" lon="0.69051">
        <ele>717</ele>
        <time>2025-06-11T01:23:36Z</time>
      </trkpt>
      <trkpt lat="42.78158" lon="0.69064">
        <ele>716</ele>
        <time>2025-06-11T01:23:53Z</time>
      </trkpt>
      <trkpt lat="42.78168" lon="0.69069">
        <ele>715</ele>
        <time>2025-06-11T01:24:01Z</time>
      </trkpt>
      <trkpt lat="42.78182" lon="0.6908">
        <ele>715</ele>
        <time>2025-06-11T01:24:14Z</time>
      </trkpt>
      <trkpt lat="42.78233" lon="0.6912">
        <ele>714</ele>
        <time>2025-06-11T01:25:01Z</time>
      </trkpt>
      <trkpt lat="42.78301" lon="0.6917">
        <ele>713</ele>
        <time>2025-06-11T01:26:03Z</time>
      </trkpt>
      <trkpt lat="42.78363" lon="0.69219">
        <ele>711</ele>
        <time>2025-06-11T01:27:00Z</time>
      </trkpt>
      <trkpt lat="42.78388" lon="0.69235">
        <ele>711</ele>
        <time>2025-06-11T01:27:23Z</time>
      </trkpt>
      <trkpt lat="42.78399" lon="0.6924">
        <ele>711</ele>
        <time>2025-06-11T01:27:32Z</time>
      </trkpt>
      <trkpt lat="42.78457" lon="0.69258">
        <ele>711</ele>
        <time>2025-06-11T01:28:19Z</time>
      </trkpt>
      <trkpt lat="42.78507" lon="0.69273">
        <ele>711</ele>
        <time>2025-06-11T01:29:00Z</time>
      </trkpt>
      <trkpt lat="42.78516" lon="0.69276">
        <ele>711</ele>
        <time>2025-06-11T01:29:08Z</time>
      </trkpt>
      <trkpt lat="42.7852" lon="0.69277">
        <ele>711</ele>
        <time>2025-06-11T01:29:11Z</time>
      </trkpt>
      <trkpt lat="42.78531" lon="0.69281">
        <ele>711</ele>
        <time>2025-06-11T01:29:20Z</time>
      </trkpt>
      <trkpt lat="42.78539" lon="0.69285">
        <ele>711</ele>
        <time>2025-06-11T01:29:27Z</time>
      </trkpt>
      <trkpt lat="42.78551" lon="0.69291">
        <ele>711</ele>
        <time>2025-06-11T01:29:37Z</time>
      </trkpt>
      <trkpt lat="42.78587" lon="0.69309">
        <ele>711</ele>
        <time>2025-06-11T01:30:08Z</time>
      </trkpt>
      <trkpt lat="42.78637" lon="0.69334">
        <ele>709</ele>
        <time>2025-06-11T01:30:51Z</time>
      </trkpt>
      <trkpt lat="42.78651" lon="0.69341">
        <ele>709</ele>
        <time>2025-06-11T01:31:03Z</time>
      </trkpt>
      <trkpt lat="42.78664" lon="0.69348">
        <ele>709</ele>
        <time>2025-06-11T01:31:14Z</time>
      </trkpt>
      <trkpt lat="42.78716" lon="0.69378">
        <ele>710</ele>
        <time>2025-06-11T01:31:59Z</time>
      </trkpt>
      <trkpt lat="42.78721" lon="0.69382">
        <ele>710</ele>
        <time>2025-06-11T01:32:04Z</time>
      </trkpt>
      <trkpt lat="42.7877" lon="0.69423">
        <ele>709</ele>
        <time>2025-06-11T01:32:50Z</time>
      </trkpt>
      <trkpt lat="42.788" lon="0.69447">
        <ele>709</ele>
        <time>2025-06-11T01:33:18Z</time>
      </trkpt>
      <trkpt lat="42.7881" lon="0.69454">
        <ele>709</ele>
        <time>2025-06-11T01:33:27Z</time>
      </trkpt>
      <trkpt lat="42.78822" lon="0.69465">
        <ele>708</ele>
        <time>2025-06-11T01:33:38Z</time>
      </trkpt>
      <trkpt lat="42.78839" lon="0.69483">
        <ele>708</ele>
        <time>2025-06-11T01:33:55Z</time>
      </trkpt>
      <trkpt lat="42.78852" lon="0.69501">
        <ele>710</ele>
        <time>2025-06-11T01:34:10Z</time>
      </trkpt>
      <trkpt lat="42.78858" lon="0.69509">
        <ele>712</ele>
        <time>2025-06-11T01:34:17Z</time>
      </trkpt>
      <trkpt lat="42.78872" lon="0.6953">
        <ele>714</ele>
        <time>2025-06-11T01:34:34Z</time>
      </trkpt>
      <trkpt lat="42.78884" lon="0.69554">
        <ele>714</ele>
        <time>2025-06-11T01:34:51Z</time>
      </trkpt>
      <trkpt lat="42.78906" lon="0.69605">
        <ele>712</ele>
        <time>2025-06-11T01:35:25Z</time>
      </trkpt>
      <trkpt lat="42.78917" lon="0.69626">
        <ele>709</ele>
        <time>2025-06-11T01:35:41Z</time>
      </trkpt>
      <trkpt lat="42.78929" lon="0.69646">
        <ele>709</ele>
        <time>2025-06-11T01:35:56Z</time>
      </trkpt>
      <trkpt lat="42.78941" lon="0.69659">
        <ele>709</ele>
        <time>2025-06-11T01:36:08Z</time>
      </trkpt>
      <trkpt lat="42.78959" lon="0.69675">
        <ele>709</ele>
        <time>2025-06-11T01:36:25Z</time>
      </trkpt>
      <trkpt lat="42.78975" lon="0.69686">
        <ele>709</ele>
        <time>2025-06-11T01:36:40Z</time>
      </trkpt>
      <trkpt lat="42.78989" lon="0.69693">
        <ele>709</ele>
        <time>2025-06-11T01:36:51Z</time>
      </trkpt>
      <trkpt lat="42.79" lon="0.69697">
        <ele>709</ele>
        <time>2025-06-11T01:37:01Z</time>
      </trkpt>
      <trkpt lat="42.79022" lon="0.69704">
        <ele>711</ele>
        <time>2025-06-11T01:37:19Z</time>
      </trkpt>
      <trkpt lat="42.79043" lon="0.69711">
        <ele>713</ele>
        <time>2025-06-11T01:37:36Z</time>
      </trkpt>
      <trkpt lat="42.79058" lon="0.69718">
        <ele>713</ele>
        <time>2025-06-11T01:37:49Z</time>
      </trkpt>
      <trkpt lat="42.79073" lon="0.69728">
        <ele>712</ele>
        <time>2025-06-11T01:38:02Z</time>
      </trkpt>
      <trkpt lat="42.79091" lon="0.69741">
        <ele>710</ele>
        <time>2025-06-11T01:38:18Z</time>
      </trkpt>
      <trkpt lat="42.79133" lon="0.69779">
        <ele>708</ele>
        <time>2025-06-11T01:38:59Z</time>
      </trkpt>
      <trkpt lat="42.79151" lon="0.69792">
        <ele>707</ele>
        <time>2025-06-11T01:39:15Z</time>
      </trkpt>
      <trkpt lat="42.79169" lon="0.698">
        <ele>705</ele>
        <time>2025-06-11T01:39:30Z</time>
      </trkpt>
      <trkpt lat="42.79185" lon="0.69805">
        <ele>704</ele>
        <time>2025-06-11T01:39:43Z</time>
      </trkpt>
      <trkpt lat="42.79207" lon="0.69807">
        <ele>703</ele>
        <time>2025-06-11T01:40:01Z</time>
      </trkpt>
      <trkpt lat="42.79228" lon="0.69808">
        <ele>702</ele>
        <time>2025-06-11T01:40:18Z</time>
      </trkpt>
      <trkpt lat="42.79286" lon="0.69805">
        <ele>700</ele>
        <time>2025-06-11T01:41:04Z</time>
      </trkpt>
      <trkpt lat="42.79302" lon="0.69804">
        <ele>700</ele>
        <time>2025-06-11T01:41:17Z</time>
      </trkpt>
      <trkpt lat="42.79374" lon="0.698">
        <ele>694</ele>
        <time>2025-06-11T01:42:15Z</time>
      </trkpt>
      <trkpt lat="42.79414" lon="0.69798">
        <ele>690</ele>
        <time>2025-06-11T01:42:47Z</time>
      </trkpt>
      <trkpt lat="42.79439" lon="0.698">
        <ele>688</ele>
        <time>2025-06-11T01:43:07Z</time>
      </trkpt>
      <trkpt lat="42.79459" lon="0.69808">
        <ele>685</ele>
        <time>2025-06-11T01:43:24Z</time>
      </trkpt>
      <trkpt lat="42.79472" lon="0.69814">
        <ele>684</ele>
        <time>2025-06-11T01:43:35Z</time>
      </trkpt>
      <trkpt lat="42.79479" lon="0.69818">
        <ele>683</ele>
        <time>2025-06-11T01:43:41Z</time>
      </trkpt>
      <trkpt lat="42.79486" lon="0.69824">
        <ele>682</ele>
        <time>2025-06-11T01:43:47Z</time>
      </trkpt>
      <trkpt lat="42.79531" lon="0.69867">
        <ele>679</ele>
        <time>2025-06-11T01:44:31Z</time>
      </trkpt>
      <trkpt lat="42.79615" lon="0.69951">
        <ele>675</ele>
        <time>2025-06-11T01:45:55Z</time>
      </trkpt>
      <trkpt lat="42.79623" lon="0.69959">
        <ele>674</ele>
        <time>2025-06-11T01:46:03Z</time>
      </trkpt>
      <trkpt lat="42.79647" lon="0.69979">
        <ele>672</ele>
        <time>2025-06-11T01:46:25Z</time>
      </trkpt>
      <trkpt lat="42.79689" lon="0.70009">
        <ele>672</ele>
        <time>2025-06-11T01:47:03Z</time>
      </trkpt>
      <trkpt lat="42.79967" lon="0.70195">
        <ele>670</ele>
        <time>2025-06-11T01:51:11Z</time>
      </trkpt>
      <trkpt lat="42.80018" lon="0.70236">
        <ele>666</ele>
        <time>2025-06-11T01:51:59Z</time>
      </trkpt>
      <trkpt lat="42.80023" lon="0.70242">
        <ele>666</ele>
        <time>2025-06-11T01:52:04Z</time>
      </trkpt>
      <trkpt lat="42.8007" lon="0.70279">
        <ele>663</ele>
        <time>2025-06-11T01:52:47Z</time>
      </trkpt>
      <trkpt lat="42.8008" lon="0.70286">
        <ele>662</ele>
        <time>2025-06-11T01:52:56Z</time>
      </trkpt>
      <trkpt lat="42.80109" lon="0.70301">
        <ele>662</ele>
        <time>2025-06-11T01:53:21Z</time>
      </trkpt>
      <trkpt lat="42.80138" lon="0.70311">
        <ele>661</ele>
        <time>2025-06-11T01:53:45Z</time>
      </trkpt>
      <trkpt lat="42.80209" lon="0.70324">
        <ele>659</ele>
        <time>2025-06-11T01:54:42Z</time>
      </trkpt>
      <trkpt lat="42.80286" lon="0.70339">
        <ele>658</ele>
        <time>2025-06-11T01:55:45Z</time>
      </trkpt>
      <trkpt lat="42.80328" lon="0.70349">
        <ele>659</ele>
        <time>2025-06-11T01:56:19Z</time>
      </trkpt>
      <trkpt lat="42.80344" lon="0.70354">
        <ele>658</ele>
        <time>2025-06-11T01:56:32Z</time>
      </trkpt>
      <trkpt lat="42.80368" lon="0.70363">
        <ele>657</ele>
        <time>2025-06-11T01:56:52Z</time>
      </trkpt>
      <trkpt lat="42.80381" lon="0.7037">
        <ele>657</ele>
        <time>2025-06-11T01:57:03Z</time>
      </trkpt>
      <trkpt lat="42.80403" lon="0.70385">
        <ele>655</ele>
        <time>2025-06-11T01:57:23Z</time>
      </trkpt>
      <trkpt lat="42.80438" lon="0.70414">
        <ele>652</ele>
        <time>2025-06-11T01:57:56Z</time>
      </trkpt>
      <trkpt lat="42.80442" lon="0.70417">
        <ele>652</ele>
        <time>2025-06-11T01:57:59Z</time>
      </trkpt>
      <trkpt lat="42.80455" lon="0.70429">
        <ele>652</ele>
        <time>2025-06-11T01:58:12Z</time>
      </trkpt>
      <trkpt lat="42.80614" lon="0.70559">
        <ele>645</ele>
        <time>2025-06-11T02:00:40Z</time>
      </trkpt>
      <trkpt lat="42.80641" lon="0.70589">
        <ele>645</ele>
        <time>2025-06-11T02:01:08Z</time>
      </trkpt>
      <trkpt lat="42.80643" lon="0.70595">
        <ele>645</ele>
        <time>2025-06-11T02:01:12Z</time>
      </trkpt>
      <trkpt lat="42.80646" lon="0.706">
        <ele>645</ele>
        <time>2025-06-11T02:01:16Z</time>
      </trkpt>
      <trkpt lat="42.80649" lon="0.70602">
        <ele>645</ele>
        <time>2025-06-11T02:01:19Z</time>
      </trkpt>
      <trkpt lat="42.80654" lon="0.70603">
        <ele>645</ele>
        <time>2025-06-11T02:01:23Z</time>
      </trkpt>
      <trkpt lat="42.80657" lon="0.70602">
        <ele>645</ele>
        <time>2025-06-11T02:01:25Z</time>
      </trkpt>
      <trkpt lat="42.8066" lon="0.706">
        <ele>645</ele>
        <time>2025-06-11T02:01:28Z</time>
      </trkpt>
      <trkpt lat="42.80689" lon="0.70611">
        <ele>645</ele>
        <time>2025-06-11T02:01:52Z</time>
      </trkpt>
      <trkpt lat="42.80699" lon="0.70618">
        <ele>645</ele>
        <time>2025-06-11T02:02:01Z</time>
      </trkpt>
      <trkpt lat="42.80714" lon="0.70627">
        <ele>645</ele>
        <time>2025-06-11T02:02:14Z</time>
      </trkpt>
      <trkpt lat="42.80784" lon="0.70668">
        <ele>645</ele>
        <time>2025-06-11T02:03:15Z</time>
      </trkpt>
      <trkpt lat="42.80801" lon="0.70679">
        <ele>645</ele>
        <time>2025-06-11T02:03:30Z</time>
      </trkpt>
      <trkpt lat="42.8082" lon="0.70692">
        <ele>644</ele>
        <time>2025-06-11T02:03:47Z</time>
      </trkpt>
      <trkpt lat="42.80839" lon="0.70707">
        <ele>644</ele>
        <time>2025-06-11T02:04:05Z</time>
      </trkpt>
      <trkpt lat="42.80855" lon="0.70724">
        <ele>645</ele>
        <time>2025-06-11T02:04:21Z</time>
      </trkpt>
      <trkpt lat="42.80866" lon="0.70738">
        <ele>645</ele>
        <time>2025-06-11T02:04:33Z</time>
      </trkpt>
      <trkpt lat="42.80878" lon="0.70758">
        <ele>645</ele>
        <time>2025-06-11T02:04:48Z</time>
      </trkpt>
      <trkpt lat="42.8089" lon="0.70781">
        <ele>645</ele>
        <time>2025-06-11T02:05:05Z</time>
      </trkpt>
      <trkpt lat="42.8093" lon="0.70866">
        <ele>644</ele>
        <time>2025-06-11T02:06:04Z</time>
      </trkpt>
      <trkpt lat="42.80946" lon="0.70893">
        <ele>644</ele>
        <time>2025-06-11T02:06:24Z</time>
      </trkpt>
      <trkpt lat="42.80969" lon="0.70927">
        <ele>644</ele>
        <time>2025-06-11T02:06:52Z</time>
      </trkpt>
      <trkpt lat="42.80982" lon="0.70942">
        <ele>644</ele>
        <time>2025-06-11T02:07:05Z</time>
      </trkpt>
      <trkpt lat="42.80989" lon="0.7095">
        <ele>644</ele>
        <time>2025-06-11T02:07:13Z</time>
      </trkpt>
      <trkpt lat="42.81015" lon="0.70972">
        <ele>644</ele>
        <time>2025-06-11T02:07:37Z</time>
      </trkpt>
      <trkpt lat="42.81026" lon="0.70981">
        <ele>644</ele>
        <time>2025-06-11T02:07:47Z</time>
      </trkpt>
      <trkpt lat="42.81031" lon="0.70983">
        <ele>644</ele>
        <time>2025-06-11T02:07:51Z</time>
      </trkpt>
      <trkpt lat="42.81058" lon="0.70989">
        <ele>644</ele>
        <time>2025-06-11T02:08:13Z</time>
      </trkpt>
      <trkpt lat="42.81124" lon="0.70991">
        <ele>643</ele>
        <time>2025-06-11T02:09:06Z</time>
      </trkpt>
      <trkpt lat="42.8115" lon="0.70992">
        <ele>642</ele>
        <time>2025-06-11T02:09:27Z</time>
      </trkpt>
      <trkpt lat="42.81215" lon="0.70996">
        <ele>640</ele>
        <time>2025-06-11T02:10:19Z</time>
      </trkpt>
      <trkpt lat="42.81262" lon="0.70998">
        <ele>639</ele>
        <time>2025-06-11T02:10:57Z</time>
      </trkpt>
      <trkpt lat="42.81336" lon="0.71003">
        <ele>637</ele>
        <time>2025-06-11T02:11:56Z</time>
      </trkpt>
      <trkpt lat="42.81395" lon="0.71006">
        <ele>635</ele>
        <time>2025-06-11T02:12:43Z</time>
      </trkpt>
      <trkpt lat="42.81441" lon="0.71008">
        <ele>634</ele>
        <time>2025-06-11T02:13:20Z</time>
      </trkpt>
      <trkpt lat="42.81512" lon="0.7101">
        <ele>633</ele>
        <time>2025-06-11T02:14:17Z</time>
      </trkpt>
      <trkpt lat="42.81545" lon="0.71012">
        <ele>634</ele>
        <time>2025-06-11T02:14:44Z</time>
      </trkpt>
      <trkpt lat="42.81566" lon="0.71016">
        <ele>634</ele>
        <time>2025-06-11T02:15:01Z</time>
      </trkpt>
      <trkpt lat="42.81577" lon="0.7102">
        <ele>634</ele>
        <time>2025-06-11T02:15:10Z</time>
      </trkpt>
      <trkpt lat="42.81587" lon="0.71026">
        <ele>634</ele>
        <time>2025-06-11T02:15:18Z</time>
      </trkpt>
      <trkpt lat="42.816" lon="0.71034">
        <ele>634</ele>
        <time>2025-06-11T02:15:30Z</time>
      </trkpt>
      <trkpt lat="42.81612" lon="0.71045">
        <ele>634</ele>
        <time>2025-06-11T02:15:41Z</time>
      </trkpt>
      <trkpt lat="42.8162" lon="0.71055">
        <ele>634</ele>
        <time>2025-06-11T02:15:50Z</time>
      </trkpt>
      <trkpt lat="42.81623" lon="0.71064">
        <ele>633</ele>
        <time>2025-06-11T02:15:56Z</time>
      </trkpt>
      <trkpt lat="42.81628" lon="0.71075">
        <ele>632</ele>
        <time>2025-06-11T02:16:04Z</time>
      </trkpt>
      <trkpt lat="42.81636" lon="0.71095">
        <ele>631</ele>
        <time>2025-06-11T02:16:17Z</time>
      </trkpt>
      <trkpt lat="42.81636" lon="0.71101">
        <ele>631</ele>
        <time>2025-06-11T02:16:20Z</time>
      </trkpt>
      <trkpt lat="42.81637" lon="0.71104">
        <ele>631</ele>
        <time>2025-06-11T02:16:22Z</time>
      </trkpt>
      <trkpt lat="42.8164" lon="0.7111">
        <ele>631</ele>
        <time>2025-06-11T02:16:27Z</time>
      </trkpt>
      <trkpt lat="42.81644" lon="0.71112">
        <ele>631</ele>
        <time>2025-06-11T02:16:30Z</time>
      </trkpt>
      <trkpt lat="42.81648" lon="0.71112">
        <ele>631</ele>
        <time>2025-06-11T02:16:33Z</time>
      </trkpt>
      <trkpt lat="42.81654" lon="0.71112">
        <ele>631</ele>
        <time>2025-06-11T02:16:38Z</time>
      </trkpt>
      <trkpt lat="42.81671" lon="0.71118">
        <ele>631</ele>
        <time>2025-06-11T02:16:52Z</time>
      </trkpt>
      <trkpt lat="42.81677" lon="0.7112">
        <ele>631</ele>
        <time>2025-06-11T02:16:57Z</time>
      </trkpt>
      <trkpt lat="42.81686" lon="0.71119">
        <ele>631</ele>
        <time>2025-06-11T02:17:04Z</time>
      </trkpt>
      <trkpt lat="42.81741" lon="0.71145">
        <ele>630</ele>
        <time>2025-06-11T02:17:51Z</time>
      </trkpt>
      <trkpt lat="42.81792" lon="0.71173">
        <ele>629</ele>
        <time>2025-06-11T02:18:35Z</time>
      </trkpt>
      <trkpt lat="42.81814" lon="0.71186">
        <ele>629</ele>
        <time>2025-06-11T02:18:54Z</time>
      </trkpt>
      <trkpt lat="42.81821" lon="0.71193">
        <ele>629</ele>
        <time>2025-06-11T02:19:01Z</time>
      </trkpt>
      <trkpt lat="42.8183" lon="0.71198">
        <ele>629</ele>
        <time>2025-06-11T02:19:09Z</time>
      </trkpt>
      <trkpt lat="42.8188" lon="0.71228">
        <ele>629</ele>
        <time>2025-06-11T02:19:53Z</time>
      </trkpt>
      <trkpt lat="42.81892" lon="0.71235">
        <ele>629</ele>
        <time>2025-06-11T02:20:03Z</time>
      </trkpt>
      <trkpt lat="42.81988" lon="0.71296">
        <ele>634</ele>
        <time>2025-06-11T02:21:28Z</time>
      </trkpt>
      <trkpt lat="42.8201" lon="0.71315">
        <ele>635</ele>
        <time>2025-06-11T02:21:49Z</time>
      </trkpt>
      <trkpt lat="42.82034" lon="0.71341">
        <ele>637</ele>
        <time>2025-06-11T02:22:13Z</time>
      </trkpt>
      <trkpt lat="42.82047" lon="0.71356">
        <ele>639</ele>
        <time>2025-06-11T02:22:27Z</time>
      </trkpt>
      <trkpt lat="42.82054" lon="0.71368">
        <ele>639</ele>
        <time>2025-06-11T02:22:36Z</time>
      </trkpt>
      <trkpt lat="42.82065" lon="0.71388">
        <ele>638</ele>
        <time>2025-06-11T02:22:51Z</time>
      </trkpt>
      <trkpt lat="42.82086" lon="0.71428">
        <ele>635</ele>
        <time>2025-06-11T02:23:19Z</time>
      </trkpt>
      <trkpt lat="42.82111" lon="0.71483">
        <ele>635</ele>
        <time>2025-06-11T02:23:57Z</time>
      </trkpt>
      <trkpt lat="42.82149" lon="0.71557">
        <ele>635</ele>
        <time>2025-06-11T02:24:50Z</time>
      </trkpt>
      <trkpt lat="42.82169" lon="0.71597">
        <ele>633</ele>
        <time>2025-06-11T02:25:19Z</time>
      </trkpt>
      <trkpt lat="42.82176" lon="0.71607">
        <ele>635</ele>
        <time>2025-06-11T02:25:27Z</time>
      </trkpt>
      <trkpt lat="42.82203" lon="0.71664">
        <ele>639</ele>
        <time>2025-06-11T02:26:07Z</time>
      </trkpt>
      <trkpt lat="42.82224" lon="0.71724">
        <ele>640</ele>
        <time>2025-06-11T02:26:46Z</time>
      </trkpt>
      <trkpt lat="42.82239" lon="0.71774">
        <ele>637</ele>
        <time>2025-06-11T02:27:18Z</time>
      </trkpt>
      <trkpt lat="42.8225" lon="0.71824">
        <ele>631</ele>
        <time>2025-06-11T02:27:48Z</time>
      </trkpt>
      <trkpt lat="42.82275" lon="0.71918">
        <ele>631</ele>
        <time>2025-06-11T02:28:47Z</time>
      </trkpt>
      <trkpt lat="42.82291" lon="0.71963">
        <ele>632</ele>
        <time>2025-06-11T02:29:16Z</time>
      </trkpt>
      <trkpt lat="42.82301" lon="0.71984">
        <ele>632</ele>
        <time>2025-06-11T02:29:31Z</time>
      </trkpt>
      <trkpt lat="42.82313" lon="0.72007">
        <ele>631</ele>
        <time>2025-06-11T02:29:48Z</time>
      </trkpt>
      <trkpt lat="42.82329" lon="0.72031">
        <ele>630</ele>
        <time>2025-06-11T02:30:07Z</time>
      </trkpt>
      <trkpt lat="42.82347" lon="0.72054">
        <ele>631</ele>
        <time>2025-06-11T02:30:26Z</time>
      </trkpt>
      <trkpt lat="42.82401" lon="0.72117">
        <ele>633</ele>
        <time>2025-06-11T02:31:23Z</time>
      </trkpt>
      <trkpt lat="42.82419" lon="0.72139">
        <ele>633</ele>
        <time>2025-06-11T02:31:43Z</time>
      </trkpt>
      <trkpt lat="42.82437" lon="0.72168">
        <ele>635</ele>
        <time>2025-06-11T02:32:05Z</time>
      </trkpt>
      <trkpt lat="42.82444" lon="0.7218">
        <ele>637</ele>
        <time>2025-06-11T02:32:14Z</time>
      </trkpt>
      <trkpt lat="42.82451" lon="0.72195">
        <ele>637</ele>
        <time>2025-06-11T02:32:24Z</time>
      </trkpt>
      <trkpt lat="42.82458" lon="0.72214">
        <ele>637</ele>
        <time>2025-06-11T02:32:37Z</time>
      </trkpt>
      <trkpt lat="42.82464" lon="0.72236">
        <ele>635</ele>
        <time>2025-06-11T02:32:51Z</time>
      </trkpt>
      <trkpt lat="42.82469" lon="0.72259">
        <ele>634</ele>
        <time>2025-06-11T02:33:05Z</time>
      </trkpt>
      <trkpt lat="42.82473" lon="0.72284">
        <ele>633</ele>
        <time>2025-06-11T02:33:20Z</time>
      </trkpt>
      <trkpt lat="42.82477" lon="0.72311">
        <ele>633</ele>
        <time>2025-06-11T02:33:36Z</time>
      </trkpt>
      <trkpt lat="42.82476" lon="0.72325">
        <ele>632</ele>
        <time>2025-06-11T02:33:44Z</time>
      </trkpt>
      <trkpt lat="42.82477" lon="0.72336">
        <ele>631</ele>
        <time>2025-06-11T02:33:51Z</time>
      </trkpt>
      <trkpt lat="42.82483" lon="0.72379">
        <ele>630</ele>
        <time>2025-06-11T02:34:17Z</time>
      </trkpt>
      <trkpt lat="42.82486" lon="0.72398">
        <ele>629</ele>
        <time>2025-06-11T02:34:28Z</time>
      </trkpt>
      <trkpt lat="42.82493" lon="0.72417">
        <ele>628</ele>
        <time>2025-06-11T02:34:40Z</time>
      </trkpt>
      <trkpt lat="42.82504" lon="0.72441">
        <ele>628</ele>
        <time>2025-06-11T02:34:57Z</time>
      </trkpt>
      <trkpt lat="42.82516" lon="0.72461">
        <ele>628</ele>
        <time>2025-06-11T02:35:12Z</time>
      </trkpt>
      <trkpt lat="42.82527" lon="0.72476">
        <ele>628</ele>
        <time>2025-06-11T02:35:25Z</time>
      </trkpt>
      <trkpt lat="42.82544" lon="0.72494">
        <ele>628</ele>
        <time>2025-06-11T02:35:42Z</time>
      </trkpt>
      <trkpt lat="42.82556" lon="0.72502">
        <ele>628</ele>
        <time>2025-06-11T02:35:53Z</time>
      </trkpt>
      <trkpt lat="42.82573" lon="0.72512">
        <ele>629</ele>
        <time>2025-06-11T02:36:07Z</time>
      </trkpt>
      <trkpt lat="42.82613" lon="0.72526">
        <ele>629</ele>
        <time>2025-06-11T02:36:40Z</time>
      </trkpt>
      <trkpt lat="42.8264" lon="0.72537">
        <ele>628</ele>
        <time>2025-06-11T02:37:03Z</time>
      </trkpt>
      <trkpt lat="42.82669" lon="0.72546">
        <ele>626</ele>
        <time>2025-06-11T02:37:27Z</time>
      </trkpt>
      <trkpt lat="42.82688" lon="0.72554">
        <ele>627</ele>
        <time>2025-06-11T02:37:43Z</time>
      </trkpt>
      <trkpt lat="42.82703" lon="0.72559">
        <ele>628</ele>
        <time>2025-06-11T02:37:55Z</time>
      </trkpt>
      <trkpt lat="42.82712" lon="0.72565">
        <ele>628</ele>
        <time>2025-06-11T02:38:03Z</time>
      </trkpt>
      <trkpt lat="42.8273" lon="0.72583">
        <ele>625</ele>
        <time>2025-06-11T02:38:21Z</time>
      </trkpt>
      <trkpt lat="42.82742" lon="0.726">
        <ele>625</ele>
        <time>2025-06-11T02:38:35Z</time>
      </trkpt>
      <trkpt lat="42.82763" lon="0.72631">
        <ele>625</ele>
        <time>2025-06-11T02:39:00Z</time>
      </trkpt>
      <trkpt lat="42.82782" lon="0.72663">
        <ele>623</ele>
        <time>2025-06-11T02:39:24Z</time>
      </trkpt>
      <trkpt lat="42.82803" lon="0.72695">
        <ele>623</ele>
        <time>2025-06-11T02:39:49Z</time>
      </trkpt>
      <trkpt lat="42.82812" lon="0.72706">
        <ele>622</ele>
        <time>2025-06-11T02:39:59Z</time>
      </trkpt>
      <trkpt lat="42.82834" lon="0.72728">
        <ele>618</ele>
        <time>2025-06-11T02:40:21Z</time>
      </trkpt>
      <trkpt lat="42.82852" lon="0.72742">
        <ele>616</ele>
        <time>2025-06-11T02:40:37Z</time>
      </trkpt>
      <trkpt lat="42.82871" lon="0.72753">
        <ele>615</ele>
        <time>2025-06-11T02:40:54Z</time>
      </trkpt>
      <trkpt lat="42.82892" lon="0.72762">
        <ele>616</ele>
        <time>2025-06-11T02:41:11Z</time>
      </trkpt>
      <trkpt lat="42.82923" lon="0.72774">
        <ele>617</ele>
        <time>2025-06-11T02:41:37Z</time>
      </trkpt>
      <trkpt lat="42.82961" lon="0.72788">
        <ele>618</ele>
        <time>2025-06-11T02:42:09Z</time>
      </trkpt>
      <trkpt lat="42.82985" lon="0.72797">
        <ele>618</ele>
        <time>2025-06-11T02:42:29Z</time>
      </trkpt>
      <trkpt lat="42.82993" lon="0.72801">
        <ele>617</ele>
        <time>2025-06-11T02:42:35Z</time>
      </trkpt>
      <trkpt lat="42.83012" lon="0.7281">
        <ele>618</ele>
        <time>2025-06-11T02:42:52Z</time>
      </trkpt>
      <trkpt lat="42.83027" lon="0.7282">
        <ele>618</ele>
        <time>2025-06-11T02:43:05Z</time>
      </trkpt>
      <trkpt lat="42.8304" lon="0.72832">
        <ele>617</ele>
        <time>2025-06-11T02:43:17Z</time>
      </trkpt>
      <trkpt lat="42.83071" lon="0.72868">
        <ele>617</ele>
        <time>2025-06-11T02:43:50Z</time>
      </trkpt>
      <trkpt lat="42.83108" lon="0.72915">
        <ele>615</ele>
        <time>2025-06-11T02:44:31Z</time>
      </trkpt>
      <trkpt lat="42.83122" lon="0.72928">
        <ele>617</ele>
        <time>2025-06-11T02:44:44Z</time>
      </trkpt>
      <trkpt lat="42.83136" lon="0.72939">
        <ele>618</ele>
        <time>2025-06-11T02:44:57Z</time>
      </trkpt>
      <trkpt lat="42.83151" lon="0.72947">
        <ele>617</ele>
        <time>2025-06-11T02:45:10Z</time>
      </trkpt>
      <trkpt lat="42.83163" lon="0.72951">
        <ele>616</ele>
        <time>2025-06-11T02:45:20Z</time>
      </trkpt>
      <trkpt lat="42.83179" lon="0.72954">
        <ele>616</ele>
        <time>2025-06-11T02:45:33Z</time>
      </trkpt>
      <trkpt lat="42.83196" lon="0.72956">
        <ele>616</ele>
        <time>2025-06-11T02:45:46Z</time>
      </trkpt>
      <trkpt lat="42.83262" lon="0.72959">
        <ele>617</ele>
        <time>2025-06-11T02:46:39Z</time>
      </trkpt>
      <trkpt lat="42.83271" lon="0.72959">
        <ele>617</ele>
        <time>2025-06-11T02:46:47Z</time>
      </trkpt>
      <trkpt lat="42.83299" lon="0.72961">
        <ele>617</ele>
        <time>2025-06-11T02:47:09Z</time>
      </trkpt>
      <trkpt lat="42.83318" lon="0.72965">
        <ele>617</ele>
        <time>2025-06-11T02:47:24Z</time>
      </trkpt>
      <trkpt lat="42.83365" lon="0.72983">
        <ele>618</ele>
        <time>2025-06-11T02:48:03Z</time>
      </trkpt>
      <trkpt lat="42.83375" lon="0.72988">
        <ele>618</ele>
        <time>2025-06-11T02:48:12Z</time>
      </trkpt>
      <trkpt lat="42.83387" lon="0.72993">
        <ele>619</ele>
        <time>2025-06-11T02:48:22Z</time>
      </trkpt>
      <trkpt lat="42.83442" lon="0.73017">
        <ele>619</ele>
        <time>2025-06-11T02:49:08Z</time>
      </trkpt>
      <trkpt lat="42.83464" lon="0.73025">
        <ele>619</ele>
        <time>2025-06-11T02:49:26Z</time>
      </trkpt>
      <trkpt lat="42.83503" lon="0.73028">
        <ele>620</ele>
        <time>2025-06-11T02:49:58Z</time>
      </trkpt>
      <trkpt lat="42.83544" lon="0.73027">
        <ele>621</ele>
        <time>2025-06-11T02:50:31Z</time>
      </trkpt>
      <trkpt lat="42.83567" lon="0.73027">
        <ele>622</ele>
        <time>2025-06-11T02:50:49Z</time>
      </trkpt>
      <trkpt lat="42.83582" lon="0.73027">
        <ele>623</ele>
        <time>2025-06-11T02:51:01Z</time>
      </trkpt>
      <trkpt lat="42.83602" lon="0.73028">
        <ele>625</ele>
        <time>2025-06-11T02:51:17Z</time>
      </trkpt>
      <trkpt lat="42.8362" lon="0.7303">
        <ele>627</ele>
        <time>2025-06-11T02:51:32Z</time>
      </trkpt>
      <trkpt lat="42.83636" lon="0.73034">
        <ele>627</ele>
        <time>2025-06-11T02:51:45Z</time>
      </trkpt>
      <trkpt lat="42.83653" lon="0.73041">
        <ele>627</ele>
        <time>2025-06-11T02:51:59Z</time>
      </trkpt>
      <trkpt lat="42.83671" lon="0.73052">
        <ele>624</ele>
        <time>2025-06-11T02:52:15Z</time>
      </trkpt>
      <trkpt lat="42.83781" lon="0.73126">
        <ele>618</ele>
        <time>2025-06-11T02:53:53Z</time>
      </trkpt>
      <trkpt lat="42.83808" lon="0.73144">
        <ele>615</ele>
        <time>2025-06-11T02:54:17Z</time>
      </trkpt>
      <trkpt lat="42.83822" lon="0.73153">
        <ele>613</ele>
        <time>2025-06-11T02:54:29Z</time>
      </trkpt>
      <trkpt lat="42.83838" lon="0.73161">
        <ele>611</ele>
        <time>2025-06-11T02:54:43Z</time>
      </trkpt>
      <trkpt lat="42.83857" lon="0.73169">
        <ele>608</ele>
        <time>2025-06-11T02:54:59Z</time>
      </trkpt>
      <trkpt lat="42.83885" lon="0.73173">
        <ele>609</ele>
        <time>2025-06-11T02:55:21Z</time>
      </trkpt>
      <trkpt lat="42.839" lon="0.73171">
        <ele>610</ele>
        <time>2025-06-11T02:55:33Z</time>
      </trkpt>
      <trkpt lat="42.83913" lon="0.73169">
        <ele>610</ele>
        <time>2025-06-11T02:55:44Z</time>
      </trkpt>
      <trkpt lat="42.83925" lon="0.73165">
        <ele>610</ele>
        <time>2025-06-11T02:55:54Z</time>
      </trkpt>
      <trkpt lat="42.83938" lon="0.7316">
        <ele>610</ele>
        <time>2025-06-11T02:56:05Z</time>
      </trkpt>
      <trkpt lat="42.8396" lon="0.73148">
        <ele>611</ele>
        <time>2025-06-11T02:56:24Z</time>
      </trkpt>
      <trkpt lat="42.8401" lon="0.73116">
        <ele>609</ele>
        <time>2025-06-11T02:57:08Z</time>
      </trkpt>
      <trkpt lat="42.84018" lon="0.73111">
        <ele>609</ele>
        <time>2025-06-11T02:57:15Z</time>
      </trkpt>
      <trkpt lat="42.84026" lon="0.73107">
        <ele>608</ele>
        <time>2025-06-11T02:57:22Z</time>
      </trkpt>
      <trkpt lat="42.84071" lon="0.7308">
        <ele>603</ele>
        <time>2025-06-11T02:58:01Z</time>
      </trkpt>
      <trkpt lat="42.84088" lon="0.73072">
        <ele>603</ele>
        <time>2025-06-11T02:58:15Z</time>
      </trkpt>
      <trkpt lat="42.84103" lon="0.73067">
        <ele>603</ele>
        <time>2025-06-11T02:58:28Z</time>
      </trkpt>
      <trkpt lat="42.84124" lon="0.73064">
        <ele>603</ele>
        <time>2025-06-11T02:58:45Z</time>
      </trkpt>
      <trkpt lat="42.84135" lon="0.73063">
        <ele>603</ele>
        <time>2025-06-11T02:58:53Z</time>
      </trkpt>
      <trkpt lat="42.84149" lon="0.73065">
        <ele>602</ele>
        <time>2025-06-11T02:59:05Z</time>
      </trkpt>
      <trkpt lat="42.8417" lon="0.73072">
        <ele>600</ele>
        <time>2025-06-11T02:59:22Z</time>
      </trkpt>
      <trkpt lat="42.84187" lon="0.73081">
        <ele>601</ele>
        <time>2025-06-11T02:59:37Z</time>
      </trkpt>
      <trkpt lat="42.84203" lon="0.73092">
        <ele>602</ele>
        <time>2025-06-11T02:59:51Z</time>
      </trkpt>
      <trkpt lat="42.84223" lon="0.73106">
        <ele>603</ele>
        <time>2025-06-11T03:00:09Z</time>
      </trkpt>
      <trkpt lat="42.8424" lon="0.73119">
        <ele>603</ele>
        <time>2025-06-11T03:00:25Z</time>
      </trkpt>
      <trkpt lat="42.84254" lon="0.73128">
        <ele>604</ele>
        <time>2025-06-11T03:00:37Z</time>
      </trkpt>
      <trkpt lat="42.84268" lon="0.73134">
        <ele>604</ele>
        <time>2025-06-11T03:00:49Z</time>
      </trkpt>
      <trkpt lat="42.84284" lon="0.7314">
        <ele>605</ele>
        <time>2025-06-11T03:01:02Z</time>
      </trkpt>
      <trkpt lat="42.843" lon="0.73142">
        <ele>607</ele>
        <time>2025-06-11T03:01:15Z</time>
      </trkpt>
      <trkpt lat="42.84358" lon="0.73148">
        <ele>611</ele>
        <time>2025-06-11T03:02:01Z</time>
      </trkpt>
      <trkpt lat="42.84369" lon="0.7315">
        <ele>611</ele>
        <time>2025-06-11T03:02:10Z</time>
      </trkpt>
      <trkpt lat="42.84391" lon="0.73159">
        <ele>610</ele>
        <time>2025-06-11T03:02:29Z</time>
      </trkpt>
      <trkpt lat="42.844" lon="0.73165">
        <ele>608</ele>
        <time>2025-06-11T03:02:37Z</time>
      </trkpt>
      <trkpt lat="42.84409" lon="0.73172">
        <ele>608</ele>
        <time>2025-06-11T03:02:45Z</time>
      </trkpt>
      <trkpt lat="42.84418" lon="0.7318">
        <ele>607</ele>
        <time>2025-06-11T03:02:54Z</time>
      </trkpt>
      <trkpt lat="42.84458" lon="0.73222">
        <ele>605</ele>
        <time>2025-06-11T03:03:34Z</time>
      </trkpt>
      <trkpt lat="42.8447" lon="0.73233">
        <ele>603</ele>
        <time>2025-06-11T03:03:46Z</time>
      </trkpt>
      <trkpt lat="42.84501" lon="0.73258">
        <ele>599</ele>
        <time>2025-06-11T03:04:15Z</time>
      </trkpt>
      <trkpt lat="42.8452" lon="0.73271">
        <ele>600</ele>
        <time>2025-06-11T03:04:32Z</time>
      </trkpt>
      <trkpt lat="42.846" lon="0.73318">
        <ele>595</ele>
        <time>2025-06-11T03:05:41Z</time>
      </trkpt>
      <trkpt lat="42.84634" lon="0.73339">
        <ele>596</ele>
        <time>2025-06-11T03:06:11Z</time>
      </trkpt>
      <trkpt lat="42.84648" lon="0.73347">
        <ele>597</ele>
        <time>2025-06-11T03:06:23Z</time>
      </trkpt>
      <trkpt lat="42.84651" lon="0.7335">
        <ele>597</ele>
        <time>2025-06-11T03:06:26Z</time>
      </trkpt>
      <trkpt lat="42.84668" lon="0.73361">
        <ele>597</ele>
        <time>2025-06-11T03:06:41Z</time>
      </trkpt>
      <trkpt lat="42.84691" lon="0.73381">
        <ele>600</ele>
        <time>2025-06-11T03:07:03Z</time>
      </trkpt>
      <trkpt lat="42.84708" lon="0.73398">
        <ele>600</ele>
        <time>2025-06-11T03:07:20Z</time>
      </trkpt>
      <trkpt lat="42.84722" lon="0.73414">
        <ele>599</ele>
        <time>2025-06-11T03:07:35Z</time>
      </trkpt>
      <trkpt lat="42.84739" lon="0.73437">
        <ele>598</ele>
        <time>2025-06-11T03:07:54Z</time>
      </trkpt>
      <trkpt lat="42.84792" lon="0.73503">
        <ele>599</ele>
        <time>2025-06-11T03:08:51Z</time>
      </trkpt>
      <trkpt lat="42.84806" lon="0.73518">
        <ele>603</ele>
        <time>2025-06-11T03:09:06Z</time>
      </trkpt>
      <trkpt lat="42.84831" lon="0.73541">
        <ele>605</ele>
        <time>2025-06-11T03:09:30Z</time>
      </trkpt>
      <trkpt lat="42.84875" lon="0.73572">
        <ele>600</ele>
        <time>2025-06-11T03:10:09Z</time>
      </trkpt>
      <trkpt lat="42.84879" lon="0.73575">
        <ele>599</ele>
        <time>2025-06-11T03:10:13Z</time>
      </trkpt>
      <trkpt lat="42.8491" lon="0.73597">
        <ele>596</ele>
        <time>2025-06-11T03:10:41Z</time>
      </trkpt>
      <trkpt lat="42.84928" lon="0.73609">
        <ele>598</ele>
        <time>2025-06-11T03:10:57Z</time>
      </trkpt>
      <trkpt lat="42.84932" lon="0.73611">
        <ele>598</ele>
        <time>2025-06-11T03:11:00Z</time>
      </trkpt>
      <trkpt lat="42.84947" lon="0.73615">
        <ele>599</ele>
        <time>2025-06-11T03:11:13Z</time>
      </trkpt>
      <trkpt lat="42.84957" lon="0.73616">
        <ele>599</ele>
        <time>2025-06-11T03:11:21Z</time>
      </trkpt>
      <trkpt lat="42.84971" lon="0.73615">
        <ele>599</ele>
        <time>2025-06-11T03:11:32Z</time>
      </trkpt>
      <trkpt lat="42.84992" lon="0.73613">
        <ele>598</ele>
        <time>2025-06-11T03:11:49Z</time>
      </trkpt>
      <trkpt lat="42.85043" lon="0.73605">
        <ele>595</ele>
        <time>2025-06-11T03:12:30Z</time>
      </trkpt>
      <trkpt lat="42.85146" lon="0.73596">
        <ele>590</ele>
        <time>2025-06-11T03:13:53Z</time>
      </trkpt>
      <trkpt lat="42.85195" lon="0.73593">
        <ele>590</ele>
        <time>2025-06-11T03:14:32Z</time>
      </trkpt>
      <trkpt lat="42.85264" lon="0.73587">
        <ele>590</ele>
        <time>2025-06-11T03:15:27Z</time>
      </trkpt>
      <trkpt lat="42.85322" lon="0.73583">
        <ele>588</ele>
        <time>2025-06-11T03:16:14Z</time>
      </trkpt>
      <trkpt lat="42.85422" lon="0.73575">
        <ele>590</ele>
        <time>2025-06-11T03:17:34Z</time>
      </trkpt>
      <trkpt lat="42.85444" lon="0.73575">
        <ele>590</ele>
        <time>2025-06-11T03:17:52Z</time>
      </trkpt>
      <trkpt lat="42.85458" lon="0.73577">
        <ele>591</ele>
        <time>2025-06-11T03:18:03Z</time>
      </trkpt>
      <trkpt lat="42.85476" lon="0.73581">
        <ele>591</ele>
        <time>2025-06-11T03:18:17Z</time>
      </trkpt>
      <trkpt lat="42.8551" lon="0.73594">
        <ele>593</ele>
        <time>2025-06-11T03:18:46Z</time>
      </trkpt>
      <trkpt lat="42.85557" lon="0.73616">
        <ele>594</ele>
        <time>2025-06-11T03:19:25Z</time>
      </trkpt>
      <trkpt lat="42.85572" lon="0.73626">
        <ele>592</ele>
        <time>2025-06-11T03:19:39Z</time>
      </trkpt>
      <trkpt lat="42.85584" lon="0.73636">
        <ele>591</ele>
        <time>2025-06-11T03:19:50Z</time>
      </trkpt>
      <trkpt lat="42.85598" lon="0.7365">
        <ele>590</ele>
        <time>2025-06-11T03:20:04Z</time>
      </trkpt>
      <trkpt lat="42.85609" lon="0.73665">
        <ele>588</ele>
        <time>2025-06-11T03:20:16Z</time>
      </trkpt>
      <trkpt lat="42.85619" lon="0.73682">
        <ele>590</ele>
        <time>2025-06-11T03:20:29Z</time>
      </trkpt>
      <trkpt lat="42.85627" lon="0.73698">
        <ele>591</ele>
        <time>2025-06-11T03:20:41Z</time>
      </trkpt>
      <trkpt lat="42.85634" lon="0.73717">
        <ele>591</ele>
        <time>2025-06-11T03:20:53Z</time>
      </trkpt>
      <trkpt lat="42.85638" lon="0.73735">
        <ele>592</ele>
        <time>2025-06-11T03:21:04Z</time>
      </trkpt>
      <trkpt lat="42.85641" lon="0.73751">
        <ele>593</ele>
        <time>2025-06-11T03:21:14Z</time>
      </trkpt>
      <trkpt lat="42.85643" lon="0.73767">
        <ele>594</ele>
        <time>2025-06-11T03:21:23Z</time>
      </trkpt>
      <trkpt lat="42.85644" lon="0.73783">
        <ele>596</ele>
        <time>2025-06-11T03:21:33Z</time>
      </trkpt>
      <trkpt lat="42.85641" lon="0.73841">
        <ele>604</ele>
        <time>2025-06-11T03:22:07Z</time>
      </trkpt>
      <trkpt lat="42.85642" lon="0.73858">
        <ele>604</ele>
        <time>2025-06-11T03:22:17Z</time>
      </trkpt>
      <trkpt lat="42.85644" lon="0.73877">
        <ele>604</ele>
        <time>2025-06-11T03:22:28Z</time>
      </trkpt>
      <trkpt lat="42.85661" lon="0.74008">
        <ele>595</ele>
        <time>2025-06-11T03:23:46Z</time>
      </trkpt>
      <trkpt lat="42.8568" lon="0.7412">
        <ele>590</ele>
        <time>2025-06-11T03:24:54Z</time>
      </trkpt>
      <trkpt lat="42.85686" lon="0.74168">
        <ele>588</ele>
        <time>2025-06-11T03:25:22Z</time>
      </trkpt>
      <trkpt lat="42.85693" lon="0.74241">
        <ele>585</ele>
        <time>2025-06-11T03:26:06Z</time>
      </trkpt>
      <trkpt lat="42.85696" lon="0.74263">
        <ele>585</ele>
        <time>2025-06-11T03:26:19Z</time>
      </trkpt>
      <trkpt lat="42.85699" lon="0.74283">
        <ele>586</ele>
        <time>2025-06-11T03:26:31Z</time>
      </trkpt>
      <trkpt lat="42.85704" lon="0.74304">
        <ele>586</ele>
        <time>2025-06-11T03:26:44Z</time>
      </trkpt>
      <trkpt lat="42.85711" lon="0.74325">
        <ele>585</ele>
        <time>2025-06-11T03:26:57Z</time>
      </trkpt>
      <trkpt lat="42.8572" lon="0.7435">
        <ele>585</ele>
        <time>2025-06-11T03:27:13Z</time>
      </trkpt>
      <trkpt lat="42.85805" lon="0.74536">
        <ele>590</ele>
        <time>2025-06-11T03:29:22Z</time>
      </trkpt>
      <trkpt lat="42.85865" lon="0.74656">
        <ele>587</ele>
        <time>2025-06-11T03:30:47Z</time>
      </trkpt>
      <trkpt lat="42.85878" lon="0.7468">
        <ele>587</ele>
        <time>2025-06-11T03:31:05Z</time>
      </trkpt>
      <trkpt lat="42.85902" lon="0.74717">
        <ele>585</ele>
        <time>2025-06-11T03:31:34Z</time>
      </trkpt>
      <trkpt lat="42.8592" lon="0.74742">
        <ele>581</ele>
        <time>2025-06-11T03:31:54Z</time>
      </trkpt>
      <trkpt lat="42.85933" lon="0.74757">
        <ele>581</ele>
        <time>2025-06-11T03:32:08Z</time>
      </trkpt>
      <trkpt lat="42.85945" lon="0.74767">
        <ele>581</ele>
        <time>2025-06-11T03:32:19Z</time>
      </trkpt>
      <trkpt lat="42.8596" lon="0.74781">
        <ele>579</ele>
        <time>2025-06-11T03:32:34Z</time>
      </trkpt>
      <trkpt lat="42.85974" lon="0.74791">
        <ele>577</ele>
        <time>2025-06-11T03:32:47Z</time>
      </trkpt>
      <trkpt lat="42.85984" lon="0.74797">
        <ele>575</ele>
        <time>2025-06-11T03:32:55Z</time>
      </trkpt>
      <trkpt lat="42.86001" lon="0.74805">
        <ele>570</ele>
        <time>2025-06-11T03:33:10Z</time>
      </trkpt>
      <trkpt lat="42.86019" lon="0.74812">
        <ele>570</ele>
        <time>2025-06-11T03:33:25Z</time>
      </trkpt>
      <trkpt lat="42.86034" lon="0.74816">
        <ele>570</ele>
        <time>2025-06-11T03:33:37Z</time>
      </trkpt>
      <trkpt lat="42.86053" lon="0.74819">
        <ele>570</ele>
        <time>2025-06-11T03:33:52Z</time>
      </trkpt>
      <trkpt lat="42.86068" lon="0.7482">
        <ele>569</ele>
        <time>2025-06-11T03:34:04Z</time>
      </trkpt>
      <trkpt lat="42.86087" lon="0.7482">
        <ele>569</ele>
        <time>2025-06-11T03:34:19Z</time>
      </trkpt>
      <trkpt lat="42.86201" lon="0.74809">
        <ele>568</ele>
        <time>2025-06-11T03:35:51Z</time>
      </trkpt>
      <trkpt lat="42.86218" lon="0.74809">
        <ele>567</ele>
        <time>2025-06-11T03:36:05Z</time>
      </trkpt>
      <trkpt lat="42.8623" lon="0.74811">
        <ele>567</ele>
        <time>2025-06-11T03:36:14Z</time>
      </trkpt>
      <trkpt lat="42.86244" lon="0.74814">
        <ele>566</ele>
        <time>2025-06-11T03:36:26Z</time>
      </trkpt>
      <trkpt lat="42.8627" lon="0.74823">
        <ele>565</ele>
        <time>2025-06-11T03:36:47Z</time>
      </trkpt>
      <trkpt lat="42.86297" lon="0.74835">
        <ele>563</ele>
        <time>2025-06-11T03:37:10Z</time>
      </trkpt>
      <trkpt lat="42.86313" lon="0.74848">
        <ele>563</ele>
        <time>2025-06-11T03:37:25Z</time>
      </trkpt>
      <trkpt lat="42.86336" lon="0.74874">
        <ele>563</ele>
        <time>2025-06-11T03:37:49Z</time>
      </trkpt>
      <trkpt lat="42.86375" lon="0.74922">
        <ele>562</ele>
        <time>2025-06-11T03:38:31Z</time>
      </trkpt>
      <trkpt lat="42.86396" lon="0.74946">
        <ele>565</ele>
        <time>2025-06-11T03:38:53Z</time>
      </trkpt>
      <trkpt lat="42.86403" lon="0.74955">
        <ele>566</ele>
        <time>2025-06-11T03:39:00Z</time>
      </trkpt>
      <trkpt lat="42.86413" lon="0.74963">
        <ele>567</ele>
        <time>2025-06-11T03:39:10Z</time>
      </trkpt>
      <trkpt lat="42.86422" lon="0.74969">
        <ele>568</ele>
        <time>2025-06-11T03:39:18Z</time>
      </trkpt>
      <trkpt lat="42.86431" lon="0.74971">
        <ele>568</ele>
        <time>2025-06-11T03:39:25Z</time>
      </trkpt>
      <trkpt lat="42.86442" lon="0.74974">
        <ele>569</ele>
        <time>2025-06-11T03:39:34Z</time>
      </trkpt>
      <trkpt lat="42.86448" lon="0.74974">
        <ele>568</ele>
        <time>2025-06-11T03:39:39Z</time>
      </trkpt>
      <trkpt lat="42.86476" lon="0.74979">
        <ele>569</ele>
        <time>2025-06-11T03:40:01Z</time>
      </trkpt>
      <trkpt lat="42.86483" lon="0.74981">
        <ele>569</ele>
        <time>2025-06-11T03:40:07Z</time>
      </trkpt>
      <trkpt lat="42.86497" lon="0.74991">
        <ele>571</ele>
        <time>2025-06-11T03:40:20Z</time>
      </trkpt>
      <trkpt lat="42.865" lon="0.74996">
        <ele>571</ele>
        <time>2025-06-11T03:40:24Z</time>
      </trkpt>
      <trkpt lat="42.86506" lon="0.75004">
        <ele>573</ele>
        <time>2025-06-11T03:40:30Z</time>
      </trkpt>
      <trkpt lat="42.86513" lon="0.75008">
        <ele>574</ele>
        <time>2025-06-11T03:40:36Z</time>
      </trkpt>
      <trkpt lat="42.86521" lon="0.75009">
        <ele>574</ele>
        <time>2025-06-11T03:40:43Z</time>
      </trkpt>
      <trkpt lat="42.86552" lon="0.75007">
        <ele>572</ele>
        <time>2025-06-11T03:41:08Z</time>
      </trkpt>
      <trkpt lat="42.8656" lon="0.75005">
        <ele>571</ele>
        <time>2025-06-11T03:41:14Z</time>
      </trkpt>
      <trkpt lat="42.86569" lon="0.74998">
        <ele>569</ele>
        <time>2025-06-11T03:41:22Z</time>
      </trkpt>
      <trkpt lat="42.8658" lon="0.74985">
        <ele>568</ele>
        <time>2025-06-11T03:41:34Z</time>
      </trkpt>
      <trkpt lat="42.86595" lon="0.74964">
        <ele>568</ele>
        <time>2025-06-11T03:41:51Z</time>
      </trkpt>
      <trkpt lat="42.8661" lon="0.74941">
        <ele>568</ele>
        <time>2025-06-11T03:42:09Z</time>
      </trkpt>
      <trkpt lat="42.86613" lon="0.74931">
        <ele>567</ele>
        <time>2025-06-11T03:42:16Z</time>
      </trkpt>
      <trkpt lat="42.86613" lon="0.74927">
        <ele>566</ele>
        <time>2025-06-11T03:42:18Z</time>
      </trkpt>
      <trkpt lat="42.86613" lon="0.74912">
        <ele>564</ele>
        <time>2025-06-11T03:42:27Z</time>
      </trkpt>
      <trkpt lat="42.86613" lon="0.74909">
        <ele>564</ele>
        <time>2025-06-11T03:42:29Z</time>
      </trkpt>
      <trkpt lat="42.86612" lon="0.74904">
        <ele>563</ele>
        <time>2025-06-11T03:42:32Z</time>
      </trkpt>
      <trkpt lat="42.86608" lon="0.74896">
        <ele>562</ele>
        <time>2025-06-11T03:42:37Z</time>
      </trkpt>
      <trkpt lat="42.86605" lon="0.74891">
        <ele>562</ele>
        <time>2025-06-11T03:42:41Z</time>
      </trkpt>
      <trkpt lat="42.86601" lon="0.74872">
        <ele>560</ele>
        <time>2025-06-11T03:42:53Z</time>
      </trkpt>
      <trkpt lat="42.86602" lon="0.74865">
        <ele>560</ele>
        <time>2025-06-11T03:42:57Z</time>
      </trkpt>
      <trkpt lat="42.86605" lon="0.74851">
        <ele>559</ele>
        <time>2025-06-11T03:43:05Z</time>
      </trkpt>
      <trkpt lat="42.86607" lon="0.74827">
        <ele>557</ele>
        <time>2025-06-11T03:43:20Z</time>
      </trkpt>
      <trkpt lat="42.86618" lon="0.74788">
        <ele>556</ele>
        <time>2025-06-11T03:43:44Z</time>
      </trkpt>
      <trkpt lat="42.86626" lon="0.7476">
        <ele>554</ele>
        <time>2025-06-11T03:44:02Z</time>
      </trkpt>
      <trkpt lat="42.86669" lon="0.74615">
        <ele>562</ele>
        <time>2025-06-11T03:45:34Z</time>
      </trkpt>
      <trkpt lat="42.86687" lon="0.74549">
        <ele>567</ele>
        <time>2025-06-11T03:46:15Z</time>
      </trkpt>
      <trkpt lat="42.867" lon="0.74492">
        <ele>567</ele>
        <time>2025-06-11T03:46:50Z</time>
      </trkpt>
      <trkpt lat="42.86708" lon="0.74455">
        <ele>568</ele>
        <time>2025-06-11T03:47:13Z</time>
      </trkpt>
      <trkpt lat="42.86714" lon="0.74422">
        <ele>568</ele>
        <time>2025-06-11T03:47:33Z</time>
      </trkpt>
      <trkpt lat="42.8672" lon="0.74375">
        <ele>569</ele>
        <time>2025-06-11T03:48:01Z</time>
      </trkpt>
      <trkpt lat="42.86726" lon="0.74317">
        <ele>569</ele>
        <time>2025-06-11T03:48:35Z</time>
      </trkpt>
      <trkpt lat="42.86728" lon="0.74284">
        <ele>567</ele>
        <time>2025-06-11T03:48:54Z</time>
      </trkpt>
      <trkpt lat="42.8673" lon="0.74248">
        <ele>565</ele>
        <time>2025-06-11T03:49:16Z</time>
      </trkpt>
      <trkpt lat="42.86731" lon="0.74206">
        <ele>562</ele>
        <time>2025-06-11T03:49:40Z</time>
      </trkpt>
      <trkpt lat="42.86732" lon="0.74177">
        <ele>560</ele>
        <time>2025-06-11T03:49:57Z</time>
      </trkpt>
      <trkpt lat="42.86733" lon="0.74152">
        <ele>559</ele>
        <time>2025-06-11T03:50:12Z</time>
      </trkpt>
      <trkpt lat="42.86738" lon="0.74102">
        <ele>559</ele>
        <time>2025-06-11T03:50:42Z</time>
      </trkpt>
      <trkpt lat="42.86742" lon="0.74073">
        <ele>559</ele>
        <time>2025-06-11T03:50:59Z</time>
      </trkpt>
      <trkpt lat="42.86752" lon="0.74025">
        <ele>558</ele>
        <time>2025-06-11T03:51:28Z</time>
      </trkpt>
      <trkpt lat="42.8676" lon="0.73992">
        <ele>559</ele>
        <time>2025-06-11T03:51:49Z</time>
      </trkpt>
      <trkpt lat="42.86769" lon="0.73962">
        <ele>560</ele>
        <time>2025-06-11T03:52:08Z</time>
      </trkpt>
      <trkpt lat="42.86781" lon="0.73928">
        <ele>560</ele>
        <time>2025-06-11T03:52:30Z</time>
      </trkpt>
      <trkpt lat="42.86792" lon="0.73901">
        <ele>559</ele>
        <time>2025-06-11T03:52:48Z</time>
      </trkpt>
      <trkpt lat="42.86863" lon="0.73745">
        <ele>549</ele>
        <time>2025-06-11T03:54:36Z</time>
      </trkpt>
      <trkpt lat="42.87134" lon="0.73155">
        <ele>544</ele>
        <time>2025-06-11T04:01:24Z</time>
      </trkpt>
      <trkpt lat="42.87213" lon="0.72987">
        <ele>543</ele>
        <time>2025-06-11T04:03:21Z</time>
      </trkpt>
      <trkpt lat="42.8723" lon="0.72955">
        <ele>543</ele>
        <time>2025-06-11T04:03:44Z</time>
      </trkpt>
      <trkpt lat="42.87267" lon="0.72893">
        <ele>541</ele>
        <time>2025-06-11T04:04:31Z</time>
      </trkpt>
      <trkpt lat="42.8729" lon="0.72859">
        <ele>540</ele>
        <time>2025-06-11T04:04:59Z</time>
      </trkpt>
      <trkpt lat="42.8732" lon="0.72816">
        <ele>539</ele>
        <time>2025-06-11T04:05:33Z</time>
      </trkpt>
      <trkpt lat="42.87344" lon="0.72786">
        <ele>538</ele>
        <time>2025-06-11T04:05:59Z</time>
      </trkpt>
      <trkpt lat="42.87367" lon="0.72758">
        <ele>538</ele>
        <time>2025-06-11T04:06:24Z</time>
      </trkpt>
      <trkpt lat="42.87372" lon="0.72763">
        <ele>538</ele>
        <time>2025-06-11T04:06:29Z</time>
      </trkpt>
      <trkpt lat="42.87377" lon="0.72765">
        <ele>539</ele>
        <time>2025-06-11T04:06:33Z</time>
      </trkpt>
      <trkpt lat="42.87382" lon="0.72766">
        <ele>539</ele>
        <time>2025-06-11T04:06:37Z</time>
      </trkpt>
      <trkpt lat="42.87388" lon="0.72764">
        <ele>539</ele>
        <time>2025-06-11T04:06:42Z</time>
      </trkpt>
      <trkpt lat="42.87392" lon="0.7276">
        <ele>539</ele>
        <time>2025-06-11T04:06:46Z</time>
      </trkpt>
      <trkpt lat="42.87396" lon="0.72755">
        <ele>539</ele>
        <time>2025-06-11T04:06:51Z</time>
      </trkpt>
      <trkpt lat="42.87398" lon="0.72749">
        <ele>539</ele>
        <time>2025-06-11T04:06:54Z</time>
      </trkpt>
      <trkpt lat="42.87399" lon="0.72742">
        <ele>539</ele>
        <time>2025-06-11T04:06:59Z</time>
      </trkpt>
      <trkpt lat="42.87399" lon="0.72735">
        <ele>539</ele>
        <time>2025-06-11T04:07:03Z</time>
      </trkpt>
      <trkpt lat="42.87398" lon="0.72728">
        <ele>539</ele>
        <time>2025-06-11T04:07:07Z</time>
      </trkpt>
      <trkpt lat="42.87395" lon="0.72723">
        <ele>539</ele>
        <time>2025-06-11T04:07:11Z</time>
      </trkpt>
      <trkpt lat="42.87401" lon="0.72714">
        <ele>539</ele>
        <time>2025-06-11T04:07:18Z</time>
      </trkpt>
      <trkpt lat="42.87423" lon="0.72686">
        <ele>537</ele>
        <time>2025-06-11T04:07:42Z</time>
      </trkpt>
      <trkpt lat="42.87458" lon="0.72642">
        <ele>537</ele>
        <time>2025-06-11T04:08:20Z</time>
      </trkpt>
      <trkpt lat="42.87507" lon="0.72577">
        <ele>537</ele>
        <time>2025-06-11T04:09:15Z</time>
      </trkpt>
      <trkpt lat="42.8755" lon="0.72522">
        <ele>538</ele>
        <time>2025-06-11T04:10:02Z</time>
      </trkpt>
      <trkpt lat="42.8761" lon="0.72448">
        <ele>537</ele>
        <time>2025-06-11T04:11:07Z</time>
      </trkpt>
      <trkpt lat="42.88143" lon="0.71778">
        <ele>529</ele>
        <time>2025-06-11T04:20:47Z</time>
      </trkpt>
      <trkpt lat="42.88217" lon="0.71687">
        <ele>529</ele>
        <time>2025-06-11T04:22:07Z</time>
      </trkpt>
      <trkpt lat="42.8833" lon="0.71547">
        <ele>534</ele>
        <time>2025-06-11T04:24:09Z</time>
      </trkpt>
      <trkpt lat="42.88374" lon="0.71491">
        <ele>535</ele>
        <time>2025-06-11T04:24:57Z</time>
      </trkpt>
      <trkpt lat="42.88384" lon="0.71479">
        <ele>536</ele>
        <time>2025-06-11T04:25:08Z</time>
      </trkpt>
      <trkpt lat="42.88435" lon="0.71416">
        <ele>540</ele>
        <time>2025-06-11T04:26:03Z</time>
      </trkpt>
      <trkpt lat="42.88447" lon="0.71399">
        <ele>540</ele>
        <time>2025-06-11T04:26:17Z</time>
      </trkpt>
      <trkpt lat="42.88462" lon="0.71375">
        <ele>540</ele>
        <time>2025-06-11T04:26:35Z</time>
      </trkpt>
      <trkpt lat="42.88484" lon="0.71338">
        <ele>539</ele>
        <time>2025-06-11T04:27:03Z</time>
      </trkpt>
      <trkpt lat="42.88593" lon="0.7114">
        <ele>537</ele>
        <time>2025-06-11T04:29:28Z</time>
      </trkpt>
      <trkpt lat="42.88628" lon="0.71073">
        <ele>536</ele>
        <time>2025-06-11T04:30:17Z</time>
      </trkpt>
      <trkpt lat="42.88716" lon="0.70913">
        <ele>529</ele>
        <time>2025-06-11T04:32:14Z</time>
      </trkpt>
      <trkpt lat="42.88771" lon="0.70812">
        <ele>525</ele>
        <time>2025-06-11T04:33:28Z</time>
      </trkpt>
      <trkpt lat="42.88845" lon="0.70679">
        <ele>524</ele>
        <time>2025-06-11T04:35:06Z</time>
      </trkpt>
      <trkpt lat="42.88858" lon="0.70659">
        <ele>525</ele>
        <time>2025-06-11T04:35:22Z</time>
      </trkpt>
      <trkpt lat="42.88873" lon="0.70639">
        <ele>526</ele>
        <time>2025-06-11T04:35:38Z</time>
      </trkpt>
      <trkpt lat="42.8889" lon="0.70619">
        <ele>526</ele>
        <time>2025-06-11T04:35:56Z</time>
      </trkpt>
      <trkpt lat="42.89148" lon="0.70356">
        <ele>520</ele>
        <time>2025-06-11T04:40:14Z</time>
      </trkpt>
      <trkpt lat="42.89165" lon="0.7034">
        <ele>520</ele>
        <time>2025-06-11T04:40:31Z</time>
      </trkpt>
      <trkpt lat="42.89186" lon="0.70323">
        <ele>520</ele>
        <time>2025-06-11T04:40:50Z</time>
      </trkpt>
      <trkpt lat="42.89218" lon="0.70299">
        <ele>520</ele>
        <time>2025-06-11T04:41:19Z</time>
      </trkpt>
      <trkpt lat="42.89236" lon="0.70284">
        <ele>521</ele>
        <time>2025-06-11T04:41:36Z</time>
      </trkpt>
      <trkpt lat="42.89375" lon="0.70161">
        <ele>521</ele>
        <time>2025-06-11T04:43:49Z</time>
      </trkpt>
      <trkpt lat="42.89571" lon="0.69992">
        <ele>525</ele>
        <time>2025-06-11T04:46:55Z</time>
      </trkpt>
      <trkpt lat="42.89597" lon="0.69969">
        <ele>526</ele>
        <time>2025-06-11T04:47:19Z</time>
      </trkpt>
      <trkpt lat="42.89618" lon="0.69952">
        <ele>526</ele>
        <time>2025-06-11T04:47:39Z</time>
      </trkpt>
      <trkpt lat="42.89639" lon="0.69938">
        <ele>526</ele>
        <time>2025-06-11T04:47:58Z</time>
      </trkpt>
      <trkpt lat="42.8966" lon="0.69928">
        <ele>525</ele>
        <time>2025-06-11T04:48:15Z</time>
      </trkpt>
      <trkpt lat="42.89682" lon="0.6992">
        <ele>524</ele>
        <time>2025-06-11T04:48:34Z</time>
      </trkpt>
      <trkpt lat="42.89892" lon="0.69869">
        <ele>526</ele>
        <time>2025-06-11T04:51:24Z</time>
      </trkpt>
      <trkpt lat="42.89914" lon="0.69863">
        <ele>526</ele>
        <time>2025-06-11T04:51:42Z</time>
      </trkpt>
      <trkpt lat="42.89935" lon="0.69855">
        <ele>525</ele>
        <time>2025-06-11T04:52:00Z</time>
      </trkpt>
      <trkpt lat="42.89952" lon="0.69846">
        <ele>524</ele>
        <time>2025-06-11T04:52:14Z</time>
      </trkpt>
      <trkpt lat="42.89982" lon="0.69827">
        <ele>523</ele>
        <time>2025-06-11T04:52:41Z</time>
      </trkpt>
      <trkpt lat="42.90082" lon="0.6974">
        <ele>521</ele>
        <time>2025-06-11T04:54:16Z</time>
      </trkpt>
      <trkpt lat="42.90187" lon="0.69647">
        <ele>515</ele>
        <time>2025-06-11T04:55:56Z</time>
      </trkpt>
      <trkpt lat="42.90203" lon="0.69632">
        <ele>514</ele>
        <time>2025-06-11T04:56:12Z</time>
      </trkpt>
      <trkpt lat="42.90213" lon="0.69618">
        <ele>514</ele>
        <time>2025-06-11T04:56:23Z</time>
      </trkpt>
      <trkpt lat="42.90221" lon="0.69604">
        <ele>513</ele>
        <time>2025-06-11T04:56:34Z</time>
      </trkpt>
      <trkpt lat="42.90247" lon="0.69539">
        <ele>513</ele>
        <time>2025-06-11T04:57:17Z</time>
      </trkpt>
      <trkpt lat="42.90265" lon="0.69491">
        <ele>514</ele>
        <time>2025-06-11T04:57:49Z</time>
      </trkpt>
      <trkpt lat="42.90313" lon="0.69372">
        <ele>513</ele>
        <time>2025-06-11T04:59:08Z</time>
      </trkpt>
      <trkpt lat="42.90321" lon="0.69354">
        <ele>512</ele>
        <time>2025-06-11T04:59:21Z</time>
      </trkpt>
      <trkpt lat="42.90332" lon="0.69333">
        <ele>512</ele>
        <time>2025-06-11T04:59:36Z</time>
      </trkpt>
      <trkpt lat="42.90362" lon="0.69285">
        <ele>511</ele>
        <time>2025-06-11T05:00:13Z</time>
      </trkpt>
      <trkpt lat="42.90395" lon="0.69234">
        <ele>509</ele>
        <time>2025-06-11T05:00:53Z</time>
      </trkpt>
      <trkpt lat="42.90421" lon="0.692">
        <ele>509</ele>
        <time>2025-06-11T05:01:22Z</time>
      </trkpt>
      <trkpt lat="42.90433" lon="0.69189">
        <ele>510</ele>
        <time>2025-06-11T05:01:33Z</time>
      </trkpt>
      <trkpt lat="42.90445" lon="0.6918">
        <ele>510</ele>
        <time>2025-06-11T05:01:44Z</time>
      </trkpt>
      <trkpt lat="42.90455" lon="0.69176">
        <ele>510</ele>
        <time>2025-06-11T05:01:52Z</time>
      </trkpt>
      <trkpt lat="42.90473" lon="0.6917">
        <ele>510</ele>
        <time>2025-06-11T05:02:07Z</time>
      </trkpt>
      <trkpt lat="42.90522" lon="0.69159">
        <ele>510</ele>
        <time>2025-06-11T05:02:47Z</time>
      </trkpt>
      <trkpt lat="42.9054" lon="0.69152">
        <ele>509</ele>
        <time>2025-06-11T05:03:02Z</time>
      </trkpt>
      <trkpt lat="42.90576" lon="0.69132">
        <ele>508</ele>
        <time>2025-06-11T05:03:33Z</time>
      </trkpt>
      <trkpt lat="42.90777" lon="0.69018">
        <ele>509</ele>
        <time>2025-06-11T05:06:27Z</time>
      </trkpt>
      <trkpt lat="42.90793" lon="0.6901">
        <ele>510</ele>
        <time>2025-06-11T05:06:41Z</time>
      </trkpt>
      <trkpt lat="42.90803" lon="0.69006">
        <ele>511</ele>
        <time>2025-06-11T05:06:49Z</time>
      </trkpt>
      <trkpt lat="42.90817" lon="0.69004">
        <ele>511</ele>
        <time>2025-06-11T05:07:01Z</time>
      </trkpt>
      <trkpt lat="42.90832" lon="0.69004">
        <ele>512</ele>
        <time>2025-06-11T05:07:13Z</time>
      </trkpt>
      <trkpt lat="42.90842" lon="0.69005">
        <ele>512</ele>
        <time>2025-06-11T05:07:21Z</time>
      </trkpt>
      <trkpt lat="42.90935" lon="0.69026">
        <ele>512</ele>
        <time>2025-06-11T05:08:36Z</time>
      </trkpt>
      <trkpt lat="42.90951" lon="0.69031">
        <ele>512</ele>
        <time>2025-06-11T05:08:49Z</time>
      </trkpt>
      <trkpt lat="42.90964" lon="0.69038">
        <ele>512</ele>
        <time>2025-06-11T05:09:00Z</time>
      </trkpt>
      <trkpt lat="42.9102" lon="0.69067">
        <ele>510</ele>
        <time>2025-06-11T05:09:48Z</time>
      </trkpt>
      <trkpt lat="42.91088" lon="0.69103">
        <ele>507</ele>
        <time>2025-06-11T05:10:47Z</time>
      </trkpt>
      <trkpt lat="42.91101" lon="0.69109">
        <ele>507</ele>
        <time>2025-06-11T05:10:58Z</time>
      </trkpt>
      <trkpt lat="42.91241" lon="0.69182">
        <ele>510</ele>
        <time>2025-06-11T05:12:58Z</time>
      </trkpt>
      <trkpt lat="42.91248" lon="0.69187">
        <ele>510</ele>
        <time>2025-06-11T05:13:04Z</time>
      </trkpt>
      <trkpt lat="42.91269" lon="0.69204">
        <ele>510</ele>
        <time>2025-06-11T05:13:24Z</time>
      </trkpt>
      <trkpt lat="42.91278" lon="0.69214">
        <ele>509</ele>
        <time>2025-06-11T05:13:33Z</time>
      </trkpt>
      <trkpt lat="42.913" lon="0.69235">
        <ele>507</ele>
        <time>2025-06-11T05:13:54Z</time>
      </trkpt>
      <trkpt lat="42.91325" lon="0.69263">
        <ele>506</ele>
        <time>2025-06-11T05:14:20Z</time>
      </trkpt>
      <trkpt lat="42.91334" lon="0.69273">
        <ele>506</ele>
        <time>2025-06-11T05:14:30Z</time>
      </trkpt>
      <trkpt lat="42.91342" lon="0.69279">
        <ele>506</ele>
        <time>2025-06-11T05:14:37Z</time>
      </trkpt>
      <trkpt lat="42.91355" lon="0.69286">
        <ele>507</ele>
        <time>2025-06-11T05:14:48Z</time>
      </trkpt>
      <trkpt lat="42.91375" lon="0.69294">
        <ele>507</ele>
        <time>2025-06-11T05:15:05Z</time>
      </trkpt>
      <trkpt lat="42.91393" lon="0.69302">
        <ele>508</ele>
        <time>2025-06-11T05:15:20Z</time>
      </trkpt>
      <trkpt lat="42.91405" lon="0.69304">
        <ele>509</ele>
        <time>2025-06-11T05:15:30Z</time>
      </trkpt>
      <trkpt lat="42.91419" lon="0.69304">
        <ele>509</ele>
        <time>2025-06-11T05:15:41Z</time>
      </trkpt>
      <trkpt lat="42.91426" lon="0.69302">
        <ele>510</ele>
        <time>2025-06-11T05:15:47Z</time>
      </trkpt>
      <trkpt lat="42.91434" lon="0.693">
        <ele>510</ele>
        <time>2025-06-11T05:15:53Z</time>
      </trkpt>
      <trkpt lat="42.91449" lon="0.69293">
        <ele>510</ele>
        <time>2025-06-11T05:16:06Z</time>
      </trkpt>
      <trkpt lat="42.91465" lon="0.69282">
        <ele>510</ele>
        <time>2025-06-11T05:16:20Z</time>
      </trkpt>
      <trkpt lat="42.91472" lon="0.69276">
        <ele>510</ele>
        <time>2025-06-11T05:16:27Z</time>
      </trkpt>
      <trkpt lat="42.91482" lon="0.69265">
        <ele>509</ele>
        <time>2025-06-11T05:16:37Z</time>
      </trkpt>
      <trkpt lat="42.91494" lon="0.6925">
        <ele>507</ele>
        <time>2025-06-11T05:16:50Z</time>
      </trkpt>
      <trkpt lat="42.91509" lon="0.69228">
        <ele>510</ele>
        <time>2025-06-11T05:17:08Z</time>
      </trkpt>
      <trkpt lat="42.91529" lon="0.69198">
        <ele>511</ele>
        <time>2025-06-11T05:17:31Z</time>
      </trkpt>
      <trkpt lat="42.91534" lon="0.69191">
        <ele>510</ele>
        <time>2025-06-11T05:17:37Z</time>
      </trkpt>
      <trkpt lat="42.91536" lon="0.69185">
        <ele>510</ele>
        <time>2025-06-11T05:17:41Z</time>
      </trkpt>
      <trkpt lat="42.91549" lon="0.69146">
        <ele>516</ele>
        <time>2025-06-11T05:18:06Z</time>
      </trkpt>
      <trkpt lat="42.91565" lon="0.6911">
        <ele>521</ele>
        <time>2025-06-11T05:18:31Z</time>
      </trkpt>
      <trkpt lat="42.91596" lon="0.69051">
        <ele>523</ele>
        <time>2025-06-11T05:19:13Z</time>
      </trkpt>
      <trkpt lat="42.91647" lon="0.68948">
        <ele>516</ele>
        <time>2025-06-11T05:20:26Z</time>
      </trkpt>
      <trkpt lat="42.91661" lon="0.68913">
        <ele>508</ele>
        <time>2025-06-11T05:20:50Z</time>
      </trkpt>
      <trkpt lat="42.91667" lon="0.68895">
        <ele>502</ele>
        <time>2025-06-11T05:21:01Z</time>
      </trkpt>
      <trkpt lat="42.91671" lon="0.68878">
        <ele>502</ele>
        <time>2025-06-11T05:21:12Z</time>
      </trkpt>
      <trkpt lat="42.91672" lon="0.68859">
        <ele>503</ele>
        <time>2025-06-11T05:21:23Z</time>
      </trkpt>
      <trkpt lat="42.91672" lon="0.68835">
        <ele>503</ele>
        <time>2025-06-11T05:21:37Z</time>
      </trkpt>
      <trkpt lat="42.91668" lon="0.68767">
        <ele>505</ele>
        <time>2025-06-11T05:22:17Z</time>
      </trkpt>
      <trkpt lat="42.91671" lon="0.68741">
        <ele>507</ele>
        <time>2025-06-11T05:22:33Z</time>
      </trkpt>
      <trkpt lat="42.91676" lon="0.68701">
        <ele>509</ele>
        <time>2025-06-11T05:22:56Z</time>
      </trkpt>
      <trkpt lat="42.91681" lon="0.68675">
        <ele>511</ele>
        <time>2025-06-11T05:23:12Z</time>
      </trkpt>
      <trkpt lat="42.91688" lon="0.68647">
        <ele>512</ele>
        <time>2025-06-11T05:23:29Z</time>
      </trkpt>
      <trkpt lat="42.91695" lon="0.68626">
        <ele>512</ele>
        <time>2025-06-11T05:23:43Z</time>
      </trkpt>
      <trkpt lat="42.91704" lon="0.68603">
        <ele>513</ele>
        <time>2025-06-11T05:23:58Z</time>
      </trkpt>
      <trkpt lat="42.91716" lon="0.68578">
        <ele>512</ele>
        <time>2025-06-11T05:24:16Z</time>
      </trkpt>
      <trkpt lat="42.91722" lon="0.68561">
        <ele>512</ele>
        <time>2025-06-11T05:24:27Z</time>
      </trkpt>
      <trkpt lat="42.91734" lon="0.68499">
        <ele>511</ele>
        <time>2025-06-11T05:25:04Z</time>
      </trkpt>
      <trkpt lat="42.91737" lon="0.68462">
        <ele>509</ele>
        <time>2025-06-11T05:25:26Z</time>
      </trkpt>
      <trkpt lat="42.91753" lon="0.68265">
        <ele>502</ele>
        <time>2025-06-11T05:27:22Z</time>
      </trkpt>
      <trkpt lat="42.91755" lon="0.68219">
        <ele>500</ele>
        <time>2025-06-11T05:27:49Z</time>
      </trkpt>
      <trkpt lat="42.91749" lon="0.68158">
        <ele>497</ele>
        <time>2025-06-11T05:28:26Z</time>
      </trkpt>
      <trkpt lat="42.9172" lon="0.67871">
        <ele>508</ele>
        <time>2025-06-11T05:31:15Z</time>
      </trkpt>
      <trkpt lat="42.917" lon="0.67696">
        <ele>508</ele>
        <time>2025-06-11T05:32:59Z</time>
      </trkpt>
      <trkpt lat="42.91695" lon="0.67622">
        <ele>510</ele>
        <time>2025-06-11T05:33:43Z</time>
      </trkpt>
      <trkpt lat="42.917" lon="0.67559">
        <ele>510</ele>
        <time>2025-06-11T05:34:20Z</time>
      </trkpt>
      <trkpt lat="42.917" lon="0.67526">
        <ele>510</ele>
        <time>2025-06-11T05:34:39Z</time>
      </trkpt>
      <trkpt lat="42.91693" lon="0.67493">
        <ele>511</ele>
        <time>2025-06-11T05:35:00Z</time>
      </trkpt>
      <trkpt lat="42.91679" lon="0.6745">
        <ele>511</ele>
        <time>2025-06-11T05:35:27Z</time>
      </trkpt>
      <trkpt lat="42.91673" lon="0.67429">
        <ele>509</ele>
        <time>2025-06-11T05:35:40Z</time>
      </trkpt>
      <trkpt lat="42.91669" lon="0.67404">
        <ele>508</ele>
        <time>2025-06-11T05:35:55Z</time>
      </trkpt>
      <trkpt lat="42.9167" lon="0.67382">
        <ele>509</ele>
        <time>2025-06-11T05:36:08Z</time>
      </trkpt>
      <trkpt lat="42.91674" lon="0.67349">
        <ele>511</ele>
        <time>2025-06-11T05:36:28Z</time>
      </trkpt>
      <trkpt lat="42.91677" lon="0.67318">
        <ele>513</ele>
        <time>2025-06-11T05:36:46Z</time>
      </trkpt>
      <trkpt lat="42.91678" lon="0.67283">
        <ele>514</ele>
        <time>2025-06-11T05:37:07Z</time>
      </trkpt>
      <trkpt lat="42.91671" lon="0.67233">
        <ele>514</ele>
        <time>2025-06-11T05:37:37Z</time>
      </trkpt>
      <trkpt lat="42.91634" lon="0.6711">
        <ele>519</ele>
        <time>2025-06-11T05:38:55Z</time>
      </trkpt>
      <trkpt lat="42.91609" lon="0.67009">
        <ele>517</ele>
        <time>2025-06-11T05:39:57Z</time>
      </trkpt>
      <trkpt lat="42.91591" lon="0.66946">
        <ele>517</ele>
        <time>2025-06-11T05:40:37Z</time>
      </trkpt>
      <trkpt lat="42.91565" lon="0.669">
        <ele>521</ele>
        <time>2025-06-11T05:41:11Z</time>
      </trkpt>
      <trkpt lat="42.91529" lon="0.66853">
        <ele>525</ele>
        <time>2025-06-11T05:41:51Z</time>
      </trkpt>
      <trkpt lat="42.91514" lon="0.66826">
        <ele>524</ele>
        <time>2025-06-11T05:42:11Z</time>
      </trkpt>
      <trkpt lat="42.91508" lon="0.66811">
        <ele>523</ele>
        <time>2025-06-11T05:42:21Z</time>
      </trkpt>
      <trkpt lat="42.91507" lon="0.6679">
        <ele>523</ele>
        <time>2025-06-11T05:42:33Z</time>
      </trkpt>
      <trkpt lat="42.91509" lon="0.66771">
        <ele>523</ele>
        <time>2025-06-11T05:42:44Z</time>
      </trkpt>
      <trkpt lat="42.91519" lon="0.66721">
        <ele>521</ele>
        <time>2025-06-11T05:43:15Z</time>
      </trkpt>
      <trkpt lat="42.91515" lon="0.66672">
        <ele>514</ele>
        <time>2025-06-11T05:43:44Z</time>
      </trkpt>
      <trkpt lat="42.91483" lon="0.6654">
        <ele>518</ele>
        <time>2025-06-11T05:45:05Z</time>
      </trkpt>
      <trkpt lat="42.91478" lon="0.66493">
        <ele>516</ele>
        <time>2025-06-11T05:45:33Z</time>
      </trkpt>
      <trkpt lat="42.9148" lon="0.66418">
        <ele>506</ele>
        <time>2025-06-11T05:46:17Z</time>
      </trkpt>
      <trkpt lat="42.91471" lon="0.66362">
        <ele>505</ele>
        <time>2025-06-11T05:46:51Z</time>
      </trkpt>
      <trkpt lat="42.91463" lon="0.66316">
        <ele>505</ele>
        <time>2025-06-11T05:47:18Z</time>
      </trkpt>
      <trkpt lat="42.91448" lon="0.66249">
        <ele>505</ele>
        <time>2025-06-11T05:47:59Z</time>
      </trkpt>
      <trkpt lat="42.91383" lon="0.65969">
        <ele>515</ele>
        <time>2025-06-11T05:50:52Z</time>
      </trkpt>
      <trkpt lat="42.91375" lon="0.65935">
        <ele>515</ele>
        <time>2025-06-11T05:51:13Z</time>
      </trkpt>
      <trkpt lat="42.91367" lon="0.65911">
        <ele>515</ele>
        <time>2025-06-11T05:51:28Z</time>
      </trkpt>
      <trkpt lat="42.91361" lon="0.65899">
        <ele>515</ele>
        <time>2025-06-11T05:51:37Z</time>
      </trkpt>
      <trkpt lat="42.91358" lon="0.65892">
        <ele>515</ele>
        <time>2025-06-11T05:51:41Z</time>
      </trkpt>
      <trkpt lat="42.91354" lon="0.65882">
        <ele>515</ele>
        <time>2025-06-11T05:51:48Z</time>
      </trkpt>
      <trkpt lat="42.91344" lon="0.65857">
        <ele>515</ele>
        <time>2025-06-11T05:52:05Z</time>
      </trkpt>
      <trkpt lat="42.91336" lon="0.65827">
        <ele>515</ele>
        <time>2025-06-11T05:52:23Z</time>
      </trkpt>
      <trkpt lat="42.91334" lon="0.65808">
        <ele>515</ele>
        <time>2025-06-11T05:52:35Z</time>
      </trkpt>
      <trkpt lat="42.91334" lon="0.65797">
        <ele>515</ele>
        <time>2025-06-11T05:52:41Z</time>
      </trkpt>
      <trkpt lat="42.91334" lon="0.65769">
        <ele>515</ele>
        <time>2025-06-11T05:52:57Z</time>
      </trkpt>
      <trkpt lat="42.91338" lon="0.65713">
        <ele>513</ele>
        <time>2025-06-11T05:53:30Z</time>
      </trkpt>
      <trkpt lat="42.91338" lon="0.65683">
        <ele>512</ele>
        <time>2025-06-11T05:53:48Z</time>
      </trkpt>
      <trkpt lat="42.9133" lon="0.65542">
        <ele>509</ele>
        <time>2025-06-11T05:55:11Z</time>
      </trkpt>
      <trkpt lat="42.9133" lon="0.65507">
        <ele>508</ele>
        <time>2025-06-11T05:55:32Z</time>
      </trkpt>
      <trkpt lat="42.91333" lon="0.65466">
        <ele>505</ele>
        <time>2025-06-11T05:55:56Z</time>
      </trkpt>
      <trkpt lat="42.91341" lon="0.65411">
        <ele>502</ele>
        <time>2025-06-11T05:56:29Z</time>
      </trkpt>
      <trkpt lat="42.91346" lon="0.65381">
        <ele>501</ele>
        <time>2025-06-11T05:56:47Z</time>
      </trkpt>
      <trkpt lat="42.91347" lon="0.65369">
        <ele>500</ele>
        <time>2025-06-11T05:56:54Z</time>
      </trkpt>
      <trkpt lat="42.91378" lon="0.6517">
        <ele>496</ele>
        <time>2025-06-11T05:58:53Z</time>
      </trkpt>
      <trkpt lat="42.91385" lon="0.6512">
        <ele>495</ele>
        <time>2025-06-11T05:59:23Z</time>
      </trkpt>
      <trkpt lat="42.91388" lon="0.65099">
        <ele>494</ele>
        <time>2025-06-11T05:59:35Z</time>
      </trkpt>
      <trkpt lat="42.91392" lon="0.65068">
        <ele>493</ele>
        <time>2025-06-11T05:59:54Z</time>
      </trkpt>
      <trkpt lat="42.91401" lon="0.64994">
        <ele>489</ele>
        <time>2025-06-11T06:00:38Z</time>
      </trkpt>
      <trkpt lat="42.91404" lon="0.64974">
        <ele>488</ele>
        <time>2025-06-11T06:00:50Z</time>
      </trkpt>
      <trkpt lat="42.91404" lon="0.64969">
        <ele>488</ele>
        <time>2025-06-11T06:00:53Z</time>
      </trkpt>
      <trkpt lat="42.91405" lon="0.64959">
        <ele>488</ele>
        <time>2025-06-11T06:00:59Z</time>
      </trkpt>
      <trkpt lat="42.91407" lon="0.64945">
        <ele>488</ele>
        <time>2025-06-11T06:01:07Z</time>
      </trkpt>
      <trkpt lat="42.91412" lon="0.64913">
        <ele>487</ele>
        <time>2025-06-11T06:01:26Z</time>
      </trkpt>
      <trkpt lat="42.91419" lon="0.64865">
        <ele>485</ele>
        <time>2025-06-11T06:01:55Z</time>
      </trkpt>
      <trkpt lat="42.91426" lon="0.64819">
        <ele>484</ele>
        <time>2025-06-11T06:02:22Z</time>
      </trkpt>
      <trkpt lat="42.9143" lon="0.64811">
        <ele>484</ele>
        <time>2025-06-11T06:02:28Z</time>
      </trkpt>
      <trkpt lat="42.91435" lon="0.64781">
        <ele>485</ele>
        <time>2025-06-11T06:02:46Z</time>
      </trkpt>
      <trkpt lat="42.91437" lon="0.64774">
        <ele>485</ele>
        <time>2025-06-11T06:02:51Z</time>
      </trkpt>
      <trkpt lat="42.91441" lon="0.64762">
        <ele>485</ele>
        <time>2025-06-11T06:02:58Z</time>
      </trkpt>
      <trkpt lat="42.91444" lon="0.6476">
        <ele>485</ele>
        <time>2025-06-11T06:03:01Z</time>
      </trkpt>
      <trkpt lat="42.91448" lon="0.64754">
        <ele>485</ele>
        <time>2025-06-11T06:03:06Z</time>
      </trkpt>
      <trkpt lat="42.91453" lon="0.64751">
        <ele>485</ele>
        <time>2025-06-11T06:03:10Z</time>
      </trkpt>
      <trkpt lat="42.91459" lon="0.64748">
        <ele>485</ele>
        <time>2025-06-11T06:03:15Z</time>
      </trkpt>
      <trkpt lat="42.91478" lon="0.64744">
        <ele>484</ele>
        <time>2025-06-11T06:03:31Z</time>
      </trkpt>
      <trkpt lat="42.91479" lon="0.64753">
        <ele>484</ele>
        <time>2025-06-11T06:03:36Z</time>
      </trkpt>
      <trkpt lat="42.91519" lon="0.648">
        <ele>485</ele>
        <time>2025-06-11T06:04:18Z</time>
      </trkpt>
      <trkpt lat="42.91525" lon="0.64808">
        <ele>485</ele>
        <time>2025-06-11T06:04:25Z</time>
      </trkpt>
      <trkpt lat="42.91528" lon="0.64816">
        <ele>485</ele>
        <time>2025-06-11T06:04:30Z</time>
      </trkpt>
      <trkpt lat="42.915" lon="0.64848">
        <ele>485</ele>
        <time>2025-06-11T06:04:59Z</time>
      </trkpt>
      <trkpt lat="42.91528" lon="0.64816">
        <ele>485</ele>
        <time>2025-06-11T06:05:29Z</time>
      </trkpt>
      <trkpt lat="42.91525" lon="0.64808">
        <ele>485</ele>
        <time>2025-06-11T06:05:34Z</time>
      </trkpt>
      <trkpt lat="42.91519" lon="0.648">
        <ele>485</ele>
        <time>2025-06-11T06:05:41Z</time>
      </trkpt>
      <trkpt lat="42.91479" lon="0.64753">
        <ele>484</ele>
        <time>2025-06-11T06:06:23Z</time>
      </trkpt>
      <trkpt lat="42.91478" lon="0.64744">
        <ele>484</ele>
        <time>2025-06-11T06:06:28Z</time>
      </trkpt>
      <trkpt lat="42.91516" lon="0.64741">
        <ele>484</ele>
        <time>2025-06-11T06:06:59Z</time>
      </trkpt>
      <trkpt lat="42.91602" lon="0.64735">
        <ele>485</ele>
        <time>2025-06-11T06:08:08Z</time>
      </trkpt>
      <trkpt lat="42.91715" lon="0.64728">
        <ele>488</ele>
        <time>2025-06-11T06:09:38Z</time>
      </trkpt>
      <trkpt lat="42.91768" lon="0.64724">
        <ele>488</ele>
        <time>2025-06-11T06:10:21Z</time>
      </trkpt>
      <trkpt lat="42.91963" lon="0.6471">
        <ele>487</ele>
        <time>2025-06-11T06:12:57Z</time>
      </trkpt>
      <trkpt lat="42.91986" lon="0.64709">
        <ele>488</ele>
        <time>2025-06-11T06:13:16Z</time>
      </trkpt>
      <trkpt lat="42.92031" lon="0.64711">
        <ele>487</ele>
        <time>2025-06-11T06:13:52Z</time>
      </trkpt>
      <trkpt lat="42.92053" lon="0.64714">
        <ele>486</ele>
        <time>2025-06-11T06:14:09Z</time>
      </trkpt>
      <trkpt lat="42.92074" lon="0.64718">
        <ele>485</ele>
        <time>2025-06-11T06:14:26Z</time>
      </trkpt>
      <trkpt lat="42.92119" lon="0.64733">
        <ele>485</ele>
        <time>2025-06-11T06:15:03Z</time>
      </trkpt>
      <trkpt lat="42.92159" lon="0.64751">
        <ele>485</ele>
        <time>2025-06-11T06:15:37Z</time>
      </trkpt>
      <trkpt lat="42.92196" lon="0.64772">
        <ele>486</ele>
        <time>2025-06-11T06:16:09Z</time>
      </trkpt>
      <trkpt lat="42.92393" lon="0.64898">
        <ele>484</ele>
        <time>2025-06-11T06:19:03Z</time>
      </trkpt>
      <trkpt lat="42.92437" lon="0.64925">
        <ele>483</ele>
        <time>2025-06-11T06:19:42Z</time>
      </trkpt>
      <trkpt lat="42.92492" lon="0.64955">
        <ele>482</ele>
        <time>2025-06-11T06:20:29Z</time>
      </trkpt>
      <trkpt lat="42.92607" lon="0.65011">
        <ele>481</ele>
        <time>2025-06-11T06:22:07Z</time>
      </trkpt>
      <trkpt lat="42.9266" lon="0.65036">
        <ele>482</ele>
        <time>2025-06-11T06:22:52Z</time>
      </trkpt>
      <trkpt lat="42.92746" lon="0.65075">
        <ele>479</ele>
        <time>2025-06-11T06:24:05Z</time>
      </trkpt>
      <trkpt lat="42.92786" lon="0.6509">
        <ele>479</ele>
        <time>2025-06-11T06:24:38Z</time>
      </trkpt>
      <trkpt lat="42.92814" lon="0.65097">
        <ele>479</ele>
        <time>2025-06-11T06:25:01Z</time>
      </trkpt>
      <trkpt lat="42.9284" lon="0.65101">
        <ele>480</ele>
        <time>2025-06-11T06:25:22Z</time>
      </trkpt>
      <trkpt lat="42.92867" lon="0.65102">
        <ele>479</ele>
        <time>2025-06-11T06:25:43Z</time>
      </trkpt>
      <trkpt lat="42.92896" lon="0.65099">
        <ele>479</ele>
        <time>2025-06-11T06:26:06Z</time>
      </trkpt>
      <trkpt lat="42.92914" lon="0.65097">
        <ele>479</ele>
        <time>2025-06-11T06:26:21Z</time>
      </trkpt>
      <trkpt lat="42.92931" lon="0.65092">
        <ele>479</ele>
        <time>2025-06-11T06:26:35Z</time>
      </trkpt>
      <trkpt lat="42.92956" lon="0.65083">
        <ele>479</ele>
        <time>2025-06-11T06:26:56Z</time>
      </trkpt>
      <trkpt lat="42.93" lon="0.65066">
        <ele>478</ele>
        <time>2025-06-11T06:27:32Z</time>
      </trkpt>
      <trkpt lat="42.93029" lon="0.65053">
        <ele>478</ele>
        <time>2025-06-11T06:27:57Z</time>
      </trkpt>
      <trkpt lat="42.93044" lon="0.65047">
        <ele>478</ele>
        <time>2025-06-11T06:28:09Z</time>
      </trkpt>
      <trkpt lat="42.93122" lon="0.65016">
        <ele>479</ele>
        <time>2025-06-11T06:29:14Z</time>
      </trkpt>
      <trkpt lat="42.93286" lon="0.64949">
        <ele>491</ele>
        <time>2025-06-11T06:31:31Z</time>
      </trkpt>
      <trkpt lat="42.93341" lon="0.64924">
        <ele>487</ele>
        <time>2025-06-11T06:32:18Z</time>
      </trkpt>
      <trkpt lat="42.93382" lon="0.649">
        <ele>490</ele>
        <time>2025-06-11T06:32:53Z</time>
      </trkpt>
      <trkpt lat="42.93407" lon="0.64884">
        <ele>493</ele>
        <time>2025-06-11T06:33:15Z</time>
      </trkpt>
      <trkpt lat="42.93433" lon="0.64866">
        <ele>493</ele>
        <time>2025-06-11T06:33:39Z</time>
      </trkpt>
      <trkpt lat="42.93469" lon="0.64839">
        <ele>490</ele>
        <time>2025-06-11T06:34:12Z</time>
      </trkpt>
      <trkpt lat="42.9351" lon="0.64804">
        <ele>484</ele>
        <time>2025-06-11T06:34:50Z</time>
      </trkpt>
      <trkpt lat="42.93545" lon="0.64772">
        <ele>482</ele>
        <time>2025-06-11T06:35:24Z</time>
      </trkpt>
      <trkpt lat="42.93714" lon="0.646">
        <ele>479</ele>
        <time>2025-06-11T06:38:13Z</time>
      </trkpt>
      <trkpt lat="42.93745" lon="0.6457">
        <ele>478</ele>
        <time>2025-06-11T06:38:43Z</time>
      </trkpt>
      <trkpt lat="42.93769" lon="0.64552">
        <ele>479</ele>
        <time>2025-06-11T06:39:05Z</time>
      </trkpt>
      <trkpt lat="42.93791" lon="0.6454">
        <ele>479</ele>
        <time>2025-06-11T06:39:24Z</time>
      </trkpt>
      <trkpt lat="42.93805" lon="0.64533">
        <ele>479</ele>
        <time>2025-06-11T06:39:36Z</time>
      </trkpt>
      <trkpt lat="42.93821" lon="0.64527">
        <ele>478</ele>
        <time>2025-06-11T06:39:49Z</time>
      </trkpt>
      <trkpt lat="42.93839" lon="0.64522">
        <ele>477</ele>
        <time>2025-06-11T06:40:04Z</time>
      </trkpt>
      <trkpt lat="42.9392" lon="0.64507">
        <ele>475</ele>
        <time>2025-06-11T06:41:10Z</time>
      </trkpt>
      <trkpt lat="42.93932" lon="0.64505">
        <ele>474</ele>
        <time>2025-06-11T06:41:19Z</time>
      </trkpt>
      <trkpt lat="42.93952" lon="0.64501">
        <ele>474</ele>
        <time>2025-06-11T06:41:35Z</time>
      </trkpt>
      <trkpt lat="42.94004" lon="0.64489">
        <ele>473</ele>
        <time>2025-06-11T06:42:18Z</time>
      </trkpt>
      <trkpt lat="42.94184" lon="0.64447">
        <ele>476</ele>
        <time>2025-06-11T06:44:44Z</time>
      </trkpt>
      <trkpt lat="42.94192" lon="0.64444">
        <ele>476</ele>
        <time>2025-06-11T06:44:50Z</time>
      </trkpt>
      <trkpt lat="42.94222" lon="0.64435">
        <ele>476</ele>
        <time>2025-06-11T06:45:15Z</time>
      </trkpt>
      <trkpt lat="42.94247" lon="0.64425">
        <ele>476</ele>
        <time>2025-06-11T06:45:36Z</time>
      </trkpt>
      <trkpt lat="42.9427" lon="0.64412">
        <ele>476</ele>
        <time>2025-06-11T06:45:56Z</time>
      </trkpt>
      <trkpt lat="42.94375" lon="0.64344">
        <ele>473</ele>
        <time>2025-06-11T06:47:29Z</time>
      </trkpt>
      <trkpt lat="42.94394" lon="0.64335">
        <ele>473</ele>
        <time>2025-06-11T06:47:45Z</time>
      </trkpt>
      <trkpt lat="42.94403" lon="0.64333">
        <ele>472</ele>
        <time>2025-06-11T06:47:52Z</time>
      </trkpt>
      <trkpt lat="42.94414" lon="0.64331">
        <ele>472</ele>
        <time>2025-06-11T06:48:01Z</time>
      </trkpt>
      <trkpt lat="42.94444" lon="0.64312">
        <ele>471</ele>
        <time>2025-06-11T06:48:28Z</time>
      </trkpt>
      <trkpt lat="42.94454" lon="0.643">
        <ele>471</ele>
        <time>2025-06-11T06:48:38Z</time>
      </trkpt>
      <trkpt lat="42.94458" lon="0.64294">
        <ele>471</ele>
        <time>2025-06-11T06:48:43Z</time>
      </trkpt>
      <trkpt lat="42.94475" lon="0.64279">
        <ele>471</ele>
        <time>2025-06-11T06:48:59Z</time>
      </trkpt>
      <trkpt lat="42.94676" lon="0.64151">
        <ele>472</ele>
        <time>2025-06-11T06:51:57Z</time>
      </trkpt>
      <trkpt lat="42.94697" lon="0.64137">
        <ele>472</ele>
        <time>2025-06-11T06:52:16Z</time>
      </trkpt>
      <trkpt lat="42.94708" lon="0.6413">
        <ele>471</ele>
        <time>2025-06-11T06:52:25Z</time>
      </trkpt>
      <trkpt lat="42.94714" lon="0.64126">
        <ele>471</ele>
        <time>2025-06-11T06:52:31Z</time>
      </trkpt>
      <trkpt lat="42.94794" lon="0.64073">
        <ele>470</ele>
        <time>2025-06-11T06:53:42Z</time>
      </trkpt>
      <trkpt lat="42.94883" lon="0.64018">
        <ele>470</ele>
        <time>2025-06-11T06:55:00Z</time>
      </trkpt>
      <trkpt lat="42.949" lon="0.64007">
        <ele>470</ele>
        <time>2025-06-11T06:55:15Z</time>
      </trkpt>
      <trkpt lat="42.94934" lon="0.63978">
        <ele>470</ele>
        <time>2025-06-11T06:55:47Z</time>
      </trkpt>
      <trkpt lat="42.94986" lon="0.63934">
        <ele>469</ele>
        <time>2025-06-11T06:56:36Z</time>
      </trkpt>
      <trkpt lat="42.95044" lon="0.63886">
        <ele>470</ele>
        <time>2025-06-11T06:57:30Z</time>
      </trkpt>
      <trkpt lat="42.95097" lon="0.63839">
        <ele>470</ele>
        <time>2025-06-11T06:58:21Z</time>
      </trkpt>
      <trkpt lat="42.95126" lon="0.63802">
        <ele>471</ele>
        <time>2025-06-11T06:58:53Z</time>
      </trkpt>
      <trkpt lat="42.9516" lon="0.6377">
        <ele>471</ele>
        <time>2025-06-11T06:59:26Z</time>
      </trkpt>
      <trkpt lat="42.95253" lon="0.63708">
        <ele>471</ele>
        <time>2025-06-11T07:00:49Z</time>
      </trkpt>
      <trkpt lat="42.95387" lon="0.63619">
        <ele>470</ele>
        <time>2025-06-11T07:02:48Z</time>
      </trkpt>
      <trkpt lat="42.95463" lon="0.63567">
        <ele>470</ele>
        <time>2025-06-11T07:03:56Z</time>
      </trkpt>
      <trkpt lat="42.95583" lon="0.63487">
        <ele>469</ele>
        <time>2025-06-11T07:05:43Z</time>
      </trkpt>
      <trkpt lat="42.95795" lon="0.63353">
        <ele>467</ele>
        <time>2025-06-11T07:08:50Z</time>
      </trkpt>
      <trkpt lat="42.95897" lon="0.63287">
        <ele>467</ele>
        <time>2025-06-11T07:10:20Z</time>
      </trkpt>
      <trkpt lat="42.96122" lon="0.63143">
        <ele>464</ele>
        <time>2025-06-11T07:13:39Z</time>
      </trkpt>
      <trkpt lat="42.96151" lon="0.63126">
        <ele>464</ele>
        <time>2025-06-11T07:14:05Z</time>
      </trkpt>
      <trkpt lat="42.96172" lon="0.63115">
        <ele>463</ele>
        <time>2025-06-11T07:14:23Z</time>
      </trkpt>
      <trkpt lat="42.96194" lon="0.63107">
        <ele>464</ele>
        <time>2025-06-11T07:14:41Z</time>
      </trkpt>
      <trkpt lat="42.96274" lon="0.63083">
        <ele>465</ele>
        <time>2025-06-11T07:15:46Z</time>
      </trkpt>
      <trkpt lat="42.96357" lon="0.63058">
        <ele>464</ele>
        <time>2025-06-11T07:16:54Z</time>
      </trkpt>
      <trkpt lat="42.96496" lon="0.63019">
        <ele>464</ele>
        <time>2025-06-11T07:18:48Z</time>
      </trkpt>
      <trkpt lat="42.96555" lon="0.62998">
        <ele>463</ele>
        <time>2025-06-11T07:19:37Z</time>
      </trkpt>
      <trkpt lat="42.96598" lon="0.62978">
        <ele>462</ele>
        <time>2025-06-11T07:20:13Z</time>
      </trkpt>
      <trkpt lat="42.96624" lon="0.62968">
        <ele>462</ele>
        <time>2025-06-11T07:20:35Z</time>
      </trkpt>
      <trkpt lat="42.96639" lon="0.62962">
        <ele>462</ele>
        <time>2025-06-11T07:20:47Z</time>
      </trkpt>
      <trkpt lat="42.96662" lon="0.62952">
        <ele>463</ele>
        <time>2025-06-11T07:21:07Z</time>
      </trkpt>
      <trkpt lat="42.96779" lon="0.62901">
        <ele>462</ele>
        <time>2025-06-11T07:22:45Z</time>
      </trkpt>
      <trkpt lat="42.9683" lon="0.62879">
        <ele>462</ele>
        <time>2025-06-11T07:23:28Z</time>
      </trkpt>
      <trkpt lat="42.9704" lon="0.62788">
        <ele>461</ele>
        <time>2025-06-11T07:26:24Z</time>
      </trkpt>
      <trkpt lat="42.97069" lon="0.62771">
        <ele>460</ele>
        <time>2025-06-11T07:26:49Z</time>
      </trkpt>
      <trkpt lat="42.9708" lon="0.62763">
        <ele>460</ele>
        <time>2025-06-11T07:26:59Z</time>
      </trkpt>
      <trkpt lat="42.97231" lon="0.62642">
        <ele>463</ele>
        <time>2025-06-11T07:29:20Z</time>
      </trkpt>
      <trkpt lat="42.97247" lon="0.6263">
        <ele>463</ele>
        <time>2025-06-11T07:29:34Z</time>
      </trkpt>
      <trkpt lat="42.97262" lon="0.62623">
        <ele>463</ele>
        <time>2025-06-11T07:29:47Z</time>
      </trkpt>
      <trkpt lat="42.97271" lon="0.62618">
        <ele>463</ele>
        <time>2025-06-11T07:29:55Z</time>
      </trkpt>
      <trkpt lat="42.97287" lon="0.62615">
        <ele>463</ele>
        <time>2025-06-11T07:30:08Z</time>
      </trkpt>
      <trkpt lat="42.97318" lon="0.62611">
        <ele>463</ele>
        <time>2025-06-11T07:30:33Z</time>
      </trkpt>
      <trkpt lat="42.9741" lon="0.62604">
        <ele>462</ele>
        <time>2025-06-11T07:31:46Z</time>
      </trkpt>
      <trkpt lat="42.97601" lon="0.62591">
        <ele>463</ele>
        <time>2025-06-11T07:34:19Z</time>
      </trkpt>
      <trkpt lat="42.97616" lon="0.6259">
        <ele>463</ele>
        <time>2025-06-11T07:34:31Z</time>
      </trkpt>
      <trkpt lat="42.97622" lon="0.62589">
        <ele>463</ele>
        <time>2025-06-11T07:34:36Z</time>
      </trkpt>
      <trkpt lat="42.97633" lon="0.62589">
        <ele>464</ele>
        <time>2025-06-11T07:34:45Z</time>
      </trkpt>
      <trkpt lat="42.97645" lon="0.62589">
        <ele>464</ele>
        <time>2025-06-11T07:34:55Z</time>
      </trkpt>
      <trkpt lat="42.97659" lon="0.62589">
        <ele>465</ele>
        <time>2025-06-11T07:35:06Z</time>
      </trkpt>
      <trkpt lat="42.97691" lon="0.62601">
        <ele>465</ele>
        <time>2025-06-11T07:35:33Z</time>
      </trkpt>
      <trkpt lat="42.97705" lon="0.62609">
        <ele>464</ele>
        <time>2025-06-11T07:35:45Z</time>
      </trkpt>
      <trkpt lat="42.97707" lon="0.6261">
        <ele>464</ele>
        <time>2025-06-11T07:35:46Z</time>
      </trkpt>
      <trkpt lat="42.97749" lon="0.62644">
        <ele>462</ele>
        <time>2025-06-11T07:36:25Z</time>
      </trkpt>
      <trkpt lat="42.97759" lon="0.62654">
        <ele>463</ele>
        <time>2025-06-11T07:36:35Z</time>
      </trkpt>
      <trkpt lat="42.97782" lon="0.62681">
        <ele>463</ele>
        <time>2025-06-11T07:37:00Z</time>
      </trkpt>
      <trkpt lat="42.97786" lon="0.62686">
        <ele>462</ele>
        <time>2025-06-11T07:37:04Z</time>
      </trkpt>
      <trkpt lat="42.97804" lon="0.62707">
        <ele>462</ele>
        <time>2025-06-11T07:37:23Z</time>
      </trkpt>
      <trkpt lat="42.97856" lon="0.62748">
        <ele>461</ele>
        <time>2025-06-11T07:38:11Z</time>
      </trkpt>
      <trkpt lat="42.97886" lon="0.62774">
        <ele>461</ele>
        <time>2025-06-11T07:38:39Z</time>
      </trkpt>
      <trkpt lat="42.9791" lon="0.62796">
        <ele>461</ele>
        <time>2025-06-11T07:39:03Z</time>
      </trkpt>
      <trkpt lat="42.98033" lon="0.62878">
        <ele>459</ele>
        <time>2025-06-11T07:40:52Z</time>
      </trkpt>
      <trkpt lat="42.98075" lon="0.62909">
        <ele>458</ele>
        <time>2025-06-11T07:41:30Z</time>
      </trkpt>
      <trkpt lat="42.98083" lon="0.62912">
        <ele>458</ele>
        <time>2025-06-11T07:41:37Z</time>
      </trkpt>
      <trkpt lat="42.98087" lon="0.62912">
        <ele>458</ele>
        <time>2025-06-11T07:41:40Z</time>
      </trkpt>
      <trkpt lat="42.98096" lon="0.62912">
        <ele>458</ele>
        <time>2025-06-11T07:41:47Z</time>
      </trkpt>
      <trkpt lat="42.98105" lon="0.6291">
        <ele>458</ele>
        <time>2025-06-11T07:41:55Z</time>
      </trkpt>
      <trkpt lat="42.98113" lon="0.62907">
        <ele>458</ele>
        <time>2025-06-11T07:42:01Z</time>
      </trkpt>
      <trkpt lat="42.98123" lon="0.629">
        <ele>459</ele>
        <time>2025-06-11T07:42:10Z</time>
      </trkpt>
      <trkpt lat="42.98135" lon="0.6289">
        <ele>459</ele>
        <time>2025-06-11T07:42:22Z</time>
      </trkpt>
      <trkpt lat="42.98145" lon="0.6288">
        <ele>459</ele>
        <time>2025-06-11T07:42:32Z</time>
      </trkpt>
      <trkpt lat="42.98153" lon="0.62866">
        <ele>459</ele>
        <time>2025-06-11T07:42:42Z</time>
      </trkpt>
      <trkpt lat="42.98159" lon="0.62853">
        <ele>460</ele>
        <time>2025-06-11T07:42:51Z</time>
      </trkpt>
      <trkpt lat="42.98199" lon="0.62766">
        <ele>461</ele>
        <time>2025-06-11T07:43:51Z</time>
      </trkpt>
      <trkpt lat="42.98225" lon="0.62725">
        <ele>463</ele>
        <time>2025-06-11T07:44:23Z</time>
      </trkpt>
      <trkpt lat="42.98243" lon="0.62704">
        <ele>465</ele>
        <time>2025-06-11T07:44:42Z</time>
      </trkpt>
      <trkpt lat="42.98326" lon="0.62624">
        <ele>470</ele>
        <time>2025-06-11T07:46:03Z</time>
      </trkpt>
      <trkpt lat="42.98331" lon="0.62621">
        <ele>469</ele>
        <time>2025-06-11T07:46:08Z</time>
      </trkpt>
      <trkpt lat="42.98346" lon="0.62615">
        <ele>470</ele>
        <time>2025-06-11T07:46:20Z</time>
      </trkpt>
      <trkpt lat="42.9838" lon="0.6261">
        <ele>471</ele>
        <time>2025-06-11T07:46:47Z</time>
      </trkpt>
      <trkpt lat="42.98415" lon="0.62607">
        <ele>471</ele>
        <time>2025-06-11T07:47:16Z</time>
      </trkpt>
      <trkpt lat="42.98531" lon="0.62606">
        <ele>472</ele>
        <time>2025-06-11T07:48:48Z</time>
      </trkpt>
      <trkpt lat="42.98629" lon="0.62605">
        <ele>470</ele>
        <time>2025-06-11T07:50:07Z</time>
      </trkpt>
      <trkpt lat="42.98676" lon="0.62604">
        <ele>469</ele>
        <time>2025-06-11T07:50:45Z</time>
      </trkpt>
      <trkpt lat="42.98747" lon="0.62601">
        <ele>463</ele>
        <time>2025-06-11T07:51:41Z</time>
      </trkpt>
      <trkpt lat="42.98768" lon="0.62597">
        <ele>462</ele>
        <time>2025-06-11T07:51:58Z</time>
      </trkpt>
      <trkpt lat="42.98784" lon="0.62592">
        <ele>461</ele>
        <time>2025-06-11T07:52:12Z</time>
      </trkpt>
      <trkpt lat="42.98799" lon="0.62586">
        <ele>461</ele>
        <time>2025-06-11T07:52:24Z</time>
      </trkpt>
      <trkpt lat="42.98822" lon="0.6258">
        <ele>461</ele>
        <time>2025-06-11T07:52:43Z</time>
      </trkpt>
      <trkpt lat="42.98845" lon="0.62578">
        <ele>460</ele>
        <time>2025-06-11T07:53:01Z</time>
      </trkpt>
      <trkpt lat="42.98871" lon="0.62578">
        <ele>459</ele>
        <time>2025-06-11T07:53:22Z</time>
      </trkpt>
      <trkpt lat="42.98886" lon="0.62579">
        <ele>458</ele>
        <time>2025-06-11T07:53:34Z</time>
      </trkpt>
      <trkpt lat="42.98904" lon="0.62578">
        <ele>457</ele>
        <time>2025-06-11T07:53:48Z</time>
      </trkpt>
      <trkpt lat="42.98917" lon="0.62575">
        <ele>457</ele>
        <time>2025-06-11T07:53:59Z</time>
      </trkpt>
      <trkpt lat="42.98937" lon="0.62564">
        <ele>458</ele>
        <time>2025-06-11T07:54:16Z</time>
      </trkpt>
      <trkpt lat="42.98944" lon="0.62558">
        <ele>458</ele>
        <time>2025-06-11T07:54:23Z</time>
      </trkpt>
      <trkpt lat="42.9897" lon="0.62526">
        <ele>460</ele>
        <time>2025-06-11T07:54:51Z</time>
      </trkpt>
      <trkpt lat="42.99008" lon="0.62496">
        <ele>459</ele>
        <time>2025-06-11T07:55:26Z</time>
      </trkpt>
      <trkpt lat="42.99075" lon="0.62444">
        <ele>453</ele>
        <time>2025-06-11T07:56:28Z</time>
      </trkpt>
      <trkpt lat="42.99146" lon="0.62391">
        <ele>450</ele>
        <time>2025-06-11T07:57:33Z</time>
      </trkpt>
      <trkpt lat="42.99209" lon="0.62344">
        <ele>449</ele>
        <time>2025-06-11T07:58:30Z</time>
      </trkpt>
      <trkpt lat="42.99216" lon="0.62339">
        <ele>449</ele>
        <time>2025-06-11T07:58:36Z</time>
      </trkpt>
      <trkpt lat="42.9925" lon="0.62313">
        <ele>450</ele>
        <time>2025-06-11T07:59:08Z</time>
      </trkpt>
      <trkpt lat="42.99588" lon="0.6206">
        <ele>459</ele>
        <time>2025-06-11T08:04:16Z</time>
      </trkpt>
      <trkpt lat="42.99592" lon="0.62057">
        <ele>460</ele>
        <time>2025-06-11T08:04:20Z</time>
      </trkpt>
      <trkpt lat="42.99612" lon="0.62042">
        <ele>463</ele>
        <time>2025-06-11T08:04:38Z</time>
      </trkpt>
      <trkpt lat="42.99634" lon="0.62021">
        <ele>465</ele>
        <time>2025-06-11T08:04:59Z</time>
      </trkpt>
      <trkpt lat="42.99639" lon="0.62016">
        <ele>465</ele>
        <time>2025-06-11T08:05:04Z</time>
      </trkpt>
      <trkpt lat="42.99698" lon="0.6195">
        <ele>469</ele>
        <time>2025-06-11T08:06:05Z</time>
      </trkpt>
      <trkpt lat="42.9974" lon="0.61902">
        <ele>466</ele>
        <time>2025-06-11T08:06:49Z</time>
      </trkpt>
      <trkpt lat="42.99768" lon="0.61875">
        <ele>466</ele>
        <time>2025-06-11T08:07:17Z</time>
      </trkpt>
      <trkpt lat="42.99787" lon="0.61863">
        <ele>464</ele>
        <time>2025-06-11T08:07:33Z</time>
      </trkpt>
      <trkpt lat="42.99863" lon="0.61823">
        <ele>457</ele>
        <time>2025-06-11T08:08:39Z</time>
      </trkpt>
      <trkpt lat="42.99896" lon="0.61809">
        <ele>457</ele>
        <time>2025-06-11T08:09:06Z</time>
      </trkpt>
      <trkpt lat="42.99913" lon="0.61801">
        <ele>457</ele>
        <time>2025-06-11T08:09:21Z</time>
      </trkpt>
      <trkpt lat="42.99975" lon="0.61765">
        <ele>456</ele>
        <time>2025-06-11T08:10:15Z</time>
      </trkpt>
      <trkpt lat="42.99979" lon="0.61761">
        <ele>456</ele>
        <time>2025-06-11T08:10:19Z</time>
      </trkpt>
      <trkpt lat="42.99985" lon="0.61758">
        <ele>456</ele>
        <time>2025-06-11T08:10:24Z</time>
      </trkpt>
      <trkpt lat="43.00011" lon="0.61737">
        <ele>454</ele>
        <time>2025-06-11T08:10:48Z</time>
      </trkpt>
      <trkpt lat="43.0002" lon="0.61726">
        <ele>454</ele>
        <time>2025-06-11T08:10:58Z</time>
      </trkpt>
      <trkpt lat="43.00032" lon="0.61711">
        <ele>453</ele>
        <time>2025-06-11T08:11:11Z</time>
      </trkpt>
      <trkpt lat="43.00059" lon="0.61671">
        <ele>451</ele>
        <time>2025-06-11T08:11:42Z</time>
      </trkpt>
      <trkpt lat="43.00086" lon="0.61637">
        <ele>451</ele>
        <time>2025-06-11T08:12:12Z</time>
      </trkpt>
      <trkpt lat="43.0011" lon="0.61609">
        <ele>451</ele>
        <time>2025-06-11T08:12:37Z</time>
      </trkpt>
      <trkpt lat="43.00134" lon="0.61585">
        <ele>451</ele>
        <time>2025-06-11T08:13:01Z</time>
      </trkpt>
      <trkpt lat="43.00219" lon="0.61518">
        <ele>450</ele>
        <time>2025-06-11T08:14:19Z</time>
      </trkpt>
      <trkpt lat="43.00283" lon="0.61468">
        <ele>450</ele>
        <time>2025-06-11T08:15:19Z</time>
      </trkpt>
      <trkpt lat="43.00305" lon="0.6145">
        <ele>451</ele>
        <time>2025-06-11T08:15:39Z</time>
      </trkpt>
      <trkpt lat="43.00381" lon="0.61391">
        <ele>456</ele>
        <time>2025-06-11T08:16:49Z</time>
      </trkpt>
      <trkpt lat="43.00387" lon="0.61386">
        <ele>457</ele>
        <time>2025-06-11T08:16:55Z</time>
      </trkpt>
      <trkpt lat="43.00412" lon="0.61366">
        <ele>461</ele>
        <time>2025-06-11T08:17:18Z</time>
      </trkpt>
      <trkpt lat="43.00417" lon="0.61362">
        <ele>462</ele>
        <time>2025-06-11T08:17:22Z</time>
      </trkpt>
      <trkpt lat="43.00452" lon="0.61334">
        <ele>462</ele>
        <time>2025-06-11T08:17:55Z</time>
      </trkpt>
      <trkpt lat="43.00502" lon="0.61304">
        <ele>468</ele>
        <time>2025-06-11T08:18:39Z</time>
      </trkpt>
      <trkpt lat="43.00542" lon="0.61287">
        <ele>471</ele>
        <time>2025-06-11T08:19:12Z</time>
      </trkpt>
      <trkpt lat="43.00576" lon="0.61279">
        <ele>470</ele>
        <time>2025-06-11T08:19:40Z</time>
      </trkpt>
      <trkpt lat="43.00603" lon="0.6128">
        <ele>471</ele>
        <time>2025-06-11T08:20:01Z</time>
      </trkpt>
      <trkpt lat="43.00628" lon="0.61282">
        <ele>473</ele>
        <time>2025-06-11T08:20:21Z</time>
      </trkpt>
      <trkpt lat="43.00659" lon="0.6129">
        <ele>473</ele>
        <time>2025-06-11T08:20:47Z</time>
      </trkpt>
      <trkpt lat="43.00696" lon="0.61306">
        <ele>473</ele>
        <time>2025-06-11T08:21:18Z</time>
      </trkpt>
      <trkpt lat="43.00739" lon="0.61334">
        <ele>469</ele>
        <time>2025-06-11T08:21:56Z</time>
      </trkpt>
      <trkpt lat="43.00952" lon="0.61492">
        <ele>466</ele>
        <time>2025-06-11T08:25:10Z</time>
      </trkpt>
      <trkpt lat="43.00971" lon="0.61505">
        <ele>465</ele>
        <time>2025-06-11T08:25:27Z</time>
      </trkpt>
      <trkpt lat="43.01014" lon="0.61524">
        <ele>466</ele>
        <time>2025-06-11T08:26:03Z</time>
      </trkpt>
      <trkpt lat="43.01043" lon="0.6153">
        <ele>464</ele>
        <time>2025-06-11T08:26:27Z</time>
      </trkpt>
      <trkpt lat="43.01073" lon="0.61532">
        <ele>464</ele>
        <time>2025-06-11T08:26:51Z</time>
      </trkpt>
      <trkpt lat="43.01149" lon="0.61536">
        <ele>462</ele>
        <time>2025-06-11T08:27:52Z</time>
      </trkpt>
      <trkpt lat="43.0118" lon="0.61535">
        <ele>461</ele>
        <time>2025-06-11T08:28:16Z</time>
      </trkpt>
      <trkpt lat="43.01209" lon="0.6153">
        <ele>460</ele>
        <time>2025-06-11T08:28:40Z</time>
      </trkpt>
      <trkpt lat="43.01229" lon="0.61523">
        <ele>460</ele>
        <time>2025-06-11T08:28:56Z</time>
      </trkpt>
      <trkpt lat="43.01245" lon="0.61513">
        <ele>460</ele>
        <time>2025-06-11T08:29:10Z</time>
      </trkpt>
      <trkpt lat="43.01348" lon="0.61435">
        <ele>465</ele>
        <time>2025-06-11T08:30:45Z</time>
      </trkpt>
      <trkpt lat="43.01369" lon="0.6142">
        <ele>464</ele>
        <time>2025-06-11T08:31:04Z</time>
      </trkpt>
      <trkpt lat="43.01409" lon="0.61392">
        <ele>458</ele>
        <time>2025-06-11T08:31:40Z</time>
      </trkpt>
      <trkpt lat="43.01441" lon="0.6137">
        <ele>455</ele>
        <time>2025-06-11T08:32:08Z</time>
      </trkpt>
      <trkpt lat="43.01447" lon="0.61366">
        <ele>455</ele>
        <time>2025-06-11T08:32:14Z</time>
      </trkpt>
      <trkpt lat="43.01478" lon="0.61335">
        <ele>453</ele>
        <time>2025-06-11T08:32:44Z</time>
      </trkpt>
      <trkpt lat="43.01483" lon="0.61329">
        <ele>452</ele>
        <time>2025-06-11T08:32:50Z</time>
      </trkpt>
      <trkpt lat="43.01513" lon="0.61295">
        <ele>451</ele>
        <time>2025-06-11T08:33:21Z</time>
      </trkpt>
      <trkpt lat="43.01542" lon="0.61278">
        <ele>451</ele>
        <time>2025-06-11T08:33:46Z</time>
      </trkpt>
      <trkpt lat="43.01587" lon="0.61256">
        <ele>450</ele>
        <time>2025-06-11T08:34:24Z</time>
      </trkpt>
      <trkpt lat="43.017" lon="0.61203">
        <ele>448</ele>
        <time>2025-06-11T08:36:00Z</time>
      </trkpt>
      <trkpt lat="43.01745" lon="0.61181">
        <ele>448</ele>
        <time>2025-06-11T08:36:38Z</time>
      </trkpt>
      <trkpt lat="43.01768" lon="0.6117">
        <ele>447</ele>
        <time>2025-06-11T08:36:58Z</time>
      </trkpt>
      <trkpt lat="43.01871" lon="0.61123">
        <ele>446</ele>
        <time>2025-06-11T08:38:25Z</time>
      </trkpt>
      <trkpt lat="43.0188" lon="0.6112">
        <ele>446</ele>
        <time>2025-06-11T08:38:32Z</time>
      </trkpt>
      <trkpt lat="43.01896" lon="0.61111">
        <ele>446</ele>
        <time>2025-06-11T08:38:46Z</time>
      </trkpt>
      <trkpt lat="43.01912" lon="0.61104">
        <ele>446</ele>
        <time>2025-06-11T08:39:00Z</time>
      </trkpt>
      <trkpt lat="43.01921" lon="0.61098">
        <ele>446</ele>
        <time>2025-06-11T08:39:08Z</time>
      </trkpt>
      <trkpt lat="43.01979" lon="0.61063">
        <ele>446</ele>
        <time>2025-06-11T08:39:58Z</time>
      </trkpt>
      <trkpt lat="43.02042" lon="0.61026">
        <ele>446</ele>
        <time>2025-06-11T08:40:53Z</time>
      </trkpt>
      <trkpt lat="43.02084" lon="0.61001">
        <ele>447</ele>
        <time>2025-06-11T08:41:30Z</time>
      </trkpt>
      <trkpt lat="43.02095" lon="0.60993">
        <ele>447</ele>
        <time>2025-06-11T08:41:40Z</time>
      </trkpt>
      <trkpt lat="43.02108" lon="0.60982">
        <ele>447</ele>
        <time>2025-06-11T08:41:52Z</time>
      </trkpt>
      <trkpt lat="43.02114" lon="0.60976">
        <ele>446</ele>
        <time>2025-06-11T08:41:58Z</time>
      </trkpt>
      <trkpt lat="43.02117" lon="0.60972">
        <ele>446</ele>
        <time>2025-06-11T08:42:01Z</time>
      </trkpt>
      <trkpt lat="43.02139" lon="0.60939">
        <ele>447</ele>
        <time>2025-06-11T08:42:28Z</time>
      </trkpt>
      <trkpt lat="43.02155" lon="0.60914">
        <ele>447</ele>
        <time>2025-06-11T08:42:47Z</time>
      </trkpt>
      <trkpt lat="43.02163" lon="0.60901">
        <ele>447</ele>
        <time>2025-06-11T08:42:57Z</time>
      </trkpt>
      <trkpt lat="43.02165" lon="0.60897">
        <ele>447</ele>
        <time>2025-06-11T08:43:00Z</time>
      </trkpt>
      <trkpt lat="43.02173" lon="0.60885">
        <ele>447</ele>
        <time>2025-06-11T08:43:09Z</time>
      </trkpt>
      <trkpt lat="43.02255" lon="0.60777">
        <ele>446</ele>
        <time>2025-06-11T08:44:40Z</time>
      </trkpt>
      <trkpt lat="43.02285" lon="0.60739">
        <ele>446</ele>
        <time>2025-06-11T08:45:13Z</time>
      </trkpt>
      <trkpt lat="43.02292" lon="0.6073">
        <ele>446</ele>
        <time>2025-06-11T08:45:21Z</time>
      </trkpt>
      <trkpt lat="43.02309" lon="0.60704">
        <ele>446</ele>
        <time>2025-06-11T08:45:41Z</time>
      </trkpt>
      <trkpt lat="43.02341" lon="0.6065">
        <ele>447</ele>
        <time>2025-06-11T08:46:22Z</time>
      </trkpt>
      <trkpt lat="43.02347" lon="0.60646">
        <ele>447</ele>
        <time>2025-06-11T08:46:27Z</time>
      </trkpt>
      <trkpt lat="43.02353" lon="0.60638">
        <ele>447</ele>
        <time>2025-06-11T08:46:34Z</time>
      </trkpt>
      <trkpt lat="43.02364" lon="0.60625">
        <ele>447</ele>
        <time>2025-06-11T08:46:46Z</time>
      </trkpt>
      <trkpt lat="43.02388" lon="0.60592">
        <ele>448</ele>
        <time>2025-06-11T08:47:13Z</time>
      </trkpt>
      <trkpt lat="43.02401" lon="0.60582">
        <ele>448</ele>
        <time>2025-06-11T08:47:25Z</time>
      </trkpt>
      <trkpt lat="43.02416" lon="0.60576">
        <ele>448</ele>
        <time>2025-06-11T08:47:37Z</time>
      </trkpt>
      <trkpt lat="43.02444" lon="0.60571">
        <ele>447</ele>
        <time>2025-06-11T08:48:00Z</time>
      </trkpt>
    </trkseg>
  </trk>
</gpx>